<?xml version='1.0' encoding='UTF-8'?><gpx version="1.1" creator="JPX - https://github.com/jenetics/jpx" xmlns="http://www.topografix.com/GPX/1/1"><trk><trkseg><trkpt lat="45.90901413176991" lon="11.908073708115811"><ele>294.0</ele><time>2026-05-03T15:02:12Z</time></trkpt><trkpt lat="45.90902646892283" lon="11.908179171595748"><ele>294.0</ele><time>2026-05-03T15:02:41Z</time></trkpt><trkpt lat="45.9090632829845" lon="11.908282058832471"><ele>294.0</ele><time>2026-05-03T15:02:43Z</time></trkpt><trkpt lat="45.909089322437154" lon="11.908403781702555"><ele>294.0</ele><time>2026-05-03T15:02:45Z</time></trkpt><trkpt lat="45.90909631944678" lon="11.90855016986538"><ele>294.0</ele><time>2026-05-03T15:02:47Z</time></trkpt><trkpt lat="45.90900079134446" lon="11.90865293847228"><ele>293.5</ele><time>2026-05-03T15:02:49Z</time></trkpt><trkpt lat="45.9089313460052" lon="11.908688306384722"><ele>293.0</ele><time>2026-05-03T15:02:50Z</time></trkpt><trkpt lat="45.90886285040017" lon="11.90870189989687"><ele>292.5</ele><time>2026-05-03T15:02:51Z</time></trkpt><trkpt lat="45.908803650455" lon="11.908739752685953"><ele>292.0</ele><time>2026-05-03T15:02:52Z</time></trkpt><trkpt lat="45.90871001627137" lon="11.908755788998032"><ele>291.5</ele><time>2026-05-03T15:02:53Z</time></trkpt><trkpt lat="45.908627927985485" lon="11.908785876129794"><ele>291.0</ele><time>2026-05-03T15:02:54Z</time></trkpt><trkpt lat="45.908549588161314" lon="11.908816399733599"><ele>291.0</ele><time>2026-05-03T15:02:55Z</time></trkpt><trkpt lat="45.90848234242342" lon="11.908846311622368"><ele>291.0</ele><time>2026-05-03T15:02:56Z</time></trkpt><trkpt lat="45.9083846521382" lon="11.908881613689239"><ele>291.0</ele><time>2026-05-03T15:02:57Z</time></trkpt><trkpt lat="45.90830422882051" lon="11.908906273443767"><ele>291.0</ele><time>2026-05-03T15:02:58Z</time></trkpt><trkpt lat="45.908239441938676" lon="11.908932664996966"><ele>291.0</ele><time>2026-05-03T15:02:59Z</time></trkpt><trkpt lat="45.908175579681" lon="11.908962906003348"><ele>291.0</ele><time>2026-05-03T15:03:00Z</time></trkpt><trkpt lat="45.908129057282785" lon="11.909048386564308"><ele>291.1666666666667</ele><time>2026-05-03T15:03:01Z</time></trkpt><trkpt lat="45.90805950611299" lon="11.90904325491685"><ele>291.3333333333333</ele><time>2026-05-03T15:03:04Z</time></trkpt><trkpt lat="45.90802459042297" lon="11.909145454327732"><ele>291.5</ele><time>2026-05-03T15:03:06Z</time></trkpt><trkpt lat="45.90802989422591" lon="11.909241303963533"><ele>291.66666666666663</ele><time>2026-05-03T15:03:07Z</time></trkpt><trkpt lat="45.9080441168772" lon="11.90933782769922"><ele>291.8333333333333</ele><time>2026-05-03T15:03:08Z</time></trkpt><trkpt lat="45.90806746775108" lon="11.909455021716639"><ele>292.0</ele><time>2026-05-03T15:03:09Z</time></trkpt><trkpt lat="45.90809185624715" lon="11.909581187853806"><ele>292.0</ele><time>2026-05-03T15:03:10Z</time></trkpt><trkpt lat="45.90811570356498" lon="11.9097052607473"><ele>292.0</ele><time>2026-05-03T15:03:11Z</time></trkpt><trkpt lat="45.908140448335914" lon="11.9098092349963"><ele>292.0</ele><time>2026-05-03T15:03:12Z</time></trkpt><trkpt lat="45.908181418171814" lon="11.909947285162788"><ele>292.0</ele><time>2026-05-03T15:03:13Z</time></trkpt><trkpt lat="45.908227583342445" lon="11.910085102209676"><ele>292.0</ele><time>2026-05-03T15:03:14Z</time></trkpt><trkpt lat="45.90826999302829" lon="11.910238123873427"><ele>291.25</ele><time>2026-05-03T15:03:15Z</time></trkpt><trkpt lat="45.90831495155628" lon="11.910412015448463"><ele>290.5</ele><time>2026-05-03T15:03:16Z</time></trkpt><trkpt lat="45.908357052838326" lon="11.91059293189891"><ele>289.75</ele><time>2026-05-03T15:03:17Z</time></trkpt><trkpt lat="45.90839558826798" lon="11.91073236684939"><ele>289.0</ele><time>2026-05-03T15:03:18Z</time></trkpt><trkpt lat="45.908438462746474" lon="11.910890072377942"><ele>286.75</ele><time>2026-05-03T15:03:19Z</time></trkpt><trkpt lat="45.908481810785375" lon="11.9110514390394"><ele>284.5</ele><time>2026-05-03T15:03:20Z</time></trkpt><trkpt lat="45.90852015168729" lon="11.911211312562218"><ele>282.25</ele><time>2026-05-03T15:03:21Z</time></trkpt><trkpt lat="45.90855652630355" lon="11.911363009242566"><ele>280.0</ele><time>2026-05-03T15:03:22Z</time></trkpt><trkpt lat="45.90858406197398" lon="11.911519853947816"><ele>280.0</ele><time>2026-05-03T15:03:23Z</time></trkpt><trkpt lat="45.90861756135119" lon="11.911677761344196"><ele>280.0</ele><time>2026-05-03T15:03:24Z</time></trkpt><trkpt lat="45.90864954563015" lon="11.91183148894493"><ele>280.0</ele><time>2026-05-03T15:03:25Z</time></trkpt><trkpt lat="45.90868516625148" lon="11.911966870780033"><ele>280.0</ele><time>2026-05-03T15:03:26Z</time></trkpt><trkpt lat="45.90869677160166" lon="11.912108539587418"><ele>280.0</ele><time>2026-05-03T15:03:27Z</time></trkpt><trkpt lat="45.90870846061028" lon="11.912249854527229"><ele>279.4</ele><time>2026-05-03T15:03:28Z</time></trkpt><trkpt lat="45.9087233522156" lon="11.912386399415265"><ele>278.8</ele><time>2026-05-03T15:03:29Z</time></trkpt><trkpt lat="45.9087466327743" lon="11.912531676696949"><ele>278.2</ele><time>2026-05-03T15:03:30Z</time></trkpt><trkpt lat="45.90876909480376" lon="11.912674271894806"><ele>277.6</ele><time>2026-05-03T15:03:31Z</time></trkpt><trkpt lat="45.90879825935854" lon="11.912832748650622"><ele>277.0</ele><time>2026-05-03T15:03:32Z</time></trkpt><trkpt lat="45.90882633950051" lon="11.912970183475906"><ele>276.6</ele><time>2026-05-03T15:03:33Z</time></trkpt><trkpt lat="45.9088623924893" lon="11.9131015773775"><ele>276.2</ele><time>2026-05-03T15:03:34Z</time></trkpt><trkpt lat="45.90888727438649" lon="11.913252518158147"><ele>275.8</ele><time>2026-05-03T15:03:35Z</time></trkpt><trkpt lat="45.90891820697074" lon="11.913394884370895"><ele>275.4</ele><time>2026-05-03T15:03:36Z</time></trkpt><trkpt lat="45.908948269395765" lon="11.913554751130022"><ele>275.0</ele><time>2026-05-03T15:03:37Z</time></trkpt><trkpt lat="45.90898020673415" lon="11.91368983394053"><ele>274.4</ele><time>2026-05-03T15:03:38Z</time></trkpt><trkpt lat="45.909007152336194" lon="11.913824348257364"><ele>273.8</ele><time>2026-05-03T15:03:39Z</time></trkpt><trkpt lat="45.90903181642216" lon="11.91396639083699"><ele>273.2</ele><time>2026-05-03T15:03:40Z</time></trkpt><trkpt lat="45.90907400103873" lon="11.914106700165638"><ele>272.6</ele><time>2026-05-03T15:03:41Z</time></trkpt><trkpt lat="45.90916022560973" lon="11.914193111502993"><ele>272.0</ele><time>2026-05-03T15:03:42Z</time></trkpt><trkpt lat="45.90925935321623" lon="11.914256612621722"><ele>270.25</ele><time>2026-05-03T15:03:43Z</time></trkpt><trkpt lat="45.909378074894036" lon="11.914321160967052"><ele>268.5</ele><time>2026-05-03T15:03:44Z</time></trkpt><trkpt lat="45.90952397496439" lon="11.914359882918074"><ele>266.75</ele><time>2026-05-03T15:03:45Z</time></trkpt><trkpt lat="45.909657534690076" lon="11.914434447791647"><ele>265.0</ele><time>2026-05-03T15:03:46Z</time></trkpt><trkpt lat="45.90978435454103" lon="11.914475387509778"><ele>265.0</ele><time>2026-05-03T15:03:47Z</time></trkpt><trkpt lat="45.90987202117702" lon="11.914520085182106"><ele>265.0</ele><time>2026-05-03T15:03:48Z</time></trkpt><trkpt lat="45.90997406100018" lon="11.91452643759522"><ele>265.0</ele><time>2026-05-03T15:03:49Z</time></trkpt><trkpt lat="45.91010707303315" lon="11.914531002736451"><ele>265.0</ele><time>2026-05-03T15:03:50Z</time></trkpt><trkpt lat="45.91021696344493" lon="11.914528855797805"><ele>265.0</ele><time>2026-05-03T15:03:51Z</time></trkpt><trkpt lat="45.91034817640564" lon="11.91451180557954"><ele>263.0</ele><time>2026-05-03T15:03:51.999Z</time></trkpt><trkpt lat="45.910477508481556" lon="11.914504438967082"><ele>261.0</ele><time>2026-05-03T15:03:52.999Z</time></trkpt><trkpt lat="45.910618165103976" lon="11.914507074460982"><ele>259.0</ele><time>2026-05-03T15:03:53.999Z</time></trkpt><trkpt lat="45.910746708856514" lon="11.914513930189369"><ele>257.0</ele><time>2026-05-03T15:03:54.999Z</time></trkpt><trkpt lat="45.910879451821124" lon="11.914558498007418"><ele>258.0</ele><time>2026-05-03T15:03:55.999Z</time></trkpt><trkpt lat="45.91099148347148" lon="11.914627751043982"><ele>259.0</ele><time>2026-05-03T15:03:56.999Z</time></trkpt><trkpt lat="45.91109712048272" lon="11.914731371571044"><ele>260.0</ele><time>2026-05-03T15:03:57.999Z</time></trkpt><trkpt lat="45.911202772197655" lon="11.914831080584879"><ele>261.0</ele><time>2026-05-03T15:03:58.999Z</time></trkpt><trkpt lat="45.91129737273139" lon="11.914913180806872"><ele>261.0</ele><time>2026-05-03T15:03:59.999Z</time></trkpt><trkpt lat="45.91135678389824" lon="11.915011833536283"><ele>261.0</ele><time>2026-05-03T15:04:00.999Z</time></trkpt><trkpt lat="45.91139164038881" lon="11.915157160034363"><ele>261.0</ele><time>2026-05-03T15:04:01.999Z</time></trkpt><trkpt lat="45.91144013679187" lon="11.915297738803773"><ele>261.0</ele><time>2026-05-03T15:04:02.999Z</time></trkpt><trkpt lat="45.911461612849735" lon="11.91551739060332"><ele>262.0</ele><time>2026-05-03T15:04:03.999Z</time></trkpt><trkpt lat="45.911375532704824" lon="11.9157244689293"><ele>263.0</ele><time>2026-05-03T15:04:04.999Z</time></trkpt><trkpt lat="45.911278763834744" lon="11.915917927503719"><ele>264.0</ele><time>2026-05-03T15:04:05.999Z</time></trkpt><trkpt lat="45.91121000070766" lon="11.91610669572128"><ele>264.0</ele><time>2026-05-03T15:04:06.999Z</time></trkpt><trkpt lat="45.9111366395546" lon="11.916287373074505"><ele>264.0</ele><time>2026-05-03T15:04:07.999Z</time></trkpt><trkpt lat="45.911055023667025" lon="11.916457298244481"><ele>264.0</ele><time>2026-05-03T15:04:08.999Z</time></trkpt><trkpt lat="45.91096255375557" lon="11.916618623750232"><ele>264.0</ele><time>2026-05-03T15:04:09.999Z</time></trkpt><trkpt lat="45.91086423486341" lon="11.91679588655397"><ele>261.25</ele><time>2026-05-03T15:04:10.999Z</time></trkpt><trkpt lat="45.910787624501246" lon="11.916965663775722"><ele>258.5</ele><time>2026-05-03T15:04:11.999Z</time></trkpt><trkpt lat="45.91068715053666" lon="11.917140995355341"><ele>255.75</ele><time>2026-05-03T15:04:12.999Z</time></trkpt><trkpt lat="45.9106264491614" lon="11.917325025754275"><ele>253.0</ele><time>2026-05-03T15:04:13.999Z</time></trkpt><trkpt lat="45.91056150684053" lon="11.91752353703201"><ele>253.33333333333331</ele><time>2026-05-03T15:04:14.999Z</time></trkpt><trkpt lat="45.91050598113234" lon="11.917724579094505"><ele>253.66666666666669</ele><time>2026-05-03T15:04:15.999Z</time></trkpt><trkpt lat="45.91045477498101" lon="11.91793695934191"><ele>254.0</ele><time>2026-05-03T15:04:16.999Z</time></trkpt><trkpt lat="45.91039723338967" lon="11.918133084111904"><ele>254.0</ele><time>2026-05-03T15:04:18.001Z</time></trkpt><trkpt lat="45.91035270057812" lon="11.918343200438557"><ele>254.0</ele><time>2026-05-03T15:04:19.001Z</time></trkpt><trkpt lat="45.91030726724884" lon="11.918550139259585"><ele>254.0</ele><time>2026-05-03T15:04:20.001Z</time></trkpt><trkpt lat="45.910242239520194" lon="11.918748575790676"><ele>253.66666666666669</ele><time>2026-05-03T15:04:21.001Z</time></trkpt><trkpt lat="45.910188651140416" lon="11.918955338059526"><ele>253.33333333333331</ele><time>2026-05-03T15:04:22.001Z</time></trkpt><trkpt lat="45.91011102857315" lon="11.919159631811336"><ele>253.0</ele><time>2026-05-03T15:04:23Z</time></trkpt><trkpt lat="45.91003998759176" lon="11.919353879107442"><ele>248.66666666666666</ele><time>2026-05-03T15:04:24Z</time></trkpt><trkpt lat="45.90996251691427" lon="11.919558819498087"><ele>244.33333333333331</ele><time>2026-05-03T15:04:25Z</time></trkpt><trkpt lat="45.90987689443698" lon="11.919756674200956"><ele>240.0</ele><time>2026-05-03T15:04:26Z</time></trkpt><trkpt lat="45.90977918841818" lon="11.919965348010749"><ele>240.33333333333331</ele><time>2026-05-03T15:04:27Z</time></trkpt><trkpt lat="45.90970909516771" lon="11.920188423940575"><ele>240.66666666666666</ele><time>2026-05-03T15:04:28Z</time></trkpt><trkpt lat="45.909613110327435" lon="11.920396455725959"><ele>241.0</ele><time>2026-05-03T15:04:29Z</time></trkpt><trkpt lat="45.90952150936478" lon="11.920597876621976"><ele>241.0</ele><time>2026-05-03T15:04:30Z</time></trkpt><trkpt lat="45.909434163307786" lon="11.920811924983878"><ele>241.0</ele><time>2026-05-03T15:04:31Z</time></trkpt><trkpt lat="45.90934744991315" lon="11.92100677980355"><ele>241.0</ele><time>2026-05-03T15:04:32Z</time></trkpt><trkpt lat="45.90926290243981" lon="11.921210073924142"><ele>239.0</ele><time>2026-05-03T15:04:33Z</time></trkpt><trkpt lat="45.909157736136954" lon="11.921437892400347"><ele>237.0</ele><time>2026-05-03T15:04:34Z</time></trkpt><trkpt lat="45.9090609684383" lon="11.921638145815335"><ele>235.0</ele><time>2026-05-03T15:04:35Z</time></trkpt><trkpt lat="45.908979069167884" lon="11.921855238230817"><ele>235.0</ele><time>2026-05-03T15:04:36Z</time></trkpt><trkpt lat="45.90891338254182" lon="11.922072487815601"><ele>235.0</ele><time>2026-05-03T15:04:37Z</time></trkpt><trkpt lat="45.90885163923466" lon="11.92227782433726"><ele>235.0</ele><time>2026-05-03T15:04:38Z</time></trkpt><trkpt lat="45.90879386513304" lon="11.922493067249393"><ele>235.33333333333331</ele><time>2026-05-03T15:04:39Z</time></trkpt><trkpt lat="45.908734002999864" lon="11.922702927460742"><ele>235.66666666666669</ele><time>2026-05-03T15:04:40Z</time></trkpt><trkpt lat="45.908684594014375" lon="11.92291314242681"><ele>236.0</ele><time>2026-05-03T15:04:41Z</time></trkpt><trkpt lat="45.90863264725688" lon="11.923129501358009"><ele>236.0</ele><time>2026-05-03T15:04:42Z</time></trkpt><trkpt lat="45.90858363179291" lon="11.92334279995274"><ele>236.0</ele><time>2026-05-03T15:04:43Z</time></trkpt><trkpt lat="45.90854241324113" lon="11.923572164457765"><ele>236.0</ele><time>2026-05-03T15:04:44Z</time></trkpt><trkpt lat="45.908496769711775" lon="11.92379508056213"><ele>234.0</ele><time>2026-05-03T15:04:45Z</time></trkpt><trkpt lat="45.90846141989227" lon="11.924022165150038"><ele>232.0</ele><time>2026-05-03T15:04:46Z</time></trkpt><trkpt lat="45.90844882829794" lon="11.924261694832321"><ele>230.0</ele><time>2026-05-03T15:04:47Z</time></trkpt><trkpt lat="45.90845279107349" lon="11.92448905498256"><ele>229.66666666666669</ele><time>2026-05-03T15:04:48Z</time></trkpt><trkpt lat="45.90846600359374" lon="11.92471508051322"><ele>229.33333333333331</ele><time>2026-05-03T15:04:49Z</time></trkpt><trkpt lat="45.90846670224362" lon="11.92494764643863"><ele>229.0</ele><time>2026-05-03T15:04:50Z</time></trkpt><trkpt lat="45.908468930120684" lon="11.925174129856758"><ele>229.0</ele><time>2026-05-03T15:04:51Z</time></trkpt><trkpt lat="45.908471558732565" lon="11.925389933452363"><ele>229.0</ele><time>2026-05-03T15:04:52Z</time></trkpt><trkpt lat="45.90847729537504" lon="11.925608156219289"><ele>229.0</ele><time>2026-05-03T15:04:53Z</time></trkpt><trkpt lat="45.90847540821685" lon="11.925826183964938"><ele>228.33333333333331</ele><time>2026-05-03T15:04:54Z</time></trkpt><trkpt lat="45.90848062358231" lon="11.92604065833787"><ele>227.66666666666669</ele><time>2026-05-03T15:04:55Z</time></trkpt><trkpt lat="45.90847479410388" lon="11.926259011723474"><ele>227.0</ele><time>2026-05-03T15:04:56Z</time></trkpt><trkpt lat="45.90848245326303" lon="11.92647872194209"><ele>227.0</ele><time>2026-05-03T15:04:57Z</time></trkpt><trkpt lat="45.90851078927718" lon="11.926675711145204"><ele>227.0</ele><time>2026-05-03T15:04:58Z</time></trkpt><trkpt lat="45.90849461426451" lon="11.926909520803266"><ele>227.0</ele><time>2026-05-03T15:04:59Z</time></trkpt><trkpt lat="45.90849313686285" lon="11.927137272273072"><ele>224.66666666666669</ele><time>2026-05-03T15:05:00Z</time></trkpt><trkpt lat="45.90848513552143" lon="11.927364374497936"><ele>222.33333333333331</ele><time>2026-05-03T15:05:01Z</time></trkpt><trkpt lat="45.90848649231493" lon="11.927581086348253"><ele>220.0</ele><time>2026-05-03T15:05:02Z</time></trkpt><trkpt lat="45.908463838963776" lon="11.927806032271253"><ele>216.0</ele><time>2026-05-03T15:05:03Z</time></trkpt><trkpt lat="45.90844999972222" lon="11.92802901729254"><ele>212.0</ele><time>2026-05-03T15:05:04Z</time></trkpt><trkpt lat="45.90841714593307" lon="11.928264149593511"><ele>208.0</ele><time>2026-05-03T15:05:05Z</time></trkpt><trkpt lat="45.9084009882552" lon="11.92848475851556"><ele>207.0</ele><time>2026-05-03T15:05:06Z</time></trkpt><trkpt lat="45.90839865668958" lon="11.928707803911701"><ele>206.0</ele><time>2026-05-03T15:05:07Z</time></trkpt><trkpt lat="45.90840903694853" lon="11.92893186802371"><ele>205.0</ele><time>2026-05-03T15:05:08Z</time></trkpt><trkpt lat="45.90842184176343" lon="11.92916852361563"><ele>204.33333333333331</ele><time>2026-05-03T15:05:09Z</time></trkpt><trkpt lat="45.908453575542616" lon="11.929397412894966"><ele>203.66666666666669</ele><time>2026-05-03T15:05:10Z</time></trkpt><trkpt lat="45.90849113348046" lon="11.929632218809706"><ele>203.0</ele><time>2026-05-03T15:05:11Z</time></trkpt><trkpt lat="45.908541941660594" lon="11.929846503439975"><ele>203.0</ele><time>2026-05-03T15:05:12Z</time></trkpt><trkpt lat="45.90860335788144" lon="11.930046703386664"><ele>203.0</ele><time>2026-05-03T15:05:13Z</time></trkpt><trkpt lat="45.90866551586652" lon="11.930267196379459"><ele>203.0</ele><time>2026-05-03T15:05:14Z</time></trkpt><trkpt lat="45.908734761726826" lon="11.930467442211352"><ele>201.0</ele><time>2026-05-03T15:05:15Z</time></trkpt><trkpt lat="45.908797119335766" lon="11.930691049077138"><ele>199.0</ele><time>2026-05-03T15:05:16Z</time></trkpt><trkpt lat="45.908847861292664" lon="11.930899555950052"><ele>197.0</ele><time>2026-05-03T15:05:17Z</time></trkpt><trkpt lat="45.90889793616575" lon="11.93109451957397"><ele>196.25</ele><time>2026-05-03T15:05:18Z</time></trkpt><trkpt lat="45.908948351247375" lon="11.93129051751051"><ele>195.5</ele><time>2026-05-03T15:05:19Z</time></trkpt><trkpt lat="45.908998208782975" lon="11.931477691513507"><ele>194.75</ele><time>2026-05-03T15:05:20Z</time></trkpt><trkpt lat="45.909037535935816" lon="11.931653876250968"><ele>194.0</ele><time>2026-05-03T15:05:21Z</time></trkpt><trkpt lat="45.90908302819532" lon="11.931817405605234"><ele>193.25</ele><time>2026-05-03T15:05:22Z</time></trkpt><trkpt lat="45.909117406685105" lon="11.931981187313143"><ele>192.5</ele><time>2026-05-03T15:05:23Z</time></trkpt><trkpt lat="45.909109340967234" lon="11.932135270533768"><ele>191.75</ele><time>2026-05-03T15:05:24Z</time></trkpt><trkpt lat="45.90904640294087" lon="11.932274853561587"><ele>191.0</ele><time>2026-05-03T15:05:25Z</time></trkpt><trkpt lat="45.90896309322379" lon="11.932408713599742"><ele>191.0</ele><time>2026-05-03T15:05:26Z</time></trkpt><trkpt lat="45.90887548053319" lon="11.932549575499609"><ele>191.0</ele><time>2026-05-03T15:05:27Z</time></trkpt><trkpt lat="45.90879082051633" lon="11.932700691197118"><ele>191.0</ele><time>2026-05-03T15:05:28Z</time></trkpt><trkpt lat="45.90871674438027" lon="11.93286083746214"><ele>191.0</ele><time>2026-05-03T15:05:29Z</time></trkpt><trkpt lat="45.90864327898896" lon="11.93303135996443"><ele>191.5</ele><time>2026-05-03T15:05:30Z</time></trkpt><trkpt lat="45.90856399544167" lon="11.933196992306298"><ele>192.0</ele><time>2026-05-03T15:05:31Z</time></trkpt><trkpt lat="45.90848537382158" lon="11.93335515552283"><ele>192.5</ele><time>2026-05-03T15:05:32Z</time></trkpt><trkpt lat="45.908392277849984" lon="11.933502819051295"><ele>193.0</ele><time>2026-05-03T15:05:32.999Z</time></trkpt><trkpt lat="45.9083049025703" lon="11.93363341809645"><ele>193.16666666666666</ele><time>2026-05-03T15:05:33.999Z</time></trkpt><trkpt lat="45.90823294062645" lon="11.933741015531705"><ele>193.33333333333331</ele><time>2026-05-03T15:05:34.999Z</time></trkpt><trkpt lat="45.90817111285824" lon="11.933842536473646"><ele>193.5</ele><time>2026-05-03T15:05:35.999Z</time></trkpt><trkpt lat="45.90811888213674" lon="11.933939955720831"><ele>193.66666666666669</ele><time>2026-05-03T15:05:36.999Z</time></trkpt><trkpt lat="45.908077336927285" lon="11.934026436199026"><ele>193.83333333333334</ele><time>2026-05-03T15:05:37.999Z</time></trkpt><trkpt lat="45.90801273865378" lon="11.934088065923453"><ele>194.0</ele><time>2026-05-03T15:05:40.999Z</time></trkpt><trkpt lat="45.90789823978229" lon="11.93415753747837"><ele>194.0</ele><time>2026-05-03T15:05:42.999Z</time></trkpt><trkpt lat="45.90783312670518" lon="11.934217800827291"><ele>194.0</ele><time>2026-05-03T15:05:43.999Z</time></trkpt><trkpt lat="45.90776716197739" lon="11.934314616689742"><ele>194.0</ele><time>2026-05-03T15:05:44.999Z</time></trkpt><trkpt lat="45.90769941537817" lon="11.934429709811994"><ele>194.0</ele><time>2026-05-03T15:05:45.999Z</time></trkpt><trkpt lat="45.9076432208352" lon="11.93455847167505"><ele>194.0</ele><time>2026-05-03T15:05:46.999Z</time></trkpt><trkpt lat="45.90758836344544" lon="11.93467792667564"><ele>194.75</ele><time>2026-05-03T15:05:47.999Z</time></trkpt><trkpt lat="45.907524451452254" lon="11.934812973070779"><ele>195.5</ele><time>2026-05-03T15:05:48.999Z</time></trkpt><trkpt lat="45.90746235304213" lon="11.934962422414195"><ele>196.25</ele><time>2026-05-03T15:05:49.999Z</time></trkpt><trkpt lat="45.90738522957624" lon="11.935103502661507"><ele>197.0</ele><time>2026-05-03T15:05:50.999Z</time></trkpt><trkpt lat="45.90730735140297" lon="11.935247681507377"><ele>195.25</ele><time>2026-05-03T15:05:51.999Z</time></trkpt><trkpt lat="45.907240724668604" lon="11.935408967078118"><ele>193.5</ele><time>2026-05-03T15:05:52.999Z</time></trkpt><trkpt lat="45.90716865797971" lon="11.935567206225791"><ele>191.75</ele><time>2026-05-03T15:05:53.999Z</time></trkpt><trkpt lat="45.90709188743033" lon="11.935725842556371"><ele>190.0</ele><time>2026-05-03T15:05:54.999Z</time></trkpt><trkpt lat="45.90701740780922" lon="11.935876586899196"><ele>190.75</ele><time>2026-05-03T15:05:55.999Z</time></trkpt><trkpt lat="45.906937925472434" lon="11.93604265305555"><ele>191.5</ele><time>2026-05-03T15:05:56.999Z</time></trkpt><trkpt lat="45.906856004540955" lon="11.936197678728382"><ele>192.25</ele><time>2026-05-03T15:05:57.999Z</time></trkpt><trkpt lat="45.90676859044087" lon="11.936361950876913"><ele>193.0</ele><time>2026-05-03T15:05:58.999Z</time></trkpt><trkpt lat="45.90666848934668" lon="11.936518277002941"><ele>193.0</ele><time>2026-05-03T15:05:59.999Z</time></trkpt><trkpt lat="45.906572290331326" lon="11.936667672164583"><ele>193.0</ele><time>2026-05-03T15:06:00.999Z</time></trkpt><trkpt lat="45.90647042247654" lon="11.936820229037432"><ele>193.0</ele><time>2026-05-03T15:06:01.999Z</time></trkpt><trkpt lat="45.90635861494921" lon="11.936977246001824"><ele>193.0</ele><time>2026-05-03T15:06:02.999Z</time></trkpt><trkpt lat="45.906254104326024" lon="11.93713469233929"><ele>191.0</ele><time>2026-05-03T15:06:03.999Z</time></trkpt><trkpt lat="45.90616965483145" lon="11.937320672887541"><ele>189.0</ele><time>2026-05-03T15:06:04.999Z</time></trkpt><trkpt lat="45.90609054279618" lon="11.937516558329817"><ele>187.0</ele><time>2026-05-03T15:06:05.999Z</time></trkpt><trkpt lat="45.90602164726737" lon="11.937722664299704"><ele>186.0</ele><time>2026-05-03T15:06:06.999Z</time></trkpt><trkpt lat="45.905944264459805" lon="11.937931935745553"><ele>185.0</ele><time>2026-05-03T15:06:07.999Z</time></trkpt><trkpt lat="45.90586351066835" lon="11.938149628340495"><ele>184.0</ele><time>2026-05-03T15:06:08.999Z</time></trkpt><trkpt lat="45.90578373965678" lon="11.938360575113382"><ele>185.0</ele><time>2026-05-03T15:06:09.999Z</time></trkpt><trkpt lat="45.90569906157803" lon="11.938562748628193"><ele>186.0</ele><time>2026-05-03T15:06:10.999Z</time></trkpt><trkpt lat="45.90563785542179" lon="11.938747287472925"><ele>187.0</ele><time>2026-05-03T15:06:11.999Z</time></trkpt><trkpt lat="45.9055808130959" lon="11.938944655031122"><ele>187.0</ele><time>2026-05-03T15:06:12.999Z</time></trkpt><trkpt lat="45.90554713680879" lon="11.939148716951012"><ele>187.0</ele><time>2026-05-03T15:06:13.999Z</time></trkpt><trkpt lat="45.9055377234314" lon="11.939359958322868"><ele>187.0</ele><time>2026-05-03T15:06:14.999Z</time></trkpt><trkpt lat="45.90552954118274" lon="11.939581099002705"><ele>187.0</ele><time>2026-05-03T15:06:15.999Z</time></trkpt><trkpt lat="45.905526152304326" lon="11.939799192549692"><ele>186.25</ele><time>2026-05-03T15:06:16.999Z</time></trkpt><trkpt lat="45.905516255556165" lon="11.939991684441646"><ele>185.5</ele><time>2026-05-03T15:06:17.999Z</time></trkpt><trkpt lat="45.905498673654435" lon="11.940173639645495"><ele>184.75</ele><time>2026-05-03T15:06:18.999Z</time></trkpt><trkpt lat="45.905458515839435" lon="11.940350607892531"><ele>184.0</ele><time>2026-05-03T15:06:19.999Z</time></trkpt><trkpt lat="45.90541652624162" lon="11.940492878196926"><ele>184.0</ele><time>2026-05-03T15:06:20.999Z</time></trkpt><trkpt lat="45.90537304457984" lon="11.940608373608583"><ele>184.0</ele><time>2026-05-03T15:06:21.999Z</time></trkpt><trkpt lat="45.9053374792022" lon="11.940698657364033"><ele>184.0</ele><time>2026-05-03T15:06:22.999Z</time></trkpt><trkpt lat="45.90527611449786" lon="11.940791015489102"><ele>184.0</ele><time>2026-05-03T15:06:25Z</time></trkpt><trkpt lat="45.905210139545495" lon="11.940840884193092"><ele>184.0</ele><time>2026-05-03T15:06:28Z</time></trkpt><trkpt lat="45.90512315583833" lon="11.940916333831032"><ele>184.0</ele><time>2026-05-03T15:06:30Z</time></trkpt><trkpt lat="45.90508137007501" lon="11.940999574411453"><ele>185.0</ele><time>2026-05-03T15:06:31Z</time></trkpt><trkpt lat="45.9050527288817" lon="11.941096335571013"><ele>186.0</ele><time>2026-05-03T15:06:32Z</time></trkpt><trkpt lat="45.90505047193879" lon="11.941271718971487"><ele>187.0</ele><time>2026-05-03T15:06:34Z</time></trkpt><trkpt lat="45.90498105713166" lon="11.941340599045775"><ele>188.0</ele><time>2026-05-03T15:06:35Z</time></trkpt><trkpt lat="45.90491575553" lon="11.941426166138681"><ele>189.0</ele><time>2026-05-03T15:06:37Z</time></trkpt><trkpt lat="45.90485598860824" lon="11.941474546584734"><ele>190.0</ele><time>2026-05-03T15:06:39Z</time></trkpt><trkpt lat="45.90479601120799" lon="11.9415142063554"><ele>190.0</ele><time>2026-05-03T15:06:41Z</time></trkpt><trkpt lat="45.904730799272805" lon="11.941535249819731"><ele>190.0</ele><time>2026-05-03T15:06:44Z</time></trkpt><trkpt lat="45.90466052168539" lon="11.94157631639886"><ele>190.0</ele><time>2026-05-03T15:06:47Z</time></trkpt><trkpt lat="45.904597212754574" lon="11.941570373705677"><ele>190.0</ele><time>2026-05-03T15:06:49Z</time></trkpt><trkpt lat="45.90454330232317" lon="11.941620705081904"><ele>190.0</ele><time>2026-05-03T15:06:51Z</time></trkpt><trkpt lat="45.904425505572746" lon="11.94165518394699"><ele>190.0</ele><time>2026-05-03T15:06:53Z</time></trkpt><trkpt lat="45.904305558664745" lon="11.941651755373769"><ele>189.83333333333334</ele><time>2026-05-03T15:06:55Z</time></trkpt><trkpt lat="45.90419799078365" lon="11.941705975010166"><ele>189.66666666666669</ele><time>2026-05-03T15:06:57Z</time></trkpt><trkpt lat="45.90413560362346" lon="11.941652252197102"><ele>189.5</ele><time>2026-05-03T15:06:58Z</time></trkpt><trkpt lat="45.90406654101913" lon="11.941695642744401"><ele>189.33333333333334</ele><time>2026-05-03T15:07:00Z</time></trkpt><trkpt lat="45.90400683580148" lon="11.941598382948989"><ele>189.16666666666666</ele><time>2026-05-03T15:12:20.999Z</time></trkpt><trkpt lat="45.90393596882291" lon="11.941675943930269"><ele>189.0</ele><time>2026-05-03T15:12:34.999Z</time></trkpt><trkpt lat="45.903895404725056" lon="11.94176239615919"><ele>189.0</ele><time>2026-05-03T15:12:36.999Z</time></trkpt><trkpt lat="45.90383923093943" lon="11.941885734596138"><ele>189.0</ele><time>2026-05-03T15:12:38.999Z</time></trkpt><trkpt lat="45.90370782873554" lon="11.941934080090597"><ele>189.0</ele><time>2026-05-03T15:12:40.999Z</time></trkpt><trkpt lat="45.903628609168486" lon="11.941966063644303"><ele>189.0</ele><time>2026-05-03T15:12:42Z</time></trkpt><trkpt lat="45.90353628511263" lon="11.942006365235791"><ele>189.0</ele><time>2026-05-03T15:12:43Z</time></trkpt><trkpt lat="45.90343828282755" lon="11.94205082495648"><ele>189.2</ele><time>2026-05-03T15:12:44Z</time></trkpt><trkpt lat="45.90335915581381" lon="11.94208999285517"><ele>189.39999999999998</ele><time>2026-05-03T15:12:45Z</time></trkpt><trkpt lat="45.903256429324976" lon="11.942153150528899"><ele>189.6</ele><time>2026-05-03T15:12:46Z</time></trkpt><trkpt lat="45.90315861247267" lon="11.94218655411379"><ele>189.8</ele><time>2026-05-03T15:12:47Z</time></trkpt><trkpt lat="45.90307237257395" lon="11.942228031571775"><ele>190.0</ele><time>2026-05-03T15:12:48Z</time></trkpt><trkpt lat="45.902975882145235" lon="11.94227355085255"><ele>190.0</ele><time>2026-05-03T15:12:49Z</time></trkpt><trkpt lat="45.90288775253458" lon="11.942317186149815"><ele>190.0</ele><time>2026-05-03T15:12:50Z</time></trkpt><trkpt lat="45.90279901495414" lon="11.942351227247821"><ele>190.0</ele><time>2026-05-03T15:12:51Z</time></trkpt><trkpt lat="45.902722008263844" lon="11.942370437208996"><ele>190.0</ele><time>2026-05-03T15:12:52Z</time></trkpt><trkpt lat="45.90259160480125" lon="11.942416994055453"><ele>190.0</ele><time>2026-05-03T15:12:54Z</time></trkpt><trkpt lat="45.90252763072166" lon="11.942437154572781"><ele>189.6</ele><time>2026-05-03T15:12:55Z</time></trkpt><trkpt lat="45.90240661514858" lon="11.942467326055635"><ele>189.2</ele><time>2026-05-03T15:12:57Z</time></trkpt><trkpt lat="45.90228243067388" lon="11.942504467924985"><ele>188.8</ele><time>2026-05-03T15:12:59Z</time></trkpt><trkpt lat="45.90219862340612" lon="11.942515801316336"><ele>188.4</ele><time>2026-05-03T15:13:00Z</time></trkpt><trkpt lat="45.90209062476149" lon="11.94253905827329"><ele>188.0</ele><time>2026-05-03T15:13:01Z</time></trkpt><trkpt lat="45.90198277127627" lon="11.942582588477057"><ele>188.0</ele><time>2026-05-03T15:13:02Z</time></trkpt><trkpt lat="45.901865304261065" lon="11.942608678781129"><ele>188.0</ele><time>2026-05-03T15:13:03Z</time></trkpt><trkpt lat="45.90175481124187" lon="11.942643362133472"><ele>188.0</ele><time>2026-05-03T15:13:04Z</time></trkpt><trkpt lat="45.9016619281229" lon="11.942651501372108"><ele>188.0</ele><time>2026-05-03T15:13:05Z</time></trkpt><trkpt lat="45.901551770466966" lon="11.942672982975177"><ele>188.0</ele><time>2026-05-03T15:13:06Z</time></trkpt><trkpt lat="45.90143574412107" lon="11.942709000000741"><ele>187.25</ele><time>2026-05-03T15:13:07Z</time></trkpt><trkpt lat="45.90131241970085" lon="11.942734426236301"><ele>186.5</ele><time>2026-05-03T15:13:08Z</time></trkpt><trkpt lat="45.901201347674366" lon="11.94276806835958"><ele>185.75</ele><time>2026-05-03T15:13:09Z</time></trkpt><trkpt lat="45.901092805392985" lon="11.942782010313831"><ele>185.0</ele><time>2026-05-03T15:13:10Z</time></trkpt><trkpt lat="45.90097524939522" lon="11.942808659686097"><ele>185.25</ele><time>2026-05-03T15:13:11Z</time></trkpt><trkpt lat="45.900842343901935" lon="11.94284691331595"><ele>185.5</ele><time>2026-05-03T15:13:12Z</time></trkpt><trkpt lat="45.90071363696849" lon="11.942862844683152"><ele>185.75</ele><time>2026-05-03T15:13:13Z</time></trkpt><trkpt lat="45.900581649612" lon="11.942874520853078"><ele>186.0</ele><time>2026-05-03T15:13:14Z</time></trkpt><trkpt lat="45.900472242737955" lon="11.94289569323853"><ele>186.0</ele><time>2026-05-03T15:13:15Z</time></trkpt><trkpt lat="45.90034916939802" lon="11.942929354321137"><ele>186.0</ele><time>2026-05-03T15:13:16Z</time></trkpt><trkpt lat="45.90024583981445" lon="11.942927721267296"><ele>186.0</ele><time>2026-05-03T15:13:17Z</time></trkpt><trkpt lat="45.90015462137308" lon="11.942929547169603"><ele>186.0</ele><time>2026-05-03T15:13:18Z</time></trkpt><trkpt lat="45.90006416637169" lon="11.94292858611435"><ele>186.0</ele><time>2026-05-03T15:13:19Z</time></trkpt><trkpt lat="45.89997588430539" lon="11.942925193738725"><ele>185.71428571428572</ele><time>2026-05-03T15:13:20Z</time></trkpt><trkpt lat="45.899910817511625" lon="11.94291659486194"><ele>185.42857142857144</ele><time>2026-05-03T15:13:21Z</time></trkpt><trkpt lat="45.89984248880682" lon="11.942910964342223"><ele>185.14285714285717</ele><time>2026-05-03T15:13:22Z</time></trkpt><trkpt lat="45.89976344382841" lon="11.942870912321768"><ele>184.85714285714286</ele><time>2026-05-03T15:13:23Z</time></trkpt><trkpt lat="45.89969499353299" lon="11.942859285544701"><ele>184.57142857142856</ele><time>2026-05-03T15:13:24Z</time></trkpt><trkpt lat="45.89960961557616" lon="11.942877134330809"><ele>184.2857142857143</ele><time>2026-05-03T15:13:25Z</time></trkpt><trkpt lat="45.89954762329559" lon="11.942928722738689"><ele>184.0</ele><time>2026-05-03T15:13:26Z</time></trkpt><trkpt lat="45.89949509666909" lon="11.943034659353934"><ele>184.0</ele><time>2026-05-03T15:13:27Z</time></trkpt><trkpt lat="45.89953487062379" lon="11.943191533983255"><ele>184.0</ele><time>2026-05-03T15:13:28Z</time></trkpt><trkpt lat="45.89958571418108" lon="11.943293597968104"><ele>184.0</ele><time>2026-05-03T15:13:29Z</time></trkpt><trkpt lat="45.899667501979906" lon="11.94337457768432"><ele>184.0</ele><time>2026-05-03T15:13:30Z</time></trkpt><trkpt lat="45.8996901108464" lon="11.94354420053273"><ele>184.0</ele><time>2026-05-03T15:13:31Z</time></trkpt><trkpt lat="45.89972181489209" lon="11.943674473867475"><ele>182.75</ele><time>2026-05-03T15:13:32Z</time></trkpt><trkpt lat="45.89973084393454" lon="11.94384158527517"><ele>181.5</ele><time>2026-05-03T15:13:33Z</time></trkpt><trkpt lat="45.89973692755376" lon="11.943989713826392"><ele>180.25</ele><time>2026-05-03T15:13:34Z</time></trkpt><trkpt lat="45.89974711775617" lon="11.944160519262566"><ele>179.0</ele><time>2026-05-03T15:13:35Z</time></trkpt><trkpt lat="45.89975684349134" lon="11.944355488677227"><ele>179.0</ele><time>2026-05-03T15:13:35.999Z</time></trkpt><trkpt lat="45.899772272684224" lon="11.944545028619624"><ele>179.0</ele><time>2026-05-03T15:13:36.999Z</time></trkpt><trkpt lat="45.89978780979431" lon="11.944745852223432"><ele>179.0</ele><time>2026-05-03T15:13:37.999Z</time></trkpt><trkpt lat="45.89980558425558" lon="11.944928814882426"><ele>179.0</ele><time>2026-05-03T15:13:38.999Z</time></trkpt><trkpt lat="45.89981267182402" lon="11.945107783631158"><ele>179.25</ele><time>2026-05-03T15:13:39.999Z</time></trkpt><trkpt lat="45.89982193691684" lon="11.945297264295291"><ele>179.5</ele><time>2026-05-03T15:13:40.999Z</time></trkpt><trkpt lat="45.89984028468335" lon="11.945500485463489"><ele>179.75</ele><time>2026-05-03T15:13:41.999Z</time></trkpt><trkpt lat="45.89985537923681" lon="11.94569542951314"><ele>180.0</ele><time>2026-05-03T15:13:42.999Z</time></trkpt><trkpt lat="45.89986555824243" lon="11.945912546829996"><ele>178.66666666666666</ele><time>2026-05-03T15:13:43.999Z</time></trkpt><trkpt lat="45.89987309102683" lon="11.946135483464536"><ele>177.33333333333331</ele><time>2026-05-03T15:13:44.999Z</time></trkpt><trkpt lat="45.89988975638594" lon="11.946346810715234"><ele>176.0</ele><time>2026-05-03T15:13:45.999Z</time></trkpt><trkpt lat="45.89990074498834" lon="11.946574311257113"><ele>174.33333333333331</ele><time>2026-05-03T15:13:46.999Z</time></trkpt><trkpt lat="45.89991189188443" lon="11.946804221912652"><ele>172.66666666666666</ele><time>2026-05-03T15:13:47.999Z</time></trkpt><trkpt lat="45.89993463215782" lon="11.9470256312894"><ele>171.0</ele><time>2026-05-03T15:13:48.999Z</time></trkpt><trkpt lat="45.89994409494862" lon="11.947255769493601"><ele>171.0</ele><time>2026-05-03T15:13:49.999Z</time></trkpt><trkpt lat="45.899945194332076" lon="11.947513056892728"><ele>171.0</ele><time>2026-05-03T15:13:50.999Z</time></trkpt><trkpt lat="45.89996084582994" lon="11.947741246499206"><ele>171.0</ele><time>2026-05-03T15:13:51.999Z</time></trkpt><trkpt lat="45.89996931950098" lon="11.947998061705357"><ele>171.33333333333334</ele><time>2026-05-03T15:13:52.999Z</time></trkpt><trkpt lat="45.899981408180345" lon="11.948243756155108"><ele>171.66666666666669</ele><time>2026-05-03T15:13:53.999Z</time></trkpt><trkpt lat="45.900004036892916" lon="11.948441393876035"><ele>172.0</ele><time>2026-05-03T15:13:54.999Z</time></trkpt><trkpt lat="45.90002107186564" lon="11.948674948170444"><ele>172.0</ele><time>2026-05-03T15:13:55.999Z</time></trkpt><trkpt lat="45.90004319046408" lon="11.948908089592098"><ele>172.0</ele><time>2026-05-03T15:13:56.999Z</time></trkpt><trkpt lat="45.90005903354992" lon="11.949144430889316"><ele>172.0</ele><time>2026-05-03T15:13:57.999Z</time></trkpt><trkpt lat="45.90007606623601" lon="11.949386735832967"><ele>172.0</ele><time>2026-05-03T15:13:58.999Z</time></trkpt><trkpt lat="45.90009016597539" lon="11.94962025603377"><ele>172.0</ele><time>2026-05-03T15:13:59.999Z</time></trkpt><trkpt lat="45.9001048171178" lon="11.949851662820883"><ele>172.0</ele><time>2026-05-03T15:14:00.999Z</time></trkpt><trkpt lat="45.90011915207421" lon="11.950070341913428"><ele>172.0</ele><time>2026-05-03T15:14:01.999Z</time></trkpt><trkpt lat="45.90013293655077" lon="11.950302069186304"><ele>172.0</ele><time>2026-05-03T15:14:02.999Z</time></trkpt><trkpt lat="45.90014880825359" lon="11.95051716068638"><ele>172.0</ele><time>2026-05-03T15:14:03.999Z</time></trkpt><trkpt lat="45.90016609328079" lon="11.95070647474383"><ele>172.0</ele><time>2026-05-03T15:14:04.999Z</time></trkpt><trkpt lat="45.900176841385786" lon="11.950896630506794"><ele>176.6</ele><time>2026-05-03T15:14:05.999Z</time></trkpt><trkpt lat="45.90018593421707" lon="11.95105731041987"><ele>181.2</ele><time>2026-05-03T15:14:06.999Z</time></trkpt><trkpt lat="45.900196902457104" lon="11.951189201021693"><ele>185.8</ele><time>2026-05-03T15:14:07.999Z</time></trkpt><trkpt lat="45.900205937337844" lon="11.951286287688422"><ele>190.4</ele><time>2026-05-03T15:14:08.999Z</time></trkpt><trkpt lat="45.90019139364565" lon="11.951461935933725"><ele>195.0</ele><time>2026-05-03T15:14:10.999Z</time></trkpt><trkpt lat="45.900191936454235" lon="11.95155905177926"><ele>193.25</ele><time>2026-05-03T15:14:11.999Z</time></trkpt><trkpt lat="45.90005513291109" lon="11.951653687364292"><ele>191.5</ele><time>2026-05-03T15:14:12.999Z</time></trkpt><trkpt lat="45.89995198705039" lon="11.95171435940738"><ele>189.75</ele><time>2026-05-03T15:14:13.999Z</time></trkpt><trkpt lat="45.899836109890806" lon="11.951752409972702"><ele>188.0</ele><time>2026-05-03T15:14:14.999Z</time></trkpt><trkpt lat="45.89970948260489" lon="11.951810002227473"><ele>189.0</ele><time>2026-05-03T15:14:15.999Z</time></trkpt><trkpt lat="45.8995945618841" lon="11.951862479019558"><ele>190.0</ele><time>2026-05-03T15:14:16.999Z</time></trkpt><trkpt lat="45.899470537630826" lon="11.951924291195507"><ele>191.0</ele><time>2026-05-03T15:14:17.999Z</time></trkpt><trkpt lat="45.89933839700214" lon="11.951985976050002"><ele>192.0</ele><time>2026-05-03T15:14:18.999Z</time></trkpt><trkpt lat="45.8991995825843" lon="11.952044013847452"><ele>192.0</ele><time>2026-05-03T15:14:19.999Z</time></trkpt><trkpt lat="45.89905201395637" lon="11.952099551182283"><ele>192.0</ele><time>2026-05-03T15:14:20.999Z</time></trkpt><trkpt lat="45.89891734063436" lon="11.95217414561457"><ele>192.0</ele><time>2026-05-03T15:14:21.999Z</time></trkpt><trkpt lat="45.89877226763844" lon="11.952250755122837"><ele>192.0</ele><time>2026-05-03T15:14:22.999Z</time></trkpt><trkpt lat="45.898633809642064" lon="11.952338345114935"><ele>192.0</ele><time>2026-05-03T15:14:23.999Z</time></trkpt><trkpt lat="45.89848064991439" lon="11.952409891514094"><ele>192.0</ele><time>2026-05-03T15:14:24.999Z</time></trkpt><trkpt lat="45.89832529035092" lon="11.95248566722975"><ele>193.66666666666669</ele><time>2026-05-03T15:14:25.999Z</time></trkpt><trkpt lat="45.89817141321736" lon="11.952567673097064"><ele>195.33333333333334</ele><time>2026-05-03T15:14:26.999Z</time></trkpt><trkpt lat="45.89802996067217" lon="11.952646991059208"><ele>197.0</ele><time>2026-05-03T15:14:27.999Z</time></trkpt><trkpt lat="45.89788960909804" lon="11.952708880212576"><ele>197.0</ele><time>2026-05-03T15:14:28.999Z</time></trkpt><trkpt lat="45.89773671486146" lon="11.95281241449715"><ele>197.0</ele><time>2026-05-03T15:14:29.999Z</time></trkpt><trkpt lat="45.89759653833981" lon="11.952954692268724"><ele>197.0</ele><time>2026-05-03T15:14:30.999Z</time></trkpt><trkpt lat="45.89746524250612" lon="11.953084483525467"><ele>195.0</ele><time>2026-05-03T15:14:31.999Z</time></trkpt><trkpt lat="45.89732790997906" lon="11.95321908803675"><ele>193.0</ele><time>2026-05-03T15:14:32.999Z</time></trkpt><trkpt lat="45.89719398044105" lon="11.953342387323545"><ele>191.0</ele><time>2026-05-03T15:14:33.999Z</time></trkpt><trkpt lat="45.89707112454461" lon="11.953475247561606"><ele>191.0</ele><time>2026-05-03T15:14:34.999Z</time></trkpt><trkpt lat="45.896949513561935" lon="11.95361728062797"><ele>191.0</ele><time>2026-05-03T15:14:35.999Z</time></trkpt><trkpt lat="45.89684150932548" lon="11.953756853070425"><ele>191.0</ele><time>2026-05-03T15:14:36.999Z</time></trkpt><trkpt lat="45.896737490477186" lon="11.953899459252643"><ele>191.0</ele><time>2026-05-03T15:14:37.999Z</time></trkpt><trkpt lat="45.896645433944876" lon="11.954029427830086"><ele>192.20000000000002</ele><time>2026-05-03T15:14:38.999Z</time></trkpt><trkpt lat="45.89658366046713" lon="11.954153682736562"><ele>193.4</ele><time>2026-05-03T15:14:39.999Z</time></trkpt><trkpt lat="45.89651112582624" lon="11.954233186023604"><ele>194.6</ele><time>2026-05-03T15:14:40.999Z</time></trkpt><trkpt lat="45.89646974735458" lon="11.954415148272501"><ele>195.8</ele><time>2026-05-03T15:14:41.999Z</time></trkpt><trkpt lat="45.896433493085205" lon="11.954576820518115"><ele>197.0</ele><time>2026-05-03T15:14:42.999Z</time></trkpt><trkpt lat="45.8964183564616" lon="11.954739301929765"><ele>197.0</ele><time>2026-05-03T15:14:43.999Z</time></trkpt><trkpt lat="45.89639460854701" lon="11.954919753871247"><ele>197.0</ele><time>2026-05-03T15:14:44.999Z</time></trkpt><trkpt lat="45.8963648607723" lon="11.955108988778022"><ele>197.0</ele><time>2026-05-03T15:14:45.999Z</time></trkpt><trkpt lat="45.89632668307123" lon="11.955291790396048"><ele>197.0</ele><time>2026-05-03T15:14:46.999Z</time></trkpt><trkpt lat="45.89629153987959" lon="11.95546603942656"><ele>200.25</ele><time>2026-05-03T15:14:48Z</time></trkpt><trkpt lat="45.89626160235774" lon="11.955648622132875"><ele>203.5</ele><time>2026-05-03T15:14:49Z</time></trkpt><trkpt lat="45.89623043749118" lon="11.955855929822173"><ele>206.75</ele><time>2026-05-03T15:14:50Z</time></trkpt><trkpt lat="45.89620917528451" lon="11.956036077976023"><ele>210.0</ele><time>2026-05-03T15:14:51Z</time></trkpt><trkpt lat="45.89619023279694" lon="11.956211705788798"><ele>212.5</ele><time>2026-05-03T15:14:52Z</time></trkpt><trkpt lat="45.8961570215695" lon="11.95641184213903"><ele>215.0</ele><time>2026-05-03T15:14:53Z</time></trkpt><trkpt lat="45.89613062516077" lon="11.95660067722208"><ele>217.5</ele><time>2026-05-03T15:14:54Z</time></trkpt><trkpt lat="45.896114372701504" lon="11.956767889687171"><ele>220.0</ele><time>2026-05-03T15:14:55Z</time></trkpt><trkpt lat="45.89608959850764" lon="11.956948814045287"><ele>222.25</ele><time>2026-05-03T15:14:56Z</time></trkpt><trkpt lat="45.89605516223142" lon="11.9571115214351"><ele>224.5</ele><time>2026-05-03T15:14:57Z</time></trkpt><trkpt lat="45.896029853937954" lon="11.95729671126742"><ele>226.75</ele><time>2026-05-03T15:14:58Z</time></trkpt><trkpt lat="45.896004853084506" lon="11.95748421773897"><ele>229.0</ele><time>2026-05-03T15:14:59Z</time></trkpt><trkpt lat="45.89598354019801" lon="11.957688971776042"><ele>231.25</ele><time>2026-05-03T15:15:00Z</time></trkpt><trkpt lat="45.895959507466586" lon="11.957866038573252"><ele>233.5</ele><time>2026-05-03T15:15:01Z</time></trkpt><trkpt lat="45.89592017090465" lon="11.95808920472457"><ele>235.75</ele><time>2026-05-03T15:15:02Z</time></trkpt><trkpt lat="45.89589852727098" lon="11.95829478478196"><ele>238.0</ele><time>2026-05-03T15:15:03Z</time></trkpt><trkpt lat="45.895865564795216" lon="11.95846513612611"><ele>228.0</ele><time>2026-05-03T15:15:04Z</time></trkpt><trkpt lat="45.8957939667276" lon="11.958649453619199"><ele>218.0</ele><time>2026-05-03T15:15:05Z</time></trkpt><trkpt lat="45.89569730032209" lon="11.958827694524622"><ele>208.0</ele><time>2026-05-03T15:15:06Z</time></trkpt><trkpt lat="45.895598498972156" lon="11.959004664602146"><ele>208.0</ele><time>2026-05-03T15:15:07Z</time></trkpt><trkpt lat="45.89550550615146" lon="11.95917697761528"><ele>208.0</ele><time>2026-05-03T15:15:08Z</time></trkpt><trkpt lat="45.895418203481796" lon="11.959345404816252"><ele>208.0</ele><time>2026-05-03T15:15:09Z</time></trkpt><trkpt lat="45.89532096413059" lon="11.959518905002161"><ele>210.0</ele><time>2026-05-03T15:15:10Z</time></trkpt><trkpt lat="45.895242013760466" lon="11.959686633359953"><ele>212.0</ele><time>2026-05-03T15:15:11Z</time></trkpt><trkpt lat="45.895188977804715" lon="11.959867293937107"><ele>214.0</ele><time>2026-05-03T15:15:12Z</time></trkpt><trkpt lat="45.895139429504184" lon="11.960062078357938"><ele>216.0</ele><time>2026-05-03T15:15:13Z</time></trkpt><trkpt lat="45.895148253847715" lon="11.96026474796307"><ele>216.0</ele><time>2026-05-03T15:15:14Z</time></trkpt><trkpt lat="45.89515981519771" lon="11.960452037101039"><ele>216.0</ele><time>2026-05-03T15:15:15Z</time></trkpt><trkpt lat="45.89518110298347" lon="11.960607344330601"><ele>216.0</ele><time>2026-05-03T15:15:16Z</time></trkpt><trkpt lat="45.89525026524133" lon="11.960754823251111"><ele>216.0</ele><time>2026-05-03T15:15:17Z</time></trkpt><trkpt lat="45.89535701436234" lon="11.960836799820047"><ele>216.75</ele><time>2026-05-03T15:15:18Z</time></trkpt><trkpt lat="45.89547464020137" lon="11.96090304669146"><ele>217.5</ele><time>2026-05-03T15:15:19Z</time></trkpt><trkpt lat="45.89561809371542" lon="11.960901534740595"><ele>218.25</ele><time>2026-05-03T15:15:20Z</time></trkpt><trkpt lat="45.89576045321332" lon="11.960887163430165"><ele>219.0</ele><time>2026-05-03T15:15:21Z</time></trkpt><trkpt lat="45.89588813260553" lon="11.960921817783513"><ele>221.0</ele><time>2026-05-03T15:15:22Z</time></trkpt><trkpt lat="45.89599279077649" lon="11.960983132698292"><ele>222.99999999999997</ele><time>2026-05-03T15:15:23Z</time></trkpt><trkpt lat="45.89606654220913" lon="11.961075926976758"><ele>224.99999999999997</ele><time>2026-05-03T15:15:24Z</time></trkpt><trkpt lat="45.89605428962701" lon="11.961246288133482"><ele>227.0</ele><time>2026-05-03T15:15:25Z</time></trkpt><trkpt lat="45.89602585845285" lon="11.961383478353762"><ele>229.0</ele><time>2026-05-03T15:15:26Z</time></trkpt><trkpt lat="45.896002279769384" lon="11.961503841192025"><ele>228.5</ele><time>2026-05-03T15:15:27Z</time></trkpt><trkpt lat="45.895868445325554" lon="11.961583210347788"><ele>228.0</ele><time>2026-05-03T15:15:28Z</time></trkpt><trkpt lat="45.89577527213577" lon="11.961665898085139"><ele>227.5</ele><time>2026-05-03T15:15:29Z</time></trkpt><trkpt lat="45.89563764314293" lon="11.961776194323427"><ele>227.0</ele><time>2026-05-03T15:15:30Z</time></trkpt><trkpt lat="45.89552834494838" lon="11.96181731676332"><ele>227.0</ele><time>2026-05-03T15:15:31Z</time></trkpt><trkpt lat="45.89545684436318" lon="11.961922008064985"><ele>227.0</ele><time>2026-05-03T15:15:32Z</time></trkpt><trkpt lat="45.89540307921559" lon="11.962060072898439"><ele>227.0</ele><time>2026-05-03T15:15:33Z</time></trkpt><trkpt lat="45.89535812613842" lon="11.96219156039948"><ele>227.0</ele><time>2026-05-03T15:15:34Z</time></trkpt><trkpt lat="45.895305781642186" lon="11.96234108334325"><ele>227.0</ele><time>2026-05-03T15:15:35Z</time></trkpt><trkpt lat="45.89527171031268" lon="11.962472335068306"><ele>226.6</ele><time>2026-05-03T15:15:36Z</time></trkpt><trkpt lat="45.89525484163151" lon="11.962613422508173"><ele>226.2</ele><time>2026-05-03T15:15:37Z</time></trkpt><trkpt lat="45.89528113884622" lon="11.962768923739867"><ele>225.8</ele><time>2026-05-03T15:15:38Z</time></trkpt><trkpt lat="45.895321252647946" lon="11.962915132102934"><ele>225.4</ele><time>2026-05-03T15:15:39Z</time></trkpt><trkpt lat="45.8953721485863" lon="11.96305556230089"><ele>225.0</ele><time>2026-05-03T15:15:40Z</time></trkpt><trkpt lat="45.89541772240375" lon="11.963215886992554"><ele>224.4</ele><time>2026-05-03T15:15:41Z</time></trkpt><trkpt lat="45.89546098098074" lon="11.963382221114777"><ele>223.8</ele><time>2026-05-03T15:15:42Z</time></trkpt><trkpt lat="45.89550225242297" lon="11.963523565581799"><ele>223.2</ele><time>2026-05-03T15:15:43Z</time></trkpt><trkpt lat="45.89553803372183" lon="11.963660319211868"><ele>222.6</ele><time>2026-05-03T15:15:44Z</time></trkpt><trkpt lat="45.895581693372755" lon="11.963790987265494"><ele>222.0</ele><time>2026-05-03T15:15:45Z</time></trkpt><trkpt lat="45.895622619368304" lon="11.963929010238033"><ele>222.0</ele><time>2026-05-03T15:15:46Z</time></trkpt><trkpt lat="45.89565785568376" lon="11.964078056892689"><ele>222.0</ele><time>2026-05-03T15:15:47Z</time></trkpt><trkpt lat="45.895699402397234" lon="11.964215534881538"><ele>222.0</ele><time>2026-05-03T15:15:48Z</time></trkpt><trkpt lat="45.8957378938378" lon="11.96434350307752"><ele>222.0</ele><time>2026-05-03T15:15:48.999Z</time></trkpt><trkpt lat="45.89577736972669" lon="11.964470375879372"><ele>222.0</ele><time>2026-05-03T15:15:49.999Z</time></trkpt><trkpt lat="45.89583098208077" lon="11.96463880290945"><ele>222.2</ele><time>2026-05-03T15:15:50.999Z</time></trkpt><trkpt lat="45.89587668291959" lon="11.964770840081565"><ele>222.39999999999998</ele><time>2026-05-03T15:15:51.999Z</time></trkpt><trkpt lat="45.89590961152398" lon="11.96491236471852"><ele>222.60000000000002</ele><time>2026-05-03T15:15:52.999Z</time></trkpt><trkpt lat="45.89595685249356" lon="11.96505970682844"><ele>222.8</ele><time>2026-05-03T15:15:53.999Z</time></trkpt><trkpt lat="45.89598827491227" lon="11.965197500454892"><ele>223.0</ele><time>2026-05-03T15:15:54.999Z</time></trkpt><trkpt lat="45.89603753603221" lon="11.96533102311641"><ele>224.49999999999997</ele><time>2026-05-03T15:15:55.999Z</time></trkpt><trkpt lat="45.89607486194908" lon="11.965462508750944"><ele>226.0</ele><time>2026-05-03T15:15:56.999Z</time></trkpt><trkpt lat="45.89614863425733" lon="11.965572785926383"><ele>227.5</ele><time>2026-05-03T15:15:57.999Z</time></trkpt><trkpt lat="45.89620884318427" lon="11.965656876347113"><ele>229.0</ele><time>2026-05-03T15:15:58.999Z</time></trkpt><trkpt lat="45.89626413824328" lon="11.965742994812084"><ele>230.49999999999997</ele><time>2026-05-03T15:15:59.999Z</time></trkpt><trkpt lat="45.896290396664135" lon="11.965842795964353"><ele>232.0</ele><time>2026-05-03T15:16:00.999Z</time></trkpt><trkpt lat="45.89631689049444" lon="11.965961175659647"><ele>232.66666666666666</ele><time>2026-05-03T15:16:01.999Z</time></trkpt><trkpt lat="45.896329582075786" lon="11.966081012016952"><ele>233.33333333333331</ele><time>2026-05-03T15:16:02.999Z</time></trkpt><trkpt lat="45.89630906813889" lon="11.966178396928507"><ele>234.0</ele><time>2026-05-03T15:16:03.999Z</time></trkpt><trkpt lat="45.89630582891542" lon="11.966293556616137"><ele>234.66666666666669</ele><time>2026-05-03T15:16:04.999Z</time></trkpt><trkpt lat="45.89630458526598" lon="11.966430034766462"><ele>235.33333333333334</ele><time>2026-05-03T15:16:05.999Z</time></trkpt><trkpt lat="45.89630311882781" lon="11.966588390197872"><ele>236.0</ele><time>2026-05-03T15:16:06.999Z</time></trkpt><trkpt lat="45.896288335316655" lon="11.966744936560413"><ele>236.4</ele><time>2026-05-03T15:16:07.999Z</time></trkpt><trkpt lat="45.89626825723504" lon="11.966899966112878"><ele>236.8</ele><time>2026-05-03T15:16:08.999Z</time></trkpt><trkpt lat="45.89625526774031" lon="11.967062053596747"><ele>237.20000000000002</ele><time>2026-05-03T15:16:09.999Z</time></trkpt><trkpt lat="45.89625890413429" lon="11.967226006709412"><ele>237.60000000000002</ele><time>2026-05-03T15:16:10.999Z</time></trkpt><trkpt lat="45.89625086946865" lon="11.96738090549529"><ele>238.0</ele><time>2026-05-03T15:16:11.999Z</time></trkpt><trkpt lat="45.896230919282864" lon="11.967535155511717"><ele>238.5</ele><time>2026-05-03T15:16:12.999Z</time></trkpt><trkpt lat="45.89622513914298" lon="11.967707551267216"><ele>239.0</ele><time>2026-05-03T15:16:13.999Z</time></trkpt><trkpt lat="45.89621909586335" lon="11.967882918349959"><ele>239.5</ele><time>2026-05-03T15:16:14.999Z</time></trkpt><trkpt lat="45.896214020701635" lon="11.968066012795648"><ele>240.0</ele><time>2026-05-03T15:16:15.999Z</time></trkpt><trkpt lat="45.89620662218601" lon="11.968256463208219"><ele>240.5</ele><time>2026-05-03T15:16:16.999Z</time></trkpt><trkpt lat="45.89618593278685" lon="11.968441133490227"><ele>241.0</ele><time>2026-05-03T15:16:17.999Z</time></trkpt><trkpt lat="45.89616692203978" lon="11.968611252525166"><ele>241.5</ele><time>2026-05-03T15:16:18.999Z</time></trkpt><trkpt lat="45.89617479960387" lon="11.968767802873144"><ele>242.0</ele><time>2026-05-03T15:16:19.999Z</time></trkpt><trkpt lat="45.89617164256464" lon="11.968914236185604"><ele>242.0</ele><time>2026-05-03T15:16:20.999Z</time></trkpt><trkpt lat="45.89616465103704" lon="11.969058571918888"><ele>242.0</ele><time>2026-05-03T15:16:21.999Z</time></trkpt><trkpt lat="45.89614091036889" lon="11.969217732458258"><ele>242.0</ele><time>2026-05-03T15:16:22.999Z</time></trkpt><trkpt lat="45.896124222288975" lon="11.969387592725253"><ele>242.0</ele><time>2026-05-03T15:16:23.999Z</time></trkpt><trkpt lat="45.896113293648185" lon="11.969574971761405"><ele>242.0</ele><time>2026-05-03T15:16:24.999Z</time></trkpt><trkpt lat="45.89608767440214" lon="11.96976343971899"><ele>242.0</ele><time>2026-05-03T15:16:25.999Z</time></trkpt><trkpt lat="45.896067327651245" lon="11.96996243292353"><ele>242.0</ele><time>2026-05-03T15:16:26.999Z</time></trkpt><trkpt lat="45.89605998551585" lon="11.970154248399824"><ele>242.0</ele><time>2026-05-03T15:16:27.999Z</time></trkpt><trkpt lat="45.896059648509336" lon="11.970340384470196"><ele>242.0</ele><time>2026-05-03T15:16:28.999Z</time></trkpt><trkpt lat="45.89605861531402" lon="11.970528655277212"><ele>242.0</ele><time>2026-05-03T15:16:29.999Z</time></trkpt><trkpt lat="45.8960503156821" lon="11.97071325081643"><ele>242.0</ele><time>2026-05-03T15:16:30.999Z</time></trkpt><trkpt lat="45.89602114654278" lon="11.97088220123016"><ele>242.0</ele><time>2026-05-03T15:16:31.999Z</time></trkpt><trkpt lat="45.89598601539055" lon="11.971049031178923"><ele>242.5</ele><time>2026-05-03T15:16:32.999Z</time></trkpt><trkpt lat="45.89595373927266" lon="11.971215835124102"><ele>243.0</ele><time>2026-05-03T15:16:33.999Z</time></trkpt><trkpt lat="45.895920992863935" lon="11.971375503894905"><ele>243.5</ele><time>2026-05-03T15:16:34.999Z</time></trkpt><trkpt lat="45.8958871341294" lon="11.971553592318367"><ele>244.0</ele><time>2026-05-03T15:16:35.999Z</time></trkpt><trkpt lat="45.89585991205493" lon="11.971741703954837"><ele>239.75</ele><time>2026-05-03T15:16:36.999Z</time></trkpt><trkpt lat="45.89582620360927" lon="11.971921801961315"><ele>235.5</ele><time>2026-05-03T15:16:37.999Z</time></trkpt><trkpt lat="45.89579307064736" lon="11.972103137947684"><ele>231.25</ele><time>2026-05-03T15:16:38.999Z</time></trkpt><trkpt lat="45.89576267957427" lon="11.972289173176272"><ele>227.0</ele><time>2026-05-03T15:16:39.999Z</time></trkpt><trkpt lat="45.895731603439785" lon="11.972480073013829"><ele>228.0</ele><time>2026-05-03T15:16:40.999Z</time></trkpt><trkpt lat="45.89569537734295" lon="11.972676036384378"><ele>229.0</ele><time>2026-05-03T15:16:41.999Z</time></trkpt><trkpt lat="45.8956626479986" lon="11.972868488131542"><ele>230.0</ele><time>2026-05-03T15:16:42.999Z</time></trkpt><trkpt lat="45.895631401547966" lon="11.97306404683776"><ele>231.0</ele><time>2026-05-03T15:16:43.999Z</time></trkpt><trkpt lat="45.89559846549326" lon="11.973255301100172"><ele>232.25</ele><time>2026-05-03T15:16:44.999Z</time></trkpt><trkpt lat="45.89557305129925" lon="11.973436061806376"><ele>233.5</ele><time>2026-05-03T15:16:45.999Z</time></trkpt><trkpt lat="45.89554074882461" lon="11.973619349765915"><ele>234.75</ele><time>2026-05-03T15:16:46.999Z</time></trkpt><trkpt lat="45.89551806648387" lon="11.973787229628103"><ele>236.0</ele><time>2026-05-03T15:16:47.999Z</time></trkpt><trkpt lat="45.895485880467504" lon="11.973974145644409"><ele>236.0</ele><time>2026-05-03T15:16:48.999Z</time></trkpt><trkpt lat="45.89546639499091" lon="11.974171741706108"><ele>236.0</ele><time>2026-05-03T15:16:49.999Z</time></trkpt><trkpt lat="45.89545455012063" lon="11.974357213086739"><ele>236.0</ele><time>2026-05-03T15:16:50.999Z</time></trkpt><trkpt lat="45.895456797148015" lon="11.974555924513693"><ele>236.0</ele><time>2026-05-03T15:16:51.999Z</time></trkpt><trkpt lat="45.89547522321324" lon="11.974745684107303"><ele>235.0</ele><time>2026-05-03T15:16:52.999Z</time></trkpt><trkpt lat="45.89550207729521" lon="11.974943027799885"><ele>234.0</ele><time>2026-05-03T15:16:54Z</time></trkpt><trkpt lat="45.895534382158445" lon="11.975136438318419"><ele>233.0</ele><time>2026-05-03T15:16:55Z</time></trkpt><trkpt lat="45.895580209708456" lon="11.975318771070606"><ele>232.0</ele><time>2026-05-03T15:16:56Z</time></trkpt><trkpt lat="45.89561283826861" lon="11.97549479845643"><ele>231.2</ele><time>2026-05-03T15:16:57Z</time></trkpt><trkpt lat="45.89566035143955" lon="11.9756498167808"><ele>230.39999999999998</ele><time>2026-05-03T15:16:58Z</time></trkpt><trkpt lat="45.89569733556953" lon="11.975794679254268"><ele>229.60000000000002</ele><time>2026-05-03T15:16:59Z</time></trkpt><trkpt lat="45.895738042201096" lon="11.975929995281604"><ele>228.8</ele><time>2026-05-03T15:17:00Z</time></trkpt><trkpt lat="45.89577489634254" lon="11.976072327101866"><ele>228.0</ele><time>2026-05-03T15:17:01Z</time></trkpt><trkpt lat="45.895812954000306" lon="11.976204591264398"><ele>228.0</ele><time>2026-05-03T15:17:02Z</time></trkpt><trkpt lat="45.89584462457533" lon="11.976339516399802"><ele>228.0</ele><time>2026-05-03T15:17:03Z</time></trkpt><trkpt lat="45.89588200318899" lon="11.976465735145867"><ele>228.0</ele><time>2026-05-03T15:17:04Z</time></trkpt><trkpt lat="45.89592773784305" lon="11.976603401439466"><ele>228.0</ele><time>2026-05-03T15:17:05Z</time></trkpt><trkpt lat="45.89597548302585" lon="11.976758399822785"><ele>228.0</ele><time>2026-05-03T15:17:06Z</time></trkpt><trkpt lat="45.896018835083666" lon="11.976911086966961"><ele>227.25</ele><time>2026-05-03T15:17:07Z</time></trkpt><trkpt lat="45.896062911058415" lon="11.977063013084305"><ele>226.5</ele><time>2026-05-03T15:17:08Z</time></trkpt><trkpt lat="45.8961060933011" lon="11.97721553840842"><ele>225.75</ele><time>2026-05-03T15:17:09Z</time></trkpt><trkpt lat="45.89615105193145" lon="11.977368474013634"><ele>225.0</ele><time>2026-05-03T15:17:10Z</time></trkpt><trkpt lat="45.896197233358315" lon="11.977528912999137"><ele>224.75</ele><time>2026-05-03T15:17:11Z</time></trkpt><trkpt lat="45.89624618801301" lon="11.977682914684317"><ele>224.5</ele><time>2026-05-03T15:17:12Z</time></trkpt><trkpt lat="45.8962928921416" lon="11.977855435825441"><ele>224.25</ele><time>2026-05-03T15:17:13Z</time></trkpt><trkpt lat="45.896344606429764" lon="11.978013407033655"><ele>224.0</ele><time>2026-05-03T15:17:14Z</time></trkpt><trkpt lat="45.89639812608268" lon="11.978194313099802"><ele>224.25</ele><time>2026-05-03T15:17:15Z</time></trkpt><trkpt lat="45.8964484551993" lon="11.978364074660579"><ele>224.5</ele><time>2026-05-03T15:17:16Z</time></trkpt><trkpt lat="45.896491274756286" lon="11.978537813216374"><ele>224.75</ele><time>2026-05-03T15:17:17Z</time></trkpt><trkpt lat="45.8965429123988" lon="11.978703511311213"><ele>225.0</ele><time>2026-05-03T15:17:18Z</time></trkpt><trkpt lat="45.89658687800461" lon="11.978862248236425"><ele>225.0</ele><time>2026-05-03T15:17:19Z</time></trkpt><trkpt lat="45.896630608154396" lon="11.979020928918226"><ele>225.0</ele><time>2026-05-03T15:17:20Z</time></trkpt><trkpt lat="45.896677987874725" lon="11.97917438323962"><ele>225.0</ele><time>2026-05-03T15:17:21Z</time></trkpt><trkpt lat="45.89672086322518" lon="11.9793295411441"><ele>225.0</ele><time>2026-05-03T15:17:22Z</time></trkpt><trkpt lat="45.89676986689289" lon="11.979490777019906"><ele>226.5</ele><time>2026-05-03T15:17:23Z</time></trkpt><trkpt lat="45.89681636214658" lon="11.979653031441874"><ele>228.0</ele><time>2026-05-03T15:17:24Z</time></trkpt><trkpt lat="45.89685435965515" lon="11.979809636343338"><ele>229.5</ele><time>2026-05-03T15:17:25Z</time></trkpt><trkpt lat="45.896893460837084" lon="11.979968408469588"><ele>231.0</ele><time>2026-05-03T15:17:26Z</time></trkpt><trkpt lat="45.8969366236144" lon="11.980133844111483"><ele>231.0</ele><time>2026-05-03T15:17:27Z</time></trkpt><trkpt lat="45.89697784307684" lon="11.980285547723076"><ele>231.00000000000003</ele><time>2026-05-03T15:17:28Z</time></trkpt><trkpt lat="45.89701102686476" lon="11.980438795395065"><ele>231.00000000000003</ele><time>2026-05-03T15:17:29Z</time></trkpt><trkpt lat="45.89704361532981" lon="11.98058693510804"><ele>231.0</ele><time>2026-05-03T15:17:30Z</time></trkpt><trkpt lat="45.89708436452962" lon="11.980719992400273"><ele>231.0</ele><time>2026-05-03T15:17:31Z</time></trkpt><trkpt lat="45.89713199165393" lon="11.980859557627706"><ele>231.0</ele><time>2026-05-03T15:17:32Z</time></trkpt><trkpt lat="45.89717603019421" lon="11.980993234703812"><ele>231.00000000000003</ele><time>2026-05-03T15:17:33Z</time></trkpt><trkpt lat="45.8972183526194" lon="11.981137331641852"><ele>231.00000000000003</ele><time>2026-05-03T15:17:34Z</time></trkpt><trkpt lat="45.897263134372636" lon="11.981275161302573"><ele>231.0</ele><time>2026-05-03T15:17:35Z</time></trkpt><trkpt lat="45.89730853175861" lon="11.981425910767245"><ele>231.0</ele><time>2026-05-03T15:17:36Z</time></trkpt><trkpt lat="45.897352860545205" lon="11.981559019397682"><ele>231.0</ele><time>2026-05-03T15:17:37Z</time></trkpt><trkpt lat="45.89739767019031" lon="11.981700700643897"><ele>231.00000000000003</ele><time>2026-05-03T15:17:38Z</time></trkpt><trkpt lat="45.89743602076483" lon="11.981841973176298"><ele>231.00000000000003</ele><time>2026-05-03T15:17:39Z</time></trkpt><trkpt lat="45.897479158783945" lon="11.981989838771488"><ele>231.0</ele><time>2026-05-03T15:17:40Z</time></trkpt><trkpt lat="45.897522171855194" lon="11.982131923172881"><ele>231.0</ele><time>2026-05-03T15:17:41Z</time></trkpt><trkpt lat="45.89756185743381" lon="11.98226950308973"><ele>232.60000000000002</ele><time>2026-05-03T15:17:42Z</time></trkpt><trkpt lat="45.897603417675604" lon="11.982403860368274"><ele>234.20000000000002</ele><time>2026-05-03T15:17:43Z</time></trkpt><trkpt lat="45.89764308019206" lon="11.982526289527879"><ele>235.79999999999998</ele><time>2026-05-03T15:17:44Z</time></trkpt><trkpt lat="45.89767935689581" lon="11.982645854634443"><ele>237.39999999999998</ele><time>2026-05-03T15:17:45Z</time></trkpt><trkpt lat="45.897712709876856" lon="11.982787933807936"><ele>239.0</ele><time>2026-05-03T15:17:46Z</time></trkpt><trkpt lat="45.89775658380377" lon="11.982933295579825"><ele>239.0</ele><time>2026-05-03T15:17:47Z</time></trkpt><trkpt lat="45.89779742368755" lon="11.983066629611363"><ele>238.99999999999997</ele><time>2026-05-03T15:17:48Z</time></trkpt><trkpt lat="45.89784160140559" lon="11.98321892315436"><ele>238.99999999999997</ele><time>2026-05-03T15:17:49Z</time></trkpt><trkpt lat="45.897873612481504" lon="11.983345403411759"><ele>239.0</ele><time>2026-05-03T15:17:50Z</time></trkpt><trkpt lat="45.89787388258091" lon="11.983501070940735"><ele>239.0</ele><time>2026-05-03T15:17:51Z</time></trkpt><trkpt lat="45.89786739793772" lon="11.983612941331025"><ele>238.79999999999998</ele><time>2026-05-03T15:17:52Z</time></trkpt><trkpt lat="45.897847375033365" lon="11.9837373453719"><ele>238.59999999999997</ele><time>2026-05-03T15:17:53Z</time></trkpt><trkpt lat="45.89779838333539" lon="11.983861352106816"><ele>238.4</ele><time>2026-05-03T15:17:54Z</time></trkpt><trkpt lat="45.89775135401284" lon="11.98398247572392"><ele>238.2</ele><time>2026-05-03T15:17:55Z</time></trkpt><trkpt lat="45.89770756098843" lon="11.984097886844424"><ele>238.0</ele><time>2026-05-03T15:17:55.999Z</time></trkpt><trkpt lat="45.89765626938" lon="11.984226121327879"><ele>238.0</ele><time>2026-05-03T15:17:56.999Z</time></trkpt><trkpt lat="45.897612809831486" lon="11.984355158184632"><ele>238.0</ele><time>2026-05-03T15:17:57.999Z</time></trkpt><trkpt lat="45.897574121444976" lon="11.984487346947416"><ele>238.0</ele><time>2026-05-03T15:17:58.999Z</time></trkpt><trkpt lat="45.89753265422968" lon="11.984627491212011"><ele>238.0</ele><time>2026-05-03T15:17:59.999Z</time></trkpt><trkpt lat="45.89749253462158" lon="11.984776090912936"><ele>238.0</ele><time>2026-05-03T15:18:00.999Z</time></trkpt><trkpt lat="45.89745499249273" lon="11.984910876472105"><ele>239.2</ele><time>2026-05-03T15:18:01.999Z</time></trkpt><trkpt lat="45.897411144350784" lon="11.985053128386486"><ele>240.4</ele><time>2026-05-03T15:18:02.999Z</time></trkpt><trkpt lat="45.89736143636302" lon="11.985186966540493"><ele>241.59999999999997</ele><time>2026-05-03T15:18:03.999Z</time></trkpt><trkpt lat="45.89729632925289" lon="11.985311521389463"><ele>242.79999999999998</ele><time>2026-05-03T15:18:04.999Z</time></trkpt><trkpt lat="45.8972322887901" lon="11.985409635459579"><ele>244.0</ele><time>2026-05-03T15:18:05.999Z</time></trkpt><trkpt lat="45.89717925406625" lon="11.985507629808986"><ele>244.0</ele><time>2026-05-03T15:18:06.999Z</time></trkpt><trkpt lat="45.89713386278905" lon="11.985620930297353"><ele>243.99999999999997</ele><time>2026-05-03T15:18:07.999Z</time></trkpt><trkpt lat="45.89708951856523" lon="11.98573695836319"><ele>243.99999999999997</ele><time>2026-05-03T15:18:08.999Z</time></trkpt><trkpt lat="45.89706387172353" lon="11.985870336933097"><ele>244.0</ele><time>2026-05-03T15:18:09.999Z</time></trkpt><trkpt lat="45.8970459413774" lon="11.985994802242395"><ele>244.0</ele><time>2026-05-03T15:18:10.999Z</time></trkpt><trkpt lat="45.89704091933633" lon="11.986138392908707"><ele>244.2</ele><time>2026-05-03T15:18:11.999Z</time></trkpt><trkpt lat="45.89704057928223" lon="11.986268759512408"><ele>244.39999999999998</ele><time>2026-05-03T15:18:12.999Z</time></trkpt><trkpt lat="45.89704578703245" lon="11.986404873022796"><ele>244.6</ele><time>2026-05-03T15:18:13.999Z</time></trkpt><trkpt lat="45.89704968289792" lon="11.986546985930564"><ele>244.8</ele><time>2026-05-03T15:18:14.999Z</time></trkpt><trkpt lat="45.897058409596866" lon="11.986684418260126"><ele>245.0</ele><time>2026-05-03T15:18:15.999Z</time></trkpt><trkpt lat="45.89708326578326" lon="11.986813103615452"><ele>243.2</ele><time>2026-05-03T15:18:16.999Z</time></trkpt><trkpt lat="45.897128780511586" lon="11.986929003469118"><ele>241.4</ele><time>2026-05-03T15:18:17.999Z</time></trkpt><trkpt lat="45.89718428280034" lon="11.987043178057638"><ele>239.60000000000002</ele><time>2026-05-03T15:18:18.999Z</time></trkpt><trkpt lat="45.89726221042007" lon="11.987150505283443"><ele>237.8</ele><time>2026-05-03T15:18:19.999Z</time></trkpt><trkpt lat="45.89733367759955" lon="11.987257938066776"><ele>236.0</ele><time>2026-05-03T15:18:20.999Z</time></trkpt><trkpt lat="45.897405943622125" lon="11.987380596590354"><ele>235.4</ele><time>2026-05-03T15:18:21.999Z</time></trkpt><trkpt lat="45.89747357810966" lon="11.98751449341746"><ele>234.8</ele><time>2026-05-03T15:18:22.999Z</time></trkpt><trkpt lat="45.89753313020379" lon="11.987654472912384"><ele>234.20000000000002</ele><time>2026-05-03T15:18:23.999Z</time></trkpt><trkpt lat="45.897591075967696" lon="11.98778097176632"><ele>233.60000000000002</ele><time>2026-05-03T15:18:24.999Z</time></trkpt><trkpt lat="45.8976500984236" lon="11.987874302722197"><ele>233.0</ele><time>2026-05-03T15:18:25.999Z</time></trkpt><trkpt lat="45.89772050226677" lon="11.987964891382621"><ele>234.4</ele><time>2026-05-03T15:18:26.999Z</time></trkpt><trkpt lat="45.89776942252459" lon="11.988073610382218"><ele>235.8</ele><time>2026-05-03T15:18:27.999Z</time></trkpt><trkpt lat="45.89781046969072" lon="11.98820122613677"><ele>237.2</ele><time>2026-05-03T15:18:28.999Z</time></trkpt><trkpt lat="45.897829457985104" lon="11.988330055413295"><ele>238.6</ele><time>2026-05-03T15:18:29.999Z</time></trkpt><trkpt lat="45.89783218151768" lon="11.988465513214209"><ele>240.0</ele><time>2026-05-03T15:18:30.999Z</time></trkpt><trkpt lat="45.89781874383789" lon="11.988599806715529"><ele>240.0</ele><time>2026-05-03T15:18:31.999Z</time></trkpt><trkpt lat="45.89779162761506" lon="11.988713762945434"><ele>240.0</ele><time>2026-05-03T15:18:32.999Z</time></trkpt><trkpt lat="45.89774987428529" lon="11.988831422740452"><ele>240.0</ele><time>2026-05-03T15:18:33.999Z</time></trkpt><trkpt lat="45.89769823348752" lon="11.988942173995712"><ele>240.0</ele><time>2026-05-03T15:18:34.999Z</time></trkpt><trkpt lat="45.89763748079797" lon="11.989041469385867"><ele>240.0</ele><time>2026-05-03T15:18:35.999Z</time></trkpt><trkpt lat="45.89756774345039" lon="11.989144615792602"><ele>240.0</ele><time>2026-05-03T15:18:36.999Z</time></trkpt><trkpt lat="45.8975024979773" lon="11.98924002171883"><ele>240.0</ele><time>2026-05-03T15:18:37.999Z</time></trkpt><trkpt lat="45.89744015610661" lon="11.989331930141176"><ele>240.0</ele><time>2026-05-03T15:18:38.999Z</time></trkpt><trkpt lat="45.89738901981948" lon="11.98940641668"><ele>240.0</ele><time>2026-05-03T15:18:39.999Z</time></trkpt><trkpt lat="45.89736382460698" lon="11.989497179652961"><ele>240.0</ele><time>2026-05-03T15:18:40.999Z</time></trkpt><trkpt lat="45.89733672677695" lon="11.989585732646535"><ele>240.0</ele><time>2026-05-03T15:18:41.999Z</time></trkpt><trkpt lat="45.897359609918084" lon="11.98972400703382"><ele>240.0</ele><time>2026-05-03T15:18:42.999Z</time></trkpt><trkpt lat="45.89736328749174" lon="11.989845625604744"><ele>240.0</ele><time>2026-05-03T15:18:43.999Z</time></trkpt><trkpt lat="45.89737197432765" lon="11.989948382823288"><ele>240.0</ele><time>2026-05-03T15:18:44.999Z</time></trkpt><trkpt lat="45.89735692370808" lon="11.990054380416407"><ele>240.0</ele><time>2026-05-03T15:18:45.999Z</time></trkpt><trkpt lat="45.89736346833129" lon="11.990184298165069"><ele>240.0</ele><time>2026-05-03T15:18:46.999Z</time></trkpt><trkpt lat="45.89736862733207" lon="11.990312663687181"><ele>240.0</ele><time>2026-05-03T15:18:47.999Z</time></trkpt><trkpt lat="45.89737394848762" lon="11.990476727875029"><ele>240.2</ele><time>2026-05-03T15:18:48.999Z</time></trkpt><trkpt lat="45.897388797161504" lon="11.990632274796004"><ele>240.4</ele><time>2026-05-03T15:18:49.999Z</time></trkpt><trkpt lat="45.89740189562853" lon="11.9907888368128"><ele>240.60000000000002</ele><time>2026-05-03T15:18:50.999Z</time></trkpt><trkpt lat="45.8974153862089" lon="11.990936615275196"><ele>240.8</ele><time>2026-05-03T15:18:51.999Z</time></trkpt><trkpt lat="45.89742890903489" lon="11.991092419293514"><ele>241.0</ele><time>2026-05-03T15:18:52.999Z</time></trkpt><trkpt lat="45.89744138869266" lon="11.991249159727035"><ele>241.0</ele><time>2026-05-03T15:18:53.999Z</time></trkpt><trkpt lat="45.89744823763186" lon="11.991400544158497"><ele>241.00000000000003</ele><time>2026-05-03T15:18:54.999Z</time></trkpt><trkpt lat="45.8974528916529" lon="11.991531844298994"><ele>241.00000000000003</ele><time>2026-05-03T15:18:55.999Z</time></trkpt><trkpt lat="45.897456412352724" lon="11.991681693634984"><ele>241.0</ele><time>2026-05-03T15:18:56.999Z</time></trkpt><trkpt lat="45.89746062867361" lon="11.991816025511474"><ele>241.0</ele><time>2026-05-03T15:18:57.999Z</time></trkpt><trkpt lat="45.897460807164705" lon="11.991957578096345"><ele>240.99999999999997</ele><time>2026-05-03T15:18:58.999Z</time></trkpt><trkpt lat="45.897477220118546" lon="11.992081140862998"><ele>241.0</ele><time>2026-05-03T15:19:00Z</time></trkpt><trkpt lat="45.89748385114343" lon="11.992206949943558"><ele>241.0</ele><time>2026-05-03T15:19:01Z</time></trkpt><trkpt lat="45.89749271112802" lon="11.992326073690053"><ele>241.0</ele><time>2026-05-03T15:19:02Z</time></trkpt><trkpt lat="45.897523179255636" lon="11.992447250170475"><ele>240.99999999999997</ele><time>2026-05-03T15:19:03Z</time></trkpt><trkpt lat="45.89757241107697" lon="11.99255160871741"><ele>241.0</ele><time>2026-05-03T15:19:04Z</time></trkpt><trkpt lat="45.89763813491287" lon="11.992662411022811"><ele>241.60000000000002</ele><time>2026-05-03T15:19:05Z</time></trkpt><trkpt lat="45.89770246790697" lon="11.992749037794079"><ele>242.20000000000002</ele><time>2026-05-03T15:19:06Z</time></trkpt><trkpt lat="45.897769721317204" lon="11.992843015345827"><ele>242.79999999999998</ele><time>2026-05-03T15:19:07Z</time></trkpt><trkpt lat="45.897856391691484" lon="11.992956485676286"><ele>243.39999999999998</ele><time>2026-05-03T15:19:08Z</time></trkpt><trkpt lat="45.89792597836303" lon="11.99303050451692"><ele>244.0</ele><time>2026-05-03T15:19:09Z</time></trkpt><trkpt lat="45.89799505343003" lon="11.993101856919154"><ele>243.99999999999997</ele><time>2026-05-03T15:19:10Z</time></trkpt><trkpt lat="45.89805464029551" lon="11.993159311514239"><ele>244.0</ele><time>2026-05-03T15:19:11Z</time></trkpt><trkpt lat="45.89812096552514" lon="11.993234943236612"><ele>244.0</ele><time>2026-05-03T15:19:12Z</time></trkpt><trkpt lat="45.89818403533014" lon="11.99329918660982"><ele>244.0</ele><time>2026-05-03T15:19:13Z</time></trkpt><trkpt lat="45.89828019395226" lon="11.993397884573513"><ele>243.99999999999997</ele><time>2026-05-03T15:19:15Z</time></trkpt><trkpt lat="45.89833583655153" lon="11.993477244138008"><ele>244.0</ele><time>2026-05-03T15:19:16Z</time></trkpt><trkpt lat="45.89840820639113" lon="11.993575350500164"><ele>244.79999999999998</ele><time>2026-05-03T15:19:17Z</time></trkpt><trkpt lat="45.89849376695639" lon="11.993654304530935"><ele>245.59999999999997</ele><time>2026-05-03T15:19:18Z</time></trkpt><trkpt lat="45.89857828255237" lon="11.99373707917281"><ele>246.4</ele><time>2026-05-03T15:19:19Z</time></trkpt><trkpt lat="45.89866236766068" lon="11.993820635203626"><ele>247.2</ele><time>2026-05-03T15:19:20Z</time></trkpt><trkpt lat="45.898742669342624" lon="11.993909650465216"><ele>248.0</ele><time>2026-05-03T15:19:21Z</time></trkpt><trkpt lat="45.898829084321825" lon="11.99400742244319"><ele>248.0</ele><time>2026-05-03T15:19:22Z</time></trkpt><trkpt lat="45.89892329199396" lon="11.994119509356446"><ele>248.0</ele><time>2026-05-03T15:19:23Z</time></trkpt><trkpt lat="45.89901721038625" lon="11.99421308773746"><ele>248.0</ele><time>2026-05-03T15:19:24Z</time></trkpt><trkpt lat="45.89911178625445" lon="11.994287916507758"><ele>248.0</ele><time>2026-05-03T15:19:25Z</time></trkpt><trkpt lat="45.8991910245793" lon="11.994397878640553"><ele>249.2</ele><time>2026-05-03T15:19:26Z</time></trkpt><trkpt lat="45.89928186739962" lon="11.99449234272153"><ele>250.4</ele><time>2026-05-03T15:19:27Z</time></trkpt><trkpt lat="45.89938882505678" lon="11.994575694158337"><ele>251.59999999999997</ele><time>2026-05-03T15:19:28Z</time></trkpt><trkpt lat="45.899482793070185" lon="11.994649293191316"><ele>252.79999999999998</ele><time>2026-05-03T15:19:29Z</time></trkpt><trkpt lat="45.89957211165094" lon="11.994708143622558"><ele>254.0</ele><time>2026-05-03T15:19:30Z</time></trkpt><trkpt lat="45.89965178630678" lon="11.994783374519308"><ele>254.0</ele><time>2026-05-03T15:19:31Z</time></trkpt><trkpt lat="45.89975303405893" lon="11.994835115675789"><ele>253.99999999999997</ele><time>2026-05-03T15:19:32Z</time></trkpt><trkpt lat="45.89985029781934" lon="11.994887915067578"><ele>253.99999999999997</ele><time>2026-05-03T15:19:33Z</time></trkpt><trkpt lat="45.899953531168705" lon="11.994931138601133"><ele>254.0</ele><time>2026-05-03T15:19:34Z</time></trkpt><trkpt lat="45.90005835895494" lon="11.994967482359144"><ele>254.0</ele><time>2026-05-03T15:19:35Z</time></trkpt><trkpt lat="45.900158605842925" lon="11.99500924305212"><ele>254.2</ele><time>2026-05-03T15:19:36Z</time></trkpt><trkpt lat="45.90026482280419" lon="11.995040998118187"><ele>254.39999999999998</ele><time>2026-05-03T15:19:37Z</time></trkpt><trkpt lat="45.90037442790201" lon="11.99507764441717"><ele>254.6</ele><time>2026-05-03T15:19:38Z</time></trkpt><trkpt lat="45.90047629155097" lon="11.995096821383287"><ele>254.8</ele><time>2026-05-03T15:19:39Z</time></trkpt><trkpt lat="45.9005674312156" lon="11.99511412666021"><ele>255.0</ele><time>2026-05-03T15:19:40Z</time></trkpt><trkpt lat="45.90066472766882" lon="11.995157239479994"><ele>255.0</ele><time>2026-05-03T15:19:41Z</time></trkpt><trkpt lat="45.90075767955909" lon="11.995210377638143"><ele>255.0</ele><time>2026-05-03T15:19:42Z</time></trkpt><trkpt lat="45.90083844419756" lon="11.995265978138576"><ele>255.0</ele><time>2026-05-03T15:19:43Z</time></trkpt><trkpt lat="45.900917951043624" lon="11.995312392310389"><ele>255.0</ele><time>2026-05-03T15:19:44Z</time></trkpt><trkpt lat="45.900990373845524" lon="11.995357754911552"><ele>255.0</ele><time>2026-05-03T15:19:45Z</time></trkpt><trkpt lat="45.90105131701334" lon="11.995392385074163"><ele>255.0</ele><time>2026-05-03T15:19:46Z</time></trkpt><trkpt lat="45.90114931320153" lon="11.995466823449865"><ele>255.6</ele><time>2026-05-03T15:19:48Z</time></trkpt><trkpt lat="45.90121739890948" lon="11.995442120317591"><ele>256.2</ele><time>2026-05-03T15:19:50Z</time></trkpt><trkpt lat="45.90131940549635" lon="11.995227689181544"><ele>256.8</ele><time>2026-05-03T15:20:12.999Z</time></trkpt><trkpt lat="45.901278334166996" lon="11.995087885413403"><ele>257.4</ele><time>2026-05-03T15:20:14.999Z</time></trkpt><trkpt lat="45.901266755838265" lon="11.99496260075201"><ele>258.0</ele><time>2026-05-03T15:20:16.999Z</time></trkpt><trkpt lat="45.90125073958707" lon="11.994865107678095"><ele>258.3333333333333</ele><time>2026-05-03T15:20:20.999Z</time></trkpt><trkpt lat="45.90123320949648" lon="11.99477689862898"><ele>258.6666666666667</ele><time>2026-05-03T15:20:25.999Z</time></trkpt><trkpt lat="45.901227565960184" lon="11.994660444623564"><ele>259.0</ele><time>2026-05-03T15:20:28.999Z</time></trkpt><trkpt lat="45.901225203596624" lon="11.994542496996027"><ele>259.33333333333337</ele><time>2026-05-03T15:20:29.999Z</time></trkpt><trkpt lat="45.901318536812376" lon="11.994454893600478"><ele>259.6666666666667</ele><time>2026-05-03T15:20:32.999Z</time></trkpt><trkpt lat="45.90138347729234" lon="11.994462921331307"><ele>260.0</ele><time>2026-05-03T15:20:33.999Z</time></trkpt><trkpt lat="45.90144618359949" lon="11.99447308750708"><ele>260.0</ele><time>2026-05-03T15:20:34.999Z</time></trkpt><trkpt lat="45.90151071870245" lon="11.994476842463063"><ele>260.0</ele><time>2026-05-03T15:20:35.999Z</time></trkpt><trkpt lat="45.901587327040026" lon="11.994472694217357"><ele>260.0</ele><time>2026-05-03T15:20:36.999Z</time></trkpt><trkpt lat="45.90166133431741" lon="11.99446086944767"><ele>260.0</ele><time>2026-05-03T15:20:37.999Z</time></trkpt><trkpt lat="45.90173016131468" lon="11.994442193936914"><ele>260.0</ele><time>2026-05-03T15:20:38.999Z</time></trkpt><trkpt lat="45.90185161716638" lon="11.99441263506209"><ele>260.0</ele><time>2026-05-03T15:20:40.999Z</time></trkpt><trkpt lat="45.90192993352947" lon="11.994388100361595"><ele>260.33333333333337</ele><time>2026-05-03T15:20:41.999Z</time></trkpt><trkpt lat="45.90199785541255" lon="11.994354536299264"><ele>260.6666666666667</ele><time>2026-05-03T15:20:42.999Z</time></trkpt><trkpt lat="45.90211523124743" lon="11.994341682578895"><ele>261.0</ele><time>2026-05-03T15:20:44.999Z</time></trkpt><trkpt lat="45.90219498118716" lon="11.994317428212867"><ele>261.3333333333333</ele><time>2026-05-03T15:20:46.999Z</time></trkpt><trkpt lat="45.90226012498001" lon="11.994311190329256"><ele>261.66666666666663</ele><time>2026-05-03T15:20:47.999Z</time></trkpt><trkpt lat="45.90236114720375" lon="11.994375330542747"><ele>262.0</ele><time>2026-05-03T15:20:49.999Z</time></trkpt><trkpt lat="45.902382002776335" lon="11.994463065114605"><ele>262.0</ele><time>2026-05-03T15:20:52.999Z</time></trkpt><trkpt lat="45.90240004493699" lon="11.994608636087527"><ele>262.0</ele><time>2026-05-03T15:20:55.999Z</time></trkpt><trkpt lat="45.902385060137135" lon="11.994741812820427"><ele>262.0</ele><time>2026-05-03T15:20:57.999Z</time></trkpt><trkpt lat="45.90226554580097" lon="11.99479171575329"><ele>262.0</ele><time>2026-05-03T15:20:58.999Z</time></trkpt><trkpt lat="45.902208306813144" lon="11.99485454808121"><ele>262.0</ele><time>2026-05-03T15:20:59.999Z</time></trkpt><trkpt lat="45.90216668498671" lon="11.994925473770492"><ele>262.0</ele><time>2026-05-03T15:21:00.999Z</time></trkpt><trkpt lat="45.90212591468719" lon="11.99500825454932"><ele>262.0</ele><time>2026-05-03T15:21:01.999Z</time></trkpt><trkpt lat="45.90208086583301" lon="11.995071612035117"><ele>262.0</ele><time>2026-05-03T15:21:02.999Z</time></trkpt><trkpt lat="45.90199953469592" lon="11.995199770474976"><ele>262.0</ele><time>2026-05-03T15:21:04.999Z</time></trkpt><trkpt lat="45.90190807210811" lon="11.995293041206564"><ele>262.0</ele><time>2026-05-03T15:21:07Z</time></trkpt><trkpt lat="45.9018370366778" lon="11.995396400599898"><ele>262.0</ele><time>2026-05-03T15:21:09Z</time></trkpt><trkpt lat="45.901789036612904" lon="11.995545343374102"><ele>262.0</ele><time>2026-05-03T15:21:11Z</time></trkpt><trkpt lat="45.90177357967099" lon="11.99570176562691"><ele>262.0</ele><time>2026-05-03T15:21:13Z</time></trkpt><trkpt lat="45.901780042331495" lon="11.9958709224081"><ele>262.0</ele><time>2026-05-03T15:21:15Z</time></trkpt><trkpt lat="45.90179923736292" lon="11.996038467405128"><ele>262.4</ele><time>2026-05-03T15:21:17Z</time></trkpt><trkpt lat="45.90181613122669" lon="11.996191446265097"><ele>262.79999999999995</ele><time>2026-05-03T15:21:19Z</time></trkpt><trkpt lat="45.90182208126769" lon="11.996337800338877"><ele>263.2</ele><time>2026-05-03T15:21:21Z</time></trkpt><trkpt lat="45.90182149705605" lon="11.996519996942848"><ele>263.59999999999997</ele><time>2026-05-03T15:21:23Z</time></trkpt><trkpt lat="45.90180874650387" lon="11.996628049446942"><ele>264.0</ele><time>2026-05-03T15:21:24Z</time></trkpt><trkpt lat="45.90182817940987" lon="11.996733578164184"><ele>264.0</ele><time>2026-05-03T15:21:25Z</time></trkpt><trkpt lat="45.901803434157564" lon="11.99684703473546"><ele>264.0</ele><time>2026-05-03T15:21:26Z</time></trkpt><trkpt lat="45.90179078864779" lon="11.997007932548224"><ele>264.0</ele><time>2026-05-03T15:21:27Z</time></trkpt><trkpt lat="45.901774345522014" lon="11.997139084169927"><ele>264.0</ele><time>2026-05-03T15:21:28Z</time></trkpt><trkpt lat="45.901762992251605" lon="11.997257922686982"><ele>264.0</ele><time>2026-05-03T15:21:29Z</time></trkpt><trkpt lat="45.901756908867966" lon="11.997351777698585"><ele>264.0</ele><time>2026-05-03T15:21:30Z</time></trkpt><trkpt lat="45.90173963847894" lon="11.997505517926509"><ele>262.1666666666667</ele><time>2026-05-03T15:21:32Z</time></trkpt><trkpt lat="45.90171988020185" lon="11.997614822320081"><ele>260.3333333333333</ele><time>2026-05-03T15:21:36Z</time></trkpt><trkpt lat="45.901703552089785" lon="11.99773342580404"><ele>258.5</ele><time>2026-05-03T15:21:38Z</time></trkpt><trkpt lat="45.901682620999445" lon="11.997893110807171"><ele>256.66666666666663</ele><time>2026-05-03T15:21:40Z</time></trkpt><trkpt lat="45.901675421548546" lon="11.997991096305984"><ele>254.83333333333331</ele><time>2026-05-03T15:21:41Z</time></trkpt><trkpt lat="45.90166392145369" lon="11.99809590381869"><ele>253.0</ele><time>2026-05-03T15:21:42Z</time></trkpt><trkpt lat="45.90165185538156" lon="11.998212563977951"><ele>252.8</ele><time>2026-05-03T15:21:43Z</time></trkpt><trkpt lat="45.90161971418935" lon="11.998339482792248"><ele>252.60000000000002</ele><time>2026-05-03T15:21:44Z</time></trkpt><trkpt lat="45.90161578310491" lon="11.998480613313477"><ele>252.39999999999998</ele><time>2026-05-03T15:21:45Z</time></trkpt><trkpt lat="45.901603353306676" lon="11.998632023850215"><ele>252.2</ele><time>2026-05-03T15:21:46Z</time></trkpt><trkpt lat="45.90158733113961" lon="11.998777485085425"><ele>252.0</ele><time>2026-05-03T15:21:47Z</time></trkpt><trkpt lat="45.90156648543094" lon="11.998945631554038"><ele>252.0</ele><time>2026-05-03T15:21:48Z</time></trkpt><trkpt lat="45.90154958685856" lon="11.99911880627757"><ele>252.0</ele><time>2026-05-03T15:21:49Z</time></trkpt><trkpt lat="45.901531443084934" lon="11.99928412208827"><ele>252.0</ele><time>2026-05-03T15:21:50Z</time></trkpt><trkpt lat="45.90151081982382" lon="11.999456838129746"><ele>252.0</ele><time>2026-05-03T15:21:51Z</time></trkpt><trkpt lat="45.90148845437009" lon="11.999628612479285"><ele>252.25</ele><time>2026-05-03T15:21:52Z</time></trkpt><trkpt lat="45.90146911450458" lon="11.999802050267046"><ele>252.5</ele><time>2026-05-03T15:21:53Z</time></trkpt><trkpt lat="45.90144172176461" lon="11.99997933156024"><ele>252.75</ele><time>2026-05-03T15:21:54Z</time></trkpt><trkpt lat="45.901418136802114" lon="12.000163793815767"><ele>253.0</ele><time>2026-05-03T15:21:55Z</time></trkpt><trkpt lat="45.901397146131714" lon="12.00033414635463"><ele>253.0</ele><time>2026-05-03T15:21:56Z</time></trkpt><trkpt lat="45.90137645851488" lon="12.00049707962629"><ele>253.0</ele><time>2026-05-03T15:21:57Z</time></trkpt><trkpt lat="45.90135517987406" lon="12.000659606889482"><ele>253.0</ele><time>2026-05-03T15:21:58Z</time></trkpt><trkpt lat="45.90133109234015" lon="12.0008180155153"><ele>253.0</ele><time>2026-05-03T15:21:59Z</time></trkpt><trkpt lat="45.90131219960328" lon="12.000999384822052"><ele>253.75</ele><time>2026-05-03T15:22:00Z</time></trkpt><trkpt lat="45.901297631779094" lon="12.001162428538539"><ele>254.5</ele><time>2026-05-03T15:22:01Z</time></trkpt><trkpt lat="45.90127947558661" lon="12.001320529847264"><ele>255.25</ele><time>2026-05-03T15:22:02Z</time></trkpt><trkpt lat="45.90126330344834" lon="12.00148684184997"><ele>256.0</ele><time>2026-05-03T15:22:03Z</time></trkpt><trkpt lat="45.90123928430043" lon="12.001656560303758"><ele>256.5</ele><time>2026-05-03T15:22:04Z</time></trkpt><trkpt lat="45.901234438965034" lon="12.001816554290723"><ele>257.0</ele><time>2026-05-03T15:22:05Z</time></trkpt><trkpt lat="45.901238133195505" lon="12.002003571189826"><ele>257.5</ele><time>2026-05-03T15:22:06Z</time></trkpt><trkpt lat="45.90124690017326" lon="12.00218384309"><ele>258.0</ele><time>2026-05-03T15:22:06.999Z</time></trkpt><trkpt lat="45.90124836089113" lon="12.002385595755417"><ele>257.75</ele><time>2026-05-03T15:22:07.999Z</time></trkpt><trkpt lat="45.90126752692644" lon="12.00259032950347"><ele>257.5</ele><time>2026-05-03T15:22:08.999Z</time></trkpt><trkpt lat="45.90127962414527" lon="12.00279237816806"><ele>257.25</ele><time>2026-05-03T15:22:09.999Z</time></trkpt><trkpt lat="45.90129054876877" lon="12.002995611002106"><ele>257.0</ele><time>2026-05-03T15:22:10.999Z</time></trkpt><trkpt lat="45.90132371583818" lon="12.003187787472386"><ele>257.75</ele><time>2026-05-03T15:22:11.999Z</time></trkpt><trkpt lat="45.90136508944671" lon="12.003366966355465"><ele>258.5</ele><time>2026-05-03T15:22:12.999Z</time></trkpt><trkpt lat="45.901414437382385" lon="12.003529064239778"><ele>259.25</ele><time>2026-05-03T15:22:13.999Z</time></trkpt><trkpt lat="45.901459609031534" lon="12.003672652137494"><ele>260.0</ele><time>2026-05-03T15:22:14.999Z</time></trkpt><trkpt lat="45.90150593967434" lon="12.00382039563"><ele>260.0</ele><time>2026-05-03T15:22:15.999Z</time></trkpt><trkpt lat="45.901548588803585" lon="12.00395265595356"><ele>260.0</ele><time>2026-05-03T15:22:16.999Z</time></trkpt><trkpt lat="45.90158490212347" lon="12.004055987674164"><ele>260.0</ele><time>2026-05-03T15:22:17.999Z</time></trkpt><trkpt lat="45.901623117806274" lon="12.00416845087231"><ele>260.0</ele><time>2026-05-03T15:22:18.999Z</time></trkpt><trkpt lat="45.90166661511275" lon="12.004296457257027"><ele>260.0</ele><time>2026-05-03T15:22:19.999Z</time></trkpt><trkpt lat="45.90170987370929" lon="12.004423761159739"><ele>262.2</ele><time>2026-05-03T15:22:20.999Z</time></trkpt><trkpt lat="45.901755223812486" lon="12.004553937285015"><ele>264.4</ele><time>2026-05-03T15:22:21.999Z</time></trkpt><trkpt lat="45.90180309301894" lon="12.004690024199322"><ele>266.6</ele><time>2026-05-03T15:22:22.999Z</time></trkpt><trkpt lat="45.901853507866285" lon="12.004833563687061"><ele>268.8</ele><time>2026-05-03T15:22:23.999Z</time></trkpt><trkpt lat="45.901899995337054" lon="12.004965919495696"><ele>271.0</ele><time>2026-05-03T15:22:24.999Z</time></trkpt><trkpt lat="45.90193782266773" lon="12.005082438920327"><ele>272.8</ele><time>2026-05-03T15:22:25.999Z</time></trkpt><trkpt lat="45.901968121348936" lon="12.005195979409237"><ele>274.6</ele><time>2026-05-03T15:22:26.999Z</time></trkpt><trkpt lat="45.90198567273133" lon="12.00534550928961"><ele>276.4</ele><time>2026-05-03T15:22:27.999Z</time></trkpt><trkpt lat="45.90199516438553" lon="12.00551584154869"><ele>278.2</ele><time>2026-05-03T15:22:28.999Z</time></trkpt><trkpt lat="45.90198023608799" lon="12.005694808630428"><ele>280.0</ele><time>2026-05-03T15:22:29.999Z</time></trkpt><trkpt lat="45.90195184714984" lon="12.00586785233723"><ele>280.75</ele><time>2026-05-03T15:22:30.999Z</time></trkpt><trkpt lat="45.90192679127135" lon="12.00602283138265"><ele>281.5</ele><time>2026-05-03T15:22:31.999Z</time></trkpt><trkpt lat="45.90191599794708" lon="12.006195188913447"><ele>282.25</ele><time>2026-05-03T15:22:32.999Z</time></trkpt><trkpt lat="45.901929109099385" lon="12.006383921595175"><ele>283.0</ele><time>2026-05-03T15:22:33.999Z</time></trkpt><trkpt lat="45.90196930718694" lon="12.006550155449947"><ele>283.75</ele><time>2026-05-03T15:22:34.999Z</time></trkpt><trkpt lat="45.902051004855906" lon="12.006681875169864"><ele>284.5</ele><time>2026-05-03T15:22:35.999Z</time></trkpt><trkpt lat="45.9021143103664" lon="12.006837371884988"><ele>285.25</ele><time>2026-05-03T15:22:36.999Z</time></trkpt><trkpt lat="45.90217169165772" lon="12.006963371240287"><ele>286.0</ele><time>2026-05-03T15:22:37.999Z</time></trkpt><trkpt lat="45.90221543630502" lon="12.007091050007267"><ele>286.0</ele><time>2026-05-03T15:22:38.999Z</time></trkpt><trkpt lat="45.902248075750364" lon="12.007248723885745"><ele>286.0</ele><time>2026-05-03T15:22:39.999Z</time></trkpt><trkpt lat="45.9022701947688" lon="12.00741184827519"><ele>286.0</ele><time>2026-05-03T15:22:40.999Z</time></trkpt><trkpt lat="45.90227538895351" lon="12.007615907043116"><ele>286.0</ele><time>2026-05-03T15:22:41.999Z</time></trkpt><trkpt lat="45.90229452354318" lon="12.007805184372632"><ele>286.5</ele><time>2026-05-03T15:22:42.999Z</time></trkpt><trkpt lat="45.90231166813813" lon="12.007998680778119"><ele>287.0</ele><time>2026-05-03T15:22:43.999Z</time></trkpt><trkpt lat="45.90232669005884" lon="12.008200542503053"><ele>287.5</ele><time>2026-05-03T15:22:44.999Z</time></trkpt><trkpt lat="45.9023478526492" lon="12.008421073175697"><ele>288.0</ele><time>2026-05-03T15:22:45.999Z</time></trkpt><trkpt lat="45.90237564871358" lon="12.008623064196644"><ele>288.25</ele><time>2026-05-03T15:22:46.999Z</time></trkpt><trkpt lat="45.902393408031024" lon="12.00881419889201"><ele>288.5</ele><time>2026-05-03T15:22:47.999Z</time></trkpt><trkpt lat="45.902393061847775" lon="12.009005189404558"><ele>288.75</ele><time>2026-05-03T15:22:48.999Z</time></trkpt><trkpt lat="45.90236900891456" lon="12.009195282047015"><ele>289.0</ele><time>2026-05-03T15:22:49.999Z</time></trkpt><trkpt lat="45.90232863718525" lon="12.009359301925176"><ele>289.75</ele><time>2026-05-03T15:22:50.999Z</time></trkpt><trkpt lat="45.90228579475472" lon="12.00952692274381"><ele>290.5</ele><time>2026-05-03T15:22:51.999Z</time></trkpt><trkpt lat="45.90224294540167" lon="12.009703455549424"><ele>291.25</ele><time>2026-05-03T15:22:52.999Z</time></trkpt><trkpt lat="45.90219588003214" lon="12.00988036187085"><ele>292.0</ele><time>2026-05-03T15:22:53.999Z</time></trkpt><trkpt lat="45.90215099050615" lon="12.010059291196574"><ele>293.5</ele><time>2026-05-03T15:22:54.999Z</time></trkpt><trkpt lat="45.902105258106616" lon="12.01023734118306"><ele>295.0</ele><time>2026-05-03T15:22:55.999Z</time></trkpt><trkpt lat="45.90206097326045" lon="12.010420553951866"><ele>296.5</ele><time>2026-05-03T15:22:56.999Z</time></trkpt><trkpt lat="45.90201244110224" lon="12.010594408599722"><ele>298.0</ele><time>2026-05-03T15:22:57.999Z</time></trkpt><trkpt lat="45.90196228777578" lon="12.010773296362494"><ele>299.0</ele><time>2026-05-03T15:22:58.999Z</time></trkpt><trkpt lat="45.90191533466524" lon="12.010963038305807"><ele>300.0</ele><time>2026-05-03T15:22:59.999Z</time></trkpt><trkpt lat="45.90187337677667" lon="12.011135976681304"><ele>301.0</ele><time>2026-05-03T15:23:00.999Z</time></trkpt><trkpt lat="45.90183863027416" lon="12.01128862940615"><ele>302.0</ele><time>2026-05-03T15:23:01.999Z</time></trkpt><trkpt lat="45.901802856560245" lon="12.011415289510488"><ele>302.0</ele><time>2026-05-03T15:23:02.999Z</time></trkpt><trkpt lat="45.90177231314412" lon="12.01153787906679"><ele>302.0</ele><time>2026-05-03T15:23:03.999Z</time></trkpt><trkpt lat="45.90174238232848" lon="12.011653477933073"><ele>302.0</ele><time>2026-05-03T15:23:04.999Z</time></trkpt><trkpt lat="45.901713046249675" lon="12.011765549010477"><ele>302.0</ele><time>2026-05-03T15:23:05.999Z</time></trkpt><trkpt lat="45.901683935962865" lon="12.011879703532472"><ele>302.0</ele><time>2026-05-03T15:23:06.999Z</time></trkpt><trkpt lat="45.9016558238299" lon="12.011999033879414"><ele>302.0</ele><time>2026-05-03T15:23:07.999Z</time></trkpt><trkpt lat="45.90162301507525" lon="12.012128169930337"><ele>301.75</ele><time>2026-05-03T15:23:08.999Z</time></trkpt><trkpt lat="45.901585200355264" lon="12.012275276035343"><ele>301.5</ele><time>2026-05-03T15:23:09.999Z</time></trkpt><trkpt lat="45.901530760940766" lon="12.01241102730914"><ele>301.25</ele><time>2026-05-03T15:23:10.999Z</time></trkpt><trkpt lat="45.90148484982639" lon="12.012564681963115"><ele>301.0</ele><time>2026-05-03T15:23:12Z</time></trkpt><trkpt lat="45.90144155228172" lon="12.012725201353772"><ele>302.0</ele><time>2026-05-03T15:23:13Z</time></trkpt><trkpt lat="45.901395627969784" lon="12.01288886735312"><ele>303.0</ele><time>2026-05-03T15:23:14Z</time></trkpt><trkpt lat="45.90135526176499" lon="12.013054098997374"><ele>304.0</ele><time>2026-05-03T15:23:15Z</time></trkpt><trkpt lat="45.90131986508864" lon="12.013213792955279"><ele>305.0</ele><time>2026-05-03T15:23:16Z</time></trkpt><trkpt lat="45.90128074074673" lon="12.013366703115972"><ele>305.5</ele><time>2026-05-03T15:23:17Z</time></trkpt><trkpt lat="45.90124868430415" lon="12.013536197772746"><ele>306.0</ele><time>2026-05-03T15:23:18Z</time></trkpt><trkpt lat="45.901217710961646" lon="12.013681853750876"><ele>306.5</ele><time>2026-05-03T15:23:19Z</time></trkpt><trkpt lat="45.901179569599506" lon="12.013833098520841"><ele>307.0</ele><time>2026-05-03T15:23:20Z</time></trkpt><trkpt lat="45.901133753708194" lon="12.013977992962289"><ele>307.0</ele><time>2026-05-03T15:23:21Z</time></trkpt><trkpt lat="45.901097960427876" lon="12.014122005841473"><ele>307.0</ele><time>2026-05-03T15:23:22Z</time></trkpt><trkpt lat="45.901065084565815" lon="12.014273954302066"><ele>307.0</ele><time>2026-05-03T15:23:23Z</time></trkpt><trkpt lat="45.90102184184362" lon="12.014427816048203"><ele>307.0</ele><time>2026-05-03T15:23:24Z</time></trkpt><trkpt lat="45.90097741923054" lon="12.014584201806986"><ele>307.5</ele><time>2026-05-03T15:23:25Z</time></trkpt><trkpt lat="45.90094563045481" lon="12.014741769050035"><ele>308.0</ele><time>2026-05-03T15:23:26Z</time></trkpt><trkpt lat="45.90091418561035" lon="12.01491707590257"><ele>308.5</ele><time>2026-05-03T15:23:27Z</time></trkpt><trkpt lat="45.900892509845725" lon="12.015091786357873"><ele>309.0</ele><time>2026-05-03T15:23:28Z</time></trkpt><trkpt lat="45.900872667246084" lon="12.015261183537724"><ele>309.0</ele><time>2026-05-03T15:23:29Z</time></trkpt><trkpt lat="45.90085233360723" lon="12.015443514495137"><ele>309.0</ele><time>2026-05-03T15:23:30Z</time></trkpt><trkpt lat="45.90083038939793" lon="12.015611048308624"><ele>309.0</ele><time>2026-05-03T15:23:31Z</time></trkpt><trkpt lat="45.9008111944631" lon="12.01577487696135"><ele>309.0</ele><time>2026-05-03T15:23:32Z</time></trkpt><trkpt lat="45.90078996034488" lon="12.01591567224104"><ele>309.4</ele><time>2026-05-03T15:23:33Z</time></trkpt><trkpt lat="45.900773692995635" lon="12.016053570239762"><ele>309.79999999999995</ele><time>2026-05-03T15:23:34Z</time></trkpt><trkpt lat="45.900754974159646" lon="12.016198377069662"><ele>310.20000000000005</ele><time>2026-05-03T15:23:35Z</time></trkpt><trkpt lat="45.9007382946661" lon="12.016325029355684"><ele>310.6</ele><time>2026-05-03T15:23:36Z</time></trkpt><trkpt lat="45.90072404632014" lon="12.016457478191587"><ele>311.0</ele><time>2026-05-03T15:23:37Z</time></trkpt><trkpt lat="45.90070475327239" lon="12.016591835805764"><ele>312.0</ele><time>2026-05-03T15:23:38Z</time></trkpt><trkpt lat="45.90069043153649" lon="12.016732642124467"><ele>313.0</ele><time>2026-05-03T15:23:39Z</time></trkpt><trkpt lat="45.90067093901087" lon="12.016881357393059"><ele>314.0</ele><time>2026-05-03T15:23:40Z</time></trkpt><trkpt lat="45.9006539093234" lon="12.017025037851539"><ele>315.0</ele><time>2026-05-03T15:23:41Z</time></trkpt><trkpt lat="45.900636333016486" lon="12.017162991896159"><ele>316.0</ele><time>2026-05-03T15:23:42Z</time></trkpt><trkpt lat="45.900619641156986" lon="12.01728890147548"><ele>316.0</ele><time>2026-05-03T15:23:43Z</time></trkpt><trkpt lat="45.900606284939926" lon="12.017419916016683"><ele>316.0</ele><time>2026-05-03T15:23:44Z</time></trkpt><trkpt lat="45.90060420737808" lon="12.017544763691467"><ele>316.0</ele><time>2026-05-03T15:23:45Z</time></trkpt><trkpt lat="45.9006025452915" lon="12.017684277716928"><ele>316.0</ele><time>2026-05-03T15:23:46Z</time></trkpt><trkpt lat="45.90060272881086" lon="12.017822167443732"><ele>316.0</ele><time>2026-05-03T15:23:47Z</time></trkpt><trkpt lat="45.90061835541337" lon="12.01794990604749"><ele>316.66666666666663</ele><time>2026-05-03T15:23:48Z</time></trkpt><trkpt lat="45.90062524655094" lon="12.018087658895995"><ele>317.3333333333333</ele><time>2026-05-03T15:23:49Z</time></trkpt><trkpt lat="45.90062762753133" lon="12.018216186192944"><ele>318.0</ele><time>2026-05-03T15:23:50Z</time></trkpt><trkpt lat="45.90063988471297" lon="12.018335934511871"><ele>318.6666666666667</ele><time>2026-05-03T15:23:51Z</time></trkpt><trkpt lat="45.900645096256454" lon="12.018452238985134"><ele>319.33333333333337</ele><time>2026-05-03T15:23:52Z</time></trkpt><trkpt lat="45.90064930579025" lon="12.018554980557758"><ele>320.0</ele><time>2026-05-03T15:23:53Z</time></trkpt><trkpt lat="45.90064496115205" lon="12.018733982508065"><ele>320.33333333333337</ele><time>2026-05-03T15:23:55Z</time></trkpt><trkpt lat="45.90066578255768" lon="12.01888751080977"><ele>320.6666666666667</ele><time>2026-05-03T15:23:57Z</time></trkpt><trkpt lat="45.90066805534113" lon="12.01898004731272"><ele>321.0</ele><time>2026-05-03T15:23:58Z</time></trkpt><trkpt lat="45.900671931921735" lon="12.019073334567352"><ele>321.3333333333333</ele><time>2026-05-03T15:23:59Z</time></trkpt><trkpt lat="45.900677333061836" lon="12.019178272856127"><ele>321.66666666666663</ele><time>2026-05-03T15:24:00Z</time></trkpt><trkpt lat="45.900685687584684" lon="12.019293642428744"><ele>322.0</ele><time>2026-05-03T15:24:01Z</time></trkpt><trkpt lat="45.90070600524917" lon="12.01940175217271"><ele>322.8333333333333</ele><time>2026-05-03T15:24:02Z</time></trkpt><trkpt lat="45.900727174516106" lon="12.019509888777831"><ele>323.66666666666663</ele><time>2026-05-03T15:24:03Z</time></trkpt><trkpt lat="45.900744902954685" lon="12.01961080993268"><ele>324.5</ele><time>2026-05-03T15:24:04Z</time></trkpt><trkpt lat="45.900792527462556" lon="12.019753060637314"><ele>325.3333333333333</ele><time>2026-05-03T15:24:06Z</time></trkpt><trkpt lat="45.90082908824895" lon="12.019842127189728"><ele>326.1666666666667</ele><time>2026-05-03T15:24:09Z</time></trkpt><trkpt lat="45.900873845966004" lon="12.019911843072581"><ele>327.0</ele><time>2026-05-03T15:24:11.999Z</time></trkpt><trkpt lat="45.90093953780303" lon="12.020029838072315"><ele>329.20000000000005</ele><time>2026-05-03T15:24:13.999Z</time></trkpt><trkpt lat="45.900998510106106" lon="12.020123460372016"><ele>331.4</ele><time>2026-05-03T15:24:15.999Z</time></trkpt><trkpt lat="45.90105555272503" lon="12.020210911965927"><ele>333.6</ele><time>2026-05-03T15:24:17.999Z</time></trkpt><trkpt lat="45.90111380380115" lon="12.020344126114674"><ele>335.79999999999995</ele><time>2026-05-03T15:24:19.999Z</time></trkpt><trkpt lat="45.90115357308383" lon="12.0204437690668"><ele>338.0</ele><time>2026-05-03T15:24:21.999Z</time></trkpt><trkpt lat="45.90121180836935" lon="12.020587771156588"><ele>338.0</ele><time>2026-05-03T15:24:23.999Z</time></trkpt><trkpt lat="45.90126359216032" lon="12.020684299763222"><ele>338.0</ele><time>2026-05-03T15:24:24.999Z</time></trkpt><trkpt lat="45.90132304188025" lon="12.020793805608866"><ele>338.0</ele><time>2026-05-03T15:24:25.999Z</time></trkpt><trkpt lat="45.901375911907586" lon="12.020900758900341"><ele>338.0</ele><time>2026-05-03T15:24:26.999Z</time></trkpt><trkpt lat="45.901431692747714" lon="12.020997127008872"><ele>338.0</ele><time>2026-05-03T15:24:27.999Z</time></trkpt><trkpt lat="45.90147289179285" lon="12.021107284716098"><ele>338.0</ele><time>2026-05-03T15:24:28.999Z</time></trkpt><trkpt lat="45.901527134425464" lon="12.021208385262277"><ele>337.6666666666667</ele><time>2026-05-03T15:24:29.999Z</time></trkpt><trkpt lat="45.9015830642176" lon="12.021311222908775"><ele>337.33333333333337</ele><time>2026-05-03T15:24:30.999Z</time></trkpt><trkpt lat="45.90163312999594" lon="12.021412157028289"><ele>337.0</ele><time>2026-05-03T15:24:31.999Z</time></trkpt><trkpt lat="45.90168522650256" lon="12.021505389941405"><ele>336.6666666666667</ele><time>2026-05-03T15:24:32.999Z</time></trkpt><trkpt lat="45.90175953086323" lon="12.021580529229023"><ele>336.3333333333333</ele><time>2026-05-03T15:24:33.999Z</time></trkpt><trkpt lat="45.90184118688339" lon="12.02163537403117"><ele>336.0</ele><time>2026-05-03T15:24:34.999Z</time></trkpt><trkpt lat="45.90192017282707" lon="12.021699418732457"><ele>337.0</ele><time>2026-05-03T15:24:35.999Z</time></trkpt><trkpt lat="45.902012170741685" lon="12.021767466263409"><ele>338.0</ele><time>2026-05-03T15:24:36.999Z</time></trkpt><trkpt lat="45.90210917651973" lon="12.021836382339211"><ele>339.0</ele><time>2026-05-03T15:24:37.999Z</time></trkpt><trkpt lat="45.90220727386562" lon="12.021903796597464"><ele>340.0</ele><time>2026-05-03T15:24:38.999Z</time></trkpt><trkpt lat="45.90231270304946" lon="12.021972080228482"><ele>341.0</ele><time>2026-05-03T15:24:39.999Z</time></trkpt><trkpt lat="45.90241236104178" lon="12.022038627777127"><ele>341.0</ele><time>2026-05-03T15:24:40.999Z</time></trkpt><trkpt lat="45.90250210785164" lon="12.022117775670866"><ele>341.0</ele><time>2026-05-03T15:24:41.999Z</time></trkpt><trkpt lat="45.902578979068664" lon="12.022181307390676"><ele>341.0</ele><time>2026-05-03T15:24:42.999Z</time></trkpt><trkpt lat="45.90267263456925" lon="12.022224612255263"><ele>341.0</ele><time>2026-05-03T15:24:43.999Z</time></trkpt><trkpt lat="45.902753452561036" lon="12.022288176674202"><ele>341.0</ele><time>2026-05-03T15:24:44.999Z</time></trkpt><trkpt lat="45.90283494752663" lon="12.022338138741642"><ele>342.33333333333337</ele><time>2026-05-03T15:24:45.999Z</time></trkpt><trkpt lat="45.902913724540696" lon="12.022404903428217"><ele>343.6666666666667</ele><time>2026-05-03T15:24:46.999Z</time></trkpt><trkpt lat="45.90298549453439" lon="12.022474094259403"><ele>345.0</ele><time>2026-05-03T15:24:47.999Z</time></trkpt><trkpt lat="45.90305572812421" lon="12.022550981916103"><ele>346.3333333333333</ele><time>2026-05-03T15:24:48.999Z</time></trkpt><trkpt lat="45.90311235232107" lon="12.022644659372679"><ele>347.66666666666663</ele><time>2026-05-03T15:24:49.999Z</time></trkpt><trkpt lat="45.90315507822748" lon="12.0227353451798"><ele>349.0</ele><time>2026-05-03T15:24:50.999Z</time></trkpt><trkpt lat="45.90319455856046" lon="12.022808809899576"><ele>349.0</ele><time>2026-05-03T15:24:51.999Z</time></trkpt><trkpt lat="45.90322901521044" lon="12.022894505807583"><ele>349.0</ele><time>2026-05-03T15:24:52.999Z</time></trkpt><trkpt lat="45.90325731157864" lon="12.022989110468902"><ele>349.0</ele><time>2026-05-03T15:24:53.999Z</time></trkpt><trkpt lat="45.90328584934158" lon="12.023089331825508"><ele>349.0</ele><time>2026-05-03T15:24:54.999Z</time></trkpt><trkpt lat="45.903318329899385" lon="12.023190781536908"><ele>349.0</ele><time>2026-05-03T15:24:55.999Z</time></trkpt><trkpt lat="45.903349452176016" lon="12.023302846346544"><ele>349.0</ele><time>2026-05-03T15:24:56.999Z</time></trkpt><trkpt lat="45.90338664823578" lon="12.023427679579866"><ele>351.2</ele><time>2026-05-03T15:24:57.999Z</time></trkpt><trkpt lat="45.90342470957397" lon="12.023557564961258"><ele>353.4</ele><time>2026-05-03T15:24:58.999Z</time></trkpt><trkpt lat="45.90346067274045" lon="12.023687790852197"><ele>355.6</ele><time>2026-05-03T15:24:59.999Z</time></trkpt><trkpt lat="45.90349605113048" lon="12.023804217143747"><ele>357.8</ele><time>2026-05-03T15:25:00.999Z</time></trkpt><trkpt lat="45.90352960515739" lon="12.023922033088446"><ele>360.0</ele><time>2026-05-03T15:25:01.999Z</time></trkpt><trkpt lat="45.903559182480976" lon="12.024037453953943"><ele>360.0</ele><time>2026-05-03T15:25:02.999Z</time></trkpt><trkpt lat="45.903594360204195" lon="12.024142762285326"><ele>360.0</ele><time>2026-05-03T15:25:03.999Z</time></trkpt><trkpt lat="45.90363056062688" lon="12.024263824025072"><ele>360.0</ele><time>2026-05-03T15:25:04.999Z</time></trkpt><trkpt lat="45.90367682444337" lon="12.024372540839408"><ele>360.0</ele><time>2026-05-03T15:25:05.999Z</time></trkpt><trkpt lat="45.90373626258329" lon="12.024478879118845"><ele>360.0</ele><time>2026-05-03T15:25:06.999Z</time></trkpt><trkpt lat="45.90379238778377" lon="12.024594207603856"><ele>360.8</ele><time>2026-05-03T15:25:07.999Z</time></trkpt><trkpt lat="45.903860513287825" lon="12.024673539091024"><ele>361.6</ele><time>2026-05-03T15:25:08.999Z</time></trkpt><trkpt lat="45.90396389792673" lon="12.02474637504781"><ele>362.4</ele><time>2026-05-03T15:25:09.999Z</time></trkpt><trkpt lat="45.904064540056766" lon="12.024827931478985"><ele>363.2</ele><time>2026-05-03T15:25:10.999Z</time></trkpt><trkpt lat="45.904164557496095" lon="12.02489475283457"><ele>364.0</ele><time>2026-05-03T15:25:11.999Z</time></trkpt><trkpt lat="45.90425405340315" lon="12.024966006912463"><ele>362.66666666666663</ele><time>2026-05-03T15:25:12.999Z</time></trkpt><trkpt lat="45.904343341715766" lon="12.02502868641482"><ele>361.3333333333333</ele><time>2026-05-03T15:25:13.999Z</time></trkpt><trkpt lat="45.90442189748031" lon="12.025081811528583"><ele>360.0</ele><time>2026-05-03T15:25:14.999Z</time></trkpt><trkpt lat="45.9044888454266" lon="12.025151639781381"><ele>358.6666666666667</ele><time>2026-05-03T15:25:15.999Z</time></trkpt><trkpt lat="45.904535725479484" lon="12.025234101638855"><ele>357.33333333333337</ele><time>2026-05-03T15:25:16.999Z</time></trkpt><trkpt lat="45.904563409648304" lon="12.025338050220016"><ele>356.0</ele><time>2026-05-03T15:25:18Z</time></trkpt><trkpt lat="45.9045613978993" lon="12.025439250655445"><ele>356.0</ele><time>2026-05-03T15:25:19Z</time></trkpt><trkpt lat="45.90455677060447" lon="12.025535890447852"><ele>356.0</ele><time>2026-05-03T15:25:20Z</time></trkpt><trkpt lat="45.90455471513867" lon="12.02563835655012"><ele>356.0</ele><time>2026-05-03T15:25:21Z</time></trkpt><trkpt lat="45.904542276888584" lon="12.025730511800404"><ele>356.0</ele><time>2026-05-03T15:25:22Z</time></trkpt><trkpt lat="45.904511296465635" lon="12.025831108069362"><ele>356.0</ele><time>2026-05-03T15:25:23Z</time></trkpt><trkpt lat="45.904471988461516" lon="12.02593098892692"><ele>356.0</ele><time>2026-05-03T15:25:24Z</time></trkpt><trkpt lat="45.904406645706864" lon="12.026035284987392"><ele>356.20000000000005</ele><time>2026-05-03T15:25:25Z</time></trkpt><trkpt lat="45.90432698079038" lon="12.026112278534908"><ele>356.40000000000003</ele><time>2026-05-03T15:25:26Z</time></trkpt><trkpt lat="45.90421912556198" lon="12.026189464065958"><ele>356.6</ele><time>2026-05-03T15:25:27Z</time></trkpt><trkpt lat="45.90413086836941" lon="12.026226776981305"><ele>356.8</ele><time>2026-05-03T15:25:28Z</time></trkpt><trkpt lat="45.904021302412076" lon="12.026271769333635"><ele>357.0</ele><time>2026-05-03T15:25:29Z</time></trkpt><trkpt lat="45.903925177167075" lon="12.02631032468553"><ele>357.0</ele><time>2026-05-03T15:25:30Z</time></trkpt><trkpt lat="45.903822969052335" lon="12.02634431718028"><ele>357.0</ele><time>2026-05-03T15:25:31Z</time></trkpt><trkpt lat="45.903715664463526" lon="12.026389590847772"><ele>357.0</ele><time>2026-05-03T15:25:32Z</time></trkpt><trkpt lat="45.90361301820933" lon="12.026463703077097"><ele>357.0</ele><time>2026-05-03T15:25:33Z</time></trkpt><trkpt lat="45.90352177674852" lon="12.026560763828138"><ele>357.0</ele><time>2026-05-03T15:25:34Z</time></trkpt><trkpt lat="45.90343305801315" lon="12.026661777083241"><ele>353.8</ele><time>2026-05-03T15:25:35Z</time></trkpt><trkpt lat="45.90336901355185" lon="12.02678203128683"><ele>350.6</ele><time>2026-05-03T15:25:36Z</time></trkpt><trkpt lat="45.90330470865972" lon="12.026906728696815"><ele>347.40000000000003</ele><time>2026-05-03T15:25:37Z</time></trkpt><trkpt lat="45.90326589905958" lon="12.027036817305058"><ele>344.20000000000005</ele><time>2026-05-03T15:25:38Z</time></trkpt><trkpt lat="45.90323709562835" lon="12.02720256189755"><ele>341.0</ele><time>2026-05-03T15:25:39Z</time></trkpt><trkpt lat="45.90321180646609" lon="12.027292293776956"><ele>341.0</ele><time>2026-05-03T15:25:40Z</time></trkpt><trkpt lat="45.90319926291458" lon="12.027415471371802"><ele>341.0</ele><time>2026-05-03T15:25:41Z</time></trkpt><trkpt lat="45.903185555208374" lon="12.027509089174144"><ele>341.0</ele><time>2026-05-03T15:25:42Z</time></trkpt><trkpt lat="45.90318608815225" lon="12.027608732772727"><ele>341.0</ele><time>2026-05-03T15:25:43Z</time></trkpt><trkpt lat="45.90319007567615" lon="12.027739525728801"><ele>341.0</ele><time>2026-05-03T15:25:45Z</time></trkpt><trkpt lat="45.903236333970455" lon="12.027859292494705"><ele>341.0</ele><time>2026-05-03T15:25:47Z</time></trkpt><trkpt lat="45.90327842143733" lon="12.027964117799167"><ele>343.4</ele><time>2026-05-03T15:25:48Z</time></trkpt><trkpt lat="45.90333753650868" lon="12.028087859506291"><ele>345.8</ele><time>2026-05-03T15:25:49Z</time></trkpt><trkpt lat="45.90338992975472" lon="12.0281990899522"><ele>348.2</ele><time>2026-05-03T15:25:50Z</time></trkpt><trkpt lat="45.90345384195827" lon="12.028312168909897"><ele>350.59999999999997</ele><time>2026-05-03T15:25:51Z</time></trkpt><trkpt lat="45.90350315793096" lon="12.028456389864001"><ele>353.0</ele><time>2026-05-03T15:25:52Z</time></trkpt><trkpt lat="45.90351633659772" lon="12.028618252593779"><ele>351.5</ele><time>2026-05-03T15:25:53Z</time></trkpt><trkpt lat="45.90347755384258" lon="12.028789265739983"><ele>350.0</ele><time>2026-05-03T15:25:54Z</time></trkpt><trkpt lat="45.903387213807605" lon="12.028929095508765"><ele>348.5</ele><time>2026-05-03T15:25:55Z</time></trkpt><trkpt lat="45.90329389991136" lon="12.029047236710301"><ele>347.0</ele><time>2026-05-03T15:25:56Z</time></trkpt><trkpt lat="45.90320819737173" lon="12.029151141459652"><ele>347.0</ele><time>2026-05-03T15:25:57Z</time></trkpt><trkpt lat="45.90312354837654" lon="12.029260988913435"><ele>347.0</ele><time>2026-05-03T15:25:58Z</time></trkpt><trkpt lat="45.90305236045514" lon="12.029398669939951"><ele>347.0</ele><time>2026-05-03T15:25:59Z</time></trkpt><trkpt lat="45.90301380403911" lon="12.02956256795746"><ele>347.0</ele><time>2026-05-03T15:26:00Z</time></trkpt><trkpt lat="45.903000322737746" lon="12.029736746065604"><ele>347.0</ele><time>2026-05-03T15:26:01Z</time></trkpt><trkpt lat="45.9030033124616" lon="12.029913344931764"><ele>347.0</ele><time>2026-05-03T15:26:02Z</time></trkpt><trkpt lat="45.903033756418324" lon="12.030085234070217"><ele>347.0</ele><time>2026-05-03T15:26:03Z</time></trkpt><trkpt lat="45.903078477918704" lon="12.030256883342403"><ele>347.0</ele><time>2026-05-03T15:26:04Z</time></trkpt><trkpt lat="45.903144265241245" lon="12.030408127200054"><ele>348.0</ele><time>2026-05-03T15:26:05Z</time></trkpt><trkpt lat="45.903251920976494" lon="12.030524875559014"><ele>349.0</ele><time>2026-05-03T15:26:06Z</time></trkpt><trkpt lat="45.90335435409144" lon="12.030614257385045"><ele>350.0</ele><time>2026-05-03T15:26:07Z</time></trkpt><trkpt lat="45.90347187821749" lon="12.030712898179665"><ele>351.0</ele><time>2026-05-03T15:26:08Z</time></trkpt><trkpt lat="45.90359925755953" lon="12.030782588588309"><ele>353.5</ele><time>2026-05-03T15:26:09Z</time></trkpt><trkpt lat="45.90372873639305" lon="12.030844098327513"><ele>356.0</ele><time>2026-05-03T15:26:10Z</time></trkpt><trkpt lat="45.90385505865302" lon="12.03090422194006"><ele>358.5</ele><time>2026-05-03T15:26:11Z</time></trkpt><trkpt lat="45.90396737904107" lon="12.030997445681074"><ele>361.0</ele><time>2026-05-03T15:26:12Z</time></trkpt><trkpt lat="45.904074887341906" lon="12.031092719897858"><ele>361.0</ele><time>2026-05-03T15:26:13Z</time></trkpt><trkpt lat="45.90416760582786" lon="12.03122401325475"><ele>361.0</ele><time>2026-05-03T15:26:13.999Z</time></trkpt><trkpt lat="45.90423656523098" lon="12.031393370643327"><ele>361.0</ele><time>2026-05-03T15:26:14.999Z</time></trkpt><trkpt lat="45.90428314183527" lon="12.031575319630138"><ele>361.0</ele><time>2026-05-03T15:26:15.999Z</time></trkpt><trkpt lat="45.90433179991193" lon="12.031769834172554"><ele>367.3333333333333</ele><time>2026-05-03T15:26:16.999Z</time></trkpt><trkpt lat="45.9043903182739" lon="12.031972102017239"><ele>373.6666666666667</ele><time>2026-05-03T15:26:17.999Z</time></trkpt><trkpt lat="45.90444751024696" lon="12.032195191198774"><ele>380.0</ele><time>2026-05-03T15:26:18.999Z</time></trkpt><trkpt lat="45.9044954164009" lon="12.032414166308078"><ele>373.33333333333337</ele><time>2026-05-03T15:26:19.999Z</time></trkpt><trkpt lat="45.90455185824434" lon="12.03263550443684"><ele>366.6666666666667</ele><time>2026-05-03T15:26:20.999Z</time></trkpt><trkpt lat="45.90461024886259" lon="12.032843104113036"><ele>360.0</ele><time>2026-05-03T15:26:21.999Z</time></trkpt><trkpt lat="45.9046759659782" lon="12.033041306860236"><ele>360.0</ele><time>2026-05-03T15:26:22.999Z</time></trkpt><trkpt lat="45.90473868072833" lon="12.033220406023824"><ele>360.0</ele><time>2026-05-03T15:26:23.999Z</time></trkpt><trkpt lat="45.90481825480081" lon="12.033388720310816"><ele>360.0</ele><time>2026-05-03T15:26:24.999Z</time></trkpt><trkpt lat="45.90490029152863" lon="12.03353393833565"><ele>360.0</ele><time>2026-05-03T15:26:25.999Z</time></trkpt><trkpt lat="45.90497795634633" lon="12.033716916997182"><ele>361.25</ele><time>2026-05-03T15:26:26.999Z</time></trkpt><trkpt lat="45.90507092006358" lon="12.033859058670492"><ele>362.5</ele><time>2026-05-03T15:26:27.999Z</time></trkpt><trkpt lat="45.90516918124593" lon="12.034018340986051"><ele>363.75</ele><time>2026-05-03T15:26:28.999Z</time></trkpt><trkpt lat="45.90527970859315" lon="12.034142138442107"><ele>365.0</ele><time>2026-05-03T15:26:29.999Z</time></trkpt><trkpt lat="45.90539107742715" lon="12.034250674986103"><ele>358.75</ele><time>2026-05-03T15:26:30.999Z</time></trkpt><trkpt lat="45.90549852109787" lon="12.03435533272916"><ele>352.5</ele><time>2026-05-03T15:26:31.999Z</time></trkpt><trkpt lat="45.905610122923406" lon="12.034447440464303"><ele>346.25</ele><time>2026-05-03T15:26:32.999Z</time></trkpt><trkpt lat="45.90567932880267" lon="12.034581289432959"><ele>340.0</ele><time>2026-05-03T15:26:33.999Z</time></trkpt><trkpt lat="45.90574253953979" lon="12.034733495710185"><ele>340.0</ele><time>2026-05-03T15:26:34.999Z</time></trkpt><trkpt lat="45.9057992933945" lon="12.034882809371606"><ele>340.0</ele><time>2026-05-03T15:26:35.999Z</time></trkpt><trkpt lat="45.905807660276885" lon="12.03506025587259"><ele>340.0</ele><time>2026-05-03T15:26:36.999Z</time></trkpt><trkpt lat="45.90582942190683" lon="12.035240116486577"><ele>340.0</ele><time>2026-05-03T15:26:37.999Z</time></trkpt><trkpt lat="45.905844531313676" lon="12.035418637061715"><ele>335.75</ele><time>2026-05-03T15:26:38.999Z</time></trkpt><trkpt lat="45.90586177360979" lon="12.035624694585326"><ele>331.5</ele><time>2026-05-03T15:26:39.999Z</time></trkpt><trkpt lat="45.905875705609404" lon="12.035825924485403"><ele>327.25</ele><time>2026-05-03T15:26:40.999Z</time></trkpt><trkpt lat="45.90587504863115" lon="12.036017237017388"><ele>323.0</ele><time>2026-05-03T15:26:41.999Z</time></trkpt><trkpt lat="45.90586402328257" lon="12.03621977389467"><ele>322.33333333333337</ele><time>2026-05-03T15:26:42.999Z</time></trkpt><trkpt lat="45.90583791835823" lon="12.03642482243101"><ele>321.6666666666667</ele><time>2026-05-03T15:26:43.999Z</time></trkpt><trkpt lat="45.90576704900345" lon="12.036619980413588"><ele>321.0</ele><time>2026-05-03T15:26:44.999Z</time></trkpt><trkpt lat="45.90573244562836" lon="12.036877222400296"><ele>321.0</ele><time>2026-05-03T15:26:45.999Z</time></trkpt><trkpt lat="45.90566735158632" lon="12.03703720190956"><ele>321.0</ele><time>2026-05-03T15:26:46.999Z</time></trkpt><trkpt lat="45.90559785150067" lon="12.037212405049988"><ele>321.0</ele><time>2026-05-03T15:26:47.999Z</time></trkpt><trkpt lat="45.905474878943814" lon="12.037382043058356"><ele>321.0</ele><time>2026-05-03T15:26:48.999Z</time></trkpt><trkpt lat="45.90540537769542" lon="12.037563197939077"><ele>322.0</ele><time>2026-05-03T15:26:49.999Z</time></trkpt><trkpt lat="45.905330489223196" lon="12.03773862801269"><ele>323.0</ele><time>2026-05-03T15:26:50.999Z</time></trkpt><trkpt lat="45.905263432615115" lon="12.037912761256154"><ele>324.0</ele><time>2026-05-03T15:26:51.999Z</time></trkpt><trkpt lat="45.90519493307233" lon="12.038082163502628"><ele>325.0</ele><time>2026-05-03T15:26:52.999Z</time></trkpt><trkpt lat="45.905137756516645" lon="12.038258103330314"><ele>326.25</ele><time>2026-05-03T15:26:53.999Z</time></trkpt><trkpt lat="45.90510878524283" lon="12.038434503537125"><ele>327.5</ele><time>2026-05-03T15:26:54.999Z</time></trkpt><trkpt lat="45.90507957499571" lon="12.038627545713156"><ele>328.75</ele><time>2026-05-03T15:26:55.999Z</time></trkpt><trkpt lat="45.905056459111314" lon="12.038818819447334"><ele>330.0</ele><time>2026-05-03T15:26:56.999Z</time></trkpt><trkpt lat="45.90504639593853" lon="12.039004978276035"><ele>325.0</ele><time>2026-05-03T15:26:57.999Z</time></trkpt><trkpt lat="45.90503587611872" lon="12.039199781519851"><ele>320.0</ele><time>2026-05-03T15:26:58.999Z</time></trkpt><trkpt lat="45.905034300960125" lon="12.039397672784022"><ele>315.0</ele><time>2026-05-03T15:26:59.999Z</time></trkpt><trkpt lat="45.9050413157392" lon="12.039612676274936"><ele>310.0</ele><time>2026-05-03T15:27:00.999Z</time></trkpt><trkpt lat="45.90507813756597" lon="12.039818071528183"><ele>317.66666666666663</ele><time>2026-05-03T15:27:01.999Z</time></trkpt><trkpt lat="45.905136771355" lon="12.04001786588242"><ele>325.3333333333333</ele><time>2026-05-03T15:27:02.999Z</time></trkpt><trkpt lat="45.90520855235179" lon="12.040219969232657"><ele>333.0</ele><time>2026-05-03T15:27:03.999Z</time></trkpt><trkpt lat="45.90527689127481" lon="12.040423588897738"><ele>333.0</ele><time>2026-05-03T15:27:04.999Z</time></trkpt><trkpt lat="45.905335123839876" lon="12.040615535088655"><ele>333.0</ele><time>2026-05-03T15:27:05.999Z</time></trkpt><trkpt lat="45.90539246176004" lon="12.040796038265364"><ele>333.0</ele><time>2026-05-03T15:27:06.999Z</time></trkpt><trkpt lat="45.905423892612006" lon="12.04097925809534"><ele>333.0</ele><time>2026-05-03T15:27:07.999Z</time></trkpt><trkpt lat="45.90542272492077" lon="12.041166632042302"><ele>331.5</ele><time>2026-05-03T15:27:08.999Z</time></trkpt><trkpt lat="45.90539257593218" lon="12.04134709576045"><ele>330.0</ele><time>2026-05-03T15:27:09.999Z</time></trkpt><trkpt lat="45.905331942997336" lon="12.041514118198474"><ele>328.5</ele><time>2026-05-03T15:27:10.999Z</time></trkpt><trkpt lat="45.90523699331192" lon="12.041656927210514"><ele>327.0</ele><time>2026-05-03T15:27:11.999Z</time></trkpt><trkpt lat="45.905126314113446" lon="12.0417884100892"><ele>319.25</ele><time>2026-05-03T15:27:12.999Z</time></trkpt><trkpt lat="45.9050232808953" lon="12.041920598750847"><ele>311.5</ele><time>2026-05-03T15:27:13.999Z</time></trkpt><trkpt lat="45.90492905260324" lon="12.042053568547495"><ele>303.75</ele><time>2026-05-03T15:27:14.999Z</time></trkpt><trkpt lat="45.904854227492905" lon="12.04220121028939"><ele>296.0</ele><time>2026-05-03T15:27:15.999Z</time></trkpt><trkpt lat="45.90482161403044" lon="12.042363746768357"><ele>297.5</ele><time>2026-05-03T15:27:16.999Z</time></trkpt><trkpt lat="45.90479845083119" lon="12.042552828403409"><ele>299.0</ele><time>2026-05-03T15:27:17.999Z</time></trkpt><trkpt lat="45.90481397989948" lon="12.042749749242834"><ele>300.5</ele><time>2026-05-03T15:27:18.999Z</time></trkpt><trkpt lat="45.904848880445044" lon="12.042945148619655"><ele>302.0</ele><time>2026-05-03T15:27:19.999Z</time></trkpt><trkpt lat="45.90489237643636" lon="12.04313411463086"><ele>301.0</ele><time>2026-05-03T15:27:20.999Z</time></trkpt><trkpt lat="45.90495667329903" lon="12.043319888422152"><ele>300.0</ele><time>2026-05-03T15:27:21.999Z</time></trkpt><trkpt lat="45.90504210122271" lon="12.043487380309408"><ele>299.0</ele><time>2026-05-03T15:27:22.999Z</time></trkpt><trkpt lat="45.9051318995946" lon="12.043652241388466"><ele>298.0</ele><time>2026-05-03T15:27:24Z</time></trkpt><trkpt lat="45.905205268631256" lon="12.043830997706984"><ele>302.25</ele><time>2026-05-03T15:27:25Z</time></trkpt><trkpt lat="45.90522561145246" lon="12.044038103920593"><ele>306.5</ele><time>2026-05-03T15:27:26Z</time></trkpt><trkpt lat="45.90525621715409" lon="12.044236767613757"><ele>310.75</ele><time>2026-05-03T15:27:27Z</time></trkpt><trkpt lat="45.90530636730163" lon="12.044436598613839"><ele>315.0</ele><time>2026-05-03T15:27:28Z</time></trkpt><trkpt lat="45.90535281716992" lon="12.044644658046789"><ele>315.0</ele><time>2026-05-03T15:27:29Z</time></trkpt><trkpt lat="45.905422881999954" lon="12.04484082881229"><ele>315.0</ele><time>2026-05-03T15:27:30Z</time></trkpt><trkpt lat="45.905508014238066" lon="12.045030538883749"><ele>315.0</ele><time>2026-05-03T15:27:31Z</time></trkpt><trkpt lat="45.90560011303552" lon="12.045225076004593"><ele>312.75</ele><time>2026-05-03T15:27:32Z</time></trkpt><trkpt lat="45.905673824315734" lon="12.045415345352904"><ele>310.5</ele><time>2026-05-03T15:27:33Z</time></trkpt><trkpt lat="45.90573737681477" lon="12.045613538263227"><ele>308.25</ele><time>2026-05-03T15:27:34Z</time></trkpt><trkpt lat="45.90575479058066" lon="12.045819370594119"><ele>306.0</ele><time>2026-05-03T15:27:35Z</time></trkpt><trkpt lat="45.905787199363814" lon="12.04601826635159"><ele>304.25</ele><time>2026-05-03T15:27:36Z</time></trkpt><trkpt lat="45.90579582796899" lon="12.046234038693559"><ele>302.5</ele><time>2026-05-03T15:27:37Z</time></trkpt><trkpt lat="45.905826814294876" lon="12.046441231993192"><ele>300.75</ele><time>2026-05-03T15:27:38Z</time></trkpt><trkpt lat="45.90588015389743" lon="12.046642466876296"><ele>299.0</ele><time>2026-05-03T15:27:39Z</time></trkpt><trkpt lat="45.90596128583109" lon="12.046835195705105"><ele>303.0</ele><time>2026-05-03T15:27:40Z</time></trkpt><trkpt lat="45.906032423719125" lon="12.047015823403818"><ele>307.0</ele><time>2026-05-03T15:27:41Z</time></trkpt><trkpt lat="45.9060833317784" lon="12.047221364812916"><ele>311.0</ele><time>2026-05-03T15:27:42Z</time></trkpt><trkpt lat="45.9061233922167" lon="12.047430401036994"><ele>315.0</ele><time>2026-05-03T15:27:43Z</time></trkpt><trkpt lat="45.906141527339074" lon="12.047637621155879"><ele>315.0</ele><time>2026-05-03T15:27:44Z</time></trkpt><trkpt lat="45.906158469749556" lon="12.047843630002047"><ele>315.0</ele><time>2026-05-03T15:27:45Z</time></trkpt><trkpt lat="45.90616322311604" lon="12.048046885229201"><ele>315.0</ele><time>2026-05-03T15:27:46Z</time></trkpt><trkpt lat="45.906184660814986" lon="12.04822932043495"><ele>315.0</ele><time>2026-05-03T15:27:47Z</time></trkpt><trkpt lat="45.90621908617834" lon="12.048391570513884"><ele>314.4</ele><time>2026-05-03T15:27:48Z</time></trkpt><trkpt lat="45.906248705114734" lon="12.048541830090631"><ele>313.8</ele><time>2026-05-03T15:27:49Z</time></trkpt><trkpt lat="45.906299603899505" lon="12.048668351037978"><ele>313.2</ele><time>2026-05-03T15:27:50Z</time></trkpt><trkpt lat="45.90636292373775" lon="12.048784399319581"><ele>312.6</ele><time>2026-05-03T15:27:51Z</time></trkpt><trkpt lat="45.90645085204549" lon="12.048885320117986"><ele>312.0</ele><time>2026-05-03T15:27:52Z</time></trkpt><trkpt lat="45.90655853128195" lon="12.048928087811511"><ele>312.0</ele><time>2026-05-03T15:27:53Z</time></trkpt><trkpt lat="45.906646746599975" lon="12.048949911856988"><ele>312.0</ele><time>2026-05-03T15:27:54Z</time></trkpt><trkpt lat="45.90673646216451" lon="12.048999460641747"><ele>312.0</ele><time>2026-05-03T15:27:55Z</time></trkpt><trkpt lat="45.90686783993252" lon="12.049022765311339"><ele>312.0</ele><time>2026-05-03T15:27:56Z</time></trkpt><trkpt lat="45.90698438144071" lon="12.049058590043048"><ele>312.0</ele><time>2026-05-03T15:27:57Z</time></trkpt><trkpt lat="45.907093991173674" lon="12.049106947171166"><ele>311.5</ele><time>2026-05-03T15:27:58Z</time></trkpt><trkpt lat="45.90721193027519" lon="12.049144039301465"><ele>311.0</ele><time>2026-05-03T15:27:59Z</time></trkpt><trkpt lat="45.90732896806583" lon="12.049169893634945"><ele>310.5</ele><time>2026-05-03T15:28:00Z</time></trkpt><trkpt lat="45.907444884393215" lon="12.04919925389688"><ele>310.0</ele><time>2026-05-03T15:28:01Z</time></trkpt><trkpt lat="45.907568334663864" lon="12.049243756959696"><ele>313.25</ele><time>2026-05-03T15:28:02Z</time></trkpt><trkpt lat="45.90768901715658" lon="12.049304098354243"><ele>316.5</ele><time>2026-05-03T15:28:03Z</time></trkpt><trkpt lat="45.907805762428666" lon="12.049390931218646"><ele>319.75</ele><time>2026-05-03T15:28:04Z</time></trkpt><trkpt lat="45.907919906604256" lon="12.049500929251446"><ele>323.0</ele><time>2026-05-03T15:28:05Z</time></trkpt><trkpt lat="45.90803370287741" lon="12.049599904739534"><ele>323.0</ele><time>2026-05-03T15:28:06Z</time></trkpt><trkpt lat="45.90814205778442" lon="12.049708267864933"><ele>323.0</ele><time>2026-05-03T15:28:07Z</time></trkpt><trkpt lat="45.90824486398844" lon="12.049812700378075"><ele>323.0</ele><time>2026-05-03T15:28:08Z</time></trkpt><trkpt lat="45.90834998856393" lon="12.049921950340465"><ele>323.0</ele><time>2026-05-03T15:28:09Z</time></trkpt><trkpt lat="45.90845020868806" lon="12.05004419334608"><ele>325.5</ele><time>2026-05-03T15:28:10Z</time></trkpt><trkpt lat="45.908519808490716" lon="12.050201797200877"><ele>328.0</ele><time>2026-05-03T15:28:11Z</time></trkpt><trkpt lat="45.90861046882515" lon="12.05035399020465"><ele>330.5</ele><time>2026-05-03T15:28:12Z</time></trkpt><trkpt lat="45.90871503855515" lon="12.050502814721387"><ele>333.0</ele><time>2026-05-03T15:28:13Z</time></trkpt><trkpt lat="45.908793078942324" lon="12.05067025729199"><ele>329.0</ele><time>2026-05-03T15:28:14Z</time></trkpt><trkpt lat="45.9088789143137" lon="12.050822239568113"><ele>325.0</ele><time>2026-05-03T15:28:15Z</time></trkpt><trkpt lat="45.908973560580904" lon="12.050977455183801"><ele>321.0</ele><time>2026-05-03T15:28:16Z</time></trkpt><trkpt lat="45.909062407946095" lon="12.051131748456742"><ele>317.0</ele><time>2026-05-03T15:28:17Z</time></trkpt><trkpt lat="45.90915000290675" lon="12.051294476417308"><ele>317.0</ele><time>2026-05-03T15:28:17.999Z</time></trkpt><trkpt lat="45.90923991414356" lon="12.05144665982399"><ele>317.0</ele><time>2026-05-03T15:28:18.999Z</time></trkpt><trkpt lat="45.90932948526369" lon="12.051603526309915"><ele>317.0</ele><time>2026-05-03T15:28:19.999Z</time></trkpt><trkpt lat="45.90943848722855" lon="12.051761028260032"><ele>317.0</ele><time>2026-05-03T15:28:20.999Z</time></trkpt><trkpt lat="45.90953382384998" lon="12.051924430363275"><ele>321.6666666666667</ele><time>2026-05-03T15:28:21.999Z</time></trkpt><trkpt lat="45.90962881326015" lon="12.052094491766715"><ele>326.3333333333333</ele><time>2026-05-03T15:28:22.999Z</time></trkpt><trkpt lat="45.90972333492577" lon="12.052273991793493"><ele>331.0</ele><time>2026-05-03T15:28:23.999Z</time></trkpt><trkpt lat="45.90981303821575" lon="12.052453977603518"><ele>331.5</ele><time>2026-05-03T15:28:24.999Z</time></trkpt><trkpt lat="45.90989345111362" lon="12.052637720001604"><ele>332.0</ele><time>2026-05-03T15:28:25.999Z</time></trkpt><trkpt lat="45.90998132547797" lon="12.052811345534366"><ele>332.5</ele><time>2026-05-03T15:28:26.999Z</time></trkpt><trkpt lat="45.91007699610909" lon="12.052964095996579"><ele>333.0</ele><time>2026-05-03T15:28:27.999Z</time></trkpt><trkpt lat="45.91019580924308" lon="12.053079565550036"><ele>333.0</ele><time>2026-05-03T15:28:28.999Z</time></trkpt><trkpt lat="45.91029912257015" lon="12.053211781639211"><ele>333.0</ele><time>2026-05-03T15:28:29.999Z</time></trkpt><trkpt lat="45.91040369730656" lon="12.053337904151489"><ele>333.0</ele><time>2026-05-03T15:28:30.999Z</time></trkpt><trkpt lat="45.91049871342716" lon="12.0534619315562"><ele>333.0</ele><time>2026-05-03T15:28:31.999Z</time></trkpt><trkpt lat="45.91060401780101" lon="12.053543289120215"><ele>328.75</ele><time>2026-05-03T15:28:32.999Z</time></trkpt><trkpt lat="45.91073228135631" lon="12.053585156837332"><ele>324.5</ele><time>2026-05-03T15:28:33.999Z</time></trkpt><trkpt lat="45.91087926592689" lon="12.053589574755009"><ele>320.25</ele><time>2026-05-03T15:28:34.999Z</time></trkpt><trkpt lat="45.91102615932478" lon="12.053579242069183"><ele>316.0</ele><time>2026-05-03T15:28:35.999Z</time></trkpt><trkpt lat="45.9111728907747" lon="12.053568429984196"><ele>316.0</ele><time>2026-05-03T15:28:36.999Z</time></trkpt><trkpt lat="45.91132099300635" lon="12.05356904886547"><ele>316.0</ele><time>2026-05-03T15:28:37.999Z</time></trkpt><trkpt lat="45.911470968615994" lon="12.053568802167693"><ele>316.0</ele><time>2026-05-03T15:28:38.999Z</time></trkpt><trkpt lat="45.911620681014135" lon="12.053543099609211"><ele>316.0</ele><time>2026-05-03T15:28:39.999Z</time></trkpt><trkpt lat="45.91176597047472" lon="12.053468136049995"><ele>315.25</ele><time>2026-05-03T15:28:40.999Z</time></trkpt><trkpt lat="45.91188342330014" lon="12.053325245837213"><ele>314.5</ele><time>2026-05-03T15:28:41.999Z</time></trkpt><trkpt lat="45.91199449883082" lon="12.053184665256785"><ele>313.75</ele><time>2026-05-03T15:28:42.999Z</time></trkpt><trkpt lat="45.91209172456671" lon="12.053075471750763"><ele>313.0</ele><time>2026-05-03T15:28:43.999Z</time></trkpt><trkpt lat="45.912232493452215" lon="12.053037731025109"><ele>316.25</ele><time>2026-05-03T15:28:44.999Z</time></trkpt><trkpt lat="45.91237077755911" lon="12.05303267964804"><ele>319.5</ele><time>2026-05-03T15:28:45.999Z</time></trkpt><trkpt lat="45.91252512457866" lon="12.053001287966737"><ele>322.75</ele><time>2026-05-03T15:28:46.999Z</time></trkpt><trkpt lat="45.912674441028976" lon="12.052959688535143"><ele>326.0</ele><time>2026-05-03T15:28:47.999Z</time></trkpt><trkpt lat="45.912836073813196" lon="12.052927808033854"><ele>327.33333333333337</ele><time>2026-05-03T15:28:48.999Z</time></trkpt><trkpt lat="45.91298945756796" lon="12.05289424556135"><ele>328.6666666666667</ele><time>2026-05-03T15:28:49.999Z</time></trkpt><trkpt lat="45.913139247671786" lon="12.052857900132398"><ele>330.0</ele><time>2026-05-03T15:28:50.999Z</time></trkpt><trkpt lat="45.91329337666617" lon="12.052831214017912"><ele>332.75</ele><time>2026-05-03T15:28:51.999Z</time></trkpt><trkpt lat="45.91342451679911" lon="12.052795166847286"><ele>335.5</ele><time>2026-05-03T15:28:52.999Z</time></trkpt><trkpt lat="45.913538208442006" lon="12.05277404673215"><ele>338.25</ele><time>2026-05-03T15:28:53.999Z</time></trkpt><trkpt lat="45.913649485201226" lon="12.05275079864327"><ele>341.0</ele><time>2026-05-03T15:28:54.999Z</time></trkpt><trkpt lat="45.91374584291451" lon="12.05271655253161"><ele>341.0</ele><time>2026-05-03T15:28:55.999Z</time></trkpt><trkpt lat="45.91383989052363" lon="12.05272586151399"><ele>341.0</ele><time>2026-05-03T15:28:56.999Z</time></trkpt><trkpt lat="45.91392157305529" lon="12.052774549270742"><ele>341.0</ele><time>2026-05-03T15:28:57.999Z</time></trkpt><trkpt lat="45.91399235349497" lon="12.05285007211306"><ele>341.0</ele><time>2026-05-03T15:28:58.999Z</time></trkpt><trkpt lat="45.91404767039902" lon="12.05292759153416"><ele>341.0</ele><time>2026-05-03T15:28:59.999Z</time></trkpt><trkpt lat="45.91409207606696" lon="12.053016262177564"><ele>341.0</ele><time>2026-05-03T15:29:00.999Z</time></trkpt><trkpt lat="45.914146456426806" lon="12.05311325746022"><ele>341.0</ele><time>2026-05-03T15:29:01.999Z</time></trkpt><trkpt lat="45.91419975889238" lon="12.05322733572821"><ele>341.0</ele><time>2026-05-03T15:29:02.999Z</time></trkpt><trkpt lat="45.914257828287056" lon="12.053336616862646"><ele>341.0</ele><time>2026-05-03T15:29:03.999Z</time></trkpt><trkpt lat="45.91431916360797" lon="12.053455809694515"><ele>341.0</ele><time>2026-05-03T15:29:04.999Z</time></trkpt><trkpt lat="45.914387611123026" lon="12.053571817917609"><ele>341.0</ele><time>2026-05-03T15:29:05.999Z</time></trkpt><trkpt lat="45.914462365076645" lon="12.053690496727802"><ele>340.4</ele><time>2026-05-03T15:29:06.999Z</time></trkpt><trkpt lat="45.91451790813365" lon="12.053825167606675"><ele>339.8</ele><time>2026-05-03T15:29:07.999Z</time></trkpt><trkpt lat="45.91458674082512" lon="12.053958560564547"><ele>339.2</ele><time>2026-05-03T15:29:08.999Z</time></trkpt><trkpt lat="45.91464080157849" lon="12.054091314597725"><ele>338.59999999999997</ele><time>2026-05-03T15:29:09.999Z</time></trkpt><trkpt lat="45.914671205783264" lon="12.054224739205564"><ele>338.0</ele><time>2026-05-03T15:29:10.999Z</time></trkpt><trkpt lat="45.91470419537856" lon="12.054376523623027"><ele>338.0</ele><time>2026-05-03T15:29:11.999Z</time></trkpt><trkpt lat="45.91473726683935" lon="12.0545316657225"><ele>338.0</ele><time>2026-05-03T15:29:12.999Z</time></trkpt><trkpt lat="45.91477441414669" lon="12.054705935181273"><ele>338.0</ele><time>2026-05-03T15:29:13.999Z</time></trkpt><trkpt lat="45.91480948476375" lon="12.05487015378767"><ele>338.0</ele><time>2026-05-03T15:29:14.999Z</time></trkpt><trkpt lat="45.91485739135958" lon="12.055033146081199"><ele>338.59999999999997</ele><time>2026-05-03T15:29:15.999Z</time></trkpt><trkpt lat="45.91488877893923" lon="12.055210304444127"><ele>339.2</ele><time>2026-05-03T15:29:16.999Z</time></trkpt><trkpt lat="45.914922991176766" lon="12.05534079442269"><ele>339.8</ele><time>2026-05-03T15:29:17.999Z</time></trkpt><trkpt lat="45.914940040680406" lon="12.055473319849325"><ele>340.4</ele><time>2026-05-03T15:29:18.999Z</time></trkpt><trkpt lat="45.914914301912894" lon="12.055580221361751"><ele>341.0</ele><time>2026-05-03T15:29:19.999Z</time></trkpt><trkpt lat="45.914844847548245" lon="12.055672290401576"><ele>341.0</ele><time>2026-05-03T15:29:20.999Z</time></trkpt><trkpt lat="45.914746399822256" lon="12.055726689662915"><ele>341.0</ele><time>2026-05-03T15:29:21.999Z</time></trkpt><trkpt lat="45.914637171968614" lon="12.055732860676567"><ele>341.0</ele><time>2026-05-03T15:29:22.999Z</time></trkpt><trkpt lat="45.91453984014831" lon="12.05574062774232"><ele>341.0</ele><time>2026-05-03T15:29:23.999Z</time></trkpt><trkpt lat="45.91445136695543" lon="12.055773012140097"><ele>341.0</ele><time>2026-05-03T15:29:24.999Z</time></trkpt><trkpt lat="45.914369978352134" lon="12.055818328166403"><ele>342.6</ele><time>2026-05-03T15:29:25.999Z</time></trkpt><trkpt lat="45.914314849480405" lon="12.055924452604371"><ele>344.20000000000005</ele><time>2026-05-03T15:29:26.999Z</time></trkpt><trkpt lat="45.9142955472829" lon="12.056058491660071"><ele>345.79999999999995</ele><time>2026-05-03T15:29:27.999Z</time></trkpt><trkpt lat="45.91428845176167" lon="12.056199793289206"><ele>347.4</ele><time>2026-05-03T15:29:28.999Z</time></trkpt><trkpt lat="45.91438160750586" lon="12.056317649580597"><ele>349.0</ele><time>2026-05-03T15:29:30Z</time></trkpt><trkpt lat="45.91447333674522" lon="12.056402268049709"><ele>349.0</ele><time>2026-05-03T15:29:31Z</time></trkpt><trkpt lat="45.91458770432213" lon="12.056468378894724"><ele>349.0</ele><time>2026-05-03T15:29:32Z</time></trkpt><trkpt lat="45.91467775193849" lon="12.056564280782215"><ele>349.0</ele><time>2026-05-03T15:29:33Z</time></trkpt><trkpt lat="45.91476759198715" lon="12.056671568368277"><ele>349.0</ele><time>2026-05-03T15:29:34Z</time></trkpt><trkpt lat="45.91485970868544" lon="12.056756731230667"><ele>349.6</ele><time>2026-05-03T15:29:35Z</time></trkpt><trkpt lat="45.9149372960873" lon="12.056839145265602"><ele>350.2</ele><time>2026-05-03T15:29:36Z</time></trkpt><trkpt lat="45.91500682077856" lon="12.056922999285268"><ele>350.8</ele><time>2026-05-03T15:29:37Z</time></trkpt><trkpt lat="45.91506208912052" lon="12.057028489309346"><ele>351.40000000000003</ele><time>2026-05-03T15:29:38Z</time></trkpt><trkpt lat="45.91508957614965" lon="12.057163744470058"><ele>352.0</ele><time>2026-05-03T15:29:39Z</time></trkpt><trkpt lat="45.91509034356142" lon="12.057303100251321"><ele>357.8</ele><time>2026-05-03T15:29:40Z</time></trkpt><trkpt lat="45.91508403235537" lon="12.057443636676982"><ele>363.6</ele><time>2026-05-03T15:29:41Z</time></trkpt><trkpt lat="45.91507750144756" lon="12.057588506051983"><ele>369.40000000000003</ele><time>2026-05-03T15:29:42Z</time></trkpt><trkpt lat="45.91507244856898" lon="12.057741217928683"><ele>375.20000000000005</ele><time>2026-05-03T15:29:43Z</time></trkpt><trkpt lat="45.91507121363826" lon="12.05789610522267"><ele>381.0</ele><time>2026-05-03T15:29:44Z</time></trkpt><trkpt lat="45.91507181613549" lon="12.058040748734355"><ele>381.0</ele><time>2026-05-03T15:29:45Z</time></trkpt><trkpt lat="45.915077563309886" lon="12.058183225283253"><ele>381.0</ele><time>2026-05-03T15:29:46Z</time></trkpt><trkpt lat="45.91507958099922" lon="12.058312426457219"><ele>381.0</ele><time>2026-05-03T15:29:47Z</time></trkpt><trkpt lat="45.915062920257675" lon="12.058431662432566"><ele>381.0</ele><time>2026-05-03T15:29:48Z</time></trkpt><trkpt lat="45.91503177628374" lon="12.058554412826526"><ele>381.0</ele><time>2026-05-03T15:29:49Z</time></trkpt><trkpt lat="45.91498084937997" lon="12.058658799687581"><ele>377.5</ele><time>2026-05-03T15:29:50Z</time></trkpt><trkpt lat="45.91492245781986" lon="12.058742694100767"><ele>374.0</ele><time>2026-05-03T15:29:51Z</time></trkpt><trkpt lat="45.914847449960384" lon="12.05881127265995"><ele>370.5</ele><time>2026-05-03T15:29:52Z</time></trkpt><trkpt lat="45.91478922602498" lon="12.058901860604971"><ele>367.0</ele><time>2026-05-03T15:29:53Z</time></trkpt><trkpt lat="45.91476313816099" lon="12.059018665993813"><ele>363.5</ele><time>2026-05-03T15:29:54Z</time></trkpt><trkpt lat="45.914765195344046" lon="12.05914575197143"><ele>360.0</ele><time>2026-05-03T15:29:55Z</time></trkpt><trkpt lat="45.914810974016966" lon="12.059250983042684"><ele>360.0</ele><time>2026-05-03T15:29:56Z</time></trkpt><trkpt lat="45.9148759123547" lon="12.059348740750062"><ele>360.0</ele><time>2026-05-03T15:29:57Z</time></trkpt><trkpt lat="45.91495204900194" lon="12.059426857436595"><ele>360.0</ele><time>2026-05-03T15:29:58Z</time></trkpt><trkpt lat="45.91504188073315" lon="12.059484629406613"><ele>360.0</ele><time>2026-05-03T15:29:59Z</time></trkpt><trkpt lat="45.915149167140264" lon="12.059509061779611"><ele>360.0</ele><time>2026-05-03T15:30:00Z</time></trkpt><trkpt lat="45.91524232041368" lon="12.05949679652414"><ele>363.3333333333333</ele><time>2026-05-03T15:30:01Z</time></trkpt><trkpt lat="45.91533315846388" lon="12.05947574358056"><ele>366.6666666666667</ele><time>2026-05-03T15:30:02Z</time></trkpt><trkpt lat="45.91541934690272" lon="12.059454658946962"><ele>370.0</ele><time>2026-05-03T15:30:03Z</time></trkpt><trkpt lat="45.91550488073917" lon="12.059449620437695"><ele>373.33333333333337</ele><time>2026-05-03T15:30:04Z</time></trkpt><trkpt lat="45.915586648186775" lon="12.059462943095484"><ele>376.6666666666667</ele><time>2026-05-03T15:30:05Z</time></trkpt><trkpt lat="45.91567216919212" lon="12.059498643527059"><ele>380.0</ele><time>2026-05-03T15:30:06Z</time></trkpt><trkpt lat="45.915755256779725" lon="12.059556949031466"><ele>380.0</ele><time>2026-05-03T15:30:07Z</time></trkpt><trkpt lat="45.915832976698454" lon="12.059612336295947"><ele>380.0</ele><time>2026-05-03T15:30:08Z</time></trkpt><trkpt lat="45.91591416562623" lon="12.059672893067154"><ele>380.0</ele><time>2026-05-03T15:30:09Z</time></trkpt><trkpt lat="45.91599467068318" lon="12.059734862716523"><ele>380.0</ele><time>2026-05-03T15:30:10Z</time></trkpt><trkpt lat="45.91608227914359" lon="12.059798533932213"><ele>380.0</ele><time>2026-05-03T15:30:11Z</time></trkpt><trkpt lat="45.91617694796757" lon="12.059853778668101"><ele>381.4</ele><time>2026-05-03T15:30:12Z</time></trkpt><trkpt lat="45.91627146859729" lon="12.059908049325772"><ele>382.8</ele><time>2026-05-03T15:30:13Z</time></trkpt><trkpt lat="45.91635887968094" lon="12.059967026626015"><ele>384.20000000000005</ele><time>2026-05-03T15:30:14Z</time></trkpt><trkpt lat="45.916446666824704" lon="12.060026269851248"><ele>385.6</ele><time>2026-05-03T15:30:15Z</time></trkpt><trkpt lat="45.91653615316466" lon="12.060092340363793"><ele>387.0</ele><time>2026-05-03T15:30:16Z</time></trkpt><trkpt lat="45.91662616732335" lon="12.060143348046362"><ele>387.0</ele><time>2026-05-03T15:30:17Z</time></trkpt><trkpt lat="45.916707114791485" lon="12.06024137457211"><ele>387.0</ele><time>2026-05-03T15:30:18Z</time></trkpt><trkpt lat="45.91677977716649" lon="12.060350596056029"><ele>387.0</ele><time>2026-05-03T15:30:19Z</time></trkpt><trkpt lat="45.91682584000856" lon="12.060487970677837"><ele>387.0</ele><time>2026-05-03T15:30:20Z</time></trkpt><trkpt lat="45.916834967733855" lon="12.060651868903182"><ele>387.0</ele><time>2026-05-03T15:30:21Z</time></trkpt><trkpt lat="45.91683265331865" lon="12.060803740929135"><ele>394.75</ele><time>2026-05-03T15:30:22Z</time></trkpt><trkpt lat="45.91682153763201" lon="12.060969034708021"><ele>402.5</ele><time>2026-05-03T15:30:23Z</time></trkpt><trkpt lat="45.91680568692821" lon="12.06113842370087"><ele>410.25</ele><time>2026-05-03T15:30:24Z</time></trkpt><trkpt lat="45.916797702280896" lon="12.0613114009057"><ele>418.0</ele><time>2026-05-03T15:30:25Z</time></trkpt><trkpt lat="45.91678434633486" lon="12.061484080165924"><ele>416.2</ele><time>2026-05-03T15:30:26Z</time></trkpt><trkpt lat="45.9167724797114" lon="12.061645186834266"><ele>414.4</ele><time>2026-05-03T15:30:26.999Z</time></trkpt><trkpt lat="45.91676878089999" lon="12.061806160413278"><ele>412.59999999999997</ele><time>2026-05-03T15:30:27.999Z</time></trkpt><trkpt lat="45.91677114556467" lon="12.061958620631984"><ele>410.79999999999995</ele><time>2026-05-03T15:30:28.999Z</time></trkpt><trkpt lat="45.91677700618811" lon="12.062104862340735"><ele>409.0</ele><time>2026-05-03T15:30:29.999Z</time></trkpt><trkpt lat="45.916810336431254" lon="12.062239601738433"><ele>409.0</ele><time>2026-05-03T15:30:30.999Z</time></trkpt><trkpt lat="45.916883786951324" lon="12.062352139668818"><ele>409.0</ele><time>2026-05-03T15:30:31.999Z</time></trkpt><trkpt lat="45.91698461422514" lon="12.062436670465495"><ele>409.0</ele><time>2026-05-03T15:30:32.999Z</time></trkpt><trkpt lat="45.91709677555547" lon="12.062490096491501"><ele>409.0</ele><time>2026-05-03T15:30:33.999Z</time></trkpt><trkpt lat="45.917224152371965" lon="12.062481585629921"><ele>407.5</ele><time>2026-05-03T15:30:34.999Z</time></trkpt><trkpt lat="45.91734816154823" lon="12.06251919679659"><ele>406.0</ele><time>2026-05-03T15:30:35.999Z</time></trkpt><trkpt lat="45.91745310720533" lon="12.062580287409235"><ele>404.5</ele><time>2026-05-03T15:30:36.999Z</time></trkpt><trkpt lat="45.917571694014136" lon="12.062565563786086"><ele>403.0</ele><time>2026-05-03T15:30:37.999Z</time></trkpt><trkpt lat="45.91766580692509" lon="12.062454847566576"><ele>411.0</ele><time>2026-05-03T15:30:38.999Z</time></trkpt><trkpt lat="45.91776391485934" lon="12.06235106740463"><ele>419.0</ele><time>2026-05-03T15:30:39.999Z</time></trkpt><trkpt lat="45.917860714659064" lon="12.06226024117277"><ele>427.0</ele><time>2026-05-03T15:30:40.999Z</time></trkpt><trkpt lat="45.91797449362558" lon="12.062214513048149"><ele>435.0</ele><time>2026-05-03T15:30:41.999Z</time></trkpt><trkpt lat="45.91811644140286" lon="12.06225190332455"><ele>435.0</ele><time>2026-05-03T15:30:42.999Z</time></trkpt><trkpt lat="45.91823011372907" lon="12.062333034630928"><ele>435.0</ele><time>2026-05-03T15:30:43.999Z</time></trkpt><trkpt lat="45.91833147246456" lon="12.062412029498082"><ele>435.0</ele><time>2026-05-03T15:30:44.999Z</time></trkpt><trkpt lat="45.91843757862901" lon="12.06248612355455"><ele>435.0</ele><time>2026-05-03T15:30:45.999Z</time></trkpt><trkpt lat="45.91854824750776" lon="12.062556517939651"><ele>432.5</ele><time>2026-05-03T15:30:46.999Z</time></trkpt><trkpt lat="45.91865522797666" lon="12.062615667072222"><ele>430.0</ele><time>2026-05-03T15:30:47.999Z</time></trkpt><trkpt lat="45.918754715526156" lon="12.062673654624676"><ele>427.5</ele><time>2026-05-03T15:30:48.999Z</time></trkpt><trkpt lat="45.91886534461013" lon="12.062740491700065"><ele>425.0</ele><time>2026-05-03T15:30:49.999Z</time></trkpt><trkpt lat="45.918968615981996" lon="12.062790162521583"><ele>425.0</ele><time>2026-05-03T15:30:50.999Z</time></trkpt><trkpt lat="45.91907615158985" lon="12.062864901764595"><ele>425.0</ele><time>2026-05-03T15:30:51.999Z</time></trkpt><trkpt lat="45.91918157532488" lon="12.06291216831235"><ele>425.0</ele><time>2026-05-03T15:30:52.999Z</time></trkpt><trkpt lat="45.919285360356945" lon="12.062977513862794"><ele>425.0</ele><time>2026-05-03T15:30:53.999Z</time></trkpt><trkpt lat="45.91938964640925" lon="12.063035079067564"><ele>425.8</ele><time>2026-05-03T15:30:54.999Z</time></trkpt><trkpt lat="45.91948457339113" lon="12.063103693252787"><ele>426.6</ele><time>2026-05-03T15:30:55.999Z</time></trkpt><trkpt lat="45.919580603166665" lon="12.063161280707634"><ele>427.4</ele><time>2026-05-03T15:30:56.999Z</time></trkpt><trkpt lat="45.91968202316221" lon="12.063159620594716"><ele>428.2</ele><time>2026-05-03T15:30:57.999Z</time></trkpt><trkpt lat="45.91978248180736" lon="12.063137673934332"><ele>429.0</ele><time>2026-05-03T15:30:58.999Z</time></trkpt><trkpt lat="45.919881751692415" lon="12.063059755426911"><ele>429.0</ele><time>2026-05-03T15:30:59.999Z</time></trkpt><trkpt lat="45.91997553657417" lon="12.0629617919559"><ele>429.0</ele><time>2026-05-03T15:31:00.999Z</time></trkpt><trkpt lat="45.92006158930856" lon="12.062880654602035"><ele>429.0</ele><time>2026-05-03T15:31:01.999Z</time></trkpt><trkpt lat="45.92013649494372" lon="12.062778721986051"><ele>429.0</ele><time>2026-05-03T15:31:02.999Z</time></trkpt><trkpt lat="45.9202226003243" lon="12.062684085933743"><ele>429.0</ele><time>2026-05-03T15:31:03.999Z</time></trkpt><trkpt lat="45.92030495457983" lon="12.062593004446057"><ele>427.6</ele><time>2026-05-03T15:31:04.999Z</time></trkpt><trkpt lat="45.92038991625843" lon="12.062496754536218"><ele>426.2</ele><time>2026-05-03T15:31:05.999Z</time></trkpt><trkpt lat="45.920465296080486" lon="12.062388081353644"><ele>424.8</ele><time>2026-05-03T15:31:06.999Z</time></trkpt><trkpt lat="45.92053036272105" lon="12.06225975386955"><ele>423.40000000000003</ele><time>2026-05-03T15:31:07.999Z</time></trkpt><trkpt lat="45.92057267937029" lon="12.062122466296676"><ele>422.0</ele><time>2026-05-03T15:31:08.999Z</time></trkpt><trkpt lat="45.92059795695617" lon="12.061968133848088"><ele>422.0</ele><time>2026-05-03T15:31:09.999Z</time></trkpt><trkpt lat="45.92064468271084" lon="12.061813502975427"><ele>422.0</ele><time>2026-05-03T15:31:10.999Z</time></trkpt><trkpt lat="45.92072069335908" lon="12.061670119957766"><ele>422.0</ele><time>2026-05-03T15:31:11.999Z</time></trkpt><trkpt lat="45.920801146980665" lon="12.061567150894035"><ele>422.0</ele><time>2026-05-03T15:31:12.999Z</time></trkpt><trkpt lat="45.92089717164972" lon="12.0614757531006"><ele>427.20000000000005</ele><time>2026-05-03T15:31:13.999Z</time></trkpt><trkpt lat="45.92098795049278" lon="12.061389043144372"><ele>432.4</ele><time>2026-05-03T15:31:14.999Z</time></trkpt><trkpt lat="45.92108599363843" lon="12.061334398598419"><ele>437.59999999999997</ele><time>2026-05-03T15:31:15.999Z</time></trkpt><trkpt lat="45.92118293871313" lon="12.06131988242621"><ele>442.79999999999995</ele><time>2026-05-03T15:31:16.999Z</time></trkpt><trkpt lat="45.92128503673989" lon="12.061336813037997"><ele>448.0</ele><time>2026-05-03T15:31:17.999Z</time></trkpt><trkpt lat="45.92137940571806" lon="12.061412872084984"><ele>448.0</ele><time>2026-05-03T15:31:18.999Z</time></trkpt><trkpt lat="45.92143064438889" lon="12.061558981405936"><ele>448.0</ele><time>2026-05-03T15:31:19.999Z</time></trkpt><trkpt lat="45.921464519795244" lon="12.06170558778407"><ele>448.0</ele><time>2026-05-03T15:31:20.999Z</time></trkpt><trkpt lat="45.92146471720389" lon="12.061876878937198"><ele>448.0</ele><time>2026-05-03T15:31:21.999Z</time></trkpt><trkpt lat="45.92146795415601" lon="12.06204293070007"><ele>444.79999999999995</ele><time>2026-05-03T15:31:22.999Z</time></trkpt><trkpt lat="45.92148919325167" lon="12.062201842159913"><ele>441.59999999999997</ele><time>2026-05-03T15:31:23.999Z</time></trkpt><trkpt lat="45.92151214426463" lon="12.062351921673262"><ele>438.40000000000003</ele><time>2026-05-03T15:31:24.999Z</time></trkpt><trkpt lat="45.921545953870165" lon="12.062503225790994"><ele>435.20000000000005</ele><time>2026-05-03T15:31:25.999Z</time></trkpt><trkpt lat="45.92158647563067" lon="12.06265826484054"><ele>432.0</ele><time>2026-05-03T15:31:26.999Z</time></trkpt><trkpt lat="45.9216252096884" lon="12.062824497478966"><ele>428.8</ele><time>2026-05-03T15:31:27.999Z</time></trkpt><trkpt lat="45.921646509483466" lon="12.062987333637038"><ele>425.6</ele><time>2026-05-03T15:31:28.999Z</time></trkpt><trkpt lat="45.92169291935825" lon="12.063124439458475"><ele>422.40000000000003</ele><time>2026-05-03T15:31:29.999Z</time></trkpt><trkpt lat="45.92172347790281" lon="12.063258205050904"><ele>419.20000000000005</ele><time>2026-05-03T15:31:30.999Z</time></trkpt><trkpt lat="45.92175464769678" lon="12.063372492992425"><ele>416.0</ele><time>2026-05-03T15:31:31.999Z</time></trkpt><trkpt lat="45.92181033111278" lon="12.06348629581712"><ele>415.5</ele><time>2026-05-03T15:31:32.999Z</time></trkpt><trkpt lat="45.92189059971579" lon="12.063557657576334"><ele>415.0</ele><time>2026-05-03T15:31:33.999Z</time></trkpt><trkpt lat="45.92201482004039" lon="12.063547630329955"><ele>414.5</ele><time>2026-05-03T15:31:34.999Z</time></trkpt><trkpt lat="45.92213245780627" lon="12.063481370636188"><ele>414.0</ele><time>2026-05-03T15:31:36Z</time></trkpt><trkpt lat="45.92224170487596" lon="12.063409008527627"><ele>414.0</ele><time>2026-05-03T15:31:37Z</time></trkpt><trkpt lat="45.922342259580404" lon="12.063319343107704"><ele>414.0</ele><time>2026-05-03T15:31:38Z</time></trkpt><trkpt lat="45.92244939700925" lon="12.063238729904372"><ele>414.0</ele><time>2026-05-03T15:31:39Z</time></trkpt><trkpt lat="45.922540603661915" lon="12.063145922363443"><ele>414.0</ele><time>2026-05-03T15:31:40Z</time></trkpt><trkpt lat="45.922608969516915" lon="12.063009321318217"><ele>413.25</ele><time>2026-05-03T15:31:41Z</time></trkpt><trkpt lat="45.92265435602843" lon="12.062841410125168"><ele>412.5</ele><time>2026-05-03T15:31:42Z</time></trkpt><trkpt lat="45.92268063713675" lon="12.062668889175336"><ele>411.75</ele><time>2026-05-03T15:31:43Z</time></trkpt><trkpt lat="45.922727429266956" lon="12.062498127674996"><ele>411.0</ele><time>2026-05-03T15:31:44Z</time></trkpt><trkpt lat="45.92280169793689" lon="12.062361964677258"><ele>416.5</ele><time>2026-05-03T15:31:45Z</time></trkpt><trkpt lat="45.92291940076951" lon="12.062307547067519"><ele>422.0</ele><time>2026-05-03T15:31:46Z</time></trkpt><trkpt lat="45.92304579834744" lon="12.062262036127795"><ele>427.5</ele><time>2026-05-03T15:31:47Z</time></trkpt><trkpt lat="45.92315870302434" lon="12.06217681297749"><ele>433.0</ele><time>2026-05-03T15:31:48Z</time></trkpt><trkpt lat="45.92326528188244" lon="12.062076930704007"><ele>433.0</ele><time>2026-05-03T15:31:49Z</time></trkpt><trkpt lat="45.92336559315311" lon="12.06196501985218"><ele>433.0</ele><time>2026-05-03T15:31:50Z</time></trkpt><trkpt lat="45.92346382751032" lon="12.061835912516862"><ele>433.0</ele><time>2026-05-03T15:31:51Z</time></trkpt><trkpt lat="45.92357268829335" lon="12.061709367710748"><ele>433.0</ele><time>2026-05-03T15:31:52Z</time></trkpt><trkpt lat="45.923687862948604" lon="12.06156912877496"><ele>432.25</ele><time>2026-05-03T15:31:53Z</time></trkpt><trkpt lat="45.923790431188614" lon="12.061441884761408"><ele>431.5</ele><time>2026-05-03T15:31:54Z</time></trkpt><trkpt lat="45.92389390165967" lon="12.06132146201253"><ele>430.75</ele><time>2026-05-03T15:31:55Z</time></trkpt><trkpt lat="45.923985961879595" lon="12.0612113606593"><ele>430.0</ele><time>2026-05-03T15:31:56Z</time></trkpt><trkpt lat="45.924071962324106" lon="12.061100899663728"><ele>430.0</ele><time>2026-05-03T15:31:57Z</time></trkpt><trkpt lat="45.92415378636399" lon="12.06105136734081"><ele>430.0</ele><time>2026-05-03T15:31:58Z</time></trkpt><trkpt lat="45.92424333816748" lon="12.061045153805772"><ele>430.0</ele><time>2026-05-03T15:31:59Z</time></trkpt><trkpt lat="45.92432843337589" lon="12.061118729864727"><ele>430.0</ele><time>2026-05-03T15:32:00Z</time></trkpt><trkpt lat="45.924398678883286" lon="12.061197182062397"><ele>430.0</ele><time>2026-05-03T15:32:01Z</time></trkpt><trkpt lat="45.92439149781571" lon="12.061346333080767"><ele>432.0</ele><time>2026-05-03T15:32:02Z</time></trkpt><trkpt lat="45.924344800774044" lon="12.061586193679396"><ele>434.0</ele><time>2026-05-03T15:32:03Z</time></trkpt><trkpt lat="45.92429426100952" lon="12.061710147673772"><ele>436.0</ele><time>2026-05-03T15:32:04Z</time></trkpt><trkpt lat="45.92426733936216" lon="12.061862747527714"><ele>438.0</ele><time>2026-05-03T15:32:05Z</time></trkpt><trkpt lat="45.92425774606501" lon="12.06198962046945"><ele>438.0</ele><time>2026-05-03T15:32:06Z</time></trkpt><trkpt lat="45.92424403774217" lon="12.062093496435384"><ele>438.0</ele><time>2026-05-03T15:32:07Z</time></trkpt><trkpt lat="45.92426444240436" lon="12.062209881338779"><ele>438.0</ele><time>2026-05-03T15:32:08Z</time></trkpt><trkpt lat="45.924307106561336" lon="12.062333833480878"><ele>438.0</ele><time>2026-05-03T15:32:09Z</time></trkpt><trkpt lat="45.9243756649312" lon="12.062421013367286"><ele>438.0</ele><time>2026-05-03T15:32:10Z</time></trkpt><trkpt lat="45.92446083253065" lon="12.062459273892909"><ele>438.0</ele><time>2026-05-03T15:32:11Z</time></trkpt><trkpt lat="45.92454589392292" lon="12.062495928906202"><ele>434.1666666666667</ele><time>2026-05-03T15:32:12Z</time></trkpt><trkpt lat="45.92463468036275" lon="12.062502411667529"><ele>430.33333333333337</ele><time>2026-05-03T15:32:13Z</time></trkpt><trkpt lat="45.92473070681705" lon="12.062473467708903"><ele>426.5</ele><time>2026-05-03T15:32:14Z</time></trkpt><trkpt lat="45.924811952667284" lon="12.062479829789137"><ele>422.6666666666667</ele><time>2026-05-03T15:32:15Z</time></trkpt><trkpt lat="45.924884720723696" lon="12.062521378225906"><ele>418.83333333333337</ele><time>2026-05-03T15:32:16Z</time></trkpt><trkpt lat="45.92495916715605" lon="12.06254926390975"><ele>415.0</ele><time>2026-05-03T15:32:17Z</time></trkpt><trkpt lat="45.92503396001824" lon="12.062582859741937"><ele>417.33333333333337</ele><time>2026-05-03T15:32:18Z</time></trkpt><trkpt lat="45.925103850856125" lon="12.062652022114799"><ele>419.6666666666667</ele><time>2026-05-03T15:32:19Z</time></trkpt><trkpt lat="45.92517481165468" lon="12.06273204860521"><ele>422.0</ele><time>2026-05-03T15:32:20Z</time></trkpt><trkpt lat="45.92524385549159" lon="12.062817241781568"><ele>424.33333333333337</ele><time>2026-05-03T15:32:21Z</time></trkpt><trkpt lat="45.925304195876606" lon="12.062895938584465"><ele>426.6666666666667</ele><time>2026-05-03T15:32:22Z</time></trkpt><trkpt lat="45.92538014276259" lon="12.062968167621404"><ele>429.0</ele><time>2026-05-03T15:32:23Z</time></trkpt><trkpt lat="45.925442850753775" lon="12.06306266935825"><ele>429.0</ele><time>2026-05-03T15:32:24Z</time></trkpt><trkpt lat="45.925513639427365" lon="12.063136725644917"><ele>429.0</ele><time>2026-05-03T15:32:25Z</time></trkpt><trkpt lat="45.92559684840454" lon="12.063183027469009"><ele>429.0</ele><time>2026-05-03T15:32:26Z</time></trkpt><trkpt lat="45.92569356773635" lon="12.063196861439408"><ele>429.0</ele><time>2026-05-03T15:32:27Z</time></trkpt><trkpt lat="45.92578910073746" lon="12.063173468647637"><ele>429.0</ele><time>2026-05-03T15:32:28Z</time></trkpt><trkpt lat="45.92589417447872" lon="12.063108154600888"><ele>429.0</ele><time>2026-05-03T15:32:29Z</time></trkpt><trkpt lat="45.925990727847214" lon="12.063066339836002"><ele>429.0</ele><time>2026-05-03T15:32:30Z</time></trkpt><trkpt lat="45.926084545817915" lon="12.063121075918577"><ele>429.0</ele><time>2026-05-03T15:32:31Z</time></trkpt><trkpt lat="45.926125851120815" lon="12.063282571133966"><ele>429.0</ele><time>2026-05-03T15:32:31.999Z</time></trkpt><trkpt lat="45.926121832716646" lon="12.063428126109784"><ele>429.0</ele><time>2026-05-03T15:32:32.999Z</time></trkpt><trkpt lat="45.92615571288748" lon="12.063587321503078"><ele>429.0</ele><time>2026-05-03T15:32:33.999Z</time></trkpt><trkpt lat="45.92615878536905" lon="12.063724510624354"><ele>429.0</ele><time>2026-05-03T15:32:34.999Z</time></trkpt><trkpt lat="45.926180458050275" lon="12.063869016799542"><ele>429.0</ele><time>2026-05-03T15:32:35.999Z</time></trkpt><trkpt lat="45.92619315030482" lon="12.064009310329348"><ele>429.0</ele><time>2026-05-03T15:32:36.999Z</time></trkpt><trkpt lat="45.92620672624286" lon="12.064144698847043"><ele>429.0</ele><time>2026-05-03T15:32:37.999Z</time></trkpt><trkpt lat="45.92622615247994" lon="12.064281191973034"><ele>427.6666666666667</ele><time>2026-05-03T15:32:38.999Z</time></trkpt><trkpt lat="45.926243492816646" lon="12.06441025746633"><ele>426.33333333333337</ele><time>2026-05-03T15:32:39.999Z</time></trkpt><trkpt lat="45.92626106478171" lon="12.06454042063073"><ele>425.0</ele><time>2026-05-03T15:32:40.999Z</time></trkpt><trkpt lat="45.926280477026644" lon="12.064667959382765"><ele>423.6666666666667</ele><time>2026-05-03T15:32:41.999Z</time></trkpt><trkpt lat="45.9262953480675" lon="12.064776480039852"><ele>422.33333333333337</ele><time>2026-05-03T15:32:42.999Z</time></trkpt><trkpt lat="45.926309206057276" lon="12.064893642539412"><ele>421.0</ele><time>2026-05-03T15:32:43.999Z</time></trkpt><trkpt lat="45.92633143664456" lon="12.065011782151805"><ele>421.4</ele><time>2026-05-03T15:32:44.999Z</time></trkpt><trkpt lat="45.92638069610379" lon="12.065123778475797"><ele>421.8</ele><time>2026-05-03T15:32:45.999Z</time></trkpt><trkpt lat="45.92645433107719" lon="12.065219220645686"><ele>422.2</ele><time>2026-05-03T15:32:46.999Z</time></trkpt><trkpt lat="45.926538006571015" lon="12.065300446643898"><ele>422.59999999999997</ele><time>2026-05-03T15:32:47.999Z</time></trkpt><trkpt lat="45.92663818176816" lon="12.065315767960843"><ele>423.0</ele><time>2026-05-03T15:32:48.999Z</time></trkpt><trkpt lat="45.92674503416405" lon="12.065304140450792"><ele>423.0</ele><time>2026-05-03T15:32:49.999Z</time></trkpt><trkpt lat="45.9268371534131" lon="12.065319513447147"><ele>423.0</ele><time>2026-05-03T15:32:50.999Z</time></trkpt><trkpt lat="45.92691071370623" lon="12.065385539838081"><ele>423.0</ele><time>2026-05-03T15:32:51.999Z</time></trkpt><trkpt lat="45.9269575672021" lon="12.065496808549112"><ele>423.0</ele><time>2026-05-03T15:32:52.999Z</time></trkpt><trkpt lat="45.92699586419376" lon="12.065613239205783"><ele>423.0</ele><time>2026-05-03T15:32:53.999Z</time></trkpt><trkpt lat="45.92703409077814" lon="12.065724649061213"><ele>423.0</ele><time>2026-05-03T15:32:54.999Z</time></trkpt><trkpt lat="45.92707514199923" lon="12.065818136906056"><ele>420.4285714285714</ele><time>2026-05-03T15:32:55.999Z</time></trkpt><trkpt lat="45.92712654492435" lon="12.065896605890638"><ele>417.8571428571429</ele><time>2026-05-03T15:32:56.999Z</time></trkpt><trkpt lat="45.92718355663709" lon="12.065959675367873"><ele>415.2857142857143</ele><time>2026-05-03T15:32:57.999Z</time></trkpt><trkpt lat="45.92723631763586" lon="12.066016880463003"><ele>412.71428571428567</ele><time>2026-05-03T15:32:58.999Z</time></trkpt><trkpt lat="45.92729223456644" lon="12.066078797894379"><ele>410.1428571428571</ele><time>2026-05-03T15:32:59.999Z</time></trkpt><trkpt lat="45.927344680886264" lon="12.066146499839679"><ele>407.57142857142856</ele><time>2026-05-03T15:33:00.999Z</time></trkpt><trkpt lat="45.9273989477071" lon="12.066222529952059"><ele>405.0</ele><time>2026-05-03T15:33:01.999Z</time></trkpt><trkpt lat="45.9274386171617" lon="12.066311645864856"><ele>405.0</ele><time>2026-05-03T15:33:02.999Z</time></trkpt><trkpt lat="45.92746702848597" lon="12.066406464814934"><ele>405.0</ele><time>2026-05-03T15:33:03.999Z</time></trkpt><trkpt lat="45.9274762689316" lon="12.06650133851045"><ele>405.0</ele><time>2026-05-03T15:33:04.999Z</time></trkpt><trkpt lat="45.92748900541586" lon="12.06660436721862"><ele>405.0</ele><time>2026-05-03T15:33:05.999Z</time></trkpt><trkpt lat="45.927313956524614" lon="12.06683914084645"><ele>402.6</ele><time>2026-05-03T15:33:07.999Z</time></trkpt><trkpt lat="45.9272453200808" lon="12.066911867417"><ele>400.2</ele><time>2026-05-03T15:33:08.999Z</time></trkpt><trkpt lat="45.92718580988781" lon="12.066977327757403"><ele>397.79999999999995</ele><time>2026-05-03T15:33:09.999Z</time></trkpt><trkpt lat="45.92709391941046" lon="12.067095510884975"><ele>395.4</ele><time>2026-05-03T15:33:11.999Z</time></trkpt><trkpt lat="45.927042629320184" lon="12.067164379170531"><ele>393.0</ele><time>2026-05-03T15:33:12.999Z</time></trkpt><trkpt lat="45.92697430936226" lon="12.0673213229751"><ele>393.00000000000006</ele><time>2026-05-03T15:33:14.999Z</time></trkpt><trkpt lat="45.92695306258505" lon="12.067427786894962"><ele>393.0</ele><time>2026-05-03T15:33:15.999Z</time></trkpt><trkpt lat="45.92695374528789" lon="12.067540720300054"><ele>393.0</ele><time>2026-05-03T15:33:16.999Z</time></trkpt><trkpt lat="45.92697821996892" lon="12.067633566972592"><ele>393.0</ele><time>2026-05-03T15:33:17.999Z</time></trkpt><trkpt lat="45.92701883370622" lon="12.06772701827275"><ele>393.0</ele><time>2026-05-03T15:33:18.999Z</time></trkpt><trkpt lat="45.92706765379176" lon="12.06780473493363"><ele>393.00000000000006</ele><time>2026-05-03T15:33:19.999Z</time></trkpt><trkpt lat="45.92712467172653" lon="12.0678606381869"><ele>393.0</ele><time>2026-05-03T15:33:20.999Z</time></trkpt><trkpt lat="45.927194235859346" lon="12.067898546999846"><ele>392.5714285714286</ele><time>2026-05-03T15:33:21.999Z</time></trkpt><trkpt lat="45.927269290026125" lon="12.067934164140032"><ele>392.14285714285717</ele><time>2026-05-03T15:33:22.999Z</time></trkpt><trkpt lat="45.927348073239344" lon="12.067967055229772"><ele>391.7142857142857</ele><time>2026-05-03T15:33:23.999Z</time></trkpt><trkpt lat="45.92741418868132" lon="12.068004572167187"><ele>391.28571428571433</ele><time>2026-05-03T15:33:24.999Z</time></trkpt><trkpt lat="45.92747646640638" lon="12.068041266639622"><ele>390.85714285714283</ele><time>2026-05-03T15:33:25.999Z</time></trkpt><trkpt lat="45.92754222151352" lon="12.068074414810493"><ele>390.42857142857144</ele><time>2026-05-03T15:33:26.999Z</time></trkpt><trkpt lat="45.927613301394864" lon="12.06810262157893"><ele>390.0</ele><time>2026-05-03T15:33:27.999Z</time></trkpt><trkpt lat="45.927678070024555" lon="12.068111158417148"><ele>391.3333333333333</ele><time>2026-05-03T15:33:28.999Z</time></trkpt><trkpt lat="45.92774421712021" lon="12.068105772640688"><ele>392.66666666666663</ele><time>2026-05-03T15:33:29.999Z</time></trkpt><trkpt lat="45.927809640022225" lon="12.068092704878921"><ele>394.0</ele><time>2026-05-03T15:33:30.999Z</time></trkpt><trkpt lat="45.927920350153826" lon="12.068032938027608"><ele>395.3333333333333</ele><time>2026-05-03T15:33:32.999Z</time></trkpt><trkpt lat="45.92802221914009" lon="12.067930691465142"><ele>396.66666666666663</ele><time>2026-05-03T15:33:34.999Z</time></trkpt><trkpt lat="45.92808103612633" lon="12.067871691182464"><ele>398.0</ele><time>2026-05-03T15:33:35.999Z</time></trkpt><trkpt lat="45.928138028612786" lon="12.067829169704435"><ele>397.99999999999994</ele><time>2026-05-03T15:33:36.999Z</time></trkpt><trkpt lat="45.92820009945039" lon="12.067807368532982"><ele>398.0</ele><time>2026-05-03T15:33:37.999Z</time></trkpt><trkpt lat="45.928267185955846" lon="12.06779803179897"><ele>398.0</ele><time>2026-05-03T15:33:38.999Z</time></trkpt><trkpt lat="45.92833350648043" lon="12.067826786433962"><ele>398.0</ele><time>2026-05-03T15:33:39.999Z</time></trkpt><trkpt lat="45.92839777113888" lon="12.067859426667011"><ele>398.0</ele><time>2026-05-03T15:33:40.999Z</time></trkpt><trkpt lat="45.928458551251545" lon="12.06790216133115"><ele>397.99999999999994</ele><time>2026-05-03T15:33:42Z</time></trkpt><trkpt lat="45.92850872735298" lon="12.067969894196304"><ele>398.0</ele><time>2026-05-03T15:33:43Z</time></trkpt><trkpt lat="45.9285355892174" lon="12.068061778894636"><ele>397.16666666666663</ele><time>2026-05-03T15:33:44Z</time></trkpt><trkpt lat="45.92858219208205" lon="12.068136959027852"><ele>396.3333333333333</ele><time>2026-05-03T15:33:45Z</time></trkpt><trkpt lat="45.9286251487261" lon="12.068206717766753"><ele>395.5</ele><time>2026-05-03T15:33:46Z</time></trkpt><trkpt lat="45.928702434187876" lon="12.06833231534629"><ele>394.66666666666663</ele><time>2026-05-03T15:33:48Z</time></trkpt><trkpt lat="45.92875582666757" lon="12.068422088973051"><ele>393.8333333333333</ele><time>2026-05-03T15:33:49Z</time></trkpt><trkpt lat="45.92881399996541" lon="12.068519771000698"><ele>393.0</ele><time>2026-05-03T15:33:50Z</time></trkpt><trkpt lat="45.928894424488874" lon="12.068618482456127"><ele>393.0</ele><time>2026-05-03T15:33:51Z</time></trkpt><trkpt lat="45.92895953830712" lon="12.068746496356555"><ele>393.0</ele><time>2026-05-03T15:33:52Z</time></trkpt><trkpt lat="45.92903090461031" lon="12.068873399816795"><ele>393.0</ele><time>2026-05-03T15:33:53Z</time></trkpt><trkpt lat="45.9291109150569" lon="12.06901873004055"><ele>393.0</ele><time>2026-05-03T15:33:54Z</time></trkpt><trkpt lat="45.929186691571836" lon="12.069174842107893"><ele>394.5</ele><time>2026-05-03T15:33:55Z</time></trkpt><trkpt lat="45.92924104472072" lon="12.06933244930731"><ele>396.0</ele><time>2026-05-03T15:33:56Z</time></trkpt><trkpt lat="45.929301214654465" lon="12.069496268885734"><ele>397.5</ele><time>2026-05-03T15:33:57Z</time></trkpt><trkpt lat="45.92936387953042" lon="12.069654887743669"><ele>399.0</ele><time>2026-05-03T15:33:58Z</time></trkpt><trkpt lat="45.92943237524086" lon="12.069817185327281"><ele>398.0</ele><time>2026-05-03T15:33:59Z</time></trkpt><trkpt lat="45.92949233479359" lon="12.069986853402733"><ele>397.0</ele><time>2026-05-03T15:34:00Z</time></trkpt><trkpt lat="45.929566987826234" lon="12.070158885056331"><ele>396.0</ele><time>2026-05-03T15:34:01Z</time></trkpt><trkpt lat="45.929629361750905" lon="12.070330345543193"><ele>395.0</ele><time>2026-05-03T15:34:02Z</time></trkpt><trkpt lat="45.92969314245148" lon="12.070493285039895"><ele>395.0</ele><time>2026-05-03T15:34:03Z</time></trkpt><trkpt lat="45.92975607975658" lon="12.070657854706157"><ele>395.0</ele><time>2026-05-03T15:34:04Z</time></trkpt><trkpt lat="45.929831576167715" lon="12.070816014904768"><ele>395.0</ele><time>2026-05-03T15:34:05Z</time></trkpt><trkpt lat="45.92989052700408" lon="12.07095981702834"><ele>395.0</ele><time>2026-05-03T15:34:06Z</time></trkpt><trkpt lat="45.929939512519724" lon="12.071092711262821"><ele>394.0</ele><time>2026-05-03T15:34:07Z</time></trkpt><trkpt lat="45.930000081271125" lon="12.071209300613933"><ele>393.0</ele><time>2026-05-03T15:34:08Z</time></trkpt><trkpt lat="45.930079804237636" lon="12.071321893149207"><ele>392.0</ele><time>2026-05-03T15:34:09Z</time></trkpt><trkpt lat="45.9301633350409" lon="12.071379979881927"><ele>391.0</ele><time>2026-05-03T15:34:10Z</time></trkpt><trkpt lat="45.930247557396854" lon="12.071414803226597"><ele>390.0</ele><time>2026-05-03T15:34:11Z</time></trkpt><trkpt lat="45.93035187730117" lon="12.071408937776122"><ele>389.25</ele><time>2026-05-03T15:34:12Z</time></trkpt><trkpt lat="45.93045004038016" lon="12.07133911809905"><ele>388.5</ele><time>2026-05-03T15:34:13Z</time></trkpt><trkpt lat="45.9305475415325" lon="12.07123729269635"><ele>387.75</ele><time>2026-05-03T15:34:14Z</time></trkpt><trkpt lat="45.93060740825313" lon="12.071083317170732"><ele>387.0</ele><time>2026-05-03T15:34:15Z</time></trkpt><trkpt lat="45.93065583106989" lon="12.070950283458263"><ele>387.0</ele><time>2026-05-03T15:34:16Z</time></trkpt><trkpt lat="45.93071283688592" lon="12.070811507033373"><ele>387.0</ele><time>2026-05-03T15:34:17Z</time></trkpt><trkpt lat="45.930764042722735" lon="12.07068320612119"><ele>387.0</ele><time>2026-05-03T15:34:18Z</time></trkpt><trkpt lat="45.93082515606196" lon="12.070576065440639"><ele>387.0</ele><time>2026-05-03T15:34:19Z</time></trkpt><trkpt lat="45.9309042929485" lon="12.070540983322143"><ele>387.0</ele><time>2026-05-03T15:34:20Z</time></trkpt><trkpt lat="45.93098153013407" lon="12.070594801367575"><ele>389.20000000000005</ele><time>2026-05-03T15:34:21Z</time></trkpt><trkpt lat="45.931039141905515" lon="12.070683145855288"><ele>391.4</ele><time>2026-05-03T15:34:22Z</time></trkpt><trkpt lat="45.93103233059438" lon="12.070839000920888"><ele>393.6</ele><time>2026-05-03T15:34:23Z</time></trkpt><trkpt lat="45.93100504077005" lon="12.071040176555746"><ele>395.79999999999995</ele><time>2026-05-03T15:34:24Z</time></trkpt><trkpt lat="45.93098663192301" lon="12.071176260794603"><ele>398.0</ele><time>2026-05-03T15:34:25Z</time></trkpt><trkpt lat="45.930981582230956" lon="12.071306126952793"><ele>398.0</ele><time>2026-05-03T15:34:26Z</time></trkpt><trkpt lat="45.93097409827147" lon="12.071445945351488"><ele>398.0</ele><time>2026-05-03T15:34:27Z</time></trkpt><trkpt lat="45.93096113823819" lon="12.071589731776232"><ele>398.0</ele><time>2026-05-03T15:34:28Z</time></trkpt><trkpt lat="45.93094642155821" lon="12.071734812653315"><ele>398.0</ele><time>2026-05-03T15:34:29Z</time></trkpt><trkpt lat="45.93094592462849" lon="12.071896655495133"><ele>398.0</ele><time>2026-05-03T15:34:30Z</time></trkpt><trkpt lat="45.93095534282131" lon="12.072056005665873"><ele>395.5</ele><time>2026-05-03T15:34:31Z</time></trkpt><trkpt lat="45.93101162626755" lon="12.07218225922902"><ele>393.0</ele><time>2026-05-03T15:34:32Z</time></trkpt><trkpt lat="45.931083391899676" lon="12.072315040147897"><ele>390.5</ele><time>2026-05-03T15:34:33Z</time></trkpt><trkpt lat="45.93118306915948" lon="12.072414350681395"><ele>388.0</ele><time>2026-05-03T15:34:34Z</time></trkpt><trkpt lat="45.931284352330394" lon="12.072505584015953"><ele>386.0</ele><time>2026-05-03T15:34:35Z</time></trkpt><trkpt lat="45.9313791916743" lon="12.072599579512895"><ele>384.0</ele><time>2026-05-03T15:34:36Z</time></trkpt><trkpt lat="45.93145323653483" lon="12.072723097855054"><ele>382.0</ele><time>2026-05-03T15:34:37Z</time></trkpt><trkpt lat="45.931514021904356" lon="12.072877114316517"><ele>380.0</ele><time>2026-05-03T15:34:38Z</time></trkpt><trkpt lat="45.93153926009669" lon="12.073042885039074"><ele>380.0</ele><time>2026-05-03T15:34:38.999Z</time></trkpt><trkpt lat="45.93157564973673" lon="12.07321251045484"><ele>380.0</ele><time>2026-05-03T15:34:39.999Z</time></trkpt><trkpt lat="45.931602436134476" lon="12.07337319145643"><ele>380.0</ele><time>2026-05-03T15:34:40.999Z</time></trkpt><trkpt lat="45.93163758470296" lon="12.073515367645347"><ele>380.0</ele><time>2026-05-03T15:34:41.999Z</time></trkpt><trkpt lat="45.931697589633366" lon="12.073716920036121"><ele>378.0</ele><time>2026-05-03T15:34:42.999Z</time></trkpt><trkpt lat="45.93178280845388" lon="12.073845488460144"><ele>376.0</ele><time>2026-05-03T15:34:43.999Z</time></trkpt><trkpt lat="45.93188391390997" lon="12.073913534024813"><ele>374.0</ele><time>2026-05-03T15:34:44.999Z</time></trkpt><trkpt lat="45.931986090789465" lon="12.074025183436866"><ele>372.0</ele><time>2026-05-03T15:34:45.999Z</time></trkpt><trkpt lat="45.93208424586025" lon="12.074149324338835"><ele>367.5</ele><time>2026-05-03T15:34:46.999Z</time></trkpt><trkpt lat="45.932168747052025" lon="12.074282977576553"><ele>363.0</ele><time>2026-05-03T15:34:47.999Z</time></trkpt><trkpt lat="45.932232726295716" lon="12.074466504131497"><ele>358.5</ele><time>2026-05-03T15:34:48.999Z</time></trkpt><trkpt lat="45.93230700665302" lon="12.074615895158548"><ele>354.0</ele><time>2026-05-03T15:34:49.999Z</time></trkpt><trkpt lat="45.93238466327516" lon="12.07478022045908"><ele>354.0</ele><time>2026-05-03T15:34:50.999Z</time></trkpt><trkpt lat="45.93246625448472" lon="12.07491083834985"><ele>354.0</ele><time>2026-05-03T15:34:51.999Z</time></trkpt><trkpt lat="45.93256072265588" lon="12.075029710250469"><ele>354.0</ele><time>2026-05-03T15:34:52.999Z</time></trkpt><trkpt lat="45.9326533482606" lon="12.075152410194967"><ele>354.0</ele><time>2026-05-03T15:34:53.999Z</time></trkpt><trkpt lat="45.93275993099528" lon="12.075248521781472"><ele>353.25</ele><time>2026-05-03T15:34:54.999Z</time></trkpt><trkpt lat="45.93287542122256" lon="12.075374710450154"><ele>352.5</ele><time>2026-05-03T15:34:55.999Z</time></trkpt><trkpt lat="45.93298459053342" lon="12.075495170802665"><ele>351.75</ele><time>2026-05-03T15:34:56.999Z</time></trkpt><trkpt lat="45.933086337345564" lon="12.075617945410357"><ele>351.0</ele><time>2026-05-03T15:34:57.999Z</time></trkpt><trkpt lat="45.9331980476338" lon="12.075763348755451"><ele>351.5</ele><time>2026-05-03T15:34:58.999Z</time></trkpt><trkpt lat="45.93330465088775" lon="12.075884458832592"><ele>352.0</ele><time>2026-05-03T15:34:59.999Z</time></trkpt><trkpt lat="45.933414066806954" lon="12.076011407710418"><ele>352.5</ele><time>2026-05-03T15:35:00.999Z</time></trkpt><trkpt lat="45.933520515059165" lon="12.076129495515433"><ele>353.0</ele><time>2026-05-03T15:35:01.999Z</time></trkpt><trkpt lat="45.93363228937472" lon="12.076253168920791"><ele>353.0</ele><time>2026-05-03T15:35:02.999Z</time></trkpt><trkpt lat="45.93374282340083" lon="12.076384653905475"><ele>353.0</ele><time>2026-05-03T15:35:03.999Z</time></trkpt><trkpt lat="45.933858494551174" lon="12.076527499619905"><ele>353.0</ele><time>2026-05-03T15:35:04.999Z</time></trkpt><trkpt lat="45.933984837976574" lon="12.076646630317342"><ele>353.0</ele><time>2026-05-03T15:35:05.999Z</time></trkpt><trkpt lat="45.93410410391653" lon="12.076789268898086"><ele>355.6666666666667</ele><time>2026-05-03T15:35:06.999Z</time></trkpt><trkpt lat="45.93422880447783" lon="12.076924125634344"><ele>358.3333333333333</ele><time>2026-05-03T15:35:07.999Z</time></trkpt><trkpt lat="45.934350707836714" lon="12.077064979976807"><ele>361.0</ele><time>2026-05-03T15:35:08.999Z</time></trkpt><trkpt lat="45.93446508528518" lon="12.07721439693605"><ele>361.0</ele><time>2026-05-03T15:35:09.999Z</time></trkpt><trkpt lat="45.93458083300622" lon="12.077368104140684"><ele>361.0</ele><time>2026-05-03T15:35:10.999Z</time></trkpt><trkpt lat="45.93469536818388" lon="12.077526538213789"><ele>361.0</ele><time>2026-05-03T15:35:11.999Z</time></trkpt><trkpt lat="45.93481577683025" lon="12.0776922854722"><ele>360.66666666666663</ele><time>2026-05-03T15:35:12.999Z</time></trkpt><trkpt lat="45.934930612802205" lon="12.077855767143673"><ele>360.3333333333333</ele><time>2026-05-03T15:35:13.999Z</time></trkpt><trkpt lat="45.93504521616499" lon="12.078016716112588"><ele>360.0</ele><time>2026-05-03T15:35:14.999Z</time></trkpt><trkpt lat="45.93516048287891" lon="12.078183530692872"><ele>349.3333333333333</ele><time>2026-05-03T15:35:15.999Z</time></trkpt><trkpt lat="45.93528204955999" lon="12.078350604409225"><ele>338.66666666666663</ele><time>2026-05-03T15:35:16.999Z</time></trkpt><trkpt lat="45.93540585802118" lon="12.07852143259385"><ele>328.0</ele><time>2026-05-03T15:35:17.999Z</time></trkpt><trkpt lat="45.93552794076194" lon="12.078688683153544"><ele>328.0</ele><time>2026-05-03T15:35:18.999Z</time></trkpt><trkpt lat="45.935647832440765" lon="12.078863413260738"><ele>328.0</ele><time>2026-05-03T15:35:19.999Z</time></trkpt><trkpt lat="45.93577012888713" lon="12.079023413000154"><ele>328.0</ele><time>2026-05-03T15:35:20.999Z</time></trkpt><trkpt lat="45.9358937242355" lon="12.07920110867218"><ele>328.3333333333333</ele><time>2026-05-03T15:35:21.999Z</time></trkpt><trkpt lat="45.936016985309216" lon="12.079373310033565"><ele>328.6666666666667</ele><time>2026-05-03T15:35:22.999Z</time></trkpt><trkpt lat="45.93613314575737" lon="12.0795496946915"><ele>329.0</ele><time>2026-05-03T15:35:23.999Z</time></trkpt><trkpt lat="45.93623816763352" lon="12.079738534572286"><ele>323.0</ele><time>2026-05-03T15:35:24.999Z</time></trkpt><trkpt lat="45.936331654318685" lon="12.079941664202018"><ele>317.0</ele><time>2026-05-03T15:35:25.999Z</time></trkpt><trkpt lat="45.9364271784882" lon="12.080134098660231"><ele>311.0</ele><time>2026-05-03T15:35:26.999Z</time></trkpt><trkpt lat="45.93651550204765" lon="12.080317100453014"><ele>311.0</ele><time>2026-05-03T15:35:27.999Z</time></trkpt><trkpt lat="45.93659013614296" lon="12.08051951224091"><ele>311.0</ele><time>2026-05-03T15:35:28.999Z</time></trkpt><trkpt lat="45.936646572817615" lon="12.080733381664073"><ele>311.0</ele><time>2026-05-03T15:35:29.999Z</time></trkpt><trkpt lat="45.9366897680664" lon="12.080953502474973"><ele>306.33333333333337</ele><time>2026-05-03T15:35:30.999Z</time></trkpt><trkpt lat="45.936705844078205" lon="12.08118262809606"><ele>301.6666666666667</ele><time>2026-05-03T15:35:31.999Z</time></trkpt><trkpt lat="45.93669849924657" lon="12.08142963775186"><ele>297.0</ele><time>2026-05-03T15:35:32.999Z</time></trkpt><trkpt lat="45.936695646251124" lon="12.081658259257443"><ele>296.3333333333333</ele><time>2026-05-03T15:35:33.999Z</time></trkpt><trkpt lat="45.93670249188233" lon="12.081888733339369"><ele>295.66666666666663</ele><time>2026-05-03T15:35:34.999Z</time></trkpt><trkpt lat="45.9367312854631" lon="12.082117247722909"><ele>295.0</ele><time>2026-05-03T15:35:35.999Z</time></trkpt><trkpt lat="45.93677071150518" lon="12.082340383956666"><ele>295.3333333333333</ele><time>2026-05-03T15:35:36.999Z</time></trkpt><trkpt lat="45.936831516015054" lon="12.082559171879392"><ele>295.6666666666667</ele><time>2026-05-03T15:35:37.999Z</time></trkpt><trkpt lat="45.93691070006943" lon="12.082772038888487"><ele>296.0</ele><time>2026-05-03T15:35:38.999Z</time></trkpt><trkpt lat="45.93700944051685" lon="12.082970122717978"><ele>296.0</ele><time>2026-05-03T15:35:39.999Z</time></trkpt><trkpt lat="45.937120878631525" lon="12.083136804680855"><ele>296.0</ele><time>2026-05-03T15:35:40.999Z</time></trkpt><trkpt lat="45.937235701123576" lon="12.083308657750505"><ele>296.0</ele><time>2026-05-03T15:35:41.999Z</time></trkpt><trkpt lat="45.93732282952347" lon="12.08350917200925"><ele>295.25</ele><time>2026-05-03T15:35:42.999Z</time></trkpt><trkpt lat="45.93741365437419" lon="12.083694864198707"><ele>294.5</ele><time>2026-05-03T15:35:43.999Z</time></trkpt><trkpt lat="45.937494709590155" lon="12.08386583283135"><ele>293.75</ele><time>2026-05-03T15:35:44.999Z</time></trkpt><trkpt lat="45.93756252484442" lon="12.08403940487336"><ele>293.0</ele><time>2026-05-03T15:35:45.999Z</time></trkpt><trkpt lat="45.93762179758248" lon="12.084201122057559"><ele>290.75</ele><time>2026-05-03T15:35:46.999Z</time></trkpt><trkpt lat="45.93770208617804" lon="12.084343675139424"><ele>288.5</ele><time>2026-05-03T15:35:48Z</time></trkpt><trkpt lat="45.93781548441383" lon="12.084497050979"><ele>286.25</ele><time>2026-05-03T15:35:49Z</time></trkpt><trkpt lat="45.93792127096763" lon="12.084588280367008"><ele>284.0</ele><time>2026-05-03T15:35:50Z</time></trkpt><trkpt lat="45.938053910436444" lon="12.084638805832737"><ele>284.0</ele><time>2026-05-03T15:35:51Z</time></trkpt><trkpt lat="45.93818651330527" lon="12.084666944366447"><ele>284.0</ele><time>2026-05-03T15:35:52Z</time></trkpt><trkpt lat="45.938313043096755" lon="12.084708843251192"><ele>284.0</ele><time>2026-05-03T15:35:53Z</time></trkpt><trkpt lat="45.93843404519773" lon="12.084762769286131"><ele>284.0</ele><time>2026-05-03T15:35:54Z</time></trkpt><trkpt lat="45.93852668364467" lon="12.08487109310197"><ele>282.25</ele><time>2026-05-03T15:35:55Z</time></trkpt><trkpt lat="45.938616312826625" lon="12.085005778512809"><ele>280.5</ele><time>2026-05-03T15:35:56Z</time></trkpt><trkpt lat="45.938703823499154" lon="12.085147608997373"><ele>278.75</ele><time>2026-05-03T15:35:57Z</time></trkpt><trkpt lat="45.938809190280956" lon="12.085278738809727"><ele>277.0</ele><time>2026-05-03T15:35:58Z</time></trkpt><trkpt lat="45.938904072547736" lon="12.085395065226804"><ele>277.0</ele><time>2026-05-03T15:35:59Z</time></trkpt><trkpt lat="45.9390211012532" lon="12.085492799877027"><ele>277.0</ele><time>2026-05-03T15:36:00Z</time></trkpt><trkpt lat="45.939162340099976" lon="12.085592265002397"><ele>277.0</ele><time>2026-05-03T15:36:01Z</time></trkpt><trkpt lat="45.939300852232044" lon="12.085732594027453"><ele>275.0</ele><time>2026-05-03T15:36:02Z</time></trkpt><trkpt lat="45.939432116233625" lon="12.085836129967067"><ele>273.0</ele><time>2026-05-03T15:36:03Z</time></trkpt><trkpt lat="45.93955986866264" lon="12.085937474069475"><ele>271.0</ele><time>2026-05-03T15:36:04Z</time></trkpt><trkpt lat="45.93968669342993" lon="12.086036091634497"><ele>269.0</ele><time>2026-05-03T15:36:05Z</time></trkpt><trkpt lat="45.939795456139265" lon="12.086130438496683"><ele>269.0</ele><time>2026-05-03T15:36:06Z</time></trkpt><trkpt lat="45.93990739351557" lon="12.086224332794012"><ele>269.0</ele><time>2026-05-03T15:36:07Z</time></trkpt><trkpt lat="45.94001362082907" lon="12.08633091443531"><ele>269.0</ele><time>2026-05-03T15:36:08Z</time></trkpt><trkpt lat="45.94009273349311" lon="12.08648675235578"><ele>269.0</ele><time>2026-05-03T15:36:09Z</time></trkpt><trkpt lat="45.94018210722984" lon="12.086629030589874"><ele>268.75</ele><time>2026-05-03T15:36:10Z</time></trkpt><trkpt lat="45.94024541462584" lon="12.086779862015165"><ele>268.5</ele><time>2026-05-03T15:36:11Z</time></trkpt><trkpt lat="45.940317323895876" lon="12.086959232554177"><ele>268.25</ele><time>2026-05-03T15:36:12Z</time></trkpt><trkpt lat="45.94038989140416" lon="12.087143454360957"><ele>268.0</ele><time>2026-05-03T15:36:13Z</time></trkpt><trkpt lat="45.940459188296934" lon="12.087319069896317"><ele>267.25</ele><time>2026-05-03T15:36:14Z</time></trkpt><trkpt lat="45.94053087358064" lon="12.08750073797033"><ele>266.5</ele><time>2026-05-03T15:36:15Z</time></trkpt><trkpt lat="45.94059499079698" lon="12.087660913581564"><ele>265.75</ele><time>2026-05-03T15:36:16Z</time></trkpt><trkpt lat="45.94065491654589" lon="12.087844522632711"><ele>265.0</ele><time>2026-05-03T15:36:17Z</time></trkpt><trkpt lat="45.940726032392476" lon="12.08800339116043"><ele>265.0</ele><time>2026-05-03T15:36:18Z</time></trkpt><trkpt lat="45.94081284787379" lon="12.088164779739618"><ele>265.0</ele><time>2026-05-03T15:36:19Z</time></trkpt><trkpt lat="45.94090090543041" lon="12.088322817934234"><ele>265.0</ele><time>2026-05-03T15:36:20Z</time></trkpt><trkpt lat="45.94098535029451" lon="12.088488989356174"><ele>265.0</ele><time>2026-05-03T15:36:21Z</time></trkpt><trkpt lat="45.94107405475125" lon="12.088640148529619"><ele>265.25</ele><time>2026-05-03T15:36:22Z</time></trkpt><trkpt lat="45.94116351316974" lon="12.08877278292753"><ele>265.5</ele><time>2026-05-03T15:36:23Z</time></trkpt><trkpt lat="45.94127129849076" lon="12.088909369932486"><ele>265.75</ele><time>2026-05-03T15:36:24Z</time></trkpt><trkpt lat="45.941363475186535" lon="12.08905807694015"><ele>266.0</ele><time>2026-05-03T15:36:25Z</time></trkpt><trkpt lat="45.94145045920333" lon="12.089182254780976"><ele>266.0</ele><time>2026-05-03T15:36:26Z</time></trkpt><trkpt lat="45.94153796776476" lon="12.08932428126264"><ele>266.0</ele><time>2026-05-03T15:36:27Z</time></trkpt><trkpt lat="45.94161325846229" lon="12.089465377088564"><ele>266.0</ele><time>2026-05-03T15:36:28Z</time></trkpt><trkpt lat="45.94169256973728" lon="12.08962135316866"><ele>266.0</ele><time>2026-05-03T15:36:29Z</time></trkpt><trkpt lat="45.9417607629529" lon="12.08976250830133"><ele>266.0</ele><time>2026-05-03T15:36:30Z</time></trkpt><trkpt lat="45.94183814569379" lon="12.089924186703493"><ele>266.0</ele><time>2026-05-03T15:36:31Z</time></trkpt><trkpt lat="45.94192948887769" lon="12.090074715549335"><ele>266.0</ele><time>2026-05-03T15:36:32Z</time></trkpt><trkpt lat="45.94201696509433" lon="12.090225299945429"><ele>266.0</ele><time>2026-05-03T15:36:33Z</time></trkpt><trkpt lat="45.9421036548409" lon="12.09036718558212"><ele>264.75</ele><time>2026-05-03T15:36:34Z</time></trkpt><trkpt lat="45.94218798584681" lon="12.09051404966711"><ele>263.5</ele><time>2026-05-03T15:36:35Z</time></trkpt><trkpt lat="45.94226834437731" lon="12.090623337329871"><ele>262.25</ele><time>2026-05-03T15:36:36Z</time></trkpt><trkpt lat="45.94236080881455" lon="12.090769511376502"><ele>261.0</ele><time>2026-05-03T15:36:37Z</time></trkpt><trkpt lat="45.94244687004749" lon="12.090907421560587"><ele>261.25</ele><time>2026-05-03T15:36:38Z</time></trkpt><trkpt lat="45.94254212815583" lon="12.091024493595205"><ele>261.5</ele><time>2026-05-03T15:36:39Z</time></trkpt><trkpt lat="45.942624234134094" lon="12.091170744976644"><ele>261.75</ele><time>2026-05-03T15:36:40Z</time></trkpt><trkpt lat="45.94272484714102" lon="12.091319890668931"><ele>262.0</ele><time>2026-05-03T15:36:41Z</time></trkpt><trkpt lat="45.942807548995724" lon="12.091459236962436"><ele>261.5</ele><time>2026-05-03T15:36:42Z</time></trkpt><trkpt lat="45.942900725230764" lon="12.091602736437276"><ele>261.0</ele><time>2026-05-03T15:36:43Z</time></trkpt><trkpt lat="45.94298437700029" lon="12.09173684592251"><ele>260.5</ele><time>2026-05-03T15:36:44Z</time></trkpt><trkpt lat="45.94307075478458" lon="12.091871083502346"><ele>260.0</ele><time>2026-05-03T15:36:45Z</time></trkpt><trkpt lat="45.94316444237118" lon="12.092015554365398"><ele>260.0</ele><time>2026-05-03T15:36:46Z</time></trkpt><trkpt lat="45.94324734169051" lon="12.092163567542059"><ele>260.0</ele><time>2026-05-03T15:36:46.999Z</time></trkpt><trkpt lat="45.94333455204998" lon="12.092311334057648"><ele>260.0</ele><time>2026-05-03T15:36:47.999Z</time></trkpt><trkpt lat="45.94342469146156" lon="12.09246664982421"><ele>260.0</ele><time>2026-05-03T15:36:48.999Z</time></trkpt><trkpt lat="45.94351557497233" lon="12.092622815798563"><ele>259.75</ele><time>2026-05-03T15:36:49.999Z</time></trkpt><trkpt lat="45.94360810602178" lon="12.092787807617913"><ele>259.5</ele><time>2026-05-03T15:36:50.999Z</time></trkpt><trkpt lat="45.943705411434706" lon="12.092955773750328"><ele>259.25</ele><time>2026-05-03T15:36:51.999Z</time></trkpt><trkpt lat="45.9438026541506" lon="12.093105269759478"><ele>259.0</ele><time>2026-05-03T15:36:52.999Z</time></trkpt><trkpt lat="45.94390198942898" lon="12.093252443374082"><ele>258.5</ele><time>2026-05-03T15:36:53.999Z</time></trkpt><trkpt lat="45.94401296281921" lon="12.093368685020577"><ele>258.0</ele><time>2026-05-03T15:36:54.999Z</time></trkpt><trkpt lat="45.944111599355935" lon="12.093464555594254"><ele>257.5</ele><time>2026-05-03T15:36:55.999Z</time></trkpt><trkpt lat="45.944207510873575" lon="12.093545768992893"><ele>257.0</ele><time>2026-05-03T15:36:56.999Z</time></trkpt><trkpt lat="45.944285093747006" lon="12.093664944242956"><ele>258.5</ele><time>2026-05-03T15:36:57.999Z</time></trkpt><trkpt lat="45.94434134626239" lon="12.093822271353863"><ele>260.0</ele><time>2026-05-03T15:36:58.999Z</time></trkpt><trkpt lat="45.94437379085971" lon="12.093979182925525"><ele>261.5</ele><time>2026-05-03T15:36:59.999Z</time></trkpt><trkpt lat="45.94437766675837" lon="12.094170323090966"><ele>263.0</ele><time>2026-05-03T15:37:00.999Z</time></trkpt><trkpt lat="45.94436847145679" lon="12.094349759400655"><ele>263.0</ele><time>2026-05-03T15:37:01.999Z</time></trkpt><trkpt lat="45.94436189300633" lon="12.094536104541469"><ele>263.0</ele><time>2026-05-03T15:37:02.999Z</time></trkpt><trkpt lat="45.94435103394449" lon="12.09471125561278"><ele>263.0</ele><time>2026-05-03T15:37:03.999Z</time></trkpt><trkpt lat="45.94437451965348" lon="12.094916344754171"><ele>263.0</ele><time>2026-05-03T15:37:04.999Z</time></trkpt><trkpt lat="45.94441143776348" lon="12.095118501426466"><ele>263.0</ele><time>2026-05-03T15:37:05.999Z</time></trkpt><trkpt lat="45.9444611376591" lon="12.095304483175827"><ele>263.0</ele><time>2026-05-03T15:37:06.999Z</time></trkpt><trkpt lat="45.94452823280837" lon="12.095478308895597"><ele>263.0</ele><time>2026-05-03T15:37:07.999Z</time></trkpt><trkpt lat="45.94456902995992" lon="12.095674872038936"><ele>263.0</ele><time>2026-05-03T15:37:08.999Z</time></trkpt><trkpt lat="45.94462609645367" lon="12.095866829270491"><ele>262.75</ele><time>2026-05-03T15:37:09.999Z</time></trkpt><trkpt lat="45.94468468126954" lon="12.09606158761155"><ele>262.5</ele><time>2026-05-03T15:37:10.999Z</time></trkpt><trkpt lat="45.94474505564075" lon="12.096266166372187"><ele>262.25</ele><time>2026-05-03T15:37:11.999Z</time></trkpt><trkpt lat="45.944802481417035" lon="12.096459989010826"><ele>262.0</ele><time>2026-05-03T15:37:12.999Z</time></trkpt><trkpt lat="45.94486065058294" lon="12.096656320645039"><ele>261.3333333333333</ele><time>2026-05-03T15:37:13.999Z</time></trkpt><trkpt lat="45.94492161164632" lon="12.096864504837233"><ele>260.6666666666667</ele><time>2026-05-03T15:37:14.999Z</time></trkpt><trkpt lat="45.94498304791745" lon="12.097070996467874"><ele>260.0</ele><time>2026-05-03T15:37:15.999Z</time></trkpt><trkpt lat="45.94505858675242" lon="12.097271340602513"><ele>261.33333333333337</ele><time>2026-05-03T15:37:16.999Z</time></trkpt><trkpt lat="45.945115201295124" lon="12.097481397883714"><ele>262.6666666666667</ele><time>2026-05-03T15:37:17.999Z</time></trkpt><trkpt lat="45.94518019243277" lon="12.097691848723942"><ele>264.0</ele><time>2026-05-03T15:37:18.999Z</time></trkpt><trkpt lat="45.94524820396277" lon="12.097928083796585"><ele>264.0</ele><time>2026-05-03T15:37:19.999Z</time></trkpt><trkpt lat="45.945317826258886" lon="12.09816836694443"><ele>264.0</ele><time>2026-05-03T15:37:20.999Z</time></trkpt><trkpt lat="45.945383934732526" lon="12.098392263976784"><ele>264.0</ele><time>2026-05-03T15:37:21.999Z</time></trkpt><trkpt lat="45.94544165489752" lon="12.098604933361475"><ele>262.3333333333333</ele><time>2026-05-03T15:37:22.999Z</time></trkpt><trkpt lat="45.945498815052815" lon="12.098828059347108"><ele>260.66666666666663</ele><time>2026-05-03T15:37:23.999Z</time></trkpt><trkpt lat="45.945555909268634" lon="12.0990384376589"><ele>259.0</ele><time>2026-05-03T15:37:24.999Z</time></trkpt><trkpt lat="45.94561397936294" lon="12.099238450056509"><ele>258.0</ele><time>2026-05-03T15:37:25.999Z</time></trkpt><trkpt lat="45.94566057330168" lon="12.099449100929197"><ele>257.0</ele><time>2026-05-03T15:37:26.999Z</time></trkpt><trkpt lat="45.94570354596227" lon="12.099649867276254"><ele>256.0</ele><time>2026-05-03T15:37:27.999Z</time></trkpt><trkpt lat="45.94574236523169" lon="12.099845626215474"><ele>255.0</ele><time>2026-05-03T15:37:28.999Z</time></trkpt><trkpt lat="45.94578640549157" lon="12.100043161870298"><ele>255.5</ele><time>2026-05-03T15:37:29.999Z</time></trkpt><trkpt lat="45.945850209192336" lon="12.100171169956518"><ele>256.0</ele><time>2026-05-03T15:37:30.999Z</time></trkpt><trkpt lat="45.94592465241557" lon="12.100328310009228"><ele>256.5</ele><time>2026-05-03T15:37:31.999Z</time></trkpt><trkpt lat="45.945972213701396" lon="12.100514036757971"><ele>257.0</ele><time>2026-05-03T15:37:32.999Z</time></trkpt><trkpt lat="45.946029036838674" lon="12.100684117128083"><ele>255.5</ele><time>2026-05-03T15:37:33.999Z</time></trkpt><trkpt lat="45.94608118726394" lon="12.10086964761351"><ele>254.0</ele><time>2026-05-03T15:37:34.999Z</time></trkpt><trkpt lat="45.94614359243802" lon="12.101051646121428"><ele>252.5</ele><time>2026-05-03T15:37:35.999Z</time></trkpt><trkpt lat="45.94621043077114" lon="12.101238460595264"><ele>251.0</ele><time>2026-05-03T15:37:36.999Z</time></trkpt><trkpt lat="45.94627062397418" lon="12.101440597821322"><ele>249.75</ele><time>2026-05-03T15:37:37.999Z</time></trkpt><trkpt lat="45.94632876245053" lon="12.10163238731869"><ele>248.5</ele><time>2026-05-03T15:37:38.999Z</time></trkpt><trkpt lat="45.946377590901214" lon="12.101841058608636"><ele>247.25</ele><time>2026-05-03T15:37:39.999Z</time></trkpt><trkpt lat="45.94643085669244" lon="12.102037567626503"><ele>246.0</ele><time>2026-05-03T15:37:40.999Z</time></trkpt><trkpt lat="45.946485601375535" lon="12.102222578766105"><ele>245.25</ele><time>2026-05-03T15:37:41.999Z</time></trkpt><trkpt lat="45.94653910635347" lon="12.102421269594139"><ele>244.5</ele><time>2026-05-03T15:37:42.999Z</time></trkpt><trkpt lat="45.9465965911" lon="12.102617539856338"><ele>243.75</ele><time>2026-05-03T15:37:43.999Z</time></trkpt><trkpt lat="45.94665075113798" lon="12.10281763877322"><ele>243.0</ele><time>2026-05-03T15:37:44.999Z</time></trkpt><trkpt lat="45.946701940677464" lon="12.103021571019907"><ele>242.5</ele><time>2026-05-03T15:37:45.999Z</time></trkpt><trkpt lat="45.9467569109097" lon="12.103219769491805"><ele>242.0</ele><time>2026-05-03T15:37:46.999Z</time></trkpt><trkpt lat="45.94681249305018" lon="12.10342319898135"><ele>241.5</ele><time>2026-05-03T15:37:47.999Z</time></trkpt><trkpt lat="45.946864596071585" lon="12.103616655942211"><ele>241.0</ele><time>2026-05-03T15:37:48.999Z</time></trkpt><trkpt lat="45.946925591730356" lon="12.10380166909464"><ele>241.0</ele><time>2026-05-03T15:37:49.999Z</time></trkpt><trkpt lat="45.9469921515358" lon="12.103991145319636"><ele>241.0</ele><time>2026-05-03T15:37:50.999Z</time></trkpt><trkpt lat="45.94706460602027" lon="12.104169654992713"><ele>241.0</ele><time>2026-05-03T15:37:51.999Z</time></trkpt><trkpt lat="45.94714642442797" lon="12.104347727545784"><ele>241.0</ele><time>2026-05-03T15:37:52.999Z</time></trkpt><trkpt lat="45.94722921977485" lon="12.104535542930625"><ele>239.33333333333331</ele><time>2026-05-03T15:37:54Z</time></trkpt><trkpt lat="45.94731483344404" lon="12.104724307978685"><ele>237.66666666666669</ele><time>2026-05-03T15:37:55Z</time></trkpt><trkpt lat="45.947405315424874" lon="12.104917268694596"><ele>236.0</ele><time>2026-05-03T15:37:56Z</time></trkpt><trkpt lat="45.94749529391604" lon="12.10511019219847"><ele>235.0</ele><time>2026-05-03T15:37:57Z</time></trkpt><trkpt lat="45.947589025191256" lon="12.105293001485505"><ele>234.0</ele><time>2026-05-03T15:37:58Z</time></trkpt><trkpt lat="45.947691284930016" lon="12.105453654419364"><ele>233.0</ele><time>2026-05-03T15:37:59Z</time></trkpt><trkpt lat="45.94778892558068" lon="12.105642230420369"><ele>231.33333333333334</ele><time>2026-05-03T15:38:00Z</time></trkpt><trkpt lat="45.94788622714946" lon="12.105831135996535"><ele>229.66666666666669</ele><time>2026-05-03T15:38:01Z</time></trkpt><trkpt lat="45.9479892706283" lon="12.10602460435128"><ele>228.0</ele><time>2026-05-03T15:38:02Z</time></trkpt><trkpt lat="45.9480885687592" lon="12.106206736582317"><ele>228.0</ele><time>2026-05-03T15:38:03Z</time></trkpt><trkpt lat="45.94819104170612" lon="12.106389771555063"><ele>228.0</ele><time>2026-05-03T15:38:04Z</time></trkpt><trkpt lat="45.94830051307217" lon="12.106561961319567"><ele>228.0</ele><time>2026-05-03T15:38:05Z</time></trkpt><trkpt lat="45.94842049999314" lon="12.106734438552406"><ele>227.0</ele><time>2026-05-03T15:38:06Z</time></trkpt><trkpt lat="45.94854855334498" lon="12.106899682329855"><ele>226.0</ele><time>2026-05-03T15:38:07Z</time></trkpt><trkpt lat="45.94867569979901" lon="12.107059884670036"><ele>225.0</ele><time>2026-05-03T15:38:08Z</time></trkpt><trkpt lat="45.94881106599242" lon="12.107184578311447"><ele>225.0</ele><time>2026-05-03T15:38:09Z</time></trkpt><trkpt lat="45.94894558027214" lon="12.107331578775108"><ele>225.0</ele><time>2026-05-03T15:38:10Z</time></trkpt><trkpt lat="45.94907623830046" lon="12.107492377505455"><ele>225.0</ele><time>2026-05-03T15:38:11Z</time></trkpt><trkpt lat="45.949210622996645" lon="12.107637062339817"><ele>222.66666666666669</ele><time>2026-05-03T15:38:12Z</time></trkpt><trkpt lat="45.94934011609456" lon="12.107781175036958"><ele>220.33333333333334</ele><time>2026-05-03T15:38:13Z</time></trkpt><trkpt lat="45.94947382392142" lon="12.107959854022294"><ele>218.0</ele><time>2026-05-03T15:38:14Z</time></trkpt><trkpt lat="45.94961395397172" lon="12.108124694412544"><ele>217.0</ele><time>2026-05-03T15:38:15Z</time></trkpt><trkpt lat="45.94974856064121" lon="12.108282161097632"><ele>216.0</ele><time>2026-05-03T15:38:16Z</time></trkpt><trkpt lat="45.94988640433339" lon="12.108439977531743"><ele>215.0</ele><time>2026-05-03T15:38:17Z</time></trkpt><trkpt lat="45.950026777925515" lon="12.108606071326582"><ele>216.0</ele><time>2026-05-03T15:38:18Z</time></trkpt><trkpt lat="45.95016609454184" lon="12.10876852138427"><ele>217.0</ele><time>2026-05-03T15:38:19Z</time></trkpt><trkpt lat="45.95031019596155" lon="12.108909976155154"><ele>218.0</ele><time>2026-05-03T15:38:20Z</time></trkpt><trkpt lat="45.95043897710918" lon="12.10906969219119"><ele>217.0</ele><time>2026-05-03T15:38:21Z</time></trkpt><trkpt lat="45.950556469051584" lon="12.109233305525134"><ele>216.0</ele><time>2026-05-03T15:38:22Z</time></trkpt><trkpt lat="45.95066186078921" lon="12.109421849468418"><ele>215.0</ele><time>2026-05-03T15:38:23Z</time></trkpt><trkpt lat="45.95074869259605" lon="12.109612476822553"><ele>215.0</ele><time>2026-05-03T15:38:24Z</time></trkpt><trkpt lat="45.950834143216106" lon="12.109811522288364"><ele>215.0</ele><time>2026-05-03T15:38:25Z</time></trkpt><trkpt lat="45.95091685837312" lon="12.110004598677849"><ele>215.0</ele><time>2026-05-03T15:38:26Z</time></trkpt><trkpt lat="45.951000849957886" lon="12.110195275552245"><ele>214.33333333333334</ele><time>2026-05-03T15:38:27Z</time></trkpt><trkpt lat="45.95108453237988" lon="12.110376318780872"><ele>213.66666666666669</ele><time>2026-05-03T15:38:28Z</time></trkpt><trkpt lat="45.951168426614" lon="12.11054400719605"><ele>213.0</ele><time>2026-05-03T15:38:29Z</time></trkpt><trkpt lat="45.95124964565192" lon="12.110767839905062"><ele>213.0</ele><time>2026-05-03T15:38:30Z</time></trkpt><trkpt lat="45.95133222383486" lon="12.110956272915955"><ele>213.0</ele><time>2026-05-03T15:38:31Z</time></trkpt><trkpt lat="45.95141268906167" lon="12.111145686706703"><ele>213.0</ele><time>2026-05-03T15:38:32Z</time></trkpt><trkpt lat="45.95148367700003" lon="12.111331327853767"><ele>213.0</ele><time>2026-05-03T15:38:33Z</time></trkpt><trkpt lat="45.95153226753324" lon="12.111529933649392"><ele>213.0</ele><time>2026-05-03T15:38:34Z</time></trkpt><trkpt lat="45.95157357286558" lon="12.11173860865483"><ele>213.0</ele><time>2026-05-03T15:38:35Z</time></trkpt><trkpt lat="45.951604952365464" lon="12.11195061683566"><ele>213.0</ele><time>2026-05-03T15:38:36Z</time></trkpt><trkpt lat="45.95163073055932" lon="12.11215197017698"><ele>211.66666666666669</ele><time>2026-05-03T15:38:37Z</time></trkpt><trkpt lat="45.951642335866744" lon="12.112374979030701"><ele>210.33333333333334</ele><time>2026-05-03T15:38:38Z</time></trkpt><trkpt lat="45.95165273123752" lon="12.112612135374285"><ele>209.0</ele><time>2026-05-03T15:38:39Z</time></trkpt><trkpt lat="45.951669138109104" lon="12.112824417002676"><ele>208.33333333333334</ele><time>2026-05-03T15:38:40Z</time></trkpt><trkpt lat="45.9516795610525" lon="12.11305456630552"><ele>207.66666666666669</ele><time>2026-05-03T15:38:41Z</time></trkpt><trkpt lat="45.951696286522534" lon="12.113260419142996"><ele>207.0</ele><time>2026-05-03T15:38:42Z</time></trkpt><trkpt lat="45.95171039484165" lon="12.113477236351539"><ele>207.0</ele><time>2026-05-03T15:38:43Z</time></trkpt><trkpt lat="45.951721220278124" lon="12.113705668294887"><ele>207.0</ele><time>2026-05-03T15:38:44Z</time></trkpt><trkpt lat="45.95172853379606" lon="12.113944177816434"><ele>207.0</ele><time>2026-05-03T15:38:45Z</time></trkpt><trkpt lat="45.95173584550962" lon="12.114171594422142"><ele>205.33333333333331</ele><time>2026-05-03T15:38:46Z</time></trkpt><trkpt lat="45.951744280815284" lon="12.114401065795798"><ele>203.66666666666666</ele><time>2026-05-03T15:38:47Z</time></trkpt><trkpt lat="45.95176400576024" lon="12.114630355958578"><ele>202.0</ele><time>2026-05-03T15:38:48Z</time></trkpt><trkpt lat="45.951789549714995" lon="12.114850724599039"><ele>201.0</ele><time>2026-05-03T15:38:49Z</time></trkpt><trkpt lat="45.95181929084836" lon="12.115070090516049"><ele>200.0</ele><time>2026-05-03T15:38:50Z</time></trkpt><trkpt lat="45.95186071445379" lon="12.115275749712211"><ele>199.0</ele><time>2026-05-03T15:38:51Z</time></trkpt><trkpt lat="45.951906563665965" lon="12.115488175735319"><ele>199.0</ele><time>2026-05-03T15:38:52Z</time></trkpt><trkpt lat="45.951963709505065" lon="12.115682680712661"><ele>199.0</ele><time>2026-05-03T15:38:53Z</time></trkpt><trkpt lat="45.95202952004685" lon="12.115863732158044"><ele>199.0</ele><time>2026-05-03T15:38:54Z</time></trkpt><trkpt lat="45.952096901156494" lon="12.1160353967764"><ele>199.0</ele><time>2026-05-03T15:38:54.999Z</time></trkpt><trkpt lat="45.952171649281794" lon="12.116188192765023"><ele>198.25</ele><time>2026-05-03T15:38:55.999Z</time></trkpt><trkpt lat="45.952238518536" lon="12.116359219881556"><ele>197.5</ele><time>2026-05-03T15:38:56.999Z</time></trkpt><trkpt lat="45.95231535291246" lon="12.116514362183832"><ele>196.75</ele><time>2026-05-03T15:38:57.999Z</time></trkpt><trkpt lat="45.952401768851374" lon="12.11668675000291"><ele>196.0</ele><time>2026-05-03T15:38:58.999Z</time></trkpt><trkpt lat="45.95248784088259" lon="12.116854319512727"><ele>195.5</ele><time>2026-05-03T15:38:59.999Z</time></trkpt><trkpt lat="45.952565582675525" lon="12.11701222412775"><ele>195.0</ele><time>2026-05-03T15:39:00.999Z</time></trkpt><trkpt lat="45.95264049153193" lon="12.117163671586654"><ele>194.5</ele><time>2026-05-03T15:39:01.999Z</time></trkpt><trkpt lat="45.95272693778913" lon="12.117302411628996"><ele>194.0</ele><time>2026-05-03T15:39:02.999Z</time></trkpt><trkpt lat="45.95279359200073" lon="12.117442252698293"><ele>194.0</ele><time>2026-05-03T15:39:03.999Z</time></trkpt><trkpt lat="45.95285190040845" lon="12.117588095860878"><ele>194.0</ele><time>2026-05-03T15:39:04.999Z</time></trkpt><trkpt lat="45.95291464041237" lon="12.117689935737147"><ele>194.0</ele><time>2026-05-03T15:39:05.999Z</time></trkpt><trkpt lat="45.952965650000145" lon="12.117843894382608"><ele>194.0</ele><time>2026-05-03T15:39:06.999Z</time></trkpt><trkpt lat="45.9530274955117" lon="12.11795298510434"><ele>194.0</ele><time>2026-05-03T15:39:07.999Z</time></trkpt><trkpt lat="45.95306015112077" lon="12.118067431842558"><ele>194.0</ele><time>2026-05-03T15:39:08.999Z</time></trkpt><trkpt lat="45.953047259716705" lon="12.118196427486177"><ele>194.0</ele><time>2026-05-03T15:39:09.999Z</time></trkpt><trkpt lat="45.95298896134666" lon="12.118296746931504"><ele>194.0</ele><time>2026-05-03T15:39:10.999Z</time></trkpt><trkpt lat="45.9529128164288" lon="12.118388766790998"><ele>194.0</ele><time>2026-05-03T15:39:11.999Z</time></trkpt><trkpt lat="45.95281877548917" lon="12.11844014035128"><ele>194.0</ele><time>2026-05-03T15:39:12.999Z</time></trkpt><trkpt lat="45.952708587964274" lon="12.11848977292511"><ele>194.0</ele><time>2026-05-03T15:39:13.999Z</time></trkpt><trkpt lat="45.95259774273791" lon="12.11854378097015"><ele>194.0</ele><time>2026-05-03T15:39:14.999Z</time></trkpt><trkpt lat="45.95247680343135" lon="12.11863487648706"><ele>194.0</ele><time>2026-05-03T15:39:15.999Z</time></trkpt><trkpt lat="45.95237437921965" lon="12.11867978914622"><ele>194.0</ele><time>2026-05-03T15:39:16.999Z</time></trkpt><trkpt lat="45.95231166284941" lon="12.11872644857076"><ele>194.0</ele><time>2026-05-03T15:39:17.999Z</time></trkpt><trkpt lat="45.95221344945572" lon="12.118781147236946"><ele>194.0</ele><time>2026-05-03T15:39:18.999Z</time></trkpt><trkpt lat="45.95211943855012" lon="12.118831313412862"><ele>194.0</ele><time>2026-05-03T15:39:19.999Z</time></trkpt><trkpt lat="45.952011051716354" lon="12.118884917374613"><ele>194.0</ele><time>2026-05-03T15:39:20.999Z</time></trkpt><trkpt lat="45.95191667044502" lon="12.11894919274187"><ele>194.0</ele><time>2026-05-03T15:39:21.999Z</time></trkpt><trkpt lat="45.95182620363265" lon="12.11902004336105"><ele>194.0</ele><time>2026-05-03T15:39:22.999Z</time></trkpt><trkpt lat="45.95173249221148" lon="12.119091980904937"><ele>193.25</ele><time>2026-05-03T15:39:23.999Z</time></trkpt><trkpt lat="45.95164848489769" lon="12.119186499045927"><ele>192.5</ele><time>2026-05-03T15:39:24.999Z</time></trkpt><trkpt lat="45.95156484384016" lon="12.119302807644488"><ele>191.75</ele><time>2026-05-03T15:39:25.999Z</time></trkpt><trkpt lat="45.95147198599578" lon="12.119414561992924"><ele>191.0</ele><time>2026-05-03T15:39:26.999Z</time></trkpt><trkpt lat="45.9513869288198" lon="12.119531266955073"><ele>191.0</ele><time>2026-05-03T15:39:27.999Z</time></trkpt><trkpt lat="45.95130552077412" lon="12.119656014962198"><ele>191.0</ele><time>2026-05-03T15:39:28.999Z</time></trkpt><trkpt lat="45.95121715160753" lon="12.119783189240868"><ele>191.0</ele><time>2026-05-03T15:39:29.999Z</time></trkpt><trkpt lat="45.95112396614544" lon="12.119907018956447"><ele>191.0</ele><time>2026-05-03T15:39:30.999Z</time></trkpt><trkpt lat="45.951018364886856" lon="12.119986164026775"><ele>190.75</ele><time>2026-05-03T15:39:31.999Z</time></trkpt><trkpt lat="45.950914127057736" lon="12.120114006268139"><ele>190.5</ele><time>2026-05-03T15:39:32.999Z</time></trkpt><trkpt lat="45.95080719764621" lon="12.120235519849448"><ele>190.25</ele><time>2026-05-03T15:39:33.999Z</time></trkpt><trkpt lat="45.9506931699787" lon="12.120351152936665"><ele>190.0</ele><time>2026-05-03T15:39:34.999Z</time></trkpt><trkpt lat="45.95057720884805" lon="12.12046318554629"><ele>190.0</ele><time>2026-05-03T15:39:35.999Z</time></trkpt><trkpt lat="45.95045665412962" lon="12.120565413192487"><ele>190.0</ele><time>2026-05-03T15:39:36.999Z</time></trkpt><trkpt lat="45.9503406810825" lon="12.120708144895229"><ele>190.0</ele><time>2026-05-03T15:39:37.999Z</time></trkpt><trkpt lat="45.95021277149313" lon="12.120813649781134"><ele>190.0</ele><time>2026-05-03T15:39:38.999Z</time></trkpt><trkpt lat="45.950095041111325" lon="12.120891112006987"><ele>189.66666666666669</ele><time>2026-05-03T15:39:39.999Z</time></trkpt><trkpt lat="45.94995914891282" lon="12.120998879546288"><ele>189.33333333333334</ele><time>2026-05-03T15:39:40.999Z</time></trkpt><trkpt lat="45.94982615407089" lon="12.121096543626136"><ele>189.0</ele><time>2026-05-03T15:39:41.999Z</time></trkpt><trkpt lat="45.949685774906534" lon="12.12119680487326"><ele>189.0</ele><time>2026-05-03T15:39:42.999Z</time></trkpt><trkpt lat="45.94955350841942" lon="12.121306125092815"><ele>189.0</ele><time>2026-05-03T15:39:43.999Z</time></trkpt><trkpt lat="45.94941834008692" lon="12.121413741281295"><ele>189.0</ele><time>2026-05-03T15:39:44.999Z</time></trkpt><trkpt lat="45.949283980707904" lon="12.12152338762558"><ele>188.0</ele><time>2026-05-03T15:39:45.999Z</time></trkpt><trkpt lat="45.949154890373876" lon="12.12162929654928"><ele>187.0</ele><time>2026-05-03T15:39:46.999Z</time></trkpt><trkpt lat="45.94902667849298" lon="12.121743590563328"><ele>186.0</ele><time>2026-05-03T15:39:47.999Z</time></trkpt><trkpt lat="45.94890349412022" lon="12.121838165336907"><ele>185.0</ele><time>2026-05-03T15:39:48.999Z</time></trkpt><trkpt lat="45.94878121416253" lon="12.121900079635902"><ele>185.0</ele><time>2026-05-03T15:39:49.999Z</time></trkpt><trkpt lat="45.948669596709976" lon="12.121980638070253"><ele>185.0</ele><time>2026-05-03T15:39:50.999Z</time></trkpt><trkpt lat="45.94856495783443" lon="12.122065443905036"><ele>185.0</ele><time>2026-05-03T15:39:51.999Z</time></trkpt><trkpt lat="45.94847102150883" lon="12.12214913669933"><ele>185.0</ele><time>2026-05-03T15:39:52.999Z</time></trkpt><trkpt lat="45.94838942627486" lon="12.122235341471505"><ele>184.4</ele><time>2026-05-03T15:39:53.999Z</time></trkpt><trkpt lat="45.94831911094425" lon="12.122312226552392"><ele>183.8</ele><time>2026-05-03T15:39:54.999Z</time></trkpt><trkpt lat="45.948252068991536" lon="12.122396411272806"><ele>183.2</ele><time>2026-05-03T15:39:55.999Z</time></trkpt><trkpt lat="45.94819143022888" lon="12.122495809534136"><ele>182.6</ele><time>2026-05-03T15:39:56.999Z</time></trkpt><trkpt lat="45.94808359379453" lon="12.122547679806035"><ele>182.0</ele><time>2026-05-03T15:39:57.999Z</time></trkpt><trkpt lat="45.94799226996964" lon="12.122619252535497"><ele>182.0</ele><time>2026-05-03T15:39:58.999Z</time></trkpt><trkpt lat="45.947886970221916" lon="12.122691701329568"><ele>182.0</ele><time>2026-05-03T15:40:00Z</time></trkpt><trkpt lat="45.94778023406729" lon="12.122764625118583"><ele>182.0</ele><time>2026-05-03T15:40:01Z</time></trkpt><trkpt lat="45.94766793383386" lon="12.122835480273343"><ele>182.0</ele><time>2026-05-03T15:40:02Z</time></trkpt><trkpt lat="45.947549065774034" lon="12.122919149786496"><ele>182.0</ele><time>2026-05-03T15:40:03Z</time></trkpt><trkpt lat="45.94743860443463" lon="12.12301217829424"><ele>182.0</ele><time>2026-05-03T15:40:04Z</time></trkpt><trkpt lat="45.94732718444044" lon="12.123103689337178"><ele>182.0</ele><time>2026-05-03T15:40:05Z</time></trkpt><trkpt lat="45.94720130009626" lon="12.123189324407333"><ele>182.0</ele><time>2026-05-03T15:40:06Z</time></trkpt><trkpt lat="45.94708025577339" lon="12.123289371739823"><ele>182.0</ele><time>2026-05-03T15:40:07Z</time></trkpt><trkpt lat="45.946953721424215" lon="12.12341166748722"><ele>182.0</ele><time>2026-05-03T15:40:08Z</time></trkpt><trkpt lat="45.9468168419733" lon="12.123511302606259"><ele>182.0</ele><time>2026-05-03T15:40:09Z</time></trkpt><trkpt lat="45.94667644659594" lon="12.123613894134824"><ele>181.66666666666666</ele><time>2026-05-03T15:40:10Z</time></trkpt><trkpt lat="45.94654237581365" lon="12.123717887945563"><ele>181.33333333333334</ele><time>2026-05-03T15:40:11Z</time></trkpt><trkpt lat="45.946397855674014" lon="12.123824504439781"><ele>181.0</ele><time>2026-05-03T15:40:12Z</time></trkpt><trkpt lat="45.9462600174333" lon="12.12394780684068"><ele>181.0</ele><time>2026-05-03T15:40:13Z</time></trkpt><trkpt lat="45.946119005591704" lon="12.124078463499137"><ele>181.0</ele><time>2026-05-03T15:40:14Z</time></trkpt><trkpt lat="45.94597572517658" lon="12.124223766765377"><ele>181.0</ele><time>2026-05-03T15:40:15Z</time></trkpt><trkpt lat="45.94582323814579" lon="12.124386085099584"><ele>180.5</ele><time>2026-05-03T15:40:16Z</time></trkpt><trkpt lat="45.94565753303715" lon="12.12456719664415"><ele>180.0</ele><time>2026-05-03T15:40:17Z</time></trkpt><trkpt lat="45.94547451163416" lon="12.124796673140324"><ele>182.5</ele><time>2026-05-03T15:40:18Z</time></trkpt><trkpt lat="45.945278544378496" lon="12.125044283982236"><ele>185.0</ele><time>2026-05-03T15:40:19Z</time></trkpt><trkpt lat="45.94511567007741" lon="12.125256911543998"><ele>182.33333333333331</ele><time>2026-05-03T15:40:20Z</time></trkpt><trkpt lat="45.94496179630091" lon="12.125452255397452"><ele>179.66666666666666</ele><time>2026-05-03T15:40:21Z</time></trkpt><trkpt lat="45.94481195104147" lon="12.125641741872494"><ele>177.0</ele><time>2026-05-03T15:40:22Z</time></trkpt><trkpt lat="45.944674785672305" lon="12.125825033302593"><ele>176.66666666666666</ele><time>2026-05-03T15:40:23Z</time></trkpt><trkpt lat="45.944529969368595" lon="12.126001014053946"><ele>176.33333333333331</ele><time>2026-05-03T15:40:24Z</time></trkpt><trkpt lat="45.94439533761081" lon="12.126175808743714"><ele>176.0</ele><time>2026-05-03T15:40:25Z</time></trkpt><trkpt lat="45.944263055982006" lon="12.126337449754159"><ele>175.66666666666666</ele><time>2026-05-03T15:40:26Z</time></trkpt><trkpt lat="45.94413870092536" lon="12.126490364326507"><ele>175.33333333333334</ele><time>2026-05-03T15:40:27Z</time></trkpt><trkpt lat="45.94401487505019" lon="12.12664445968534"><ele>175.0</ele><time>2026-05-03T15:40:28Z</time></trkpt><trkpt lat="45.94389025158682" lon="12.12680191629578"><ele>174.66666666666669</ele><time>2026-05-03T15:40:29Z</time></trkpt><trkpt lat="45.94376752969605" lon="12.126952687535479"><ele>174.33333333333334</ele><time>2026-05-03T15:40:30Z</time></trkpt><trkpt lat="45.94365336454735" lon="12.127108341720835"><ele>174.0</ele><time>2026-05-03T15:40:31Z</time></trkpt><trkpt lat="45.94351609273034" lon="12.127259243959479"><ele>174.0</ele><time>2026-05-03T15:40:32Z</time></trkpt><trkpt lat="45.943397377860045" lon="12.127405342096472"><ele>174.0</ele><time>2026-05-03T15:40:33Z</time></trkpt><trkpt lat="45.94327758214757" lon="12.127554955420283"><ele>174.0</ele><time>2026-05-03T15:40:34Z</time></trkpt><trkpt lat="45.943158618308665" lon="12.127692995683375"><ele>174.33333333333334</ele><time>2026-05-03T15:40:35Z</time></trkpt><trkpt lat="45.943043174670514" lon="12.127849986878074"><ele>174.66666666666669</ele><time>2026-05-03T15:40:36Z</time></trkpt><trkpt lat="45.94292897649539" lon="12.128003592389629"><ele>175.0</ele><time>2026-05-03T15:40:37Z</time></trkpt><trkpt lat="45.94282156207387" lon="12.128149225519671"><ele>175.5</ele><time>2026-05-03T15:40:38Z</time></trkpt><trkpt lat="45.94271949968301" lon="12.128305408560829"><ele>176.0</ele><time>2026-05-03T15:40:39Z</time></trkpt><trkpt lat="45.94260702216245" lon="12.128450909051853"><ele>176.5</ele><time>2026-05-03T15:40:40Z</time></trkpt><trkpt lat="45.94250272057955" lon="12.128604125032412"><ele>177.0</ele><time>2026-05-03T15:40:41Z</time></trkpt><trkpt lat="45.94238819130369" lon="12.128727763962992"><ele>177.0</ele><time>2026-05-03T15:40:42Z</time></trkpt><trkpt lat="45.94229037752758" lon="12.128887710914004"><ele>177.0</ele><time>2026-05-03T15:40:43Z</time></trkpt><trkpt lat="45.94218832069524" lon="12.129048974163812"><ele>177.0</ele><time>2026-05-03T15:40:44Z</time></trkpt><trkpt lat="45.94206568179998" lon="12.129205258828815"><ele>176.33333333333334</ele><time>2026-05-03T15:40:45Z</time></trkpt><trkpt lat="45.94193723384782" lon="12.129349160882569"><ele>175.66666666666669</ele><time>2026-05-03T15:40:46Z</time></trkpt><trkpt lat="45.941823998332886" lon="12.12949857853366"><ele>175.0</ele><time>2026-05-03T15:40:47Z</time></trkpt><trkpt lat="45.9417040638891" lon="12.129658447137142"><ele>175.0</ele><time>2026-05-03T15:40:48Z</time></trkpt><trkpt lat="45.941588199246084" lon="12.12981906852548"><ele>175.0</ele><time>2026-05-03T15:40:49Z</time></trkpt><trkpt lat="45.94147252891948" lon="12.129977488376479"><ele>175.0</ele><time>2026-05-03T15:40:50Z</time></trkpt><trkpt lat="45.94134892493845" lon="12.130138130066694"><ele>175.0</ele><time>2026-05-03T15:40:51Z</time></trkpt><trkpt lat="45.94123174521596" lon="12.130299376972303"><ele>175.0</ele><time>2026-05-03T15:40:52Z</time></trkpt><trkpt lat="45.941117094908044" lon="12.130468432831458"><ele>175.0</ele><time>2026-05-03T15:40:53Z</time></trkpt><trkpt lat="45.941003338446386" lon="12.130629196908487"><ele>173.33333333333334</ele><time>2026-05-03T15:40:54Z</time></trkpt><trkpt lat="45.94088214939004" lon="12.130791695976518"><ele>171.66666666666666</ele><time>2026-05-03T15:40:55Z</time></trkpt><trkpt lat="45.940765690771016" lon="12.130956266995543"><ele>170.0</ele><time>2026-05-03T15:40:56Z</time></trkpt><trkpt lat="45.94064748514457" lon="12.131122125180411"><ele>170.0</ele><time>2026-05-03T15:40:57Z</time></trkpt><trkpt lat="45.94053009975709" lon="12.131294932560287"><ele>170.0</ele><time>2026-05-03T15:40:58Z</time></trkpt><trkpt lat="45.940412056962586" lon="12.131468126708713"><ele>170.0</ele><time>2026-05-03T15:40:59Z</time></trkpt><trkpt lat="45.940291647763324" lon="12.131641938648707"><ele>170.0</ele><time>2026-05-03T15:40:59.999Z</time></trkpt><trkpt lat="45.94017077557408" lon="12.131805581282936"><ele>170.0</ele><time>2026-05-03T15:41:00.999Z</time></trkpt><trkpt lat="45.94004543156311" lon="12.131972357031898"><ele>170.0</ele><time>2026-05-03T15:41:01.999Z</time></trkpt><trkpt lat="45.93991875456533" lon="12.132141586063028"><ele>170.0</ele><time>2026-05-03T15:41:02.999Z</time></trkpt><trkpt lat="45.939797698223316" lon="12.13230617169727"><ele>170.0</ele><time>2026-05-03T15:41:03.999Z</time></trkpt><trkpt lat="45.93967762133721" lon="12.132471387062013"><ele>170.0</ele><time>2026-05-03T15:41:04.999Z</time></trkpt><trkpt lat="45.939565549271585" lon="12.132638114385063"><ele>169.66666666666666</ele><time>2026-05-03T15:41:05.999Z</time></trkpt><trkpt lat="45.93944384280199" lon="12.132800323083908"><ele>169.33333333333334</ele><time>2026-05-03T15:41:06.999Z</time></trkpt><trkpt lat="45.93933317659007" lon="12.132974372043897"><ele>169.0</ele><time>2026-05-03T15:41:07.999Z</time></trkpt><trkpt lat="45.93921809643573" lon="12.133135849249994"><ele>169.33333333333334</ele><time>2026-05-03T15:41:08.999Z</time></trkpt><trkpt lat="45.93910501495479" lon="12.133296944112594"><ele>169.66666666666666</ele><time>2026-05-03T15:41:09.999Z</time></trkpt><trkpt lat="45.93898263668401" lon="12.133455840890813"><ele>170.0</ele><time>2026-05-03T15:41:10.999Z</time></trkpt><trkpt lat="45.938865505232876" lon="12.133626397359984"><ele>170.0</ele><time>2026-05-03T15:41:11.999Z</time></trkpt><trkpt lat="45.93875257405342" lon="12.133792653645497"><ele>170.0</ele><time>2026-05-03T15:41:12.999Z</time></trkpt><trkpt lat="45.93863824546102" lon="12.133946850124625"><ele>170.0</ele><time>2026-05-03T15:41:13.999Z</time></trkpt><trkpt lat="45.9385217208741" lon="12.134099902032938"><ele>169.75</ele><time>2026-05-03T15:41:14.999Z</time></trkpt><trkpt lat="45.93841090752883" lon="12.134253532399992"><ele>169.5</ele><time>2026-05-03T15:41:15.999Z</time></trkpt><trkpt lat="45.938302202606245" lon="12.134400245636176"><ele>169.25</ele><time>2026-05-03T15:41:16.999Z</time></trkpt><trkpt lat="45.93820736340492" lon="12.1345488361489"><ele>169.0</ele><time>2026-05-03T15:41:17.999Z</time></trkpt><trkpt lat="45.93811340589301" lon="12.134683247778343"><ele>169.0</ele><time>2026-05-03T15:41:18.999Z</time></trkpt><trkpt lat="45.93801334800989" lon="12.134820120101832"><ele>169.0</ele><time>2026-05-03T15:41:19.999Z</time></trkpt><trkpt lat="45.93791706622982" lon="12.134950653407309"><ele>169.0</ele><time>2026-05-03T15:41:20.999Z</time></trkpt><trkpt lat="45.937813693186634" lon="12.135079912294378"><ele>169.0</ele><time>2026-05-03T15:41:21.999Z</time></trkpt><trkpt lat="45.93772255511732" lon="12.135210541520033"><ele>169.0</ele><time>2026-05-03T15:41:22.999Z</time></trkpt><trkpt lat="45.93762902056835" lon="12.135327566821054"><ele>169.0</ele><time>2026-05-03T15:41:23.999Z</time></trkpt><trkpt lat="45.937528163717964" lon="12.13543701952248"><ele>169.0</ele><time>2026-05-03T15:41:24.999Z</time></trkpt><trkpt lat="45.937438899219245" lon="12.13555004173935"><ele>169.0</ele><time>2026-05-03T15:41:25.999Z</time></trkpt><trkpt lat="45.93734310597118" lon="12.135662901617957"><ele>169.39999999999998</ele><time>2026-05-03T15:41:26.999Z</time></trkpt><trkpt lat="45.93723888233612" lon="12.135788410073625"><ele>169.8</ele><time>2026-05-03T15:41:27.999Z</time></trkpt><trkpt lat="45.937142203363116" lon="12.1359025411055"><ele>170.2</ele><time>2026-05-03T15:41:28.999Z</time></trkpt><trkpt lat="45.937074475952805" lon="12.135997643600591"><ele>170.60000000000002</ele><time>2026-05-03T15:41:29.999Z</time></trkpt><trkpt lat="45.937006553111544" lon="12.136080050760413"><ele>171.0</ele><time>2026-05-03T15:41:30.999Z</time></trkpt><trkpt lat="45.93695513134648" lon="12.136160742133152"><ele>171.0</ele><time>2026-05-03T15:41:31.999Z</time></trkpt><trkpt lat="45.93688290346084" lon="12.136231961776824"><ele>171.0</ele><time>2026-05-03T15:41:33.999Z</time></trkpt><trkpt lat="45.93709407127578" lon="12.136216222624789"><ele>171.0</ele><time>2026-05-03T15:42:08Z</time></trkpt><trkpt lat="45.937149953911955" lon="12.136156366896607"><ele>171.0</ele><time>2026-05-03T15:42:09Z</time></trkpt><trkpt lat="45.93725949939003" lon="12.13603903162575"><ele>171.0</ele><time>2026-05-03T15:42:11Z</time></trkpt><trkpt lat="45.937331027042674" lon="12.135962417340322"><ele>171.0</ele><time>2026-05-03T15:42:12Z</time></trkpt><trkpt lat="45.937344473833086" lon="12.13577049812742"><ele>171.0</ele><time>2026-05-03T15:42:13Z</time></trkpt><trkpt lat="45.93741746998859" lon="12.13567503414889"><ele>171.0</ele><time>2026-05-03T15:42:14Z</time></trkpt><trkpt lat="45.93751269525967" lon="12.135580958790934"><ele>171.0</ele><time>2026-05-03T15:42:15Z</time></trkpt><trkpt lat="45.93758333016566" lon="12.135481786500726"><ele>170.8</ele><time>2026-05-03T15:42:16Z</time></trkpt><trkpt lat="45.93765946221605" lon="12.135421724239318"><ele>170.60000000000002</ele><time>2026-05-03T15:42:17Z</time></trkpt><trkpt lat="45.93772321624758" lon="12.135428398634621"><ele>170.4</ele><time>2026-05-03T15:42:18Z</time></trkpt><trkpt lat="45.93781324351718" lon="12.13565195927806"><ele>170.2</ele><time>2026-05-03T15:42:20Z</time></trkpt><trkpt lat="45.937864600293615" lon="12.135795770932035"><ele>170.0</ele><time>2026-05-03T15:42:21Z</time></trkpt><trkpt lat="45.9378772920601" lon="12.135923754751309"><ele>170.4</ele><time>2026-05-03T15:42:22Z</time></trkpt><trkpt lat="45.93791112093646" lon="12.136037716266461"><ele>170.8</ele><time>2026-05-03T15:42:23Z</time></trkpt><trkpt lat="45.937926625859845" lon="12.136167414418429"><ele>171.2</ele><time>2026-05-03T15:42:24Z</time></trkpt><trkpt lat="45.937948700342545" lon="12.136290453307604"><ele>171.6</ele><time>2026-05-03T15:42:25Z</time></trkpt><trkpt lat="45.937970573419825" lon="12.136426135988334"><ele>172.0</ele><time>2026-05-03T15:42:26Z</time></trkpt><trkpt lat="45.937993468135836" lon="12.13655371054394"><ele>172.2</ele><time>2026-05-03T15:42:27Z</time></trkpt><trkpt lat="45.93802692705351" lon="12.136685620768388"><ele>172.39999999999998</ele><time>2026-05-03T15:42:28Z</time></trkpt><trkpt lat="45.938051683575374" lon="12.1368179162666"><ele>172.60000000000002</ele><time>2026-05-03T15:42:29Z</time></trkpt><trkpt lat="45.938053821305225" lon="12.136953600298563"><ele>172.8</ele><time>2026-05-03T15:42:30Z</time></trkpt><trkpt lat="45.93806453331354" lon="12.137084257764547"><ele>173.0</ele><time>2026-05-03T15:42:31Z</time></trkpt><trkpt lat="45.93806100239767" lon="12.137218593130262"><ele>173.0</ele><time>2026-05-03T15:42:32Z</time></trkpt><trkpt lat="45.93806001757616" lon="12.13736283287648"><ele>173.0</ele><time>2026-05-03T15:42:33Z</time></trkpt><trkpt lat="45.93803289109967" lon="12.137504662419406"><ele>173.0</ele><time>2026-05-03T15:42:34Z</time></trkpt><trkpt lat="45.93799255351207" lon="12.137637810708453"><ele>173.0</ele><time>2026-05-03T15:42:35Z</time></trkpt><trkpt lat="45.937952774547135" lon="12.137780558451691"><ele>173.0</ele><time>2026-05-03T15:42:36Z</time></trkpt><trkpt lat="45.93788506518023" lon="12.137922029364375"><ele>173.75</ele><time>2026-05-03T15:42:37Z</time></trkpt><trkpt lat="45.93782041201476" lon="12.13805822960081"><ele>174.5</ele><time>2026-05-03T15:42:38Z</time></trkpt><trkpt lat="45.93775970233688" lon="12.138202047882062"><ele>175.25</ele><time>2026-05-03T15:42:39Z</time></trkpt><trkpt lat="45.93770528225951" lon="12.138347236608109"><ele>176.0</ele><time>2026-05-03T15:42:40Z</time></trkpt><trkpt lat="45.937655195704174" lon="12.138513831676432"><ele>175.25</ele><time>2026-05-03T15:42:41Z</time></trkpt><trkpt lat="45.93760505736088" lon="12.13868188504633"><ele>174.5</ele><time>2026-05-03T15:42:42Z</time></trkpt><trkpt lat="45.93755778979921" lon="12.138844803245046"><ele>173.75</ele><time>2026-05-03T15:42:43Z</time></trkpt><trkpt lat="45.9375062184991" lon="12.139024012350037"><ele>173.0</ele><time>2026-05-03T15:42:44Z</time></trkpt><trkpt lat="45.937452038476465" lon="12.139199765943683"><ele>175.25</ele><time>2026-05-03T15:42:45Z</time></trkpt><trkpt lat="45.937395391735876" lon="12.139385290009722"><ele>177.5</ele><time>2026-05-03T15:42:46Z</time></trkpt><trkpt lat="45.93734359987675" lon="12.139576670373117"><ele>179.75</ele><time>2026-05-03T15:42:47Z</time></trkpt><trkpt lat="45.93728789271325" lon="12.139765734613567"><ele>182.0</ele><time>2026-05-03T15:42:48Z</time></trkpt><trkpt lat="45.93723134074431" lon="12.139957361824745"><ele>185.33333333333331</ele><time>2026-05-03T15:42:49Z</time></trkpt><trkpt lat="45.93717267965444" lon="12.14015922591563"><ele>188.66666666666666</ele><time>2026-05-03T15:42:50Z</time></trkpt><trkpt lat="45.93711575353397" lon="12.140359005667433"><ele>192.0</ele><time>2026-05-03T15:42:51Z</time></trkpt><trkpt lat="45.93705505441361" lon="12.140563293248643"><ele>193.5</ele><time>2026-05-03T15:42:52Z</time></trkpt><trkpt lat="45.93698865623953" lon="12.140763780196638"><ele>195.0</ele><time>2026-05-03T15:42:53Z</time></trkpt><trkpt lat="45.9369300110536" lon="12.140953331047028"><ele>196.5</ele><time>2026-05-03T15:42:54Z</time></trkpt><trkpt lat="45.93688274327299" lon="12.141144487663091"><ele>198.0</ele><time>2026-05-03T15:42:55Z</time></trkpt><trkpt lat="45.93685891121508" lon="12.141365143615362"><ele>197.25</ele><time>2026-05-03T15:42:56Z</time></trkpt><trkpt lat="45.93684196124933" lon="12.141585432847505"><ele>196.5</ele><time>2026-05-03T15:42:57Z</time></trkpt><trkpt lat="45.936797584059505" lon="12.141781211572367"><ele>195.75</ele><time>2026-05-03T15:42:58Z</time></trkpt><trkpt lat="45.93673550935201" lon="12.141971473951974"><ele>195.0</ele><time>2026-05-03T15:42:59Z</time></trkpt><trkpt lat="45.93665799798748" lon="12.142172969663811"><ele>195.0</ele><time>2026-05-03T15:43:00Z</time></trkpt><trkpt lat="45.93658300928833" lon="12.142368930878066"><ele>195.0</ele><time>2026-05-03T15:43:01Z</time></trkpt><trkpt lat="45.9364875667155" lon="12.142553973360043"><ele>195.0</ele><time>2026-05-03T15:43:02Z</time></trkpt><trkpt lat="45.936418286084155" lon="12.142750749305248"><ele>199.0</ele><time>2026-05-03T15:43:03Z</time></trkpt><trkpt lat="45.936346236299" lon="12.142932903100844"><ele>203.0</ele><time>2026-05-03T15:43:04Z</time></trkpt><trkpt lat="45.93627346697221" lon="12.143134296734475"><ele>207.0</ele><time>2026-05-03T15:43:05Z</time></trkpt><trkpt lat="45.936202733094106" lon="12.143327575841521"><ele>210.66666666666669</ele><time>2026-05-03T15:43:05.999Z</time></trkpt><trkpt lat="45.93612905956874" lon="12.143523358962113"><ele>214.33333333333334</ele><time>2026-05-03T15:43:06.999Z</time></trkpt><trkpt lat="45.93605355795657" lon="12.143710987403756"><ele>218.0</ele><time>2026-05-03T15:43:07.999Z</time></trkpt><trkpt lat="45.935972879162925" lon="12.143897396139561"><ele>216.33333333333334</ele><time>2026-05-03T15:43:08.999Z</time></trkpt><trkpt lat="45.93589636345597" lon="12.144091210815057"><ele>214.66666666666669</ele><time>2026-05-03T15:43:09.999Z</time></trkpt><trkpt lat="45.9358236855781" lon="12.144296678439437"><ele>213.0</ele><time>2026-05-03T15:43:10.999Z</time></trkpt><trkpt lat="45.93573910355118" lon="12.144488163029214"><ele>213.0</ele><time>2026-05-03T15:43:11.999Z</time></trkpt><trkpt lat="45.9356460255708" lon="12.144665891931291"><ele>213.0</ele><time>2026-05-03T15:43:12.999Z</time></trkpt><trkpt lat="45.935553153857974" lon="12.144826932919134"><ele>213.0</ele><time>2026-05-03T15:43:13.999Z</time></trkpt><trkpt lat="45.93546067737517" lon="12.144983240276929"><ele>213.0</ele><time>2026-05-03T15:43:14.999Z</time></trkpt><trkpt lat="45.935373984562624" lon="12.145140391442661"><ele>216.5</ele><time>2026-05-03T15:43:15.999Z</time></trkpt><trkpt lat="45.935287127350584" lon="12.145294136706303"><ele>220.0</ele><time>2026-05-03T15:43:16.999Z</time></trkpt><trkpt lat="45.935214244093466" lon="12.145433012670056"><ele>223.5</ele><time>2026-05-03T15:43:17.999Z</time></trkpt><trkpt lat="45.93513126171419" lon="12.145544465037906"><ele>227.0</ele><time>2026-05-03T15:43:18.999Z</time></trkpt><trkpt lat="45.935066166776004" lon="12.14567399413248"><ele>227.0</ele><time>2026-05-03T15:43:19.999Z</time></trkpt><trkpt lat="45.93502037028953" lon="12.14580981513125"><ele>227.0</ele><time>2026-05-03T15:43:20.999Z</time></trkpt><trkpt lat="45.93499157192854" lon="12.145955087612396"><ele>227.0</ele><time>2026-05-03T15:43:21.999Z</time></trkpt><trkpt lat="45.93501854098456" lon="12.146113990743228"><ele>227.0</ele><time>2026-05-03T15:43:22.999Z</time></trkpt><trkpt lat="45.93504719689068" lon="12.14625475813016"><ele>227.0</ele><time>2026-05-03T15:43:23.999Z</time></trkpt><trkpt lat="45.93510105537661" lon="12.146385082708301"><ele>229.0</ele><time>2026-05-03T15:43:24.999Z</time></trkpt><trkpt lat="45.93517908858717" lon="12.146491437525656"><ele>231.0</ele><time>2026-05-03T15:43:25.999Z</time></trkpt><trkpt lat="45.93526861313748" lon="12.146578088522189"><ele>233.0</ele><time>2026-05-03T15:43:26.999Z</time></trkpt><trkpt lat="45.93536836371454" lon="12.14664093776359"><ele>235.0</ele><time>2026-05-03T15:43:27.999Z</time></trkpt><trkpt lat="45.93545720291067" lon="12.146719303013867"><ele>237.0</ele><time>2026-05-03T15:43:28.999Z</time></trkpt><trkpt lat="45.93555243751224" lon="12.146781941583876"><ele>237.0</ele><time>2026-05-03T15:43:29.999Z</time></trkpt><trkpt lat="45.935654279413356" lon="12.146828855853839"><ele>237.0</ele><time>2026-05-03T15:43:30.999Z</time></trkpt><trkpt lat="45.935756880524" lon="12.146853759484532"><ele>237.0</ele><time>2026-05-03T15:43:31.999Z</time></trkpt><trkpt lat="45.93585940626928" lon="12.146864685615531"><ele>237.0</ele><time>2026-05-03T15:43:32.999Z</time></trkpt><trkpt lat="45.93596800080212" lon="12.146873166351387"><ele>237.0</ele><time>2026-05-03T15:43:33.999Z</time></trkpt><trkpt lat="45.93608012969515" lon="12.146879760812068"><ele>237.5</ele><time>2026-05-03T15:43:34.999Z</time></trkpt><trkpt lat="45.936196229785914" lon="12.146880910009275"><ele>238.0</ele><time>2026-05-03T15:43:35.999Z</time></trkpt><trkpt lat="45.93631432039119" lon="12.146883781478873"><ele>238.5</ele><time>2026-05-03T15:43:36.999Z</time></trkpt><trkpt lat="45.9364273234312" lon="12.146878563487906"><ele>239.0</ele><time>2026-05-03T15:43:37.999Z</time></trkpt><trkpt lat="45.93654411752063" lon="12.146878538884643"><ele>239.0</ele><time>2026-05-03T15:43:38.999Z</time></trkpt><trkpt lat="45.9366608283971" lon="12.14688673374557"><ele>239.0</ele><time>2026-05-03T15:43:39.999Z</time></trkpt><trkpt lat="45.93677173055272" lon="12.146879169993582"><ele>239.0</ele><time>2026-05-03T15:43:40.999Z</time></trkpt><trkpt lat="45.936885402747734" lon="12.146841602696389"><ele>239.0</ele><time>2026-05-03T15:43:41.999Z</time></trkpt><trkpt lat="45.936991246415154" lon="12.146784601055634"><ele>239.75</ele><time>2026-05-03T15:43:42.999Z</time></trkpt><trkpt lat="45.93709749389743" lon="12.146708491920409"><ele>240.5</ele><time>2026-05-03T15:43:43.999Z</time></trkpt><trkpt lat="45.93719363001163" lon="12.14660310064924"><ele>241.25</ele><time>2026-05-03T15:43:44.999Z</time></trkpt><trkpt lat="45.93729210630935" lon="12.146486286967546"><ele>242.0</ele><time>2026-05-03T15:43:45.999Z</time></trkpt><trkpt lat="45.93738737813112" lon="12.146366885092418"><ele>242.25</ele><time>2026-05-03T15:43:46.999Z</time></trkpt><trkpt lat="45.93749013293649" lon="12.14628353590151"><ele>242.5</ele><time>2026-05-03T15:43:47.999Z</time></trkpt><trkpt lat="45.937600517232596" lon="12.146219848075695"><ele>242.75</ele><time>2026-05-03T15:43:48.999Z</time></trkpt><trkpt lat="45.93771898075061" lon="12.14617783089496"><ele>243.0</ele><time>2026-05-03T15:43:49.999Z</time></trkpt><trkpt lat="45.93784495720584" lon="12.146179978203191"><ele>243.60000000000002</ele><time>2026-05-03T15:43:50.999Z</time></trkpt><trkpt lat="45.93794975873269" lon="12.146151343748741"><ele>244.20000000000002</ele><time>2026-05-03T15:43:51.999Z</time></trkpt><trkpt lat="45.93804777063379" lon="12.146144119601118"><ele>244.8</ele><time>2026-05-03T15:43:52.999Z</time></trkpt><trkpt lat="45.93815145397976" lon="12.146133518378479"><ele>245.4</ele><time>2026-05-03T15:43:53.999Z</time></trkpt><trkpt lat="45.93824840068061" lon="12.146124883206769"><ele>246.0</ele><time>2026-05-03T15:43:54.999Z</time></trkpt><trkpt lat="45.93834714265636" lon="12.146117741503204"><ele>247.0</ele><time>2026-05-03T15:43:55.999Z</time></trkpt><trkpt lat="45.938448615432485" lon="12.146112549779707"><ele>248.00000000000003</ele><time>2026-05-03T15:43:56.999Z</time></trkpt><trkpt lat="45.93855025863601" lon="12.146102900722353"><ele>249.00000000000003</ele><time>2026-05-03T15:43:57.999Z</time></trkpt><trkpt lat="45.93865975629158" lon="12.146087396403788"><ele>250.0</ele><time>2026-05-03T15:43:58.999Z</time></trkpt><trkpt lat="45.93875882074512" lon="12.146066678390433"><ele>251.0</ele><time>2026-05-03T15:43:59.999Z</time></trkpt><trkpt lat="45.938867828373674" lon="12.14603661988338"><ele>251.0</ele><time>2026-05-03T15:44:00.999Z</time></trkpt><trkpt lat="45.9389745938057" lon="12.146007393801792"><ele>251.00000000000003</ele><time>2026-05-03T15:44:01.999Z</time></trkpt><trkpt lat="45.93907827212679" lon="12.145979602150419"><ele>251.00000000000003</ele><time>2026-05-03T15:44:02.999Z</time></trkpt><trkpt lat="45.93918611169613" lon="12.145954740588344"><ele>251.0</ele><time>2026-05-03T15:44:03.999Z</time></trkpt><trkpt lat="45.93929001951524" lon="12.145925839031488"><ele>251.0</ele><time>2026-05-03T15:44:04.999Z</time></trkpt><trkpt lat="45.93938768099349" lon="12.145896809714415"><ele>251.4</ele><time>2026-05-03T15:44:05.999Z</time></trkpt><trkpt lat="45.939477478612446" lon="12.145871481683617"><ele>251.8</ele><time>2026-05-03T15:44:06.999Z</time></trkpt><trkpt lat="45.93956631920347" lon="12.145854674097489"><ele>252.20000000000002</ele><time>2026-05-03T15:44:07.999Z</time></trkpt><trkpt lat="45.93966481477927" lon="12.145830168297918"><ele>252.60000000000002</ele><time>2026-05-03T15:44:08.999Z</time></trkpt><trkpt lat="45.939755774279995" lon="12.145805564838282"><ele>253.0</ele><time>2026-05-03T15:44:09.999Z</time></trkpt><trkpt lat="45.93984814327517" lon="12.145791484954415"><ele>252.99999999999997</ele><time>2026-05-03T15:44:10.999Z</time></trkpt><trkpt lat="45.93992729604327" lon="12.145777886544947"><ele>253.0</ele><time>2026-05-03T15:44:12Z</time></trkpt><trkpt lat="45.94001377895762" lon="12.145758668632984"><ele>253.0</ele><time>2026-05-03T15:44:13Z</time></trkpt><trkpt lat="45.940093942698255" lon="12.145745201636352"><ele>253.0</ele><time>2026-05-03T15:44:14Z</time></trkpt><trkpt lat="45.94016771093554" lon="12.145730800135055"><ele>252.99999999999997</ele><time>2026-05-03T15:44:15Z</time></trkpt><trkpt lat="45.94023763708559" lon="12.145711917706256"><ele>253.0</ele><time>2026-05-03T15:44:16Z</time></trkpt><trkpt lat="45.940307003383474" lon="12.145703367732033"><ele>254.2</ele><time>2026-05-03T15:44:17Z</time></trkpt><trkpt lat="45.94038222028787" lon="12.145686710860096"><ele>255.4</ele><time>2026-05-03T15:44:18Z</time></trkpt><trkpt lat="45.94049705569442" lon="12.145663920747623"><ele>256.59999999999997</ele><time>2026-05-03T15:44:20Z</time></trkpt><trkpt lat="45.94059892870719" lon="12.145632445057606"><ele>257.8</ele><time>2026-05-03T15:44:22Z</time></trkpt><trkpt lat="45.94070760181645" lon="12.145607340025137"><ele>259.0</ele><time>2026-05-03T15:44:24Z</time></trkpt><trkpt lat="45.94079481230443" lon="12.14559290399305"><ele>259.0</ele><time>2026-05-03T15:44:26Z</time></trkpt><trkpt lat="45.940858677892415" lon="12.145578564140758"><ele>259.0</ele><time>2026-05-03T15:44:28Z</time></trkpt><trkpt lat="45.940948041037835" lon="12.145571147519199"><ele>259.0</ele><time>2026-05-03T15:44:31Z</time></trkpt><trkpt lat="45.941043859001766" lon="12.145571099781504"><ele>259.0</ele><time>2026-05-03T15:44:33Z</time></trkpt><trkpt lat="45.94112350073479" lon="12.145567785022681"><ele>259.0</ele><time>2026-05-03T15:44:35Z</time></trkpt><trkpt lat="45.94119399711488" lon="12.145580372383273"><ele>259.0</ele><time>2026-05-03T15:44:40Z</time></trkpt><trkpt lat="45.94126282493147" lon="12.145596496124876"><ele>259.59999999999997</ele><time>2026-05-03T15:44:42Z</time></trkpt><trkpt lat="45.94132746002174" lon="12.145599703478563"><ele>260.2</ele><time>2026-05-03T15:44:43Z</time></trkpt><trkpt lat="45.94145220284342" lon="12.145613831863558"><ele>260.79999999999995</ele><time>2026-05-03T15:44:45Z</time></trkpt><trkpt lat="45.94152570869226" lon="12.14562983835635"><ele>261.4</ele><time>2026-05-03T15:44:46Z</time></trkpt><trkpt lat="45.941619465578526" lon="12.14563199036056"><ele>262.0</ele><time>2026-05-03T15:44:47Z</time></trkpt><trkpt lat="45.941729659862474" lon="12.145634519653854"><ele>262.0</ele><time>2026-05-03T15:44:48Z</time></trkpt><trkpt lat="45.94185429253977" lon="12.145632145452453"><ele>262.0</ele><time>2026-05-03T15:44:49Z</time></trkpt><trkpt lat="45.94198194199222" lon="12.145645657464692"><ele>262.0</ele><time>2026-05-03T15:44:50Z</time></trkpt><trkpt lat="45.94210457310301" lon="12.145636525597762"><ele>262.0</ele><time>2026-05-03T15:44:51Z</time></trkpt><trkpt lat="45.94222625675869" lon="12.145640298301558"><ele>262.0</ele><time>2026-05-03T15:44:52Z</time></trkpt><trkpt lat="45.94235567725728" lon="12.145649538157627"><ele>262.0</ele><time>2026-05-03T15:44:53Z</time></trkpt><trkpt lat="45.94248422733905" lon="12.14563299135162"><ele>262.0</ele><time>2026-05-03T15:44:54Z</time></trkpt><trkpt lat="45.94261756558491" lon="12.145629119969998"><ele>262.0</ele><time>2026-05-03T15:44:55Z</time></trkpt><trkpt lat="45.94275300586964" lon="12.145628664658496"><ele>261.75</ele><time>2026-05-03T15:44:56Z</time></trkpt><trkpt lat="45.9428878821892" lon="12.145623841673348"><ele>261.5</ele><time>2026-05-03T15:44:57Z</time></trkpt><trkpt lat="45.943031786265614" lon="12.145631678864413"><ele>261.25</ele><time>2026-05-03T15:44:58Z</time></trkpt><trkpt lat="45.94317159573091" lon="12.145642717083698"><ele>261.0</ele><time>2026-05-03T15:44:59Z</time></trkpt><trkpt lat="45.943312624218024" lon="12.14564828325465"><ele>262.0</ele><time>2026-05-03T15:45:00Z</time></trkpt><trkpt lat="45.94343604052427" lon="12.145651259806161"><ele>263.0</ele><time>2026-05-03T15:45:01Z</time></trkpt><trkpt lat="45.94358584598806" lon="12.145654480960149"><ele>264.0</ele><time>2026-05-03T15:45:02Z</time></trkpt><trkpt lat="45.943730251459925" lon="12.145660056501216"><ele>265.0</ele><time>2026-05-03T15:45:03Z</time></trkpt><trkpt lat="45.943867202973756" lon="12.145689052671539"><ele>265.0</ele><time>2026-05-03T15:45:04Z</time></trkpt><trkpt lat="45.94400516684804" lon="12.145740132003935"><ele>265.0</ele><time>2026-05-03T15:45:05Z</time></trkpt><trkpt lat="45.944159371751105" lon="12.14580946607946"><ele>265.0</ele><time>2026-05-03T15:45:06Z</time></trkpt><trkpt lat="45.944304386123875" lon="12.14586297273257"><ele>266.66666666666663</ele><time>2026-05-03T15:45:07Z</time></trkpt><trkpt lat="45.9444583842353" lon="12.145897458240011"><ele>268.3333333333333</ele><time>2026-05-03T15:45:08Z</time></trkpt><trkpt lat="45.944612903365886" lon="12.145910037824345"><ele>270.0</ele><time>2026-05-03T15:45:08.999Z</time></trkpt><trkpt lat="45.94476055518956" lon="12.145914009964663"><ele>270.0</ele><time>2026-05-03T15:45:09.999Z</time></trkpt><trkpt lat="45.94491579104853" lon="12.145892683448908"><ele>270.0</ele><time>2026-05-03T15:45:10.999Z</time></trkpt><trkpt lat="45.94507571730094" lon="12.145906596327945"><ele>270.0</ele><time>2026-05-03T15:45:11.999Z</time></trkpt><trkpt lat="45.945230135978505" lon="12.145914927846341"><ele>272.25</ele><time>2026-05-03T15:45:12.999Z</time></trkpt><trkpt lat="45.94538015350905" lon="12.145930604984724"><ele>274.5</ele><time>2026-05-03T15:45:13.999Z</time></trkpt><trkpt lat="45.94551526958052" lon="12.145941511706946"><ele>276.75</ele><time>2026-05-03T15:45:14.999Z</time></trkpt><trkpt lat="45.94564195551806" lon="12.146023175884656"><ele>279.0</ele><time>2026-05-03T15:45:15.999Z</time></trkpt><trkpt lat="45.94574851830023" lon="12.146108099883644"><ele>279.0</ele><time>2026-05-03T15:45:16.999Z</time></trkpt><trkpt lat="45.945844299087014" lon="12.14621442344981"><ele>279.0</ele><time>2026-05-03T15:45:17.999Z</time></trkpt><trkpt lat="45.94591389236307" lon="12.146363856175746"><ele>279.0</ele><time>2026-05-03T15:45:18.999Z</time></trkpt><trkpt lat="45.945962227681974" lon="12.146534804461634"><ele>279.0</ele><time>2026-05-03T15:45:19.999Z</time></trkpt><trkpt lat="45.94599291975713" lon="12.146710814946497"><ele>281.5</ele><time>2026-05-03T15:45:20.999Z</time></trkpt><trkpt lat="45.94602687908519" lon="12.146877976022921"><ele>284.0</ele><time>2026-05-03T15:45:21.999Z</time></trkpt><trkpt lat="45.9460668877654" lon="12.147031155732101"><ele>286.5</ele><time>2026-05-03T15:45:22.999Z</time></trkpt><trkpt lat="45.94611876443015" lon="12.147189170318784"><ele>289.0</ele><time>2026-05-03T15:45:23.999Z</time></trkpt><trkpt lat="45.946195224106006" lon="12.147325737246668"><ele>289.0</ele><time>2026-05-03T15:45:24.999Z</time></trkpt><trkpt lat="45.94628246758474" lon="12.147431475861083"><ele>289.0</ele><time>2026-05-03T15:45:25.999Z</time></trkpt><trkpt lat="45.9463662408704" lon="12.147535940068689"><ele>289.0</ele><time>2026-05-03T15:45:26.999Z</time></trkpt><trkpt lat="45.94644997211643" lon="12.14763561929004"><ele>289.0</ele><time>2026-05-03T15:45:27.999Z</time></trkpt><trkpt lat="45.94652720593967" lon="12.14776213730712"><ele>289.0</ele><time>2026-05-03T15:45:28.999Z</time></trkpt><trkpt lat="45.946602849989034" lon="12.1478890787886"><ele>289.0</ele><time>2026-05-03T15:45:29.999Z</time></trkpt><trkpt lat="45.946678905731886" lon="12.148024905009708"><ele>289.0</ele><time>2026-05-03T15:45:30.999Z</time></trkpt><trkpt lat="45.94674879587108" lon="12.14814655837688"><ele>289.0</ele><time>2026-05-03T15:45:31.999Z</time></trkpt><trkpt lat="45.94681700229644" lon="12.1482591883404"><ele>293.0</ele><time>2026-05-03T15:45:32.999Z</time></trkpt><trkpt lat="45.94687722765343" lon="12.148369611675411"><ele>297.0</ele><time>2026-05-03T15:45:33.999Z</time></trkpt><trkpt lat="45.94689736791075" lon="12.148505542260562"><ele>301.0</ele><time>2026-05-03T15:45:34.999Z</time></trkpt><trkpt lat="45.946877385330524" lon="12.148666214379181"><ele>305.0</ele><time>2026-05-03T15:45:35.999Z</time></trkpt><trkpt lat="45.946841149889224" lon="12.148817666106796"><ele>309.0</ele><time>2026-05-03T15:45:36.999Z</time></trkpt><trkpt lat="45.9468404902197" lon="12.148979396341865"><ele>307.0</ele><time>2026-05-03T15:45:37.999Z</time></trkpt><trkpt lat="45.94687774711978" lon="12.149138774090632"><ele>305.0</ele><time>2026-05-03T15:45:38.999Z</time></trkpt><trkpt lat="45.94694209235504" lon="12.149286879156277"><ele>303.0</ele><time>2026-05-03T15:45:39.999Z</time></trkpt><trkpt lat="45.94702338317667" lon="12.149422917240479"><ele>301.0</ele><time>2026-05-03T15:45:40.999Z</time></trkpt><trkpt lat="45.94711495568236" lon="12.149539845847947"><ele>301.0</ele><time>2026-05-03T15:45:41.999Z</time></trkpt><trkpt lat="45.94722295587547" lon="12.149622905733416"><ele>301.0</ele><time>2026-05-03T15:45:42.999Z</time></trkpt><trkpt lat="45.94733468415237" lon="12.149695734265913"><ele>301.0</ele><time>2026-05-03T15:45:43.999Z</time></trkpt><trkpt lat="45.94742740072218" lon="12.149806541264486"><ele>301.0</ele><time>2026-05-03T15:45:44.999Z</time></trkpt><trkpt lat="45.94749388487312" lon="12.149949657538992"><ele>302.75</ele><time>2026-05-03T15:45:45.999Z</time></trkpt><trkpt lat="45.94755492486389" lon="12.150092219697576"><ele>304.5</ele><time>2026-05-03T15:45:46.999Z</time></trkpt><trkpt lat="45.94760082551528" lon="12.15023377651026"><ele>306.25</ele><time>2026-05-03T15:45:47.999Z</time></trkpt><trkpt lat="45.94761746450924" lon="12.15039713013731"><ele>308.0</ele><time>2026-05-03T15:45:48.999Z</time></trkpt><trkpt lat="45.94757409347735" lon="12.150558136240292"><ele>301.4</ele><time>2026-05-03T15:45:49.999Z</time></trkpt><trkpt lat="45.94750423607424" lon="12.150690593963223"><ele>294.8</ele><time>2026-05-03T15:45:50.999Z</time></trkpt><trkpt lat="45.94742093642868" lon="12.150794977459926"><ele>288.2</ele><time>2026-05-03T15:45:51.999Z</time></trkpt><trkpt lat="45.94735522165541" lon="12.15091021578346"><ele>281.6</ele><time>2026-05-03T15:45:52.999Z</time></trkpt><trkpt lat="45.94731700517666" lon="12.151050384759214"><ele>275.0</ele><time>2026-05-03T15:45:53.999Z</time></trkpt><trkpt lat="45.947316847999524" lon="12.151203708889465"><ele>275.0</ele><time>2026-05-03T15:45:54.999Z</time></trkpt><trkpt lat="45.947346517105764" lon="12.151356354531968"><ele>275.0</ele><time>2026-05-03T15:45:55.999Z</time></trkpt><trkpt lat="45.94739652694545" lon="12.151515787895327"><ele>275.0</ele><time>2026-05-03T15:45:56.999Z</time></trkpt><trkpt lat="45.94745965220735" lon="12.151651426136434"><ele>275.0</ele><time>2026-05-03T15:45:57.999Z</time></trkpt><trkpt lat="45.94751574066513" lon="12.151788534103066"><ele>279.6</ele><time>2026-05-03T15:45:58.999Z</time></trkpt><trkpt lat="45.94756489305921" lon="12.151925285362141"><ele>284.2</ele><time>2026-05-03T15:45:59.999Z</time></trkpt><trkpt lat="45.94761784262512" lon="12.15206735012964"><ele>288.8</ele><time>2026-05-03T15:46:00.999Z</time></trkpt><trkpt lat="45.94766429877329" lon="12.152209434764394"><ele>293.4</ele><time>2026-05-03T15:46:01.999Z</time></trkpt><trkpt lat="45.947708523787625" lon="12.152335006218227"><ele>298.0</ele><time>2026-05-03T15:46:02.999Z</time></trkpt><trkpt lat="45.947765800991036" lon="12.152452241217585"><ele>298.0</ele><time>2026-05-03T15:46:03.999Z</time></trkpt><trkpt lat="45.947857617733185" lon="12.152540599546164"><ele>298.0</ele><time>2026-05-03T15:46:04.999Z</time></trkpt><trkpt lat="45.947966215472746" lon="12.1526056539909"><ele>298.0</ele><time>2026-05-03T15:46:05.999Z</time></trkpt><trkpt lat="45.94807712090667" lon="12.152674033101299"><ele>298.0</ele><time>2026-05-03T15:46:06.999Z</time></trkpt><trkpt lat="45.94817256486205" lon="12.152756674931158"><ele>298.0</ele><time>2026-05-03T15:46:07.999Z</time></trkpt><trkpt lat="45.948249519544085" lon="12.152863303131465"><ele>298.0</ele><time>2026-05-03T15:46:08.999Z</time></trkpt><trkpt lat="45.948332199733834" lon="12.152976504244952"><ele>298.0</ele><time>2026-05-03T15:46:09.999Z</time></trkpt><trkpt lat="45.94842323402928" lon="12.15307107795852"><ele>298.0</ele><time>2026-05-03T15:46:10.999Z</time></trkpt><trkpt lat="45.94850080510856" lon="12.153184106372068"><ele>298.0</ele><time>2026-05-03T15:46:11.999Z</time></trkpt><trkpt lat="45.94856430436089" lon="12.1533023809089"><ele>298.6</ele><time>2026-05-03T15:46:12.999Z</time></trkpt><trkpt lat="45.94863144206161" lon="12.15339799767894"><ele>299.20000000000005</ele><time>2026-05-03T15:46:13.999Z</time></trkpt><trkpt lat="45.94869194410469" lon="12.153497908525278"><ele>299.8</ele><time>2026-05-03T15:46:14.999Z</time></trkpt><trkpt lat="45.94871372170985" lon="12.153618968444293"><ele>300.40000000000003</ele><time>2026-05-03T15:46:15.999Z</time></trkpt><trkpt lat="45.948705943772005" lon="12.153743199366925"><ele>301.0</ele><time>2026-05-03T15:46:16.999Z</time></trkpt><trkpt lat="45.94866821428495" lon="12.153871156392537"><ele>301.0</ele><time>2026-05-03T15:46:18Z</time></trkpt><trkpt lat="45.94862850389806" lon="12.154012206681976"><ele>301.0</ele><time>2026-05-03T15:46:19Z</time></trkpt><trkpt lat="45.948602235627185" lon="12.154144828368876"><ele>301.0</ele><time>2026-05-03T15:46:20Z</time></trkpt><trkpt lat="45.94857120915259" lon="12.154287672877837"><ele>301.0</ele><time>2026-05-03T15:46:21Z</time></trkpt><trkpt lat="45.94854295655019" lon="12.154426124141636"><ele>301.0</ele><time>2026-05-03T15:46:22Z</time></trkpt><trkpt lat="45.94852637800755" lon="12.154558430293507"><ele>300.8</ele><time>2026-05-03T15:46:23Z</time></trkpt><trkpt lat="45.9485039660024" lon="12.154683853722862"><ele>300.6</ele><time>2026-05-03T15:46:24Z</time></trkpt><trkpt lat="45.94850687495395" lon="12.154827151300474"><ele>300.4</ele><time>2026-05-03T15:46:25Z</time></trkpt><trkpt lat="45.948535998213956" lon="12.15496348338604"><ele>300.2</ele><time>2026-05-03T15:46:26Z</time></trkpt><trkpt lat="45.94859244027056" lon="12.155073100877328"><ele>300.0</ele><time>2026-05-03T15:46:27Z</time></trkpt><trkpt lat="45.948652523594845" lon="12.155169260298809"><ele>300.6</ele><time>2026-05-03T15:46:28Z</time></trkpt><trkpt lat="45.948699166415444" lon="12.1552863000343"><ele>301.2</ele><time>2026-05-03T15:46:29Z</time></trkpt><trkpt lat="45.94871110816419" lon="12.155424963044494"><ele>301.8</ele><time>2026-05-03T15:46:30Z</time></trkpt><trkpt lat="45.94868815656424" lon="12.155574546313868"><ele>302.4</ele><time>2026-05-03T15:46:31Z</time></trkpt><trkpt lat="45.94863807598023" lon="12.15571291747463"><ele>303.0</ele><time>2026-05-03T15:46:32Z</time></trkpt><trkpt lat="45.94857393300753" lon="12.15581214951552"><ele>301.4</ele><time>2026-05-03T15:46:33Z</time></trkpt><trkpt lat="45.94851938396993" lon="12.155911456246443"><ele>299.8</ele><time>2026-05-03T15:46:34Z</time></trkpt><trkpt lat="45.948492134230435" lon="12.15602307368622"><ele>298.2</ele><time>2026-05-03T15:46:35Z</time></trkpt><trkpt lat="45.9485077237" lon="12.156140653822147"><ele>296.6</ele><time>2026-05-03T15:46:36Z</time></trkpt><trkpt lat="45.948561048602876" lon="12.156261175608652"><ele>295.0</ele><time>2026-05-03T15:46:37Z</time></trkpt><trkpt lat="45.94863777293088" lon="12.156370375598371"><ele>295.0</ele><time>2026-05-03T15:46:38Z</time></trkpt><trkpt lat="45.94873048939603" lon="12.156434240427155"><ele>295.0</ele><time>2026-05-03T15:46:39Z</time></trkpt><trkpt lat="45.948822252262794" lon="12.156481665626934"><ele>295.0</ele><time>2026-05-03T15:46:40Z</time></trkpt><trkpt lat="45.94891753309715" lon="12.156523915776505"><ele>295.0</ele><time>2026-05-03T15:46:41Z</time></trkpt><trkpt lat="45.94897616698717" lon="12.156613038803082"><ele>295.0</ele><time>2026-05-03T15:46:42Z</time></trkpt><trkpt lat="45.949011527589384" lon="12.156715135810973"><ele>292.0</ele><time>2026-05-03T15:46:43Z</time></trkpt><trkpt lat="45.94904495821754" lon="12.156838752854508"><ele>289.0</ele><time>2026-05-03T15:46:44Z</time></trkpt><trkpt lat="45.949029439000874" lon="12.156957351961905"><ele>286.0</ele><time>2026-05-03T15:46:45Z</time></trkpt><trkpt lat="45.94902751262584" lon="12.157075130588582"><ele>283.0</ele><time>2026-05-03T15:46:46Z</time></trkpt><trkpt lat="45.949025355462396" lon="12.157186120430085"><ele>280.0</ele><time>2026-05-03T15:46:47Z</time></trkpt><trkpt lat="45.94904561613963" lon="12.157316000119149"><ele>277.0</ele><time>2026-05-03T15:46:48Z</time></trkpt><trkpt lat="45.949099579819425" lon="12.157407241172113"><ele>273.0</ele><time>2026-05-03T15:46:49Z</time></trkpt><trkpt lat="45.94909196523322" lon="12.1575597307901"><ele>269.0</ele><time>2026-05-03T15:46:50Z</time></trkpt><trkpt lat="45.94915901325509" lon="12.157687387882826"><ele>265.0</ele><time>2026-05-03T15:46:51Z</time></trkpt><trkpt lat="45.94931921669159" lon="12.157678658780128"><ele>261.0</ele><time>2026-05-03T15:46:52Z</time></trkpt><trkpt lat="45.949392534621786" lon="12.157797046634544"><ele>268.0</ele><time>2026-05-03T15:46:53Z</time></trkpt><trkpt lat="45.94945722218723" lon="12.1579133302077"><ele>275.0</ele><time>2026-05-03T15:46:54Z</time></trkpt><trkpt lat="45.94952272223386" lon="12.15804144986769"><ele>282.0</ele><time>2026-05-03T15:46:55Z</time></trkpt><trkpt lat="45.94955571013814" lon="12.158195543933122"><ele>289.0</ele><time>2026-05-03T15:46:56Z</time></trkpt><trkpt lat="45.94961940714047" lon="12.15836845964342"><ele>289.0</ele><time>2026-05-03T15:46:57Z</time></trkpt><trkpt lat="45.94967870408482" lon="12.158511052927654"><ele>289.0</ele><time>2026-05-03T15:46:58Z</time></trkpt><trkpt lat="45.949723876742794" lon="12.158680902675961"><ele>289.0</ele><time>2026-05-03T15:46:59Z</time></trkpt><trkpt lat="45.949765512491275" lon="12.158859020437836"><ele>289.0</ele><time>2026-05-03T15:47:00Z</time></trkpt><trkpt lat="45.94980519514506" lon="12.159041674464582"><ele>286.25</ele><time>2026-05-03T15:47:01Z</time></trkpt><trkpt lat="45.949837677503645" lon="12.159238314673056"><ele>283.5</ele><time>2026-05-03T15:47:02Z</time></trkpt><trkpt lat="45.94985991975277" lon="12.159413142557773"><ele>280.75</ele><time>2026-05-03T15:47:03Z</time></trkpt><trkpt lat="45.949864589215835" lon="12.159587659534278"><ele>278.0</ele><time>2026-05-03T15:47:04Z</time></trkpt><trkpt lat="45.949884451990414" lon="12.159748339537702"><ele>276.25</ele><time>2026-05-03T15:47:05Z</time></trkpt><trkpt lat="45.949936313594684" lon="12.159917196978643"><ele>274.5</ele><time>2026-05-03T15:47:06Z</time></trkpt><trkpt lat="45.950004171215895" lon="12.160075243776168"><ele>272.75</ele><time>2026-05-03T15:47:07Z</time></trkpt><trkpt lat="45.95006748948707" lon="12.160236331339322"><ele>271.0</ele><time>2026-05-03T15:47:08Z</time></trkpt><trkpt lat="45.95014759112791" lon="12.160391984627635"><ele>280.5</ele><time>2026-05-03T15:47:09Z</time></trkpt><trkpt lat="45.95022070932244" lon="12.160563439463003"><ele>290.0</ele><time>2026-05-03T15:47:10Z</time></trkpt><trkpt lat="45.950274789296316" lon="12.160737767772071"><ele>299.5</ele><time>2026-05-03T15:47:11Z</time></trkpt><trkpt lat="45.95033050606502" lon="12.160925859385015"><ele>309.0</ele><time>2026-05-03T15:47:12Z</time></trkpt><trkpt lat="45.95038087089716" lon="12.161130109603898"><ele>309.0</ele><time>2026-05-03T15:47:13Z</time></trkpt><trkpt lat="45.950433367537606" lon="12.161307523190503"><ele>309.0</ele><time>2026-05-03T15:47:14Z</time></trkpt><trkpt lat="45.95048217626965" lon="12.16148751991141"><ele>309.0</ele><time>2026-05-03T15:47:14.999Z</time></trkpt><trkpt lat="45.95050377415564" lon="12.16165488291382"><ele>309.0</ele><time>2026-05-03T15:47:15.999Z</time></trkpt><trkpt lat="45.950541673928285" lon="12.161796105931272"><ele>306.8</ele><time>2026-05-03T15:47:16.999Z</time></trkpt><trkpt lat="45.95057054972539" lon="12.161944525424328"><ele>304.59999999999997</ele><time>2026-05-03T15:47:17.999Z</time></trkpt><trkpt lat="45.950616683048494" lon="12.162087469675225"><ele>302.4</ele><time>2026-05-03T15:47:18.999Z</time></trkpt><trkpt lat="45.950661376105224" lon="12.162229853176356"><ele>300.2</ele><time>2026-05-03T15:47:19.999Z</time></trkpt><trkpt lat="45.95071031042825" lon="12.162378545436853"><ele>298.0</ele><time>2026-05-03T15:47:20.999Z</time></trkpt><trkpt lat="45.950754550848636" lon="12.162566454076476"><ele>295.8</ele><time>2026-05-03T15:47:21.999Z</time></trkpt><trkpt lat="45.950756683400925" lon="12.162726137319662"><ele>293.6</ele><time>2026-05-03T15:47:22.999Z</time></trkpt><trkpt lat="45.95077289708913" lon="12.162874461399271"><ele>291.4</ele><time>2026-05-03T15:47:23.999Z</time></trkpt><trkpt lat="45.95078553697401" lon="12.163030886764858"><ele>289.2</ele><time>2026-05-03T15:47:24.999Z</time></trkpt><trkpt lat="45.95081672318706" lon="12.163186133858428"><ele>287.0</ele><time>2026-05-03T15:47:25.999Z</time></trkpt><trkpt lat="45.9508874868909" lon="12.163329014490069"><ele>294.5</ele><time>2026-05-03T15:47:26.999Z</time></trkpt><trkpt lat="45.9509625373909" lon="12.163464519288897"><ele>302.0</ele><time>2026-05-03T15:47:27.999Z</time></trkpt><trkpt lat="45.95104018153327" lon="12.163600235374693"><ele>309.5</ele><time>2026-05-03T15:47:28.999Z</time></trkpt><trkpt lat="45.95111113374814" lon="12.16374310632928"><ele>317.0</ele><time>2026-05-03T15:47:29.999Z</time></trkpt><trkpt lat="45.95116609796241" lon="12.163902862126339"><ele>313.75</ele><time>2026-05-03T15:47:30.999Z</time></trkpt><trkpt lat="45.951213047413724" lon="12.164071889789474"><ele>310.5</ele><time>2026-05-03T15:47:31.999Z</time></trkpt><trkpt lat="45.95125135801615" lon="12.16422112935362"><ele>307.25</ele><time>2026-05-03T15:47:32.999Z</time></trkpt><trkpt lat="45.95130222424989" lon="12.16437416925033"><ele>304.0</ele><time>2026-05-03T15:47:33.999Z</time></trkpt><trkpt lat="45.95135589998899" lon="12.164531358884398"><ele>304.0</ele><time>2026-05-03T15:47:34.999Z</time></trkpt><trkpt lat="45.95141987742624" lon="12.164680976825876"><ele>304.0</ele><time>2026-05-03T15:47:35.999Z</time></trkpt><trkpt lat="45.95150215727818" lon="12.16480177133032"><ele>304.0</ele><time>2026-05-03T15:47:36.999Z</time></trkpt><trkpt lat="45.95158604782502" lon="12.164920620648111"><ele>304.0</ele><time>2026-05-03T15:47:37.999Z</time></trkpt><trkpt lat="45.95166654569341" lon="12.165059899723285"><ele>311.79999999999995</ele><time>2026-05-03T15:47:38.999Z</time></trkpt><trkpt lat="45.951731888473475" lon="12.165194751141177"><ele>319.59999999999997</ele><time>2026-05-03T15:47:39.999Z</time></trkpt><trkpt lat="45.95179408226749" lon="12.165328020879882"><ele>327.4</ele><time>2026-05-03T15:47:40.999Z</time></trkpt><trkpt lat="45.951840049809114" lon="12.165459817273499"><ele>335.2</ele><time>2026-05-03T15:47:41.999Z</time></trkpt><trkpt lat="45.9518848842866" lon="12.165570022853986"><ele>343.0</ele><time>2026-05-03T15:47:42.999Z</time></trkpt><trkpt lat="45.95191594639248" lon="12.165655396345057"><ele>339.0</ele><time>2026-05-03T15:47:43.999Z</time></trkpt><trkpt lat="45.95194667397243" lon="12.165756152860025"><ele>335.0</ele><time>2026-05-03T15:47:45.999Z</time></trkpt><trkpt lat="45.951957090851316" lon="12.165899983616688"><ele>331.0</ele><time>2026-05-03T15:49:00Z</time></trkpt><trkpt lat="45.95198377968975" lon="12.166073365861404"><ele>327.0</ele><time>2026-05-03T15:49:02Z</time></trkpt><trkpt lat="45.95198545551584" lon="12.166179953282557"><ele>323.0</ele><time>2026-05-03T15:49:03Z</time></trkpt><trkpt lat="45.95196983340635" lon="12.166299151158062"><ele>323.0</ele><time>2026-05-03T15:49:04Z</time></trkpt><trkpt lat="45.9519268011191" lon="12.166422651389219"><ele>323.0</ele><time>2026-05-03T15:49:05Z</time></trkpt><trkpt lat="45.95187002443386" lon="12.166548427738332"><ele>323.0</ele><time>2026-05-03T15:49:06Z</time></trkpt><trkpt lat="45.95181037697961" lon="12.166679053923039"><ele>323.0</ele><time>2026-05-03T15:49:07Z</time></trkpt><trkpt lat="45.95176614922465" lon="12.166803451820195"><ele>323.0</ele><time>2026-05-03T15:49:08Z</time></trkpt><trkpt lat="45.95173981846187" lon="12.166930966986007"><ele>321.33333333333337</ele><time>2026-05-03T15:49:09Z</time></trkpt><trkpt lat="45.95174075501926" lon="12.167073497804802"><ele>319.6666666666667</ele><time>2026-05-03T15:49:10Z</time></trkpt><trkpt lat="45.95176393921585" lon="12.167200296490838"><ele>318.0</ele><time>2026-05-03T15:49:11Z</time></trkpt><trkpt lat="45.95179276018815" lon="12.167318474213912"><ele>316.3333333333333</ele><time>2026-05-03T15:49:12Z</time></trkpt><trkpt lat="45.951786342181535" lon="12.167428590591278"><ele>314.66666666666663</ele><time>2026-05-03T15:49:13Z</time></trkpt><trkpt lat="45.951789261723185" lon="12.16754392032156"><ele>313.0</ele><time>2026-05-03T15:49:14Z</time></trkpt><trkpt lat="45.95179166367001" lon="12.16766344750563"><ele>312.16666666666663</ele><time>2026-05-03T15:49:15Z</time></trkpt><trkpt lat="45.951787299259" lon="12.167776598051967"><ele>311.3333333333333</ele><time>2026-05-03T15:49:15.999Z</time></trkpt><trkpt lat="45.95177178325094" lon="12.167884158683323"><ele>310.5</ele><time>2026-05-03T15:49:16.999Z</time></trkpt><trkpt lat="45.951734100756454" lon="12.167978566204429"><ele>309.6666666666667</ele><time>2026-05-03T15:49:17.999Z</time></trkpt><trkpt lat="45.95168261649664" lon="12.16807230068859"><ele>308.83333333333337</ele><time>2026-05-03T15:49:18.999Z</time></trkpt><trkpt lat="45.95161239339402" lon="12.168140385694095"><ele>308.0</ele><time>2026-05-03T15:49:19.999Z</time></trkpt><trkpt lat="45.95155477848271" lon="12.168217597377954"><ele>301.6666666666667</ele><time>2026-05-03T15:49:20.999Z</time></trkpt><trkpt lat="45.951507231602115" lon="12.168300485430052"><ele>295.33333333333337</ele><time>2026-05-03T15:49:21.999Z</time></trkpt><trkpt lat="45.95146813994696" lon="12.168395008259264"><ele>289.0</ele><time>2026-05-03T15:49:22.999Z</time></trkpt><trkpt lat="45.95142893734752" lon="12.16849178808339"><ele>282.6666666666667</ele><time>2026-05-03T15:49:23.999Z</time></trkpt><trkpt lat="45.95139830315344" lon="12.168594207378176"><ele>276.3333333333333</ele><time>2026-05-03T15:49:24.999Z</time></trkpt><trkpt lat="45.95136710883385" lon="12.168679542068375"><ele>270.0</ele><time>2026-05-03T15:49:25.999Z</time></trkpt><trkpt lat="45.95130002366145" lon="12.168831889701076"><ele>270.0</ele><time>2026-05-03T15:49:27.999Z</time></trkpt><trkpt lat="45.95122467411007" lon="12.168917747933946"><ele>270.0</ele><time>2026-05-03T15:49:29.999Z</time></trkpt><trkpt lat="45.951181416928065" lon="12.168985793346495"><ele>270.0</ele><time>2026-05-03T15:51:30.999Z</time></trkpt><trkpt lat="45.951279686979106" lon="12.168938066419924"><ele>270.0</ele><time>2026-05-03T15:59:03Z</time></trkpt><trkpt lat="45.95132603746581" lon="12.16884012530204"><ele>270.0</ele><time>2026-05-03T15:59:05Z</time></trkpt><trkpt lat="45.95139185927816" lon="12.168714103004632"><ele>270.0</ele><time>2026-05-03T15:59:07Z</time></trkpt><trkpt lat="45.95145227108355" lon="12.16854902406784"><ele>270.0</ele><time>2026-05-03T15:59:09Z</time></trkpt><trkpt lat="45.95149255836447" lon="12.168451696377131"><ele>270.0</ele><time>2026-05-03T15:59:10Z</time></trkpt><trkpt lat="45.95152925664942" lon="12.168341019680692"><ele>270.0</ele><time>2026-05-03T15:59:11Z</time></trkpt><trkpt lat="45.95157149199085" lon="12.168230025263613"><ele>270.0</ele><time>2026-05-03T15:59:12Z</time></trkpt><trkpt lat="45.95164541175171" lon="12.16814039699814"><ele>279.5</ele><time>2026-05-03T15:59:13Z</time></trkpt><trkpt lat="45.95172693919128" lon="12.168051076064943"><ele>289.0</ele><time>2026-05-03T15:59:14Z</time></trkpt><trkpt lat="45.95179516444586" lon="12.167939684080745"><ele>298.5</ele><time>2026-05-03T15:59:15Z</time></trkpt><trkpt lat="45.95183250962285" lon="12.167777888048441"><ele>308.0</ele><time>2026-05-03T15:59:16Z</time></trkpt><trkpt lat="45.95183442730465" lon="12.16757300335368"><ele>308.0</ele><time>2026-05-03T15:59:17Z</time></trkpt><trkpt lat="45.951823199838394" lon="12.167404751028375"><ele>308.0</ele><time>2026-05-03T15:59:18Z</time></trkpt><trkpt lat="45.95181074641805" lon="12.167261723976454"><ele>308.0</ele><time>2026-05-03T15:59:19Z</time></trkpt><trkpt lat="45.951794829082985" lon="12.167127557610666"><ele>308.0</ele><time>2026-05-03T15:59:20Z</time></trkpt><trkpt lat="45.951768157415906" lon="12.167008067044137"><ele>308.0</ele><time>2026-05-03T15:59:21Z</time></trkpt><trkpt lat="45.95176518559651" lon="12.166886250173127"><ele>309.0</ele><time>2026-05-03T15:59:22Z</time></trkpt><trkpt lat="45.95180423864326" lon="12.166776111507819"><ele>310.0</ele><time>2026-05-03T15:59:23Z</time></trkpt><trkpt lat="45.951855859794705" lon="12.166665542740875"><ele>311.0</ele><time>2026-05-03T15:59:24Z</time></trkpt><trkpt lat="45.951906429929174" lon="12.16653786516353"><ele>312.0</ele><time>2026-05-03T15:59:25Z</time></trkpt><trkpt lat="45.951939779399154" lon="12.166413617652955"><ele>313.0</ele><time>2026-05-03T15:59:26Z</time></trkpt><trkpt lat="45.95197991227087" lon="12.166309939453713"><ele>314.66666666666663</ele><time>2026-05-03T15:59:27Z</time></trkpt><trkpt lat="45.952005203600045" lon="12.166196917375489"><ele>316.3333333333333</ele><time>2026-05-03T15:59:28Z</time></trkpt><trkpt lat="45.95201240669244" lon="12.166084481888404"><ele>318.0</ele><time>2026-05-03T15:59:29Z</time></trkpt><trkpt lat="45.95200626280003" lon="12.165974390188058"><ele>319.6666666666667</ele><time>2026-05-03T15:59:30Z</time></trkpt><trkpt lat="45.95199418871898" lon="12.16587335521332"><ele>321.33333333333337</ele><time>2026-05-03T15:59:31Z</time></trkpt><trkpt lat="45.95197200085468" lon="12.165775850366273"><ele>323.0</ele><time>2026-05-03T15:59:32Z</time></trkpt><trkpt lat="45.95194721199451" lon="12.165659206795478"><ele>326.33333333333337</ele><time>2026-05-03T15:59:33Z</time></trkpt><trkpt lat="45.951903652947095" lon="12.165554877560735"><ele>329.6666666666667</ele><time>2026-05-03T15:59:34Z</time></trkpt><trkpt lat="45.95185793359662" lon="12.165443550033064"><ele>333.0</ele><time>2026-05-03T15:59:35Z</time></trkpt><trkpt lat="45.951809607701186" lon="12.165341752273827"><ele>336.3333333333333</ele><time>2026-05-03T15:59:36Z</time></trkpt><trkpt lat="45.951763904699575" lon="12.165234514517653"><ele>339.66666666666663</ele><time>2026-05-03T15:59:37Z</time></trkpt><trkpt lat="45.951715942036344" lon="12.165125285383562"><ele>343.0</ele><time>2026-05-03T15:59:38Z</time></trkpt><trkpt lat="45.95165597206733" lon="12.165016499110948"><ele>336.5</ele><time>2026-05-03T15:59:39Z</time></trkpt><trkpt lat="45.95158914760358" lon="12.164913628925294"><ele>330.0</ele><time>2026-05-03T15:59:40Z</time></trkpt><trkpt lat="45.95151580476697" lon="12.164811541342004"><ele>323.5</ele><time>2026-05-03T15:59:41Z</time></trkpt><trkpt lat="45.95144918639338" lon="12.16472432158847"><ele>317.0</ele><time>2026-05-03T15:59:42Z</time></trkpt><trkpt lat="45.95139528099475" lon="12.164637944941775"><ele>310.5</ele><time>2026-05-03T15:59:43Z</time></trkpt><trkpt lat="45.951357118098606" lon="12.164552301708296"><ele>304.0</ele><time>2026-05-03T15:59:44Z</time></trkpt><trkpt lat="45.95132865698393" lon="12.164470747638617"><ele>304.0</ele><time>2026-05-03T15:59:45Z</time></trkpt><trkpt lat="45.951298245122544" lon="12.164388505548557"><ele>304.0</ele><time>2026-05-03T15:59:46Z</time></trkpt><trkpt lat="45.951273631753786" lon="12.16430214822694"><ele>304.0</ele><time>2026-05-03T15:59:47Z</time></trkpt><trkpt lat="45.95122588986699" lon="12.164136549706617"><ele>304.0</ele><time>2026-05-03T15:59:49Z</time></trkpt><trkpt lat="45.951198437624946" lon="12.164029076957009"><ele>304.0</ele><time>2026-05-03T15:59:50Z</time></trkpt><trkpt lat="45.95116280403276" lon="12.163917038973622"><ele>304.0</ele><time>2026-05-03T15:59:51Z</time></trkpt><trkpt lat="45.95112387104034" lon="12.163796885482853"><ele>306.16666666666663</ele><time>2026-05-03T15:59:52Z</time></trkpt><trkpt lat="45.95108502090745" lon="12.163679066628049"><ele>308.3333333333333</ele><time>2026-05-03T15:59:53Z</time></trkpt><trkpt lat="45.95103248489931" lon="12.163584494293861"><ele>310.5</ele><time>2026-05-03T15:59:54Z</time></trkpt><trkpt lat="45.950977931378986" lon="12.163492596791237"><ele>312.6666666666667</ele><time>2026-05-03T15:59:55Z</time></trkpt><trkpt lat="45.95092555342682" lon="12.163402499538654"><ele>314.83333333333337</ele><time>2026-05-03T15:59:56Z</time></trkpt><trkpt lat="45.95087035597737" lon="12.163326030046036"><ele>317.0</ele><time>2026-05-03T15:59:57Z</time></trkpt><trkpt lat="45.95084235622334" lon="12.163229209400706"><ele>312.0</ele><time>2026-05-03T15:59:58Z</time></trkpt><trkpt lat="45.950817212052804" lon="12.16314503738745"><ele>307.0</ele><time>2026-05-03T15:59:59Z</time></trkpt><trkpt lat="45.950801904733" lon="12.163056601131972"><ele>302.0</ele><time>2026-05-03T16:00:00Z</time></trkpt><trkpt lat="45.95077120096511" lon="12.162929160634992"><ele>297.0</ele><time>2026-05-03T16:00:01Z</time></trkpt><trkpt lat="45.950763306112144" lon="12.162798338167676"><ele>292.0</ele><time>2026-05-03T16:00:02Z</time></trkpt><trkpt lat="45.95073889707558" lon="12.162670246632983"><ele>287.0</ele><time>2026-05-03T16:00:02.999Z</time></trkpt><trkpt lat="45.950714324621295" lon="12.162551349768052"><ele>287.0</ele><time>2026-05-03T16:00:03.999Z</time></trkpt><trkpt lat="45.95068741769083" lon="12.162427164041983"><ele>287.0</ele><time>2026-05-03T16:00:04.999Z</time></trkpt><trkpt lat="45.95065199141291" lon="12.162297407110687"><ele>287.0</ele><time>2026-05-03T16:00:05.999Z</time></trkpt><trkpt lat="45.950623382939085" lon="12.162159019360516"><ele>287.0</ele><time>2026-05-03T16:00:06.999Z</time></trkpt><trkpt lat="45.9505911076211" lon="12.162024690614578"><ele>287.0</ele><time>2026-05-03T16:00:07.999Z</time></trkpt><trkpt lat="45.950562269019365" lon="12.161901715195233"><ele>289.2</ele><time>2026-05-03T16:00:08.999Z</time></trkpt><trkpt lat="45.95054236247987" lon="12.16176133608984"><ele>291.4</ele><time>2026-05-03T16:00:09.999Z</time></trkpt><trkpt lat="45.95052453982228" lon="12.161608917713936"><ele>293.6</ele><time>2026-05-03T16:00:10.999Z</time></trkpt><trkpt lat="45.950507158555745" lon="12.161459184114708"><ele>295.8</ele><time>2026-05-03T16:00:11.999Z</time></trkpt><trkpt lat="45.950490554037735" lon="12.161294988378158"><ele>298.0</ele><time>2026-05-03T16:00:12.999Z</time></trkpt><trkpt lat="45.95042961681889" lon="12.161137778482818"><ele>300.2</ele><time>2026-05-03T16:00:13.999Z</time></trkpt><trkpt lat="45.95038308385931" lon="12.161008343928872"><ele>302.4</ele><time>2026-05-03T16:00:14.999Z</time></trkpt><trkpt lat="45.950349353642935" lon="12.160870280551626"><ele>304.59999999999997</ele><time>2026-05-03T16:00:15.999Z</time></trkpt><trkpt lat="45.95031743506433" lon="12.160731682185665"><ele>306.8</ele><time>2026-05-03T16:00:16.999Z</time></trkpt><trkpt lat="45.95028422476465" lon="12.160600435187552"><ele>309.0</ele><time>2026-05-03T16:00:17.999Z</time></trkpt><trkpt lat="45.950242786216656" lon="12.16046725933749"><ele>311.0</ele><time>2026-05-03T16:00:18.999Z</time></trkpt><trkpt lat="45.95017548532726" lon="12.160340937243864"><ele>313.0</ele><time>2026-05-03T16:00:19.999Z</time></trkpt><trkpt lat="45.950118355431115" lon="12.160234210962232"><ele>315.0</ele><time>2026-05-03T16:00:20.999Z</time></trkpt><trkpt lat="45.950047988695424" lon="12.160100195079693"><ele>317.0</ele><time>2026-05-03T16:00:21.999Z</time></trkpt><trkpt lat="45.94999514804413" lon="12.159961424195972"><ele>319.0</ele><time>2026-05-03T16:00:22.999Z</time></trkpt><trkpt lat="45.94995106295421" lon="12.159819191674655"><ele>308.75</ele><time>2026-05-03T16:00:23.999Z</time></trkpt><trkpt lat="45.94991038472916" lon="12.159653200727455"><ele>298.5</ele><time>2026-05-03T16:00:24.999Z</time></trkpt><trkpt lat="45.949891632055795" lon="12.159478827013382"><ele>288.25</ele><time>2026-05-03T16:00:25.999Z</time></trkpt><trkpt lat="45.94988856289175" lon="12.159283626075332"><ele>278.0</ele><time>2026-05-03T16:00:26.999Z</time></trkpt><trkpt lat="45.94985332466097" lon="12.15908554009539"><ele>280.75</ele><time>2026-05-03T16:00:27.999Z</time></trkpt><trkpt lat="45.94979713526432" lon="12.15889352455795"><ele>283.5</ele><time>2026-05-03T16:00:28.999Z</time></trkpt><trkpt lat="45.949744144215856" lon="12.158687868363833"><ele>286.25</ele><time>2026-05-03T16:00:29.999Z</time></trkpt><trkpt lat="45.94969124103198" lon="12.158492802600211"><ele>289.0</ele><time>2026-05-03T16:00:30.999Z</time></trkpt><trkpt lat="45.949637959434895" lon="12.158313593768256"><ele>293.4</ele><time>2026-05-03T16:00:31.999Z</time></trkpt><trkpt lat="45.94958204550394" lon="12.158146254863894"><ele>297.79999999999995</ele><time>2026-05-03T16:00:32.999Z</time></trkpt><trkpt lat="45.94951484899784" lon="12.158005285546322"><ele>302.20000000000005</ele><time>2026-05-03T16:00:33.999Z</time></trkpt><trkpt lat="45.949459187893076" lon="12.157883707964162"><ele>306.6</ele><time>2026-05-03T16:00:34.999Z</time></trkpt><trkpt lat="45.94939656428809" lon="12.15777927377477"><ele>311.0</ele><time>2026-05-03T16:00:35.999Z</time></trkpt><trkpt lat="45.949333589376955" lon="12.157684780808838"><ele>311.0</ele><time>2026-05-03T16:00:36.999Z</time></trkpt><trkpt lat="45.94927278973562" lon="12.157603011964788"><ele>311.0</ele><time>2026-05-03T16:00:37.999Z</time></trkpt><trkpt lat="45.94921786456988" lon="12.157523001879504"><ele>311.0</ele><time>2026-05-03T16:00:38.999Z</time></trkpt><trkpt lat="45.94916850163534" lon="12.157464502564732"><ele>311.0</ele><time>2026-05-03T16:00:39.999Z</time></trkpt><trkpt lat="45.94911834255102" lon="12.157397654597172"><ele>311.0</ele><time>2026-05-03T16:00:41.999Z</time></trkpt><trkpt lat="45.94907737780876" lon="12.157518642825206"><ele>311.0</ele><time>2026-05-03T16:00:46.999Z</time></trkpt><trkpt lat="45.94914010674869" lon="12.157628745830099"><ele>311.0</ele><time>2026-05-03T16:00:48.999Z</time></trkpt><trkpt lat="45.949220916044645" lon="12.157774188166181"><ele>311.0</ele><time>2026-05-03T16:00:50.999Z</time></trkpt><trkpt lat="45.94925627137531" lon="12.15788922205771"><ele>311.0</ele><time>2026-05-03T16:00:51.999Z</time></trkpt><trkpt lat="45.949285737454126" lon="12.158016855720588"><ele>311.0</ele><time>2026-05-03T16:00:52.999Z</time></trkpt><trkpt lat="45.94930997867196" lon="12.158146557166825"><ele>311.0</ele><time>2026-05-03T16:00:53.999Z</time></trkpt><trkpt lat="45.94931515795652" lon="12.158289052920537"><ele>305.5</ele><time>2026-05-03T16:00:54.999Z</time></trkpt><trkpt lat="45.949332798191186" lon="12.158438258107381"><ele>300.0</ele><time>2026-05-03T16:00:55.999Z</time></trkpt><trkpt lat="45.94935214868166" lon="12.158605913219569"><ele>294.5</ele><time>2026-05-03T16:00:56.999Z</time></trkpt><trkpt lat="45.94938594799855" lon="12.158770103852271"><ele>289.0</ele><time>2026-05-03T16:00:57.999Z</time></trkpt><trkpt lat="45.949407216468224" lon="12.158939035932468"><ele>286.8</ele><time>2026-05-03T16:00:58.999Z</time></trkpt><trkpt lat="45.94943348982202" lon="12.159099122438397"><ele>284.59999999999997</ele><time>2026-05-03T16:01:00Z</time></trkpt><trkpt lat="45.94945781523363" lon="12.159261957206702"><ele>282.4</ele><time>2026-05-03T16:01:01Z</time></trkpt><trkpt lat="45.949440915560125" lon="12.159416732666593"><ele>280.2</ele><time>2026-05-03T16:01:02Z</time></trkpt><trkpt lat="45.94942268597041" lon="12.159553156203417"><ele>278.0</ele><time>2026-05-03T16:01:03Z</time></trkpt><trkpt lat="45.94938777293893" lon="12.159682389191525"><ele>278.0</ele><time>2026-05-03T16:01:04Z</time></trkpt><trkpt lat="45.94938212719019" lon="12.15982388055004"><ele>278.0</ele><time>2026-05-03T16:01:05Z</time></trkpt><trkpt lat="45.94938165650468" lon="12.15994107690309"><ele>278.0</ele><time>2026-05-03T16:01:06Z</time></trkpt><trkpt lat="45.94936970838133" lon="12.160057397180518"><ele>278.0</ele><time>2026-05-03T16:01:07Z</time></trkpt><trkpt lat="45.949338543134196" lon="12.160171204512862"><ele>278.0</ele><time>2026-05-03T16:01:08Z</time></trkpt><trkpt lat="45.94927508466934" lon="12.160246237028185"><ele>278.0</ele><time>2026-05-03T16:01:09Z</time></trkpt><trkpt lat="45.94919127236063" lon="12.160306850692127"><ele>270.4</ele><time>2026-05-03T16:01:10Z</time></trkpt><trkpt lat="45.94909947387293" lon="12.160327866407751"><ele>262.8</ele><time>2026-05-03T16:01:11Z</time></trkpt><trkpt lat="45.94900501806585" lon="12.160315606138031"><ele>255.2</ele><time>2026-05-03T16:01:12Z</time></trkpt><trkpt lat="45.948911375826135" lon="12.160307380114512"><ele>247.6</ele><time>2026-05-03T16:01:13Z</time></trkpt><trkpt lat="45.948819887876866" lon="12.160272520971535"><ele>240.0</ele><time>2026-05-03T16:01:14Z</time></trkpt><trkpt lat="45.94873269368839" lon="12.160255239700978"><ele>240.0</ele><time>2026-05-03T16:01:15Z</time></trkpt><trkpt lat="45.94865560931721" lon="12.160272474348155"><ele>240.0</ele><time>2026-05-03T16:01:16Z</time></trkpt><trkpt lat="45.94853381344977" lon="12.160545614790436"><ele>240.0</ele><time>2026-05-03T16:01:18Z</time></trkpt><trkpt lat="45.948492501185314" lon="12.160676592302572"><ele>240.0</ele><time>2026-05-03T16:01:19Z</time></trkpt><trkpt lat="45.94841890092964" lon="12.160764097908686"><ele>238.6</ele><time>2026-05-03T16:01:20Z</time></trkpt><trkpt lat="45.94834706441567" lon="12.160852233072346"><ele>237.2</ele><time>2026-05-03T16:01:21Z</time></trkpt><trkpt lat="45.94827563133753" lon="12.160928680464165"><ele>235.8</ele><time>2026-05-03T16:01:22Z</time></trkpt><trkpt lat="45.94820393239101" lon="12.161018936185775"><ele>234.4</ele><time>2026-05-03T16:01:23Z</time></trkpt><trkpt lat="45.94812811093771" lon="12.161108896398083"><ele>233.0</ele><time>2026-05-03T16:01:24Z</time></trkpt><trkpt lat="45.948052363241125" lon="12.16121407842933"><ele>233.0</ele><time>2026-05-03T16:01:25Z</time></trkpt><trkpt lat="45.94796531265041" lon="12.161330793756019"><ele>233.0</ele><time>2026-05-03T16:01:26Z</time></trkpt><trkpt lat="45.9478984132479" lon="12.161420514421463"><ele>233.0</ele><time>2026-05-03T16:01:27Z</time></trkpt><trkpt lat="45.947829657358426" lon="12.161494154681392"><ele>233.0</ele><time>2026-05-03T16:01:28Z</time></trkpt><trkpt lat="45.94772753680589" lon="12.161508883934207"><ele>233.0</ele><time>2026-05-03T16:01:29Z</time></trkpt><trkpt lat="45.94762722502653" lon="12.161515491774752"><ele>229.0</ele><time>2026-05-03T16:01:30Z</time></trkpt><trkpt lat="45.94752264237248" lon="12.161530960367516"><ele>225.0</ele><time>2026-05-03T16:01:31Z</time></trkpt><trkpt lat="45.94739999125012" lon="12.16151368004332"><ele>221.0</ele><time>2026-05-03T16:01:32Z</time></trkpt><trkpt lat="45.947295535936874" lon="12.161476750450882"><ele>217.0</ele><time>2026-05-03T16:01:33Z</time></trkpt><trkpt lat="45.94717589249551" lon="12.161411399637649"><ele>217.0</ele><time>2026-05-03T16:01:34Z</time></trkpt><trkpt lat="45.947058339152285" lon="12.161353751984647"><ele>217.0</ele><time>2026-05-03T16:01:35Z</time></trkpt><trkpt lat="45.9469449382757" lon="12.161317674944367"><ele>217.0</ele><time>2026-05-03T16:01:36Z</time></trkpt><trkpt lat="45.9468155379467" lon="12.161297734520755"><ele>217.0</ele><time>2026-05-03T16:01:37Z</time></trkpt><trkpt lat="45.94669176236903" lon="12.161324870790953"><ele>213.75</ele><time>2026-05-03T16:01:38Z</time></trkpt><trkpt lat="45.94657196863924" lon="12.16135430667523"><ele>210.5</ele><time>2026-05-03T16:01:39Z</time></trkpt><trkpt lat="45.946454848880514" lon="12.161396911167968"><ele>207.25</ele><time>2026-05-03T16:01:40Z</time></trkpt><trkpt lat="45.946327321393944" lon="12.161422250822312"><ele>204.0</ele><time>2026-05-03T16:01:41Z</time></trkpt><trkpt lat="45.9462070946131" lon="12.16145138210431"><ele>204.0</ele><time>2026-05-03T16:01:42Z</time></trkpt><trkpt lat="45.94609167888219" lon="12.161480990996301"><ele>204.0</ele><time>2026-05-03T16:01:43Z</time></trkpt><trkpt lat="45.94597489039212" lon="12.161507458059406"><ele>204.0</ele><time>2026-05-03T16:01:44Z</time></trkpt><trkpt lat="45.94585833526636" lon="12.161552158641717"><ele>204.0</ele><time>2026-05-03T16:01:45Z</time></trkpt><trkpt lat="45.945738205272136" lon="12.161568690851519"><ele>203.79999999999998</ele><time>2026-05-03T16:01:46Z</time></trkpt><trkpt lat="45.94562754097993" lon="12.1615897734905"><ele>203.6</ele><time>2026-05-03T16:01:47Z</time></trkpt><trkpt lat="45.94552180423781" lon="12.161590373002534"><ele>203.4</ele><time>2026-05-03T16:01:48Z</time></trkpt><trkpt lat="45.94540949359929" lon="12.161593672810529"><ele>203.2</ele><time>2026-05-03T16:01:49Z</time></trkpt><trkpt lat="45.94529754531366" lon="12.161573829197152"><ele>203.0</ele><time>2026-05-03T16:01:50Z</time></trkpt><trkpt lat="45.94518790139599" lon="12.161565375801459"><ele>203.0</ele><time>2026-05-03T16:01:51Z</time></trkpt><trkpt lat="45.945079703427275" lon="12.161544625512708"><ele>203.0</ele><time>2026-05-03T16:01:52Z</time></trkpt><trkpt lat="45.944970760799734" lon="12.161538862086411"><ele>203.0</ele><time>2026-05-03T16:01:53Z</time></trkpt><trkpt lat="45.94486369634291" lon="12.161516789021345"><ele>203.0</ele><time>2026-05-03T16:01:54Z</time></trkpt><trkpt lat="45.94476327771004" lon="12.161494589600519"><ele>203.0</ele><time>2026-05-03T16:01:55Z</time></trkpt><trkpt lat="45.94465649360931" lon="12.161439514221984"><ele>201.4</ele><time>2026-05-03T16:01:56Z</time></trkpt><trkpt lat="45.94456275531799" lon="12.161367812089631"><ele>199.8</ele><time>2026-05-03T16:01:57Z</time></trkpt><trkpt lat="45.944466836674486" lon="12.16129241890628"><ele>198.2</ele><time>2026-05-03T16:01:58Z</time></trkpt><trkpt lat="45.94436829286317" lon="12.161227194420531"><ele>196.6</ele><time>2026-05-03T16:01:59Z</time></trkpt><trkpt lat="45.9442636121936" lon="12.1611813342246"><ele>195.0</ele><time>2026-05-03T16:02:00Z</time></trkpt><trkpt lat="45.944150097487054" lon="12.161160568669214"><ele>195.0</ele><time>2026-05-03T16:02:01Z</time></trkpt><trkpt lat="45.944039058026" lon="12.1611599923545"><ele>195.0</ele><time>2026-05-03T16:02:02Z</time></trkpt><trkpt lat="45.943921123191544" lon="12.161174923559642"><ele>195.0</ele><time>2026-05-03T16:02:03Z</time></trkpt><trkpt lat="45.943810702123145" lon="12.16121804437731"><ele>195.0</ele><time>2026-05-03T16:02:04Z</time></trkpt><trkpt lat="45.943701137677685" lon="12.161281586315107"><ele>195.0</ele><time>2026-05-03T16:02:05Z</time></trkpt><trkpt lat="45.94359959514347" lon="12.161359589613163"><ele>195.0</ele><time>2026-05-03T16:02:06Z</time></trkpt><trkpt lat="45.943494087140365" lon="12.161444312804033"><ele>195.0</ele><time>2026-05-03T16:02:07Z</time></trkpt><trkpt lat="45.94340620180567" lon="12.161504356178275"><ele>195.0</ele><time>2026-05-03T16:02:07.999Z</time></trkpt><trkpt lat="45.94331186198319" lon="12.161522651936401"><ele>195.0</ele><time>2026-05-03T16:02:08.999Z</time></trkpt><trkpt lat="45.94321030411216" lon="12.161502051414727"><ele>193.4</ele><time>2026-05-03T16:02:09.999Z</time></trkpt><trkpt lat="45.94311183451377" lon="12.161426164447255"><ele>191.8</ele><time>2026-05-03T16:02:10.999Z</time></trkpt><trkpt lat="45.9430665642858" lon="12.16130718698737"><ele>190.2</ele><time>2026-05-03T16:02:11.999Z</time></trkpt><trkpt lat="45.943061989602185" lon="12.161172611936404"><ele>188.6</ele><time>2026-05-03T16:02:12.999Z</time></trkpt><trkpt lat="45.94306829105966" lon="12.161041184819169"><ele>187.0</ele><time>2026-05-03T16:02:13.999Z</time></trkpt><trkpt lat="45.94308830165759" lon="12.160904656646979"><ele>187.0</ele><time>2026-05-03T16:02:14.999Z</time></trkpt><trkpt lat="45.943089857091245" lon="12.16074654709381"><ele>187.0</ele><time>2026-05-03T16:02:15.999Z</time></trkpt><trkpt lat="45.94312881685559" lon="12.16058126479288"><ele>187.0</ele><time>2026-05-03T16:02:16.999Z</time></trkpt><trkpt lat="45.94314963243111" lon="12.160437342727604"><ele>187.0</ele><time>2026-05-03T16:02:17.999Z</time></trkpt><trkpt lat="45.94316861117107" lon="12.160300340510005"><ele>187.0</ele><time>2026-05-03T16:02:18.999Z</time></trkpt><trkpt lat="45.943206749853964" lon="12.160175077230377"><ele>188.0</ele><time>2026-05-03T16:02:19.999Z</time></trkpt><trkpt lat="45.9432259898117" lon="12.16007539943869"><ele>189.0</ele><time>2026-05-03T16:02:20.999Z</time></trkpt><trkpt lat="45.94320469603205" lon="12.159897035218744"><ele>190.0</ele><time>2026-05-03T16:02:22.999Z</time></trkpt><trkpt lat="45.94315270397182" lon="12.159808853979694"><ele>191.0</ele><time>2026-05-03T16:02:23.999Z</time></trkpt><trkpt lat="45.94307235981804" lon="12.15973733147866"><ele>192.0</ele><time>2026-05-03T16:02:24.999Z</time></trkpt><trkpt lat="45.94300617256947" lon="12.159654570459397"><ele>192.2</ele><time>2026-05-03T16:02:25.999Z</time></trkpt><trkpt lat="45.94296140967017" lon="12.159540453316339"><ele>192.39999999999998</ele><time>2026-05-03T16:02:26.999Z</time></trkpt><trkpt lat="45.94290623090974" lon="12.159432937214413"><ele>192.60000000000002</ele><time>2026-05-03T16:02:27.999Z</time></trkpt><trkpt lat="45.94284081866075" lon="12.159323897067884"><ele>192.8</ele><time>2026-05-03T16:02:28.999Z</time></trkpt><trkpt lat="45.94275649043885" lon="12.159220071158556"><ele>193.0</ele><time>2026-05-03T16:02:29.999Z</time></trkpt><trkpt lat="45.942649552174444" lon="12.159119944074435"><ele>192.0</ele><time>2026-05-03T16:02:30.999Z</time></trkpt><trkpt lat="45.94253085858516" lon="12.15904426005288"><ele>191.0</ele><time>2026-05-03T16:02:31.999Z</time></trkpt><trkpt lat="45.94240147180523" lon="12.158964034053167"><ele>190.0</ele><time>2026-05-03T16:02:32.999Z</time></trkpt><trkpt lat="45.94227851525485" lon="12.158883430244881"><ele>189.0</ele><time>2026-05-03T16:02:33.999Z</time></trkpt><trkpt lat="45.942156983324516" lon="12.15880441590742"><ele>189.0</ele><time>2026-05-03T16:02:34.999Z</time></trkpt><trkpt lat="45.942027540618156" lon="12.15873539490041"><ele>189.0</ele><time>2026-05-03T16:02:35.999Z</time></trkpt><trkpt lat="45.94190312167485" lon="12.158649991369176"><ele>189.0</ele><time>2026-05-03T16:02:36.999Z</time></trkpt><trkpt lat="45.94176952844311" lon="12.158573271989402"><ele>189.0</ele><time>2026-05-03T16:02:37.999Z</time></trkpt><trkpt lat="45.941640235461094" lon="12.158539859114562"><ele>187.75</ele><time>2026-05-03T16:02:38.999Z</time></trkpt><trkpt lat="45.94151709976889" lon="12.158500572252164"><ele>186.5</ele><time>2026-05-03T16:02:39.999Z</time></trkpt><trkpt lat="45.94140414991959" lon="12.158472379563433"><ele>185.25</ele><time>2026-05-03T16:02:40.999Z</time></trkpt><trkpt lat="45.941298805335656" lon="12.158443736388872"><ele>184.0</ele><time>2026-05-03T16:02:41.999Z</time></trkpt><trkpt lat="45.941189301035905" lon="12.158426083422507"><ele>184.0</ele><time>2026-05-03T16:02:42.999Z</time></trkpt><trkpt lat="45.941090090056775" lon="12.158434814451569"><ele>184.0</ele><time>2026-05-03T16:02:43.999Z</time></trkpt><trkpt lat="45.94099832269259" lon="12.15843672245178"><ele>184.0</ele><time>2026-05-03T16:02:44.999Z</time></trkpt><trkpt lat="45.94091971722986" lon="12.15841345696689"><ele>184.0</ele><time>2026-05-03T16:02:45.999Z</time></trkpt><trkpt lat="45.940842493176326" lon="12.15827745498072"><ele>184.0</ele><time>2026-05-03T16:02:47.999Z</time></trkpt><trkpt lat="45.940843971828535" lon="12.158159960004477"><ele>183.66666666666669</ele><time>2026-05-03T16:02:48.999Z</time></trkpt><trkpt lat="45.94084673705556" lon="12.158057546399768"><ele>183.33333333333334</ele><time>2026-05-03T16:02:49.999Z</time></trkpt><trkpt lat="45.94083675103822" lon="12.157941197615402"><ele>183.0</ele><time>2026-05-03T16:02:50.999Z</time></trkpt><trkpt lat="45.94084107857555" lon="12.157814225293858"><ele>182.66666666666666</ele><time>2026-05-03T16:02:51.999Z</time></trkpt><trkpt lat="45.940834674939" lon="12.157687366376953"><ele>182.33333333333331</ele><time>2026-05-03T16:02:52.999Z</time></trkpt><trkpt lat="45.94081457707197" lon="12.157560308571302"><ele>182.0</ele><time>2026-05-03T16:02:53.999Z</time></trkpt><trkpt lat="45.94078820308641" lon="12.157439482425081"><ele>181.5</ele><time>2026-05-03T16:02:54.999Z</time></trkpt><trkpt lat="45.94075557874971" lon="12.157329326667117"><ele>181.0</ele><time>2026-05-03T16:02:55.999Z</time></trkpt><trkpt lat="45.9406928262423" lon="12.15725495855337"><ele>180.5</ele><time>2026-05-03T16:02:56.999Z</time></trkpt><trkpt lat="45.9405848951801" lon="12.1572418278846"><ele>180.0</ele><time>2026-05-03T16:02:57.999Z</time></trkpt><trkpt lat="45.94051029881536" lon="12.157230118072563"><ele>179.5</ele><time>2026-05-03T16:02:58.999Z</time></trkpt><trkpt lat="45.94044782397926" lon="12.157174756498272"><ele>179.0</ele><time>2026-05-03T16:02:59.999Z</time></trkpt><trkpt lat="45.940392513385774" lon="12.157064309482092"><ele>179.0</ele><time>2026-05-03T16:03:00.999Z</time></trkpt><trkpt lat="45.940364938692255" lon="12.156931859707349"><ele>179.0</ele><time>2026-05-03T16:03:01.999Z</time></trkpt><trkpt lat="45.94036907373605" lon="12.156777269887577"><ele>179.0</ele><time>2026-05-03T16:03:02.999Z</time></trkpt><trkpt lat="45.94039146865985" lon="12.156624671259074"><ele>179.0</ele><time>2026-05-03T16:03:03.999Z</time></trkpt><trkpt lat="45.94042197691708" lon="12.156483979368838"><ele>179.0</ele><time>2026-05-03T16:03:04.999Z</time></trkpt><trkpt lat="45.94044365824601" lon="12.15633857307311"><ele>179.6</ele><time>2026-05-03T16:03:06Z</time></trkpt><trkpt lat="45.94044404957815" lon="12.156195048985673"><ele>180.2</ele><time>2026-05-03T16:03:07Z</time></trkpt><trkpt lat="45.94044780852677" lon="12.156045583649982"><ele>180.79999999999998</ele><time>2026-05-03T16:03:08Z</time></trkpt><trkpt lat="45.94041847613483" lon="12.155910638619202"><ele>181.39999999999998</ele><time>2026-05-03T16:03:09Z</time></trkpt><trkpt lat="45.94040424999748" lon="12.155773846444328"><ele>182.0</ele><time>2026-05-03T16:03:10Z</time></trkpt><trkpt lat="45.94038439967385" lon="12.15564114656781"><ele>181.8</ele><time>2026-05-03T16:03:11Z</time></trkpt><trkpt lat="45.94036057476752" lon="12.15552055551164"><ele>181.6</ele><time>2026-05-03T16:03:12Z</time></trkpt><trkpt lat="45.94031636777325" lon="12.155414044225724"><ele>181.4</ele><time>2026-05-03T16:03:13Z</time></trkpt><trkpt lat="45.940240280707854" lon="12.155332773590228"><ele>181.20000000000002</ele><time>2026-05-03T16:03:14Z</time></trkpt><trkpt lat="45.94015106360627" lon="12.155280966813613"><ele>181.0</ele><time>2026-05-03T16:03:15Z</time></trkpt><trkpt lat="45.94004232318524" lon="12.15524396571162"><ele>181.0</ele><time>2026-05-03T16:03:16Z</time></trkpt><trkpt lat="45.9399313499171" lon="12.15522971345293"><ele>181.0</ele><time>2026-05-03T16:03:17Z</time></trkpt><trkpt lat="45.93982892883777" lon="12.155187018768084"><ele>181.0</ele><time>2026-05-03T16:03:18Z</time></trkpt><trkpt lat="45.93972619652369" lon="12.155146145389267"><ele>181.0</ele><time>2026-05-03T16:03:19Z</time></trkpt><trkpt lat="45.93961684721584" lon="12.155081460844052"><ele>181.0</ele><time>2026-05-03T16:03:20Z</time></trkpt><trkpt lat="45.939519028514646" lon="12.155007365669292"><ele>181.0</ele><time>2026-05-03T16:03:21Z</time></trkpt><trkpt lat="45.9394157815172" lon="12.154944300061835"><ele>181.0</ele><time>2026-05-03T16:03:22Z</time></trkpt><trkpt lat="45.93931974442282" lon="12.154856938804302"><ele>181.0</ele><time>2026-05-03T16:03:23Z</time></trkpt><trkpt lat="45.93922542572065" lon="12.154773229636486"><ele>181.0</ele><time>2026-05-03T16:03:24Z</time></trkpt><trkpt lat="45.939157213817566" lon="12.15465591221413"><ele>181.0</ele><time>2026-05-03T16:03:25Z</time></trkpt><trkpt lat="45.93909716698092" lon="12.154514737276974"><ele>181.60000000000002</ele><time>2026-05-03T16:03:26Z</time></trkpt><trkpt lat="45.93904061283318" lon="12.15439079757863"><ele>182.2</ele><time>2026-05-03T16:03:27Z</time></trkpt><trkpt lat="45.93898420101848" lon="12.15428429366563"><ele>182.8</ele><time>2026-05-03T16:03:28Z</time></trkpt><trkpt lat="45.93891782020537" lon="12.154182486080634"><ele>183.39999999999998</ele><time>2026-05-03T16:03:29Z</time></trkpt><trkpt lat="45.93884992575607" lon="12.154117005219266"><ele>184.0</ele><time>2026-05-03T16:03:30Z</time></trkpt><trkpt lat="45.93876758240164" lon="12.154041020456852"><ele>183.79999999999998</ele><time>2026-05-03T16:03:31Z</time></trkpt><trkpt lat="45.93869176735047" lon="12.15398861986811"><ele>183.6</ele><time>2026-05-03T16:03:32Z</time></trkpt><trkpt lat="45.93861396492366" lon="12.153924809293056"><ele>183.4</ele><time>2026-05-03T16:03:33Z</time></trkpt><trkpt lat="45.93853534305994" lon="12.153854806173916"><ele>183.2</ele><time>2026-05-03T16:03:34Z</time></trkpt><trkpt lat="45.938456194768406" lon="12.153773467316638"><ele>183.0</ele><time>2026-05-03T16:03:35Z</time></trkpt><trkpt lat="45.93838238436852" lon="12.153698767313239"><ele>183.0</ele><time>2026-05-03T16:03:36Z</time></trkpt><trkpt lat="45.93828387685499" lon="12.153617057267065"><ele>183.0</ele><time>2026-05-03T16:03:37Z</time></trkpt><trkpt lat="45.938207780094935" lon="12.15352655993839"><ele>183.0</ele><time>2026-05-03T16:03:38Z</time></trkpt><trkpt lat="45.938147171613124" lon="12.153444409798016"><ele>183.0</ele><time>2026-05-03T16:03:39Z</time></trkpt><trkpt lat="45.93809954978605" lon="12.153334670829844"><ele>183.0</ele><time>2026-05-03T16:03:40Z</time></trkpt><trkpt lat="45.93804961001955" lon="12.1532391906339"><ele>184.16666666666666</ele><time>2026-05-03T16:03:41Z</time></trkpt><trkpt lat="45.93799683297438" lon="12.15315790337865"><ele>185.33333333333334</ele><time>2026-05-03T16:03:42Z</time></trkpt><trkpt lat="45.937917800873734" lon="12.153111590510923"><ele>186.5</ele><time>2026-05-03T16:03:43Z</time></trkpt><trkpt lat="45.93782082209105" lon="12.153115180230932"><ele>187.66666666666669</ele><time>2026-05-03T16:03:44Z</time></trkpt><trkpt lat="45.937723183248494" lon="12.153152831184048"><ele>188.83333333333334</ele><time>2026-05-03T16:03:45Z</time></trkpt><trkpt lat="45.937641634420885" lon="12.153170561576564"><ele>190.0</ele><time>2026-05-03T16:03:46Z</time></trkpt><trkpt lat="45.93755312631607" lon="12.153177819793987"><ele>186.0</ele><time>2026-05-03T16:03:47Z</time></trkpt><trkpt lat="45.937471084826925" lon="12.153201530179986"><ele>182.0</ele><time>2026-05-03T16:03:48Z</time></trkpt><trkpt lat="45.937387449215755" lon="12.153109779745291"><ele>178.0</ele><time>2026-05-03T16:03:49Z</time></trkpt><trkpt lat="45.93732716936647" lon="12.153036169150635"><ele>174.0</ele><time>2026-05-03T16:03:50Z</time></trkpt><trkpt lat="45.937245291078064" lon="12.152970306010518"><ele>170.0</ele><time>2026-05-03T16:03:51Z</time></trkpt><trkpt lat="45.93715992955782" lon="12.152905339608658"><ele>170.0</ele><time>2026-05-03T16:03:52Z</time></trkpt><trkpt lat="45.93706926458905" lon="12.152832513737968"><ele>170.0</ele><time>2026-05-03T16:03:53Z</time></trkpt><trkpt lat="45.93697782756047" lon="12.152756236067425"><ele>170.0</ele><time>2026-05-03T16:03:54Z</time></trkpt><trkpt lat="45.93687488507249" lon="12.15267925119433"><ele>170.0</ele><time>2026-05-03T16:03:55Z</time></trkpt><trkpt lat="45.9367681025507" lon="12.152591642931059"><ele>170.0</ele><time>2026-05-03T16:03:56Z</time></trkpt><trkpt lat="45.9366690451145" lon="12.152518483453134"><ele>170.0</ele><time>2026-05-03T16:03:57Z</time></trkpt><trkpt lat="45.9365744409062" lon="12.152439353589301"><ele>170.0</ele><time>2026-05-03T16:03:58Z</time></trkpt><trkpt lat="45.936471051552004" lon="12.15235843933685"><ele>170.0</ele><time>2026-05-03T16:03:59Z</time></trkpt><trkpt lat="45.936362837741164" lon="12.152288010986995"><ele>170.0</ele><time>2026-05-03T16:04:00Z</time></trkpt><trkpt lat="45.93624665004216" lon="12.15225066043513"><ele>173.5</ele><time>2026-05-03T16:04:01Z</time></trkpt><trkpt lat="45.936129089208805" lon="12.152217039714435"><ele>177.0</ele><time>2026-05-03T16:04:02Z</time></trkpt><trkpt lat="45.93601174922779" lon="12.152201477514359"><ele>180.5</ele><time>2026-05-03T16:04:03Z</time></trkpt><trkpt lat="45.93589041840213" lon="12.152206829835086"><ele>184.0</ele><time>2026-05-03T16:04:04Z</time></trkpt><trkpt lat="45.93576777962884" lon="12.152220350612279"><ele>184.5</ele><time>2026-05-03T16:04:05Z</time></trkpt><trkpt lat="45.9356357440019" lon="12.15223555379514"><ele>185.0</ele><time>2026-05-03T16:04:06Z</time></trkpt><trkpt lat="45.93551141890224" lon="12.152269462340412"><ele>185.5</ele><time>2026-05-03T16:04:07Z</time></trkpt><trkpt lat="45.93538518935398" lon="12.152321859977974"><ele>186.0</ele><time>2026-05-03T16:04:08Z</time></trkpt><trkpt lat="45.93526946888166" lon="12.15237898787579"><ele>182.60000000000002</ele><time>2026-05-03T16:04:09Z</time></trkpt><trkpt lat="45.93516069127672" lon="12.152444140377936"><ele>179.2</ele><time>2026-05-03T16:04:10Z</time></trkpt><trkpt lat="45.93506091909087" lon="12.15251732828996"><ele>175.8</ele><time>2026-05-03T16:04:11Z</time></trkpt><trkpt lat="45.934979884326076" lon="12.152610735409652"><ele>172.39999999999998</ele><time>2026-05-03T16:04:12Z</time></trkpt><trkpt lat="45.93491278774671" lon="12.152696640523141"><ele>169.0</ele><time>2026-05-03T16:04:13Z</time></trkpt><trkpt lat="45.934838015142276" lon="12.152708999335724"><ele>169.0</ele><time>2026-05-03T16:04:14Z</time></trkpt><trkpt lat="45.93474041808685" lon="12.152684968298237"><ele>169.0</ele><time>2026-05-03T16:04:15.999Z</time></trkpt><trkpt lat="45.93464132981672" lon="12.152583902509505"><ele>169.0</ele><time>2026-05-03T16:04:16.999Z</time></trkpt><trkpt lat="45.93453718866182" lon="12.152434484140196"><ele>169.0</ele><time>2026-05-03T16:04:17.999Z</time></trkpt><trkpt lat="45.934461420797334" lon="12.152367454200181"><ele>172.2</ele><time>2026-05-03T16:04:18.999Z</time></trkpt><trkpt lat="45.934383234502256" lon="12.152303391043738"><ele>175.39999999999998</ele><time>2026-05-03T16:04:19.999Z</time></trkpt><trkpt lat="45.93429367727837" lon="12.152262673844547"><ele>178.6</ele><time>2026-05-03T16:04:20.999Z</time></trkpt><trkpt lat="45.93420537470919" lon="12.152229686867916"><ele>181.8</ele><time>2026-05-03T16:04:21.999Z</time></trkpt><trkpt lat="45.93411003961971" lon="12.152250801218184"><ele>185.0</ele><time>2026-05-03T16:04:22.999Z</time></trkpt><trkpt lat="45.93401944458469" lon="12.152310962201243"><ele>181.8</ele><time>2026-05-03T16:04:23.999Z</time></trkpt><trkpt lat="45.93394284510461" lon="12.152378240647547"><ele>178.6</ele><time>2026-05-03T16:04:24.999Z</time></trkpt><trkpt lat="45.93385640362639" lon="12.15243847616168"><ele>175.39999999999998</ele><time>2026-05-03T16:04:25.999Z</time></trkpt><trkpt lat="45.9337570331258" lon="12.152465861770573"><ele>172.2</ele><time>2026-05-03T16:04:26.999Z</time></trkpt><trkpt lat="45.93366128467738" lon="12.152477960824053"><ele>169.0</ele><time>2026-05-03T16:04:27.999Z</time></trkpt><trkpt lat="45.93355490643516" lon="12.152481172248155"><ele>169.0</ele><time>2026-05-03T16:04:28.999Z</time></trkpt><trkpt lat="45.93344350922799" lon="12.152486515336523"><ele>169.0</ele><time>2026-05-03T16:04:29.999Z</time></trkpt><trkpt lat="45.93333315724591" lon="12.152482827841"><ele>169.0</ele><time>2026-05-03T16:04:30.999Z</time></trkpt><trkpt lat="45.933224379003114" lon="12.152459522202069"><ele>169.0</ele><time>2026-05-03T16:04:31.999Z</time></trkpt><trkpt lat="45.9331155190445" lon="12.152431596822293"><ele>169.0</ele><time>2026-05-03T16:04:32.999Z</time></trkpt><trkpt lat="45.9330149818566" lon="12.15238006128885"><ele>173.0</ele><time>2026-05-03T16:04:33.999Z</time></trkpt><trkpt lat="45.93292243930862" lon="12.152292003416035"><ele>177.0</ele><time>2026-05-03T16:04:34.999Z</time></trkpt><trkpt lat="45.932836804943726" lon="12.152179294414482"><ele>181.0</ele><time>2026-05-03T16:04:35.999Z</time></trkpt><trkpt lat="45.9327675423908" lon="12.15204678976524"><ele>185.0</ele><time>2026-05-03T16:04:36.999Z</time></trkpt><trkpt lat="45.932706831537914" lon="12.151914723649913"><ele>185.0</ele><time>2026-05-03T16:04:37.999Z</time></trkpt><trkpt lat="45.93264478014685" lon="12.151792245389915"><ele>185.0</ele><time>2026-05-03T16:04:38.999Z</time></trkpt><trkpt lat="45.93258351555268" lon="12.151696431963453"><ele>185.0</ele><time>2026-05-03T16:04:39.999Z</time></trkpt><trkpt lat="45.93249701392442" lon="12.151640937689825"><ele>185.0</ele><time>2026-05-03T16:04:40.999Z</time></trkpt><trkpt lat="45.932428060360635" lon="12.151589773776859"><ele>185.0</ele><time>2026-05-03T16:04:41.999Z</time></trkpt><trkpt lat="45.93234885511893" lon="12.15163201492317"><ele>183.0</ele><time>2026-05-03T16:04:42.999Z</time></trkpt><trkpt lat="45.9322572438208" lon="12.151678693511087"><ele>181.0</ele><time>2026-05-03T16:04:43.999Z</time></trkpt><trkpt lat="45.93216418322225" lon="12.151738829896393"><ele>179.0</ele><time>2026-05-03T16:04:44.999Z</time></trkpt><trkpt lat="45.93206165172089" lon="12.151795031550742"><ele>177.0</ele><time>2026-05-03T16:04:45.999Z</time></trkpt><trkpt lat="45.93195743427331" lon="12.151800694229978"><ele>175.0</ele><time>2026-05-03T16:04:46.999Z</time></trkpt><trkpt lat="45.931844454999315" lon="12.151820799043385"><ele>175.0</ele><time>2026-05-03T16:04:47.999Z</time></trkpt><trkpt lat="45.931756918434445" lon="12.15180343439217"><ele>175.0</ele><time>2026-05-03T16:04:48.999Z</time></trkpt><trkpt lat="45.931678038795894" lon="12.151638085767884"><ele>175.0</ele><time>2026-05-03T16:04:49.999Z</time></trkpt><trkpt lat="45.93160006131742" lon="12.151560016322259"><ele>175.0</ele><time>2026-05-03T16:04:50.999Z</time></trkpt><trkpt lat="45.931531935385834" lon="12.15147102403946"><ele>175.0</ele><time>2026-05-03T16:04:51.999Z</time></trkpt><trkpt lat="45.931440754421295" lon="12.151398164739172"><ele>179.2</ele><time>2026-05-03T16:04:52.999Z</time></trkpt><trkpt lat="45.93135700793926" lon="12.151299253185279"><ele>183.4</ele><time>2026-05-03T16:04:53.999Z</time></trkpt><trkpt lat="45.9312610023045" lon="12.151216472345268"><ele>187.60000000000002</ele><time>2026-05-03T16:04:54.999Z</time></trkpt><trkpt lat="45.931170580529084" lon="12.151113601594746"><ele>191.8</ele><time>2026-05-03T16:04:55.999Z</time></trkpt><trkpt lat="45.93108583226286" lon="12.151034970848581"><ele>196.0</ele><time>2026-05-03T16:04:56.999Z</time></trkpt><trkpt lat="45.93101368184879" lon="12.150967739898267"><ele>196.0</ele><time>2026-05-03T16:04:57.999Z</time></trkpt><trkpt lat="45.930950933134866" lon="12.150907810929358"><ele>196.0</ele><time>2026-05-03T16:04:58.999Z</time></trkpt><trkpt lat="45.93088747891594" lon="12.15084442078028"><ele>196.0</ele><time>2026-05-03T16:04:59.999Z</time></trkpt><trkpt lat="45.93082558476781" lon="12.150772805017851"><ele>196.0</ele><time>2026-05-03T16:05:00.999Z</time></trkpt><trkpt lat="45.930772087458124" lon="12.150701720498411"><ele>196.0</ele><time>2026-05-03T16:05:01.999Z</time></trkpt><trkpt lat="45.93072504739467" lon="12.150638728878633"><ele>196.0</ele><time>2026-05-03T16:05:02.999Z</time></trkpt><trkpt lat="45.930672562401824" lon="12.150579753920463"><ele>196.0</ele><time>2026-05-03T16:05:03.999Z</time></trkpt><trkpt lat="45.93059935607604" lon="12.150474326943"><ele>194.4</ele><time>2026-05-03T16:05:05.999Z</time></trkpt><trkpt lat="45.93048848637644" lon="12.150388295243573"><ele>192.8</ele><time>2026-05-03T16:05:07.999Z</time></trkpt><trkpt lat="45.93040068420613" lon="12.150352170989203"><ele>191.20000000000002</ele><time>2026-05-03T16:05:08.999Z</time></trkpt><trkpt lat="45.93030241567871" lon="12.150348942410828"><ele>189.60000000000002</ele><time>2026-05-03T16:05:09.999Z</time></trkpt><trkpt lat="45.930207501744604" lon="12.150374368015365"><ele>188.0</ele><time>2026-05-03T16:05:10.999Z</time></trkpt><trkpt lat="45.930098969376346" lon="12.150409761347648"><ele>183.0</ele><time>2026-05-03T16:05:12Z</time></trkpt><trkpt lat="45.93000315747187" lon="12.150423829655915"><ele>178.0</ele><time>2026-05-03T16:05:13Z</time></trkpt><trkpt lat="45.92990595914016" lon="12.150414960055999"><ele>173.0</ele><time>2026-05-03T16:05:14Z</time></trkpt><trkpt lat="45.92981368240962" lon="12.150400997741157"><ele>168.0</ele><time>2026-05-03T16:05:15Z</time></trkpt><trkpt lat="45.929724872013246" lon="12.150378398822667"><ele>163.0</ele><time>2026-05-03T16:05:16Z</time></trkpt><trkpt lat="45.92964956062199" lon="12.150362832312997"><ele>163.0</ele><time>2026-05-03T16:05:17Z</time></trkpt><trkpt lat="45.92957884665268" lon="12.15035592107676"><ele>163.0</ele><time>2026-05-03T16:05:18Z</time></trkpt><trkpt lat="45.929510647704454" lon="12.150341753135836"><ele>163.0</ele><time>2026-05-03T16:05:19Z</time></trkpt><trkpt lat="45.92942768205857" lon="12.15032167415731"><ele>163.0</ele><time>2026-05-03T16:05:21Z</time></trkpt><trkpt lat="45.929362644793606" lon="12.15032268955606"><ele>163.0</ele><time>2026-05-03T16:05:25Z</time></trkpt><trkpt lat="45.929357373286145" lon="12.150155285915568"><ele>163.0</ele><time>2026-05-03T16:06:59.999Z</time></trkpt><trkpt lat="45.92938230141627" lon="12.150061614571033"><ele>163.0</ele><time>2026-05-03T16:07:00.999Z</time></trkpt><trkpt lat="45.9294094964576" lon="12.14993718978965"><ele>163.0</ele><time>2026-05-03T16:07:01.999Z</time></trkpt><trkpt lat="45.92943041057762" lon="12.149813217259707"><ele>163.0</ele><time>2026-05-03T16:07:02.999Z</time></trkpt><trkpt lat="45.9294589312397" lon="12.149662971567937"><ele>163.0</ele><time>2026-05-03T16:07:03.999Z</time></trkpt><trkpt lat="45.92949117037478" lon="12.149525898476403"><ele>163.0</ele><time>2026-05-03T16:07:04.999Z</time></trkpt><trkpt lat="45.92951924948061" lon="12.149372020764385"><ele>162.75</ele><time>2026-05-03T16:07:05.999Z</time></trkpt><trkpt lat="45.92954961356606" lon="12.149213502045564"><ele>162.5</ele><time>2026-05-03T16:07:06.999Z</time></trkpt><trkpt lat="45.92957601119976" lon="12.149045753720367"><ele>162.25</ele><time>2026-05-03T16:07:07.999Z</time></trkpt><trkpt lat="45.92959843117609" lon="12.148886355276796"><ele>162.0</ele><time>2026-05-03T16:07:08.999Z</time></trkpt><trkpt lat="45.92962774023035" lon="12.14872147615848"><ele>161.8</ele><time>2026-05-03T16:07:09.999Z</time></trkpt><trkpt lat="45.92965564437996" lon="12.148565059071233"><ele>161.6</ele><time>2026-05-03T16:07:10.999Z</time></trkpt><trkpt lat="45.92968961966551" lon="12.148432174833074"><ele>161.4</ele><time>2026-05-03T16:07:11.999Z</time></trkpt><trkpt lat="45.92971063765448" lon="12.148286854309537"><ele>161.20000000000002</ele><time>2026-05-03T16:07:12.999Z</time></trkpt><trkpt lat="45.92973719474474" lon="12.14814618815144"><ele>161.0</ele><time>2026-05-03T16:07:13.999Z</time></trkpt><trkpt lat="45.92975587812288" lon="12.147994427319752"><ele>161.0</ele><time>2026-05-03T16:07:14.999Z</time></trkpt><trkpt lat="45.92978163916793" lon="12.14783747683172"><ele>161.0</ele><time>2026-05-03T16:07:15.999Z</time></trkpt><trkpt lat="45.92980966876301" lon="12.147688078669344"><ele>161.0</ele><time>2026-05-03T16:07:16.999Z</time></trkpt><trkpt lat="45.929833552604634" lon="12.147529480434876"><ele>161.0</ele><time>2026-05-03T16:07:18Z</time></trkpt><trkpt lat="45.92986287474347" lon="12.147368631020498"><ele>161.0</ele><time>2026-05-03T16:07:19Z</time></trkpt><trkpt lat="45.92989045878269" lon="12.147215144486548"><ele>161.0</ele><time>2026-05-03T16:07:20Z</time></trkpt><trkpt lat="45.92991691370969" lon="12.147061033822432"><ele>161.0</ele><time>2026-05-03T16:07:21Z</time></trkpt><trkpt lat="45.929943544723976" lon="12.146896968085946"><ele>161.0</ele><time>2026-05-03T16:07:22Z</time></trkpt><trkpt lat="45.92997262210537" lon="12.146725075523852"><ele>161.0</ele><time>2026-05-03T16:07:23Z</time></trkpt><trkpt lat="45.93000433396637" lon="12.14655326952516"><ele>159.5</ele><time>2026-05-03T16:07:24Z</time></trkpt><trkpt lat="45.93003180993401" lon="12.146393636516759"><ele>158.0</ele><time>2026-05-03T16:07:25Z</time></trkpt><trkpt lat="45.930064652032804" lon="12.146220878017163"><ele>156.5</ele><time>2026-05-03T16:07:26Z</time></trkpt><trkpt lat="45.93009337042368" lon="12.146053812415218"><ele>155.0</ele><time>2026-05-03T16:07:27Z</time></trkpt><trkpt lat="45.93012929846707" lon="12.145883171810675"><ele>160.75</ele><time>2026-05-03T16:07:28Z</time></trkpt><trkpt lat="45.93015060007953" lon="12.145706579014755"><ele>166.5</ele><time>2026-05-03T16:07:29Z</time></trkpt><trkpt lat="45.930178244421754" lon="12.14552892465139"><ele>172.25</ele><time>2026-05-03T16:07:30Z</time></trkpt><trkpt lat="45.93020549334654" lon="12.145344513656635"><ele>178.0</ele><time>2026-05-03T16:07:31Z</time></trkpt><trkpt lat="45.9302344433358" lon="12.145172268658506"><ele>178.0</ele><time>2026-05-03T16:07:32Z</time></trkpt><trkpt lat="45.930266462512755" lon="12.14499424387717"><ele>178.0</ele><time>2026-05-03T16:07:33Z</time></trkpt><trkpt lat="45.930300207704256" lon="12.144817179019038"><ele>178.0</ele><time>2026-05-03T16:07:34Z</time></trkpt><trkpt lat="45.93033203483834" lon="12.144632127472075"><ele>178.0</ele><time>2026-05-03T16:07:35Z</time></trkpt><trkpt lat="45.93036413245647" lon="12.144451076420436"><ele>177.5</ele><time>2026-05-03T16:07:36Z</time></trkpt><trkpt lat="45.930396011149355" lon="12.144261499826918"><ele>177.0</ele><time>2026-05-03T16:07:37Z</time></trkpt><trkpt lat="45.93043185977365" lon="12.144063015747042"><ele>176.5</ele><time>2026-05-03T16:07:38Z</time></trkpt><trkpt lat="45.93046696486934" lon="12.143866494025797"><ele>176.0</ele><time>2026-05-03T16:07:39Z</time></trkpt><trkpt lat="45.93050309045708" lon="12.143656958362568"><ele>174.33333333333331</ele><time>2026-05-03T16:07:40Z</time></trkpt><trkpt lat="45.93054971104488" lon="12.143443818669441"><ele>172.66666666666666</ele><time>2026-05-03T16:07:41Z</time></trkpt><trkpt lat="45.93059556459189" lon="12.143231087757343"><ele>171.0</ele><time>2026-05-03T16:07:42Z</time></trkpt><trkpt lat="45.930652982281096" lon="12.143016780666722"><ele>171.66666666666666</ele><time>2026-05-03T16:07:43Z</time></trkpt><trkpt lat="45.930722510398915" lon="12.142806458047815"><ele>172.33333333333331</ele><time>2026-05-03T16:07:44Z</time></trkpt><trkpt lat="45.930809987299604" lon="12.142621902009463"><ele>173.0</ele><time>2026-05-03T16:07:45Z</time></trkpt><trkpt lat="45.93091260980134" lon="12.142457150500146"><ele>169.66666666666666</ele><time>2026-05-03T16:07:46Z</time></trkpt><trkpt lat="45.93103497497876" lon="12.142328971950691"><ele>166.33333333333334</ele><time>2026-05-03T16:07:47Z</time></trkpt><trkpt lat="45.93117555775455" lon="12.142223696674472"><ele>163.0</ele><time>2026-05-03T16:07:48Z</time></trkpt><trkpt lat="45.93130889005379" lon="12.14213676016641"><ele>163.0</ele><time>2026-05-03T16:07:49Z</time></trkpt><trkpt lat="45.93144421776976" lon="12.142062752443476"><ele>163.0</ele><time>2026-05-03T16:07:50Z</time></trkpt><trkpt lat="45.93158545438504" lon="12.14200181537568"><ele>163.0</ele><time>2026-05-03T16:07:51Z</time></trkpt><trkpt lat="45.9317156055065" lon="12.141948471928414"><ele>163.0</ele><time>2026-05-03T16:07:52Z</time></trkpt><trkpt lat="45.931852432795004" lon="12.141878545043273"><ele>163.75</ele><time>2026-05-03T16:07:53Z</time></trkpt><trkpt lat="45.931978772215096" lon="12.141800626189232"><ele>164.5</ele><time>2026-05-03T16:07:54Z</time></trkpt><trkpt lat="45.93209026850426" lon="12.141715176164762"><ele>165.25</ele><time>2026-05-03T16:07:55Z</time></trkpt><trkpt lat="45.93219117027611" lon="12.141639014877669"><ele>166.0</ele><time>2026-05-03T16:07:56Z</time></trkpt><trkpt lat="45.932262405139134" lon="12.141569964229706"><ele>165.5</ele><time>2026-05-03T16:07:57Z</time></trkpt><trkpt lat="45.93233889044178" lon="12.141506214795346"><ele>165.0</ele><time>2026-05-03T16:07:58Z</time></trkpt><trkpt lat="45.932399930997335" lon="12.141451235870463"><ele>164.5</ele><time>2026-05-03T16:07:59Z</time></trkpt><trkpt lat="45.9324587904168" lon="12.14138692815765"><ele>164.0</ele><time>2026-05-03T16:08:01Z</time></trkpt><trkpt lat="45.932502306006576" lon="12.14131265377465"><ele>163.5</ele><time>2026-05-03T16:08:03Z</time></trkpt><trkpt lat="45.932433754697755" lon="12.141152244923214"><ele>163.0</ele><time>2026-05-03T16:08:05Z</time></trkpt><trkpt lat="45.932397670465726" lon="12.141071306592677"><ele>163.0</ele><time>2026-05-03T16:08:06Z</time></trkpt><trkpt lat="45.93235973358552" lon="12.140965927959053"><ele>163.0</ele><time>2026-05-03T16:08:07Z</time></trkpt><trkpt lat="45.932309398312775" lon="12.140840680137181"><ele>163.0</ele><time>2026-05-03T16:08:08Z</time></trkpt><trkpt lat="45.93225474609595" lon="12.140719627399518"><ele>163.0</ele><time>2026-05-03T16:08:09Z</time></trkpt><trkpt lat="45.93218118587836" lon="12.140595097041631"><ele>163.0</ele><time>2026-05-03T16:08:10Z</time></trkpt><trkpt lat="45.93208959342205" lon="12.14049114471851"><ele>162.75</ele><time>2026-05-03T16:08:11Z</time></trkpt><trkpt lat="45.93199060567599" lon="12.14038320537262"><ele>162.5</ele><time>2026-05-03T16:08:12Z</time></trkpt><trkpt lat="45.93191904127637" lon="12.140263694040565"><ele>162.25</ele><time>2026-05-03T16:08:13Z</time></trkpt><trkpt lat="45.931853367880414" lon="12.140127631269252"><ele>162.0</ele><time>2026-05-03T16:08:14Z</time></trkpt><trkpt lat="45.931783119362194" lon="12.139974283054345"><ele>162.0</ele><time>2026-05-03T16:08:15Z</time></trkpt><trkpt lat="45.931701640495255" lon="12.139827717744637"><ele>162.0</ele><time>2026-05-03T16:08:16Z</time></trkpt><trkpt lat="45.93161711049415" lon="12.139687632320982"><ele>162.0</ele><time>2026-05-03T16:08:17Z</time></trkpt><trkpt lat="45.93151639888314" lon="12.139566217675064"><ele>162.0</ele><time>2026-05-03T16:08:18Z</time></trkpt><trkpt lat="45.931406383209094" lon="12.139458237115232"><ele>162.0</ele><time>2026-05-03T16:08:19Z</time></trkpt><trkpt lat="45.93129057312989" lon="12.139352350436665"><ele>162.0</ele><time>2026-05-03T16:08:20Z</time></trkpt><trkpt lat="45.9311753892511" lon="12.139251375725825"><ele>162.0</ele><time>2026-05-03T16:08:21Z</time></trkpt><trkpt lat="45.93106007488121" lon="12.139140007754525"><ele>162.0</ele><time>2026-05-03T16:08:21.999Z</time></trkpt><trkpt lat="45.93094522091533" lon="12.139024220599834"><ele>160.75</ele><time>2026-05-03T16:08:22.999Z</time></trkpt><trkpt lat="45.93082724870471" lon="12.138910933458167"><ele>159.5</ele><time>2026-05-03T16:08:23.999Z</time></trkpt><trkpt lat="45.93071017391457" lon="12.138793466585945"><ele>158.25</ele><time>2026-05-03T16:08:24.999Z</time></trkpt><trkpt lat="45.93058976148956" lon="12.138672863106217"><ele>157.0</ele><time>2026-05-03T16:08:25.999Z</time></trkpt><trkpt lat="45.930472636698994" lon="12.138533650229906"><ele>157.0</ele><time>2026-05-03T16:08:26.999Z</time></trkpt><trkpt lat="45.93037451982097" lon="12.138379833791944"><ele>157.0</ele><time>2026-05-03T16:08:27.999Z</time></trkpt><trkpt lat="45.93029261870771" lon="12.138204876534099"><ele>157.0</ele><time>2026-05-03T16:08:28.999Z</time></trkpt><trkpt lat="45.93022111348094" lon="12.138011511843883"><ele>157.0</ele><time>2026-05-03T16:08:29.999Z</time></trkpt><trkpt lat="45.930166940981714" lon="12.137804374651"><ele>157.0</ele><time>2026-05-03T16:08:30.999Z</time></trkpt><trkpt lat="45.93013888388702" lon="12.137584298992524"><ele>157.0</ele><time>2026-05-03T16:08:31.999Z</time></trkpt><trkpt lat="45.930122843602106" lon="12.137362564122016"><ele>157.0</ele><time>2026-05-03T16:08:32.999Z</time></trkpt><trkpt lat="45.930118586144204" lon="12.13714058037735"><ele>157.33333333333334</ele><time>2026-05-03T16:08:33.999Z</time></trkpt><trkpt lat="45.930117254817155" lon="12.136923210089249"><ele>157.66666666666666</ele><time>2026-05-03T16:08:34.999Z</time></trkpt><trkpt lat="45.93011278450419" lon="12.136700469917887"><ele>158.0</ele><time>2026-05-03T16:08:35.999Z</time></trkpt><trkpt lat="45.93011025589817" lon="12.136485554542679"><ele>158.0</ele><time>2026-05-03T16:08:36.999Z</time></trkpt><trkpt lat="45.93010926087982" lon="12.136261389351295"><ele>158.0</ele><time>2026-05-03T16:08:37.999Z</time></trkpt><trkpt lat="45.93010183992319" lon="12.136051888686065"><ele>158.0</ele><time>2026-05-03T16:08:38.999Z</time></trkpt><trkpt lat="45.93009440749556" lon="12.135845137687053"><ele>158.0</ele><time>2026-05-03T16:08:39.999Z</time></trkpt><trkpt lat="45.930097977790936" lon="12.135623254133222"><ele>158.66666666666666</ele><time>2026-05-03T16:08:40.999Z</time></trkpt><trkpt lat="45.930092783001555" lon="12.135379304770641"><ele>159.33333333333334</ele><time>2026-05-03T16:08:41.999Z</time></trkpt><trkpt lat="45.93007486857608" lon="12.135164792700554"><ele>160.0</ele><time>2026-05-03T16:08:42.999Z</time></trkpt><trkpt lat="45.930070785584235" lon="12.134935046707914"><ele>160.33333333333334</ele><time>2026-05-03T16:08:43.999Z</time></trkpt><trkpt lat="45.93006679025545" lon="12.134710233581604"><ele>160.66666666666666</ele><time>2026-05-03T16:08:44.999Z</time></trkpt><trkpt lat="45.93006272463205" lon="12.134481464589012"><ele>161.0</ele><time>2026-05-03T16:08:45.999Z</time></trkpt><trkpt lat="45.93005812428024" lon="12.134267665988201"><ele>162.0</ele><time>2026-05-03T16:08:46.999Z</time></trkpt><trkpt lat="45.930053399962816" lon="12.13405192210494"><ele>163.0</ele><time>2026-05-03T16:08:47.999Z</time></trkpt><trkpt lat="45.930048559302115" lon="12.133830865726019"><ele>164.0</ele><time>2026-05-03T16:08:48.999Z</time></trkpt><trkpt lat="45.930044654171716" lon="12.133611026143788"><ele>164.0</ele><time>2026-05-03T16:08:49.999Z</time></trkpt><trkpt lat="45.9300422279848" lon="12.133391369883945"><ele>164.0</ele><time>2026-05-03T16:08:50.999Z</time></trkpt><trkpt lat="45.930040035213565" lon="12.133166843400602"><ele>164.0</ele><time>2026-05-03T16:08:51.999Z</time></trkpt><trkpt lat="45.93004051611786" lon="12.132943973536438"><ele>164.66666666666666</ele><time>2026-05-03T16:08:52.999Z</time></trkpt><trkpt lat="45.93004153719463" lon="12.132706777409956"><ele>165.33333333333334</ele><time>2026-05-03T16:08:53.999Z</time></trkpt><trkpt lat="45.930051062299405" lon="12.132481917544498"><ele>166.0</ele><time>2026-05-03T16:08:54.999Z</time></trkpt><trkpt lat="45.93007100938051" lon="12.132248662664306"><ele>166.0</ele><time>2026-05-03T16:08:55.999Z</time></trkpt><trkpt lat="45.93009243392782" lon="12.132030919526304"><ele>166.0</ele><time>2026-05-03T16:08:56.999Z</time></trkpt><trkpt lat="45.930117219333425" lon="12.131800887399972"><ele>166.0</ele><time>2026-05-03T16:08:57.999Z</time></trkpt><trkpt lat="45.9301429244438" lon="12.131569541412345"><ele>165.66666666666669</ele><time>2026-05-03T16:08:58.999Z</time></trkpt><trkpt lat="45.93016702650022" lon="12.131331720491806"><ele>165.33333333333334</ele><time>2026-05-03T16:08:59.999Z</time></trkpt><trkpt lat="45.930195613124205" lon="12.13110068488729"><ele>165.0</ele><time>2026-05-03T16:09:00.999Z</time></trkpt><trkpt lat="45.93021268362856" lon="12.130861101787556"><ele>165.66666666666666</ele><time>2026-05-03T16:09:01.999Z</time></trkpt><trkpt lat="45.93021020594739" lon="12.13062126205648"><ele>166.33333333333331</ele><time>2026-05-03T16:09:02.999Z</time></trkpt><trkpt lat="45.930221398829005" lon="12.130390028251306"><ele>167.0</ele><time>2026-05-03T16:09:03.999Z</time></trkpt><trkpt lat="45.930244156481784" lon="12.13015872296093"><ele>167.0</ele><time>2026-05-03T16:09:04.999Z</time></trkpt><trkpt lat="45.9302546707262" lon="12.129929472672242"><ele>167.0</ele><time>2026-05-03T16:09:05.999Z</time></trkpt><trkpt lat="45.930260020252604" lon="12.129697595933981"><ele>167.0</ele><time>2026-05-03T16:09:06.999Z</time></trkpt><trkpt lat="45.93026747157588" lon="12.1294617668776"><ele>167.0</ele><time>2026-05-03T16:09:07.999Z</time></trkpt><trkpt lat="45.93026962439191" lon="12.129226712788405"><ele>167.0</ele><time>2026-05-03T16:09:08.999Z</time></trkpt><trkpt lat="45.93027556040847" lon="12.128979876059441"><ele>167.0</ele><time>2026-05-03T16:09:09.999Z</time></trkpt><trkpt lat="45.93029304733702" lon="12.128729803581791"><ele>167.0</ele><time>2026-05-03T16:09:10.999Z</time></trkpt><trkpt lat="45.93030249000794" lon="12.12849214575847"><ele>167.0</ele><time>2026-05-03T16:09:11.999Z</time></trkpt><trkpt lat="45.93030534036751" lon="12.128264746188982"><ele>167.0</ele><time>2026-05-03T16:09:12.999Z</time></trkpt><trkpt lat="45.93032035506502" lon="12.128054589607652"><ele>168.0</ele><time>2026-05-03T16:09:13.999Z</time></trkpt><trkpt lat="45.93033562100668" lon="12.127819734656365"><ele>169.0</ele><time>2026-05-03T16:09:14.999Z</time></trkpt><trkpt lat="45.930351635765184" lon="12.127582976122449"><ele>170.0</ele><time>2026-05-03T16:09:15.999Z</time></trkpt><trkpt lat="45.93037498077093" lon="12.127342380102421"><ele>172.0</ele><time>2026-05-03T16:09:16.999Z</time></trkpt><trkpt lat="45.9303877288614" lon="12.127104919124205"><ele>174.0</ele><time>2026-05-03T16:09:17.999Z</time></trkpt><trkpt lat="45.930403375941474" lon="12.126872116715207"><ele>176.0</ele><time>2026-05-03T16:09:18.999Z</time></trkpt><trkpt lat="45.930415872545694" lon="12.126655235287455"><ele>176.0</ele><time>2026-05-03T16:09:19.999Z</time></trkpt><trkpt lat="45.93042610723801" lon="12.126416481702467"><ele>176.0</ele><time>2026-05-03T16:09:20.999Z</time></trkpt><trkpt lat="45.930428061971256" lon="12.126173994325569"><ele>176.0</ele><time>2026-05-03T16:09:21.999Z</time></trkpt><trkpt lat="45.930447129322566" lon="12.125933970395604"><ele>175.33333333333331</ele><time>2026-05-03T16:09:22.999Z</time></trkpt><trkpt lat="45.930478428498866" lon="12.125701139578844"><ele>174.66666666666666</ele><time>2026-05-03T16:09:24Z</time></trkpt><trkpt lat="45.930513854992796" lon="12.125466425627918"><ele>174.0</ele><time>2026-05-03T16:09:25Z</time></trkpt><trkpt lat="45.93056048383593" lon="12.125238533761879"><ele>174.0</ele><time>2026-05-03T16:09:26Z</time></trkpt><trkpt lat="45.9305932834652" lon="12.125005221064772"><ele>174.0</ele><time>2026-05-03T16:09:27Z</time></trkpt><trkpt lat="45.9306433379949" lon="12.124774730829476"><ele>174.0</ele><time>2026-05-03T16:09:28Z</time></trkpt><trkpt lat="45.93069248741452" lon="12.124559495631074"><ele>174.0</ele><time>2026-05-03T16:09:29Z</time></trkpt><trkpt lat="45.93072720861142" lon="12.1243842271946"><ele>174.0</ele><time>2026-05-03T16:09:30Z</time></trkpt><trkpt lat="45.93076643727443" lon="12.12421183090457"><ele>174.0</ele><time>2026-05-03T16:09:31Z</time></trkpt><trkpt lat="45.93076427169143" lon="12.124007371615269"><ele>174.0</ele><time>2026-05-03T16:09:32Z</time></trkpt><trkpt lat="45.93072871733911" lon="12.123810773242502"><ele>174.25</ele><time>2026-05-03T16:09:33Z</time></trkpt><trkpt lat="45.930685726939515" lon="12.123604060219762"><ele>174.5</ele><time>2026-05-03T16:09:34Z</time></trkpt><trkpt lat="45.93065447171476" lon="12.123409673807263"><ele>174.75</ele><time>2026-05-03T16:09:35Z</time></trkpt><trkpt lat="45.930613408858534" lon="12.123215601205338"><ele>175.0</ele><time>2026-05-03T16:09:36Z</time></trkpt><trkpt lat="45.930578030955054" lon="12.123006705206535"><ele>176.25</ele><time>2026-05-03T16:09:37Z</time></trkpt><trkpt lat="45.93054471940958" lon="12.122815199330697"><ele>177.5</ele><time>2026-05-03T16:09:38Z</time></trkpt><trkpt lat="45.93050773752292" lon="12.12262438276603"><ele>178.75</ele><time>2026-05-03T16:09:39Z</time></trkpt><trkpt lat="45.930459806228086" lon="12.122430016129163"><ele>180.0</ele><time>2026-05-03T16:09:40Z</time></trkpt><trkpt lat="45.930415372494735" lon="12.122242807598314"><ele>181.5</ele><time>2026-05-03T16:09:41Z</time></trkpt><trkpt lat="45.93037175413271" lon="12.122050508560795"><ele>183.0</ele><time>2026-05-03T16:09:42Z</time></trkpt><trkpt lat="45.93031947611855" lon="12.121853900525938"><ele>184.5</ele><time>2026-05-03T16:09:43Z</time></trkpt><trkpt lat="45.930265757563426" lon="12.121681553581276"><ele>186.0</ele><time>2026-05-03T16:09:44Z</time></trkpt><trkpt lat="45.93020692386826" lon="12.121512819384705"><ele>185.5</ele><time>2026-05-03T16:09:45Z</time></trkpt><trkpt lat="45.93016410873352" lon="12.121318587837699"><ele>185.0</ele><time>2026-05-03T16:09:46Z</time></trkpt><trkpt lat="45.930117770276674" lon="12.121139134009244"><ele>184.5</ele><time>2026-05-03T16:09:47Z</time></trkpt><trkpt lat="45.9300715155795" lon="12.120960919728924"><ele>184.0</ele><time>2026-05-03T16:09:48Z</time></trkpt><trkpt lat="45.930019539781085" lon="12.12077536753704"><ele>186.0</ele><time>2026-05-03T16:09:49Z</time></trkpt><trkpt lat="45.92996447915954" lon="12.120584543630857"><ele>188.0</ele><time>2026-05-03T16:09:50Z</time></trkpt><trkpt lat="45.929910139397684" lon="12.120407664846569"><ele>190.0</ele><time>2026-05-03T16:09:51Z</time></trkpt><trkpt lat="45.92985924056762" lon="12.120232565606806"><ele>192.0</ele><time>2026-05-03T16:09:52Z</time></trkpt><trkpt lat="45.92980792845381" lon="12.120048225422547"><ele>194.0</ele><time>2026-05-03T16:09:53Z</time></trkpt><trkpt lat="45.92975262720764" lon="12.119865753607012"><ele>196.0</ele><time>2026-05-03T16:09:54Z</time></trkpt><trkpt lat="45.929695905585376" lon="12.119682003886902"><ele>198.0</ele><time>2026-05-03T16:09:55Z</time></trkpt><trkpt lat="45.92963806732637" lon="12.1194862399441"><ele>200.0</ele><time>2026-05-03T16:09:56Z</time></trkpt><trkpt lat="45.92957727864074" lon="12.119283876757935"><ele>200.0</ele><time>2026-05-03T16:09:57Z</time></trkpt><trkpt lat="45.92951508001587" lon="12.119087073664069"><ele>200.0</ele><time>2026-05-03T16:09:58Z</time></trkpt><trkpt lat="45.9294585098126" lon="12.118891795457955"><ele>200.0</ele><time>2026-05-03T16:09:59Z</time></trkpt><trkpt lat="45.92939790197976" lon="12.118692931802109"><ele>200.0</ele><time>2026-05-03T16:10:00Z</time></trkpt><trkpt lat="45.92934058889497" lon="12.118494031764442"><ele>201.66666666666669</ele><time>2026-05-03T16:10:01Z</time></trkpt><trkpt lat="45.929276579542545" lon="12.118285831987315"><ele>203.33333333333331</ele><time>2026-05-03T16:10:02Z</time></trkpt><trkpt lat="45.929282421561076" lon="12.118037209080892"><ele>205.0</ele><time>2026-05-03T16:10:03Z</time></trkpt><trkpt lat="45.929220805759556" lon="12.11783127462812"><ele>200.33333333333331</ele><time>2026-05-03T16:10:04Z</time></trkpt><trkpt lat="45.92909134524867" lon="12.11764702164178"><ele>195.66666666666666</ele><time>2026-05-03T16:10:05Z</time></trkpt><trkpt lat="45.92902786849887" lon="12.117422412909164"><ele>191.0</ele><time>2026-05-03T16:10:06Z</time></trkpt><trkpt lat="45.92895763898863" lon="12.117208061009228"><ele>191.0</ele><time>2026-05-03T16:10:07Z</time></trkpt><trkpt lat="45.928893280761265" lon="12.116983175278468"><ele>191.0</ele><time>2026-05-03T16:10:08Z</time></trkpt><trkpt lat="45.92883957040321" lon="12.116743360768393"><ele>191.0</ele><time>2026-05-03T16:10:09Z</time></trkpt><trkpt lat="45.928794901770566" lon="12.116501557155601"><ele>192.0</ele><time>2026-05-03T16:10:10Z</time></trkpt><trkpt lat="45.92876417014275" lon="12.116256617795697"><ele>193.0</ele><time>2026-05-03T16:10:11Z</time></trkpt><trkpt lat="45.928740301957035" lon="12.116002883330157"><ele>194.0</ele><time>2026-05-03T16:10:12Z</time></trkpt><trkpt lat="45.928725363696216" lon="12.115750630724238"><ele>194.0</ele><time>2026-05-03T16:10:13Z</time></trkpt><trkpt lat="45.928723791010576" lon="12.115503923250559"><ele>194.0</ele><time>2026-05-03T16:10:14Z</time></trkpt><trkpt lat="45.92872969113581" lon="12.115252647852735"><ele>194.0</ele><time>2026-05-03T16:10:15Z</time></trkpt><trkpt lat="45.92874709268424" lon="12.115007234599407"><ele>194.0</ele><time>2026-05-03T16:10:16Z</time></trkpt><trkpt lat="45.928769044381724" lon="12.114764853629973"><ele>194.0</ele><time>2026-05-03T16:10:17Z</time></trkpt><trkpt lat="45.928803420072" lon="12.114518826511631"><ele>194.0</ele><time>2026-05-03T16:10:18Z</time></trkpt><trkpt lat="45.928843851023636" lon="12.114257504004067"><ele>192.66666666666669</ele><time>2026-05-03T16:10:19Z</time></trkpt><trkpt lat="45.92888215297822" lon="12.113971398995"><ele>191.33333333333334</ele><time>2026-05-03T16:10:20Z</time></trkpt><trkpt lat="45.928919342060034" lon="12.113660691794829"><ele>190.0</ele><time>2026-05-03T16:10:21Z</time></trkpt><trkpt lat="45.92895646089898" lon="12.113316734934056"><ele>189.5</ele><time>2026-05-03T16:10:22Z</time></trkpt><trkpt lat="45.92900852401286" lon="12.112950805511522"><ele>189.0</ele><time>2026-05-03T16:10:23Z</time></trkpt><trkpt lat="45.92906743678992" lon="12.11264396386869"><ele>189.66666666666666</ele><time>2026-05-03T16:10:24Z</time></trkpt><trkpt lat="45.929115605669914" lon="12.112360620179787"><ele>190.33333333333331</ele><time>2026-05-03T16:10:25Z</time></trkpt><trkpt lat="45.92916041302606" lon="12.112081272767158"><ele>191.0</ele><time>2026-05-03T16:10:26Z</time></trkpt><trkpt lat="45.92922708339934" lon="12.111814891357668"><ele>191.0</ele><time>2026-05-03T16:10:26.999Z</time></trkpt><trkpt lat="45.92930082189837" lon="12.111562887930297"><ele>191.0</ele><time>2026-05-03T16:10:27.999Z</time></trkpt><trkpt lat="45.929402816435605" lon="12.111340094467579"><ele>191.0</ele><time>2026-05-03T16:10:28.999Z</time></trkpt><trkpt lat="45.92951034910722" lon="12.111136684529574"><ele>191.0</ele><time>2026-05-03T16:10:29.999Z</time></trkpt><trkpt lat="45.9296031668595" lon="12.110983324640701"><ele>191.0</ele><time>2026-05-03T16:10:30.999Z</time></trkpt><trkpt lat="45.929694024796554" lon="12.110809692931145"><ele>191.0</ele><time>2026-05-03T16:10:31.999Z</time></trkpt><trkpt lat="45.929771183108166" lon="12.110644574971563"><ele>191.0</ele><time>2026-05-03T16:10:32.999Z</time></trkpt><trkpt lat="45.92983310382783" lon="12.11048606902417"><ele>192.75</ele><time>2026-05-03T16:10:33.999Z</time></trkpt><trkpt lat="45.929868921740095" lon="12.110333497099719"><ele>194.5</ele><time>2026-05-03T16:10:34.999Z</time></trkpt><trkpt lat="45.929890383372815" lon="12.11016983311232"><ele>196.25</ele><time>2026-05-03T16:10:35.999Z</time></trkpt><trkpt lat="45.92990739960615" lon="12.110003536525523"><ele>198.0</ele><time>2026-05-03T16:10:36.999Z</time></trkpt><trkpt lat="45.929913069635845" lon="12.10984457720894"><ele>198.8</ele><time>2026-05-03T16:10:37.999Z</time></trkpt><trkpt lat="45.92991946585051" lon="12.109682318332997"><ele>199.60000000000002</ele><time>2026-05-03T16:10:38.999Z</time></trkpt><trkpt lat="45.92992342438852" lon="12.1095391887342"><ele>200.39999999999998</ele><time>2026-05-03T16:10:39.999Z</time></trkpt><trkpt lat="45.92993025778745" lon="12.109401065791618"><ele>201.2</ele><time>2026-05-03T16:10:40.999Z</time></trkpt><trkpt lat="45.92993932304037" lon="12.109256273858792"><ele>202.0</ele><time>2026-05-03T16:10:41.999Z</time></trkpt><trkpt lat="45.92994983681807" lon="12.10911595804662"><ele>202.6</ele><time>2026-05-03T16:10:42.999Z</time></trkpt><trkpt lat="45.92996306702805" lon="12.108994512823836"><ele>203.2</ele><time>2026-05-03T16:10:43.999Z</time></trkpt><trkpt lat="45.92998077106211" lon="12.108860686051262"><ele>203.8</ele><time>2026-05-03T16:10:44.999Z</time></trkpt><trkpt lat="45.92999210005696" lon="12.108733239458743"><ele>204.4</ele><time>2026-05-03T16:10:45.999Z</time></trkpt><trkpt lat="45.93000962961715" lon="12.108593546754612"><ele>205.0</ele><time>2026-05-03T16:10:46.999Z</time></trkpt><trkpt lat="45.930024795128844" lon="12.108457177066851"><ele>205.0</ele><time>2026-05-03T16:10:47.999Z</time></trkpt><trkpt lat="45.9300430657026" lon="12.108320814746262"><ele>205.0</ele><time>2026-05-03T16:10:48.999Z</time></trkpt><trkpt lat="45.930068217418075" lon="12.108174550508737"><ele>205.0</ele><time>2026-05-03T16:10:49.999Z</time></trkpt><trkpt lat="45.930097514427786" lon="12.108024005363456"><ele>205.0</ele><time>2026-05-03T16:10:50.999Z</time></trkpt><trkpt lat="45.930124126752226" lon="12.10787386207327"><ele>205.0</ele><time>2026-05-03T16:10:51.999Z</time></trkpt><trkpt lat="45.93016212152061" lon="12.107736480431589"><ele>204.49999999999997</ele><time>2026-05-03T16:10:52.999Z</time></trkpt><trkpt lat="45.93018888018562" lon="12.107609264178565"><ele>204.0</ele><time>2026-05-03T16:10:53.999Z</time></trkpt><trkpt lat="45.930216935827936" lon="12.107499059619677"><ele>203.5</ele><time>2026-05-03T16:10:54.999Z</time></trkpt><trkpt lat="45.93024159955685" lon="12.107408170024264"><ele>203.0</ele><time>2026-05-03T16:10:55.999Z</time></trkpt><trkpt lat="45.930274897156195" lon="12.107324274987983"><ele>202.49999999999997</ele><time>2026-05-03T16:10:56.999Z</time></trkpt><trkpt lat="45.9303018835617" lon="12.107202338131383"><ele>202.0</ele><time>2026-05-03T16:10:58.999Z</time></trkpt><trkpt lat="45.93020274741361" lon="12.10710318020927"><ele>202.0</ele><time>2026-05-03T16:10:59.999Z</time></trkpt><trkpt lat="45.93014662214604" lon="12.107052387593502"><ele>202.0</ele><time>2026-05-03T16:11:00.999Z</time></trkpt><trkpt lat="45.930061394990794" lon="12.106955755890933"><ele>202.0</ele><time>2026-05-03T16:11:02.999Z</time></trkpt><trkpt lat="45.92998503157359" lon="12.10687579696568"><ele>202.0</ele><time>2026-05-03T16:11:04.999Z</time></trkpt><trkpt lat="45.92992171519572" lon="12.106780711243216"><ele>202.0</ele><time>2026-05-03T16:11:06.999Z</time></trkpt><trkpt lat="45.92982552600615" lon="12.106678280709477"><ele>202.99999999999997</ele><time>2026-05-03T16:11:08.999Z</time></trkpt><trkpt lat="45.929779036366966" lon="12.106612072928502"><ele>204.0</ele><time>2026-05-03T16:11:09.999Z</time></trkpt><trkpt lat="45.929703946653405" lon="12.106476321385824"><ele>205.0</ele><time>2026-05-03T16:11:11.999Z</time></trkpt><trkpt lat="45.92965991730651" lon="12.106389056176821"><ele>206.0</ele><time>2026-05-03T16:11:12.999Z</time></trkpt><trkpt lat="45.92963056245399" lon="12.106303364978418"><ele>206.99999999999997</ele><time>2026-05-03T16:11:13.999Z</time></trkpt><trkpt lat="45.92956851622091" lon="12.106225854289908"><ele>208.0</ele><time>2026-05-03T16:11:14.999Z</time></trkpt><trkpt lat="45.92950091828684" lon="12.106142327798247"><ele>207.8</ele><time>2026-05-03T16:11:15.999Z</time></trkpt><trkpt lat="45.92943087217828" lon="12.10606326961242"><ele>207.60000000000002</ele><time>2026-05-03T16:11:16.999Z</time></trkpt><trkpt lat="45.929359041805235" lon="12.10597982643666"><ele>207.39999999999998</ele><time>2026-05-03T16:11:17.999Z</time></trkpt><trkpt lat="45.92927094754786" lon="12.105865871541335"><ele>207.2</ele><time>2026-05-03T16:11:18.999Z</time></trkpt><trkpt lat="45.92916694915579" lon="12.10575847895752"><ele>207.0</ele><time>2026-05-03T16:11:19.999Z</time></trkpt><trkpt lat="45.929070984111" lon="12.105648081884464"><ele>206.75</ele><time>2026-05-03T16:11:20.999Z</time></trkpt><trkpt lat="45.92897909862154" lon="12.105525743396203"><ele>206.5</ele><time>2026-05-03T16:11:21.999Z</time></trkpt><trkpt lat="45.92887568567736" lon="12.105412901674931"><ele>206.25</ele><time>2026-05-03T16:11:22.999Z</time></trkpt><trkpt lat="45.92876825656056" lon="12.105294765466105"><ele>206.0</ele><time>2026-05-03T16:11:23.999Z</time></trkpt><trkpt lat="45.92864739677155" lon="12.105184587459135"><ele>206.0</ele><time>2026-05-03T16:11:24.999Z</time></trkpt><trkpt lat="45.92852776671323" lon="12.105090443375015"><ele>206.0</ele><time>2026-05-03T16:11:25.999Z</time></trkpt><trkpt lat="45.92840367993774" lon="12.10499600583143"><ele>206.0</ele><time>2026-05-03T16:11:26.999Z</time></trkpt><trkpt lat="45.92828043783095" lon="12.104899277345346"><ele>206.0</ele><time>2026-05-03T16:11:27.999Z</time></trkpt><trkpt lat="45.92814589089024" lon="12.10480779298304"><ele>206.0</ele><time>2026-05-03T16:11:28.999Z</time></trkpt><trkpt lat="45.9280169428594" lon="12.104714826341642"><ele>206.0</ele><time>2026-05-03T16:11:30Z</time></trkpt><trkpt lat="45.927889598812676" lon="12.104605839432487"><ele>206.0</ele><time>2026-05-03T16:11:31Z</time></trkpt><trkpt lat="45.92776663718755" lon="12.104487003100772"><ele>206.0</ele><time>2026-05-03T16:11:32Z</time></trkpt><trkpt lat="45.927647671825525" lon="12.104371786493529"><ele>205.66666666666669</ele><time>2026-05-03T16:11:33Z</time></trkpt><trkpt lat="45.927526763369016" lon="12.104239094609042"><ele>205.33333333333331</ele><time>2026-05-03T16:11:34Z</time></trkpt><trkpt lat="45.927403498172" lon="12.10410532706771"><ele>205.0</ele><time>2026-05-03T16:11:35Z</time></trkpt><trkpt lat="45.92728169221788" lon="12.103962793841848"><ele>205.0</ele><time>2026-05-03T16:11:36Z</time></trkpt><trkpt lat="45.927159810106296" lon="12.103824016287174"><ele>205.0</ele><time>2026-05-03T16:11:37Z</time></trkpt><trkpt lat="45.92703982060559" lon="12.103686132599716"><ele>205.0</ele><time>2026-05-03T16:11:38Z</time></trkpt><trkpt lat="45.92692109558088" lon="12.103545061290852"><ele>205.0</ele><time>2026-05-03T16:11:39Z</time></trkpt><trkpt lat="45.92681051439217" lon="12.103389033829044"><ele>205.0</ele><time>2026-05-03T16:11:40Z</time></trkpt><trkpt lat="45.926716199800374" lon="12.10321324954052"><ele>205.0</ele><time>2026-05-03T16:11:41Z</time></trkpt><trkpt lat="45.92663665690625" lon="12.10301188982191"><ele>203.66666666666666</ele><time>2026-05-03T16:11:42Z</time></trkpt><trkpt lat="45.92658917730766" lon="12.102798897825517"><ele>202.33333333333331</ele><time>2026-05-03T16:11:43Z</time></trkpt><trkpt lat="45.926557887905226" lon="12.10257737217576"><ele>201.0</ele><time>2026-05-03T16:11:44Z</time></trkpt><trkpt lat="45.92651818389224" lon="12.10236663658845"><ele>201.0</ele><time>2026-05-03T16:11:45Z</time></trkpt><trkpt lat="45.92645314489104" lon="12.102140497682509"><ele>201.0</ele><time>2026-05-03T16:11:46Z</time></trkpt><trkpt lat="45.92634624715431" lon="12.101990334620165"><ele>201.0</ele><time>2026-05-03T16:11:47Z</time></trkpt><trkpt lat="45.926241891665086" lon="12.101823254149208"><ele>201.0</ele><time>2026-05-03T16:11:48Z</time></trkpt><trkpt lat="45.926148109652296" lon="12.101652235638408"><ele>201.0</ele><time>2026-05-03T16:11:49Z</time></trkpt><trkpt lat="45.92606968923459" lon="12.101453137296513"><ele>201.0</ele><time>2026-05-03T16:11:50Z</time></trkpt><trkpt lat="45.92601240386702" lon="12.101244061599727"><ele>202.33333333333331</ele><time>2026-05-03T16:11:51Z</time></trkpt><trkpt lat="45.92597491726535" lon="12.10102714253199"><ele>203.66666666666666</ele><time>2026-05-03T16:11:52Z</time></trkpt><trkpt lat="45.92596546462219" lon="12.100796058644043"><ele>205.0</ele><time>2026-05-03T16:11:53Z</time></trkpt><trkpt lat="45.92596710585565" lon="12.100564314391729"><ele>205.5</ele><time>2026-05-03T16:11:54Z</time></trkpt><trkpt lat="45.925982770422216" lon="12.100351488893123"><ele>206.0</ele><time>2026-05-03T16:11:55Z</time></trkpt><trkpt lat="45.92599244431668" lon="12.100137840733066"><ele>206.5</ele><time>2026-05-03T16:11:56Z</time></trkpt><trkpt lat="45.92598452168208" lon="12.099933573299351"><ele>207.0</ele><time>2026-05-03T16:11:57Z</time></trkpt><trkpt lat="45.92596509761128" lon="12.099705841188024"><ele>206.66666666666669</ele><time>2026-05-03T16:11:58Z</time></trkpt><trkpt lat="45.92592669048711" lon="12.099491317279162"><ele>206.33333333333334</ele><time>2026-05-03T16:11:59Z</time></trkpt><trkpt lat="45.92586952493055" lon="12.099269210454564"><ele>206.0</ele><time>2026-05-03T16:12:00Z</time></trkpt><trkpt lat="45.92580408547066" lon="12.099062614051423"><ele>206.0</ele><time>2026-05-03T16:12:01Z</time></trkpt><trkpt lat="45.92572647129971" lon="12.098860889671904"><ele>206.0</ele><time>2026-05-03T16:12:02Z</time></trkpt><trkpt lat="45.92565176993496" lon="12.09866236774922"><ele>206.0</ele><time>2026-05-03T16:12:03Z</time></trkpt><trkpt lat="45.925578225115395" lon="12.098463695983677"><ele>206.0</ele><time>2026-05-03T16:12:04Z</time></trkpt><trkpt lat="45.92549561101374" lon="12.098269415170785"><ele>206.0</ele><time>2026-05-03T16:12:05Z</time></trkpt><trkpt lat="45.92540662003264" lon="12.09809630180714"><ele>206.0</ele><time>2026-05-03T16:12:06Z</time></trkpt><trkpt lat="45.925308302266636" lon="12.09793936848088"><ele>207.0</ele><time>2026-05-03T16:12:07Z</time></trkpt><trkpt lat="45.92519460176583" lon="12.097800712154358"><ele>208.0</ele><time>2026-05-03T16:12:08Z</time></trkpt><trkpt lat="45.92508496316002" lon="12.097660412777946"><ele>209.0</ele><time>2026-05-03T16:12:09Z</time></trkpt><trkpt lat="45.92497560074853" lon="12.097529595653935"><ele>210.0</ele><time>2026-05-03T16:12:10Z</time></trkpt><trkpt lat="45.924860548132166" lon="12.09741540073516"><ele>212.0</ele><time>2026-05-03T16:12:11Z</time></trkpt><trkpt lat="45.924736601644874" lon="12.097294553508766"><ele>214.0</ele><time>2026-05-03T16:12:12Z</time></trkpt><trkpt lat="45.92462614221786" lon="12.097166661389828"><ele>216.0</ele><time>2026-05-03T16:12:13Z</time></trkpt><trkpt lat="45.92451969891856" lon="12.097022451195034"><ele>218.0</ele><time>2026-05-03T16:12:14Z</time></trkpt><trkpt lat="45.92442430254155" lon="12.096870729642609"><ele>218.0</ele><time>2026-05-03T16:12:15Z</time></trkpt><trkpt lat="45.9243417296362" lon="12.096705852440998"><ele>218.0</ele><time>2026-05-03T16:12:16Z</time></trkpt><trkpt lat="45.9242571324459" lon="12.096528646819175"><ele>218.0</ele><time>2026-05-03T16:12:17Z</time></trkpt><trkpt lat="45.924169358989346" lon="12.096355573911978"><ele>218.0</ele><time>2026-05-03T16:12:18Z</time></trkpt><trkpt lat="45.924081013309404" lon="12.096187814414497"><ele>218.25</ele><time>2026-05-03T16:12:19Z</time></trkpt><trkpt lat="45.92398703432261" lon="12.096023475309604"><ele>218.5</ele><time>2026-05-03T16:12:20Z</time></trkpt><trkpt lat="45.923896299086124" lon="12.095862572165194"><ele>218.75</ele><time>2026-05-03T16:12:21Z</time></trkpt><trkpt lat="45.92380832947454" lon="12.095705795706548"><ele>219.0</ele><time>2026-05-03T16:12:22Z</time></trkpt><trkpt lat="45.92372387918943" lon="12.095556627266255"><ele>219.0</ele><time>2026-05-03T16:12:23Z</time></trkpt><trkpt lat="45.9236451069709" lon="12.095410346213912"><ele>219.0</ele><time>2026-05-03T16:12:24Z</time></trkpt><trkpt lat="45.92355975174367" lon="12.095248231780493"><ele>219.0</ele><time>2026-05-03T16:12:25Z</time></trkpt><trkpt lat="45.92346465894664" lon="12.095088219908781"><ele>219.0</ele><time>2026-05-03T16:12:26Z</time></trkpt><trkpt lat="45.92336942040111" lon="12.094921569619611"><ele>218.5</ele><time>2026-05-03T16:12:27Z</time></trkpt><trkpt lat="45.923270553125406" lon="12.094770671796553"><ele>218.0</ele><time>2026-05-03T16:12:28Z</time></trkpt><trkpt lat="45.92317205224387" lon="12.094623595323174"><ele>217.5</ele><time>2026-05-03T16:12:29Z</time></trkpt><trkpt lat="45.92307014907996" lon="12.094498761870845"><ele>217.0</ele><time>2026-05-03T16:12:30Z</time></trkpt><trkpt lat="45.922956004854846" lon="12.094357901003923"><ele>217.0</ele><time>2026-05-03T16:12:31Z</time></trkpt><trkpt lat="45.92285720051499" lon="12.09420228290218"><ele>217.0</ele><time>2026-05-03T16:12:32Z</time></trkpt><trkpt lat="45.9227504762769" lon="12.094021912994656"><ele>217.0</ele><time>2026-05-03T16:12:33Z</time></trkpt><trkpt lat="45.922676385208554" lon="12.0938661414626"><ele>217.0</ele><time>2026-05-03T16:12:34Z</time></trkpt><trkpt lat="45.92260578754878" lon="12.093679177274364"><ele>219.25</ele><time>2026-05-03T16:12:34.999Z</time></trkpt><trkpt lat="45.92252102227418" lon="12.09349696521574"><ele>221.5</ele><time>2026-05-03T16:12:35.999Z</time></trkpt><trkpt lat="45.92246175750447" lon="12.093331025466812"><ele>223.75</ele><time>2026-05-03T16:12:36.999Z</time></trkpt><trkpt lat="45.92239876236103" lon="12.093157505719535"><ele>226.0</ele><time>2026-05-03T16:12:37.999Z</time></trkpt><trkpt lat="45.922333384520904" lon="12.092970021461186"><ele>226.0</ele><time>2026-05-03T16:12:38.999Z</time></trkpt><trkpt lat="45.92227125961983" lon="12.092793675607878"><ele>226.0</ele><time>2026-05-03T16:12:39.999Z</time></trkpt><trkpt lat="45.92221599943528" lon="12.092616458044022"><ele>226.0</ele><time>2026-05-03T16:12:40.999Z</time></trkpt><trkpt lat="45.92216160854849" lon="12.09245535376863"><ele>226.0</ele><time>2026-05-03T16:12:41.999Z</time></trkpt><trkpt lat="45.922124739603035" lon="12.092283280904851"><ele>226.25</ele><time>2026-05-03T16:12:42.999Z</time></trkpt><trkpt lat="45.9220967496257" lon="12.092126140956147"><ele>226.5</ele><time>2026-05-03T16:12:43.999Z</time></trkpt><trkpt lat="45.92206876871597" lon="12.091950613499833"><ele>226.75</ele><time>2026-05-03T16:12:44.999Z</time></trkpt><trkpt lat="45.92202855545352" lon="12.091798832735313"><ele>227.0</ele><time>2026-05-03T16:12:45.999Z</time></trkpt><trkpt lat="45.92201707976486" lon="12.091614823194575"><ele>227.25</ele><time>2026-05-03T16:12:46.999Z</time></trkpt><trkpt lat="45.92198523170072" lon="12.091443946450825"><ele>227.5</ele><time>2026-05-03T16:12:47.999Z</time></trkpt><trkpt lat="45.92194722490084" lon="12.09126273581124"><ele>227.75</ele><time>2026-05-03T16:12:48.999Z</time></trkpt><trkpt lat="45.92189560895886" lon="12.091096081898138"><ele>228.0</ele><time>2026-05-03T16:12:49.999Z</time></trkpt><trkpt lat="45.9218350941269" lon="12.09093544827503"><ele>228.0</ele><time>2026-05-03T16:12:50.999Z</time></trkpt><trkpt lat="45.921771944136495" lon="12.090776802672814"><ele>228.0</ele><time>2026-05-03T16:12:51.999Z</time></trkpt><trkpt lat="45.92169250357925" lon="12.090645801722117"><ele>228.0</ele><time>2026-05-03T16:12:52.999Z</time></trkpt><trkpt lat="45.921626288952936" lon="12.090496103085242"><ele>228.0</ele><time>2026-05-03T16:12:53.999Z</time></trkpt><trkpt lat="45.92155494740942" lon="12.090357663098246"><ele>229.0</ele><time>2026-05-03T16:12:54.999Z</time></trkpt><trkpt lat="45.92147585375476" lon="12.090223289097024"><ele>230.0</ele><time>2026-05-03T16:12:55.999Z</time></trkpt><trkpt lat="45.921401093605766" lon="12.090085174045191"><ele>231.0</ele><time>2026-05-03T16:12:56.999Z</time></trkpt><trkpt lat="45.92131179787395" lon="12.089947326830453"><ele>232.0</ele><time>2026-05-03T16:12:57.999Z</time></trkpt><trkpt lat="45.92122996830328" lon="12.089804892669843"><ele>232.75</ele><time>2026-05-03T16:12:58.999Z</time></trkpt><trkpt lat="45.92115557402983" lon="12.089679551123988"><ele>233.5</ele><time>2026-05-03T16:12:59.999Z</time></trkpt><trkpt lat="45.921077930083065" lon="12.08952878510933"><ele>234.25</ele><time>2026-05-03T16:13:00.999Z</time></trkpt><trkpt lat="45.92099628933102" lon="12.089386501926597"><ele>235.0</ele><time>2026-05-03T16:13:01.999Z</time></trkpt><trkpt lat="45.92091123374396" lon="12.089255347051028"><ele>234.75</ele><time>2026-05-03T16:13:02.999Z</time></trkpt><trkpt lat="45.92082013565681" lon="12.08912148517224"><ele>234.5</ele><time>2026-05-03T16:13:03.999Z</time></trkpt><trkpt lat="45.92072710211518" lon="12.088991945645015"><ele>234.25</ele><time>2026-05-03T16:13:04.999Z</time></trkpt><trkpt lat="45.920633387774984" lon="12.088871533994045"><ele>234.0</ele><time>2026-05-03T16:13:05.999Z</time></trkpt><trkpt lat="45.92053753778391" lon="12.08876718102631"><ele>234.75</ele><time>2026-05-03T16:13:06.999Z</time></trkpt><trkpt lat="45.92045433789124" lon="12.088641849572916"><ele>235.5</ele><time>2026-05-03T16:13:07.999Z</time></trkpt><trkpt lat="45.920397254408236" lon="12.088483159370353"><ele>236.25</ele><time>2026-05-03T16:13:08.999Z</time></trkpt><trkpt lat="45.920364153683735" lon="12.088331075378802"><ele>237.0</ele><time>2026-05-03T16:13:09.999Z</time></trkpt><trkpt lat="45.92033476254377" lon="12.08817618430688"><ele>237.6</ele><time>2026-05-03T16:13:10.999Z</time></trkpt><trkpt lat="45.920303357276424" lon="12.088024866737335"><ele>238.2</ele><time>2026-05-03T16:13:11.999Z</time></trkpt><trkpt lat="45.92027532585397" lon="12.087869391300543"><ele>238.8</ele><time>2026-05-03T16:13:12.999Z</time></trkpt><trkpt lat="45.92023939963879" lon="12.087721952269135"><ele>239.4</ele><time>2026-05-03T16:13:13.999Z</time></trkpt><trkpt lat="45.920199591049496" lon="12.087570217271308"><ele>240.0</ele><time>2026-05-03T16:13:14.999Z</time></trkpt><trkpt lat="45.92015329209861" lon="12.0874221515034"><ele>240.25</ele><time>2026-05-03T16:13:15.999Z</time></trkpt><trkpt lat="45.92010302044235" lon="12.087283196026785"><ele>240.5</ele><time>2026-05-03T16:13:16.999Z</time></trkpt><trkpt lat="45.92004726422324" lon="12.08713339332731"><ele>240.75</ele><time>2026-05-03T16:13:17.999Z</time></trkpt><trkpt lat="45.91999221192569" lon="12.086979438891772"><ele>241.0</ele><time>2026-05-03T16:13:18.999Z</time></trkpt><trkpt lat="45.91993495471217" lon="12.086819989979546"><ele>241.0</ele><time>2026-05-03T16:13:19.999Z</time></trkpt><trkpt lat="45.919875621875846" lon="12.086659816211204"><ele>241.0</ele><time>2026-05-03T16:13:20.999Z</time></trkpt><trkpt lat="45.919813989145055" lon="12.086505559985257"><ele>241.0</ele><time>2026-05-03T16:13:21.999Z</time></trkpt><trkpt lat="45.91975182842373" lon="12.08635542047434"><ele>241.0</ele><time>2026-05-03T16:13:22.999Z</time></trkpt><trkpt lat="45.919692332980844" lon="12.086199351555212"><ele>241.5</ele><time>2026-05-03T16:13:23.999Z</time></trkpt><trkpt lat="45.919632755352794" lon="12.086031936323408"><ele>242.0</ele><time>2026-05-03T16:13:24.999Z</time></trkpt><trkpt lat="45.919577219959685" lon="12.085877004497704"><ele>242.5</ele><time>2026-05-03T16:13:25.999Z</time></trkpt><trkpt lat="45.91952246980488" lon="12.085721703406028"><ele>243.0</ele><time>2026-05-03T16:13:26.999Z</time></trkpt><trkpt lat="45.91947014811436" lon="12.085566631378859"><ele>244.75</ele><time>2026-05-03T16:13:27.999Z</time></trkpt><trkpt lat="45.919422269062245" lon="12.085403880204906"><ele>246.5</ele><time>2026-05-03T16:13:28.999Z</time></trkpt><trkpt lat="45.919373499849804" lon="12.085245878406717"><ele>248.25</ele><time>2026-05-03T16:13:29.999Z</time></trkpt><trkpt lat="45.91932293638922" lon="12.085082226401175"><ele>250.0</ele><time>2026-05-03T16:13:30.999Z</time></trkpt><trkpt lat="45.919280735578866" lon="12.084934893715104"><ele>249.0</ele><time>2026-05-03T16:13:31.999Z</time></trkpt><trkpt lat="45.91923280044717" lon="12.084799374647757"><ele>248.0</ele><time>2026-05-03T16:13:32.999Z</time></trkpt><trkpt lat="45.9191837139935" lon="12.084671177297995"><ele>247.0</ele><time>2026-05-03T16:13:33.999Z</time></trkpt><trkpt lat="45.91913081627016" lon="12.084543011032222"><ele>246.0</ele><time>2026-05-03T16:13:34.999Z</time></trkpt><trkpt lat="45.91907096953683" lon="12.084423509344655"><ele>245.0</ele><time>2026-05-03T16:13:36Z</time></trkpt><trkpt lat="45.918996520477" lon="12.084324206500973"><ele>245.0</ele><time>2026-05-03T16:13:37Z</time></trkpt><trkpt lat="45.91891060975696" lon="12.084228942641658"><ele>245.0</ele><time>2026-05-03T16:13:38Z</time></trkpt><trkpt lat="45.91881144509894" lon="12.08414463651531"><ele>245.0</ele><time>2026-05-03T16:13:39Z</time></trkpt><trkpt lat="45.91870386375308" lon="12.084072563985464"><ele>245.0</ele><time>2026-05-03T16:13:40Z</time></trkpt><trkpt lat="45.91859566235458" lon="12.084024926215205"><ele>243.6</ele><time>2026-05-03T16:13:41Z</time></trkpt><trkpt lat="45.91848511094129" lon="12.08397793106564"><ele>242.2</ele><time>2026-05-03T16:13:42Z</time></trkpt><trkpt lat="45.91837951009638" lon="12.083934101637276"><ele>240.8</ele><time>2026-05-03T16:13:43Z</time></trkpt><trkpt lat="45.91827272438258" lon="12.083918710427415"><ele>239.4</ele><time>2026-05-03T16:13:44Z</time></trkpt><trkpt lat="45.91817437516105" lon="12.083941084266066"><ele>238.0</ele><time>2026-05-03T16:13:45Z</time></trkpt><trkpt lat="45.918096170685814" lon="12.08399734679479"><ele>238.2</ele><time>2026-05-03T16:13:46Z</time></trkpt><trkpt lat="45.91800678546008" lon="12.08408191931341"><ele>238.4</ele><time>2026-05-03T16:13:48Z</time></trkpt><trkpt lat="45.917922617615496" lon="12.08413943422886"><ele>238.59999999999997</ele><time>2026-05-03T16:13:50Z</time></trkpt><trkpt lat="45.91780782115419" lon="12.08413964518016"><ele>238.79999999999998</ele><time>2026-05-03T16:13:52Z</time></trkpt><trkpt lat="45.917754884630746" lon="12.084085581769711"><ele>239.0</ele><time>2026-05-03T16:13:53Z</time></trkpt><trkpt lat="45.917720084503834" lon="12.083989861103795"><ele>236.6</ele><time>2026-05-03T16:13:54Z</time></trkpt><trkpt lat="45.91771260168892" lon="12.083870341392087"><ele>234.2</ele><time>2026-05-03T16:13:55Z</time></trkpt><trkpt lat="45.91772334039759" lon="12.083737319420973"><ele>231.79999999999998</ele><time>2026-05-03T16:13:56Z</time></trkpt><trkpt lat="45.91774921290956" lon="12.083608546885678"><ele>229.39999999999998</ele><time>2026-05-03T16:13:57Z</time></trkpt><trkpt lat="45.91780044504004" lon="12.083496203439307"><ele>227.0</ele><time>2026-05-03T16:13:58Z</time></trkpt><trkpt lat="45.91787950740309" lon="12.083406080917202"><ele>227.0</ele><time>2026-05-03T16:13:59Z</time></trkpt><trkpt lat="45.91798594624409" lon="12.083350006113047"><ele>227.0</ele><time>2026-05-03T16:14:00Z</time></trkpt><trkpt lat="45.91808597498797" lon="12.083314691054671"><ele>227.0</ele><time>2026-05-03T16:14:01Z</time></trkpt><trkpt lat="45.91819022053653" lon="12.083264538229319"><ele>227.0</ele><time>2026-05-03T16:14:02Z</time></trkpt><trkpt lat="45.91827405390473" lon="12.083180712425492"><ele>227.0</ele><time>2026-05-03T16:14:03Z</time></trkpt><trkpt lat="45.91833367061481" lon="12.083053458294765"><ele>226.75</ele><time>2026-05-03T16:14:04Z</time></trkpt><trkpt lat="45.91836249235089" lon="12.08289099056952"><ele>226.5</ele><time>2026-05-03T16:14:05Z</time></trkpt><trkpt lat="45.91836989476442" lon="12.082717842352862"><ele>226.25</ele><time>2026-05-03T16:14:06Z</time></trkpt><trkpt lat="45.91836712221178" lon="12.08254821711978"><ele>226.0</ele><time>2026-05-03T16:14:07Z</time></trkpt><trkpt lat="45.91833924382767" lon="12.08238122469751"><ele>225.25</ele><time>2026-05-03T16:14:08Z</time></trkpt><trkpt lat="45.918317217378814" lon="12.082212030974114"><ele>224.5</ele><time>2026-05-03T16:14:09Z</time></trkpt><trkpt lat="45.918293272358724" lon="12.082035598367675"><ele>223.75</ele><time>2026-05-03T16:14:10Z</time></trkpt><trkpt lat="45.91827159255253" lon="12.081862868203018"><ele>223.0</ele><time>2026-05-03T16:14:11Z</time></trkpt><trkpt lat="45.91824850712158" lon="12.081684254180386"><ele>223.0</ele><time>2026-05-03T16:14:12Z</time></trkpt><trkpt lat="45.91821275562066" lon="12.081512125165222"><ele>223.0</ele><time>2026-05-03T16:14:13Z</time></trkpt><trkpt lat="45.91814505338962" lon="12.081348931713036"><ele>223.0</ele><time>2026-05-03T16:14:14Z</time></trkpt><trkpt lat="45.91805238590098" lon="12.081198810047077"><ele>223.0</ele><time>2026-05-03T16:14:15Z</time></trkpt><trkpt lat="45.91794515018633" lon="12.081067282792903"><ele>223.0</ele><time>2026-05-03T16:14:16Z</time></trkpt><trkpt lat="45.917847361837296" lon="12.080924199347164"><ele>223.0</ele><time>2026-05-03T16:14:17Z</time></trkpt><trkpt lat="45.917746170246794" lon="12.080795958939369"><ele>223.0</ele><time>2026-05-03T16:14:18Z</time></trkpt><trkpt lat="45.91764799907525" lon="12.080661188118613"><ele>223.0</ele><time>2026-05-03T16:14:19Z</time></trkpt><trkpt lat="45.917552620452575" lon="12.080516324742602"><ele>222.75</ele><time>2026-05-03T16:14:20Z</time></trkpt><trkpt lat="45.917458701409366" lon="12.080382942068725"><ele>222.5</ele><time>2026-05-03T16:14:21Z</time></trkpt><trkpt lat="45.91737464139377" lon="12.080250197312093"><ele>222.25</ele><time>2026-05-03T16:14:22Z</time></trkpt><trkpt lat="45.91729699913209" lon="12.080122588095259"><ele>222.0</ele><time>2026-05-03T16:14:23Z</time></trkpt><trkpt lat="45.91722845311757" lon="12.07999294893036"><ele>222.25</ele><time>2026-05-03T16:14:24Z</time></trkpt><trkpt lat="45.917161434833204" lon="12.07986118357133"><ele>222.5</ele><time>2026-05-03T16:14:25Z</time></trkpt><trkpt lat="45.917089529551966" lon="12.079720733472916"><ele>222.75</ele><time>2026-05-03T16:14:26Z</time></trkpt><trkpt lat="45.91699183575384" lon="12.07959543622275"><ele>223.0</ele><time>2026-05-03T16:14:27Z</time></trkpt><trkpt lat="45.916864571183915" lon="12.079509571974151"><ele>221.5</ele><time>2026-05-03T16:14:28Z</time></trkpt><trkpt lat="45.91673140049787" lon="12.079449442231915"><ele>220.0</ele><time>2026-05-03T16:14:29Z</time></trkpt><trkpt lat="45.91661588538861" lon="12.079397237498307"><ele>218.5</ele><time>2026-05-03T16:14:30Z</time></trkpt><trkpt lat="45.91647507352767" lon="12.079338314904067"><ele>217.0</ele><time>2026-05-03T16:14:31Z</time></trkpt><trkpt lat="45.91632405093742" lon="12.079262524003466"><ele>217.0</ele><time>2026-05-03T16:14:32Z</time></trkpt><trkpt lat="45.91619197158703" lon="12.079192386671048"><ele>217.0</ele><time>2026-05-03T16:14:33Z</time></trkpt><trkpt lat="45.91606642195287" lon="12.079124779945298"><ele>217.0</ele><time>2026-05-03T16:14:34Z</time></trkpt><trkpt lat="45.91593269436071" lon="12.079047263071782"><ele>217.0</ele><time>2026-05-03T16:14:35Z</time></trkpt><trkpt lat="45.91579921916066" lon="12.078957961412913"><ele>218.75</ele><time>2026-05-03T16:14:36Z</time></trkpt><trkpt lat="45.915669105382655" lon="12.078867804923853"><ele>220.5</ele><time>2026-05-03T16:14:37Z</time></trkpt><trkpt lat="45.91553724584045" lon="12.07877502419105"><ele>222.25</ele><time>2026-05-03T16:14:38Z</time></trkpt><trkpt lat="45.91541426017366" lon="12.07868589934393"><ele>224.0</ele><time>2026-05-03T16:14:39Z</time></trkpt><trkpt lat="45.91530349154481" lon="12.078621710536"><ele>224.0</ele><time>2026-05-03T16:14:39.999Z</time></trkpt><trkpt lat="45.91519563943848" lon="12.078544378430845"><ele>224.0</ele><time>2026-05-03T16:14:40.999Z</time></trkpt><trkpt lat="45.91508619093583" lon="12.07845645224876"><ele>224.0</ele><time>2026-05-03T16:14:41.999Z</time></trkpt><trkpt lat="45.91497327425154" lon="12.078370979296064"><ele>224.0</ele><time>2026-05-03T16:14:42.999Z</time></trkpt><trkpt lat="45.91485852397503" lon="12.078280113914005"><ele>222.75</ele><time>2026-05-03T16:14:43.999Z</time></trkpt><trkpt lat="45.9147514034435" lon="12.078199540246484"><ele>221.5</ele><time>2026-05-03T16:14:44.999Z</time></trkpt><trkpt lat="45.91465099364692" lon="12.078119239160545"><ele>220.25</ele><time>2026-05-03T16:14:45.999Z</time></trkpt><trkpt lat="45.91456019458578" lon="12.078030686495135"><ele>219.0</ele><time>2026-05-03T16:14:46.999Z</time></trkpt><trkpt lat="45.91448155630818" lon="12.077931721664212"><ele>219.0</ele><time>2026-05-03T16:14:47.999Z</time></trkpt><trkpt lat="45.91442455608984" lon="12.077829917936436"><ele>218.99999999999997</ele><time>2026-05-03T16:14:48.999Z</time></trkpt><trkpt lat="45.914402656139636" lon="12.077718941436665"><ele>218.99999999999997</ele><time>2026-05-03T16:14:49.999Z</time></trkpt><trkpt lat="45.91441344294543" lon="12.077595617855877"><ele>219.0</ele><time>2026-05-03T16:14:50.999Z</time></trkpt><trkpt lat="45.91440366148911" lon="12.077452543082519"><ele>219.0</ele><time>2026-05-03T16:14:52.999Z</time></trkpt><trkpt lat="45.91455702323962" lon="12.077420605974536"><ele>218.66666666666666</ele><time>2026-05-03T16:14:53.999Z</time></trkpt><trkpt lat="45.91463452503498" lon="12.077390111852225"><ele>218.33333333333331</ele><time>2026-05-03T16:14:54.999Z</time></trkpt><trkpt lat="45.914718204976815" lon="12.077366355734485"><ele>218.0</ele><time>2026-05-03T16:14:55.999Z</time></trkpt><trkpt lat="45.914805589340766" lon="12.077329606083454"><ele>217.66666666666666</ele><time>2026-05-03T16:14:56.999Z</time></trkpt><trkpt lat="45.914884658797966" lon="12.07728537643167"><ele>217.33333333333331</ele><time>2026-05-03T16:14:57.999Z</time></trkpt><trkpt lat="45.91497370914615" lon="12.077236548193191"><ele>217.0</ele><time>2026-05-03T16:14:58.999Z</time></trkpt><trkpt lat="45.91505331551694" lon="12.077171677682824"><ele>218.6</ele><time>2026-05-03T16:14:59.999Z</time></trkpt><trkpt lat="45.91513196949907" lon="12.077109980415687"><ele>220.2</ele><time>2026-05-03T16:15:00.999Z</time></trkpt><trkpt lat="45.915210390690255" lon="12.077039112934251"><ele>221.8</ele><time>2026-05-03T16:15:01.999Z</time></trkpt><trkpt lat="45.91529953208229" lon="12.076968197223986"><ele>223.4</ele><time>2026-05-03T16:15:02.999Z</time></trkpt><trkpt lat="45.91537341964629" lon="12.076880681316114"><ele>225.0</ele><time>2026-05-03T16:15:03.999Z</time></trkpt><trkpt lat="45.91545006966519" lon="12.076812836887584"><ele>225.0</ele><time>2026-05-03T16:15:04.999Z</time></trkpt><trkpt lat="45.915531765651025" lon="12.076751064763682"><ele>225.0</ele><time>2026-05-03T16:15:05.999Z</time></trkpt><trkpt lat="45.915619155362364" lon="12.076706124845545"><ele>225.0</ele><time>2026-05-03T16:15:06.999Z</time></trkpt><trkpt lat="45.91570651578888" lon="12.076682042093633"><ele>225.0</ele><time>2026-05-03T16:15:07.999Z</time></trkpt><trkpt lat="45.91580427325413" lon="12.076626570448523"><ele>225.0</ele><time>2026-05-03T16:15:08.999Z</time></trkpt><trkpt lat="45.91590307270393" lon="12.076558810538309"><ele>225.75</ele><time>2026-05-03T16:15:09.999Z</time></trkpt><trkpt lat="45.91599104853659" lon="12.076457203393037"><ele>226.5</ele><time>2026-05-03T16:15:10.999Z</time></trkpt><trkpt lat="45.9160708692964" lon="12.076340042714428"><ele>227.25</ele><time>2026-05-03T16:15:11.999Z</time></trkpt><trkpt lat="45.91615405424753" lon="12.076226842330009"><ele>228.0</ele><time>2026-05-03T16:15:12.999Z</time></trkpt><trkpt lat="45.916221571681746" lon="12.076085155814056"><ele>228.0</ele><time>2026-05-03T16:15:13.999Z</time></trkpt><trkpt lat="45.91628576999006" lon="12.07591527679923"><ele>228.0</ele><time>2026-05-03T16:15:14.999Z</time></trkpt><trkpt lat="45.91632844293241" lon="12.075723207791524"><ele>228.0</ele><time>2026-05-03T16:15:15.999Z</time></trkpt><trkpt lat="45.91635735467594" lon="12.075507883769529"><ele>228.0</ele><time>2026-05-03T16:15:16.999Z</time></trkpt><trkpt lat="45.916418234387145" lon="12.075311711565647"><ele>228.0</ele><time>2026-05-03T16:15:17.999Z</time></trkpt><trkpt lat="45.91652427495567" lon="12.075180352310513"><ele>228.0</ele><time>2026-05-03T16:15:18.999Z</time></trkpt><trkpt lat="45.91667362820236" lon="12.075082264284246"><ele>228.0</ele><time>2026-05-03T16:15:19.999Z</time></trkpt><trkpt lat="45.91681448841889" lon="12.075033241084927"><ele>228.0</ele><time>2026-05-03T16:15:20.999Z</time></trkpt><trkpt lat="45.916940524405" lon="12.074930052279631"><ele>229.75</ele><time>2026-05-03T16:15:21.999Z</time></trkpt><trkpt lat="45.91705051312946" lon="12.074793628267097"><ele>231.5</ele><time>2026-05-03T16:15:22.999Z</time></trkpt><trkpt lat="45.9171581154491" lon="12.074653661689583"><ele>233.25</ele><time>2026-05-03T16:15:23.999Z</time></trkpt><trkpt lat="45.91725787395758" lon="12.074491346307623"><ele>235.0</ele><time>2026-05-03T16:15:24.999Z</time></trkpt><trkpt lat="45.91733331632838" lon="12.074305921984967"><ele>235.0</ele><time>2026-05-03T16:15:25.999Z</time></trkpt><trkpt lat="45.91740480620114" lon="12.074114046004656"><ele>235.0</ele><time>2026-05-03T16:15:26.999Z</time></trkpt><trkpt lat="45.91746175459467" lon="12.073919784652638"><ele>235.0</ele><time>2026-05-03T16:15:27.999Z</time></trkpt><trkpt lat="45.917487790648394" lon="12.07372296901522"><ele>235.0</ele><time>2026-05-03T16:15:28.999Z</time></trkpt><trkpt lat="45.9174806905121" lon="12.073532178788664"><ele>235.75</ele><time>2026-05-03T16:15:29.999Z</time></trkpt><trkpt lat="45.917461204200094" lon="12.073356514236906"><ele>236.5</ele><time>2026-05-03T16:15:30.999Z</time></trkpt><trkpt lat="45.917498839051795" lon="12.073207285290023"><ele>237.25</ele><time>2026-05-03T16:15:31.999Z</time></trkpt><trkpt lat="45.91759042468801" lon="12.073103798636804"><ele>238.0</ele><time>2026-05-03T16:15:32.999Z</time></trkpt><trkpt lat="45.9177238262709" lon="12.073036114012693"><ele>239.5</ele><time>2026-05-03T16:15:33.999Z</time></trkpt><trkpt lat="45.917849184326485" lon="12.072961255365879"><ele>241.0</ele><time>2026-05-03T16:15:34.999Z</time></trkpt><trkpt lat="45.91796156895896" lon="12.072881073947325"><ele>242.5</ele><time>2026-05-03T16:15:35.999Z</time></trkpt><trkpt lat="45.91805006742155" lon="12.072811629493057"><ele>244.0</ele><time>2026-05-03T16:15:36.999Z</time></trkpt><trkpt lat="45.918120214593614" lon="12.072725039066846"><ele>244.0</ele><time>2026-05-03T16:15:37.999Z</time></trkpt><trkpt lat="45.91817614934766" lon="12.072631106170988"><ele>243.99999999999997</ele><time>2026-05-03T16:15:38.999Z</time></trkpt><trkpt lat="45.91821861777664" lon="12.072516048897029"><ele>243.99999999999997</ele><time>2026-05-03T16:15:39.999Z</time></trkpt><trkpt lat="45.91827133972837" lon="12.072402314906935"><ele>244.0</ele><time>2026-05-03T16:15:40.999Z</time></trkpt><trkpt lat="45.91833115876356" lon="12.072286936881373"><ele>244.0</ele><time>2026-05-03T16:15:42Z</time></trkpt><trkpt lat="45.91838900449073" lon="12.072174385655646"><ele>246.6</ele><time>2026-05-03T16:15:43Z</time></trkpt><trkpt lat="45.918444696341744" lon="12.072058746585116"><ele>249.2</ele><time>2026-05-03T16:15:44Z</time></trkpt><trkpt lat="45.918489091710896" lon="12.071935415569577"><ele>251.79999999999998</ele><time>2026-05-03T16:15:45Z</time></trkpt><trkpt lat="45.91853041950422" lon="12.071796606551843"><ele>254.39999999999998</ele><time>2026-05-03T16:15:46Z</time></trkpt><trkpt lat="45.91857490544791" lon="12.071657635052194"><ele>257.0</ele><time>2026-05-03T16:15:47Z</time></trkpt><trkpt lat="45.91862643529804" lon="12.071512179353473"><ele>257.0</ele><time>2026-05-03T16:15:48Z</time></trkpt><trkpt lat="45.918666279692886" lon="12.0713704605125"><ele>257.0</ele><time>2026-05-03T16:15:49Z</time></trkpt><trkpt lat="45.91871245127792" lon="12.071236856211403"><ele>257.0</ele><time>2026-05-03T16:15:50Z</time></trkpt><trkpt lat="45.918759320998895" lon="12.071097215741764"><ele>257.0</ele><time>2026-05-03T16:15:51Z</time></trkpt><trkpt lat="45.918808836445606" lon="12.07095852274241"><ele>257.0</ele><time>2026-05-03T16:15:52Z</time></trkpt><trkpt lat="45.91886445365303" lon="12.070819649319466"><ele>257.25</ele><time>2026-05-03T16:15:53Z</time></trkpt><trkpt lat="45.918926233517546" lon="12.070687803333476"><ele>257.5</ele><time>2026-05-03T16:15:54Z</time></trkpt><trkpt lat="45.918996071094384" lon="12.07055694413696"><ele>257.75</ele><time>2026-05-03T16:15:55Z</time></trkpt><trkpt lat="45.9190699293575" lon="12.07043417831167"><ele>258.0</ele><time>2026-05-03T16:15:56Z</time></trkpt><trkpt lat="45.91915097964159" lon="12.070314893164058"><ele>259.75</ele><time>2026-05-03T16:15:57Z</time></trkpt><trkpt lat="45.919239638504195" lon="12.07020329335406"><ele>261.5</ele><time>2026-05-03T16:15:58Z</time></trkpt><trkpt lat="45.919330581245674" lon="12.070094604499886"><ele>263.25</ele><time>2026-05-03T16:15:59Z</time></trkpt><trkpt lat="45.91942623403701" lon="12.069984124801085"><ele>265.0</ele><time>2026-05-03T16:16:00Z</time></trkpt><trkpt lat="45.919518204698406" lon="12.069873606503814"><ele>265.0</ele><time>2026-05-03T16:16:01Z</time></trkpt><trkpt lat="45.91961628732973" lon="12.069763966123956"><ele>265.0</ele><time>2026-05-03T16:16:02Z</time></trkpt><trkpt lat="45.91971812617269" lon="12.06964459696713"><ele>265.0</ele><time>2026-05-03T16:16:03Z</time></trkpt><trkpt lat="45.919814757286844" lon="12.069525683730685"><ele>265.0</ele><time>2026-05-03T16:16:04Z</time></trkpt><trkpt lat="45.91991586300412" lon="12.069405707947562"><ele>265.0</ele><time>2026-05-03T16:16:05Z</time></trkpt><trkpt lat="45.92003378535419" lon="12.06931385615528"><ele>265.0</ele><time>2026-05-03T16:16:06Z</time></trkpt><trkpt lat="45.92018171471457" lon="12.06931486355351"><ele>265.0</ele><time>2026-05-03T16:16:07Z</time></trkpt><trkpt lat="45.920327881649584" lon="12.069321716887092"><ele>265.0</ele><time>2026-05-03T16:16:08Z</time></trkpt><trkpt lat="45.92047517361947" lon="12.069315396500924"><ele>267.25</ele><time>2026-05-03T16:16:09Z</time></trkpt><trkpt lat="45.920618283985185" lon="12.069333363973108"><ele>269.5</ele><time>2026-05-03T16:16:10Z</time></trkpt><trkpt lat="45.920772282033354" lon="12.06933952469396"><ele>271.75</ele><time>2026-05-03T16:16:11Z</time></trkpt><trkpt lat="45.920919394965615" lon="12.069348296992226"><ele>274.0</ele><time>2026-05-03T16:16:12Z</time></trkpt><trkpt lat="45.92106486214997" lon="12.069348452622158"><ele>275.25</ele><time>2026-05-03T16:16:13Z</time></trkpt><trkpt lat="45.92120334273297" lon="12.069363531477123"><ele>276.5</ele><time>2026-05-03T16:16:14Z</time></trkpt><trkpt lat="45.92135160617826" lon="12.069374761048792"><ele>277.75</ele><time>2026-05-03T16:16:15Z</time></trkpt><trkpt lat="45.92150058115156" lon="12.069365808300331"><ele>279.0</ele><time>2026-05-03T16:16:16Z</time></trkpt><trkpt lat="45.92164908416583" lon="12.069343169148848"><ele>282.3333333333333</ele><time>2026-05-03T16:16:17Z</time></trkpt><trkpt lat="45.921797281123176" lon="12.06929477016838"><ele>285.66666666666663</ele><time>2026-05-03T16:16:18Z</time></trkpt><trkpt lat="45.92193673909664" lon="12.069221947363317"><ele>289.0</ele><time>2026-05-03T16:16:19Z</time></trkpt><trkpt lat="45.92207911685435" lon="12.069152895333634"><ele>294.66666666666663</ele><time>2026-05-03T16:16:20Z</time></trkpt><trkpt lat="45.92222165256536" lon="12.06908990834506"><ele>300.3333333333333</ele><time>2026-05-03T16:16:21Z</time></trkpt><trkpt lat="45.92236109142579" lon="12.069007838142475"><ele>306.0</ele><time>2026-05-03T16:16:22Z</time></trkpt><trkpt lat="45.922502626218346" lon="12.068937200429154"><ele>306.75</ele><time>2026-05-03T16:16:23Z</time></trkpt><trkpt lat="45.92263152244986" lon="12.068861945974913"><ele>307.5</ele><time>2026-05-03T16:16:24Z</time></trkpt><trkpt lat="45.92275606221631" lon="12.06876853347325"><ele>308.25</ele><time>2026-05-03T16:16:25Z</time></trkpt><trkpt lat="45.9228861645493" lon="12.068700931103603"><ele>309.0</ele><time>2026-05-03T16:16:26Z</time></trkpt><trkpt lat="45.923013056866196" lon="12.06868853877842"><ele>309.0</ele><time>2026-05-03T16:16:27Z</time></trkpt><trkpt lat="45.92312567462868" lon="12.068736446869606"><ele>309.0</ele><time>2026-05-03T16:16:28Z</time></trkpt><trkpt lat="45.92322616002426" lon="12.068834969057068"><ele>309.0</ele><time>2026-05-03T16:16:29Z</time></trkpt><trkpt lat="45.92330220269899" lon="12.068933058728003"><ele>309.0</ele><time>2026-05-03T16:16:30Z</time></trkpt><trkpt lat="45.92339010464165" lon="12.06895098833432"><ele>309.0</ele><time>2026-05-03T16:16:31Z</time></trkpt><trkpt lat="45.92350287497229" lon="12.068881061608426"><ele>311.75</ele><time>2026-05-03T16:16:32Z</time></trkpt><trkpt lat="45.923576128537796" lon="12.068756881151556"><ele>314.5</ele><time>2026-05-03T16:16:33Z</time></trkpt><trkpt lat="45.92364954182323" lon="12.068640323619233"><ele>317.25</ele><time>2026-05-03T16:16:34Z</time></trkpt><trkpt lat="45.92375508569334" lon="12.06858001765955"><ele>320.0</ele><time>2026-05-03T16:16:35Z</time></trkpt><trkpt lat="45.923867191002294" lon="12.06860972784394"><ele>320.0</ele><time>2026-05-03T16:16:36Z</time></trkpt><trkpt lat="45.923931381866915" lon="12.068732859252048"><ele>320.0</ele><time>2026-05-03T16:16:37Z</time></trkpt><trkpt lat="45.92398511455215" lon="12.068853850110225"><ele>320.0</ele><time>2026-05-03T16:16:38Z</time></trkpt><trkpt lat="45.92405026900914" lon="12.069023403020982"><ele>320.0</ele><time>2026-05-03T16:16:39Z</time></trkpt><trkpt lat="45.9241381596614" lon="12.06914268829438"><ele>318.6666666666667</ele><time>2026-05-03T16:16:40Z</time></trkpt><trkpt lat="45.924226336120775" lon="12.069193597012275"><ele>317.3333333333333</ele><time>2026-05-03T16:16:41Z</time></trkpt><trkpt lat="45.92445286515836" lon="12.069018618676422"><ele>316.0</ele><time>2026-05-03T16:16:42.999Z</time></trkpt><trkpt lat="45.92456376830761" lon="12.068939559430985"><ele>317.6</ele><time>2026-05-03T16:16:43.999Z</time></trkpt><trkpt lat="45.924679409994" lon="12.06889255533985"><ele>319.20000000000005</ele><time>2026-05-03T16:16:44.999Z</time></trkpt><trkpt lat="45.92478111914207" lon="12.06885726068178"><ele>320.79999999999995</ele><time>2026-05-03T16:16:45.999Z</time></trkpt><trkpt lat="45.924860962956735" lon="12.06890814438047"><ele>322.4</ele><time>2026-05-03T16:16:46.999Z</time></trkpt><trkpt lat="45.92491401808677" lon="12.068999561411147"><ele>324.0</ele><time>2026-05-03T16:16:47.999Z</time></trkpt><trkpt lat="45.92493178247588" lon="12.069119831880926"><ele>324.0</ele><time>2026-05-03T16:16:48.999Z</time></trkpt><trkpt lat="45.92486120528373" lon="12.069285963809929"><ele>324.0</ele><time>2026-05-03T16:16:49.999Z</time></trkpt><trkpt lat="45.9248528590702" lon="12.069469812564273"><ele>324.0</ele><time>2026-05-03T16:16:50.999Z</time></trkpt><trkpt lat="45.92483043726721" lon="12.06965088392636"><ele>324.0</ele><time>2026-05-03T16:16:51.999Z</time></trkpt><trkpt lat="45.924856192058584" lon="12.069807814357713"><ele>326.0</ele><time>2026-05-03T16:16:52.999Z</time></trkpt><trkpt lat="45.92490190723713" lon="12.069958227136834"><ele>328.0</ele><time>2026-05-03T16:16:53.999Z</time></trkpt><trkpt lat="45.92501710291158" lon="12.070003664888905"><ele>330.0</ele><time>2026-05-03T16:16:54.999Z</time></trkpt><trkpt lat="45.92515870434184" lon="12.069935654463595"><ele>332.0</ele><time>2026-05-03T16:16:55.999Z</time></trkpt><trkpt lat="45.925267905599306" lon="12.06981955001836"><ele>332.0</ele><time>2026-05-03T16:16:56.999Z</time></trkpt><trkpt lat="45.92530464134118" lon="12.06963022622028"><ele>332.0</ele><time>2026-05-03T16:16:57.999Z</time></trkpt><trkpt lat="45.92536273822986" lon="12.069473817980107"><ele>332.0</ele><time>2026-05-03T16:16:58.999Z</time></trkpt><trkpt lat="45.92545079684641" lon="12.069371841150772"><ele>332.0</ele><time>2026-05-03T16:16:59.999Z</time></trkpt><trkpt lat="45.92554012449997" lon="12.069325981385463"><ele>332.0</ele><time>2026-05-03T16:17:00.999Z</time></trkpt><trkpt lat="45.92563277609452" lon="12.06943369061403"><ele>332.0</ele><time>2026-05-03T16:17:01.999Z</time></trkpt><trkpt lat="45.92569047711594" lon="12.069564604244754"><ele>332.0</ele><time>2026-05-03T16:17:02.999Z</time></trkpt><trkpt lat="45.9257738889891" lon="12.069700323558207"><ele>332.0</ele><time>2026-05-03T16:17:03.999Z</time></trkpt><trkpt lat="45.92587107934528" lon="12.069843551410138"><ele>335.33333333333337</ele><time>2026-05-03T16:17:04.999Z</time></trkpt><trkpt lat="45.92597896628607" lon="12.070028460004764"><ele>338.6666666666667</ele><time>2026-05-03T16:17:05.999Z</time></trkpt><trkpt lat="45.92612431711183" lon="12.070243764743722"><ele>342.0</ele><time>2026-05-03T16:17:06.999Z</time></trkpt><trkpt lat="45.926251497230986" lon="12.07047678001211"><ele>342.0</ele><time>2026-05-03T16:17:07.999Z</time></trkpt><trkpt lat="45.92635209348909" lon="12.07067114968061"><ele>342.0</ele><time>2026-05-03T16:17:08.999Z</time></trkpt><trkpt lat="45.926440209871366" lon="12.070811300457073"><ele>342.0</ele><time>2026-05-03T16:17:09.999Z</time></trkpt><trkpt lat="45.92653248969913" lon="12.070876780052654"><ele>342.0</ele><time>2026-05-03T16:17:10.999Z</time></trkpt><trkpt lat="45.92661676404308" lon="12.070925150463472"><ele>342.0</ele><time>2026-05-03T16:17:11.999Z</time></trkpt><trkpt lat="45.926708539642355" lon="12.070859306533352"><ele>342.0</ele><time>2026-05-03T16:17:12.999Z</time></trkpt><trkpt lat="45.92675923411675" lon="12.070740347848462"><ele>342.0</ele><time>2026-05-03T16:17:13.999Z</time></trkpt><trkpt lat="45.926771340131445" lon="12.070591489968931"><ele>342.0</ele><time>2026-05-03T16:17:14.999Z</time></trkpt><trkpt lat="45.92674526862792" lon="12.07047238000856"><ele>342.0</ele><time>2026-05-03T16:17:15.999Z</time></trkpt><trkpt lat="45.926701447940424" lon="12.070360575063932"><ele>342.0</ele><time>2026-05-03T16:17:16.999Z</time></trkpt><trkpt lat="45.92666232239424" lon="12.070281011576007"><ele>342.0</ele><time>2026-05-03T16:17:17.999Z</time></trkpt><trkpt lat="45.926615314963705" lon="12.070143331270955"><ele>342.0</ele><time>2026-05-03T16:17:19.999Z</time></trkpt><trkpt lat="45.926575871343935" lon="12.07005086587873"><ele>342.0</ele><time>2026-05-03T16:17:21.999Z</time></trkpt><trkpt lat="45.92655903993788" lon="12.069932370412495"><ele>342.0</ele><time>2026-05-03T16:17:24.999Z</time></trkpt><trkpt lat="45.92655954760103" lon="12.069822932516539"><ele>342.0</ele><time>2026-05-03T16:17:38.999Z</time></trkpt><trkpt lat="45.9265672795296" lon="12.069722597450523"><ele>342.6</ele><time>2026-05-03T16:17:40.999Z</time></trkpt><trkpt lat="45.92660611258967" lon="12.069589286961811"><ele>343.20000000000005</ele><time>2026-05-03T16:17:42.999Z</time></trkpt><trkpt lat="45.926666486626395" lon="12.069432564199948"><ele>343.8</ele><time>2026-05-03T16:17:44.999Z</time></trkpt><trkpt lat="45.9267725888026" lon="12.069344813476434"><ele>344.4</ele><time>2026-05-03T16:17:46.999Z</time></trkpt><trkpt lat="45.92684983125623" lon="12.069367183253085"><ele>345.0</ele><time>2026-05-03T16:17:48Z</time></trkpt><trkpt lat="45.9269169637355" lon="12.069442810150854"><ele>346.8</ele><time>2026-05-03T16:17:49Z</time></trkpt><trkpt lat="45.92695849255775" lon="12.06956362841642"><ele>348.6</ele><time>2026-05-03T16:17:50Z</time></trkpt><trkpt lat="45.9270227002181" lon="12.069677091926994"><ele>350.4</ele><time>2026-05-03T16:17:51Z</time></trkpt><trkpt lat="45.92707080988627" lon="12.069799271997816"><ele>352.2</ele><time>2026-05-03T16:17:52Z</time></trkpt><trkpt lat="45.92712634141308" lon="12.069914761228752"><ele>354.0</ele><time>2026-05-03T16:17:53Z</time></trkpt><trkpt lat="45.92718265053161" lon="12.070033331920447"><ele>354.0</ele><time>2026-05-03T16:17:54Z</time></trkpt><trkpt lat="45.927254081711084" lon="12.070136009806378"><ele>354.0</ele><time>2026-05-03T16:17:55Z</time></trkpt><trkpt lat="45.927338471975105" lon="12.07022631632935"><ele>354.0</ele><time>2026-05-03T16:17:56Z</time></trkpt><trkpt lat="45.92742281823789" lon="12.070318482684677"><ele>354.0</ele><time>2026-05-03T16:17:57Z</time></trkpt><trkpt lat="45.92751779701465" lon="12.070408880437299"><ele>354.0</ele><time>2026-05-03T16:17:58Z</time></trkpt><trkpt lat="45.92761534865107" lon="12.070509286669822"><ele>356.25</ele><time>2026-05-03T16:17:59Z</time></trkpt><trkpt lat="45.927712438586575" lon="12.070618444643173"><ele>358.5</ele><time>2026-05-03T16:18:00Z</time></trkpt><trkpt lat="45.927818526702815" lon="12.070734043387594"><ele>360.75</ele><time>2026-05-03T16:18:01Z</time></trkpt><trkpt lat="45.92791754757293" lon="12.070843894932674"><ele>363.0</ele><time>2026-05-03T16:18:02Z</time></trkpt><trkpt lat="45.92801697707228" lon="12.070951280884993"><ele>363.0</ele><time>2026-05-03T16:18:03Z</time></trkpt><trkpt lat="45.92811653255589" lon="12.071055403624959"><ele>363.0</ele><time>2026-05-03T16:18:04Z</time></trkpt><trkpt lat="45.92821682648065" lon="12.071159831156816"><ele>363.0</ele><time>2026-05-03T16:18:05Z</time></trkpt><trkpt lat="45.92831205330024" lon="12.07126255245942"><ele>363.0</ele><time>2026-05-03T16:18:06Z</time></trkpt><trkpt lat="45.92840506162822" lon="12.071354020426362"><ele>366.0</ele><time>2026-05-03T16:18:07Z</time></trkpt><trkpt lat="45.92848270639729" lon="12.071497728749588"><ele>369.0</ele><time>2026-05-03T16:18:08Z</time></trkpt><trkpt lat="45.92853448695956" lon="12.071653249929339"><ele>372.0</ele><time>2026-05-03T16:18:09Z</time></trkpt><trkpt lat="45.92858127421093" lon="12.07183213625658"><ele>375.0</ele><time>2026-05-03T16:18:10Z</time></trkpt><trkpt lat="45.92864159477049" lon="12.071977147895655"><ele>375.0</ele><time>2026-05-03T16:18:11Z</time></trkpt><trkpt lat="45.92871151231159" lon="12.07208953002847"><ele>375.0</ele><time>2026-05-03T16:18:12Z</time></trkpt><trkpt lat="45.9287915356167" lon="12.072166413427496"><ele>375.0</ele><time>2026-05-03T16:18:13Z</time></trkpt><trkpt lat="45.92886059227603" lon="12.072172041841435"><ele>375.0</ele><time>2026-05-03T16:18:14Z</time></trkpt><trkpt lat="45.928925792027364" lon="12.072131697731855"><ele>375.0</ele><time>2026-05-03T16:18:15Z</time></trkpt><trkpt lat="45.92896386838479" lon="12.072029416332823"><ele>375.0</ele><time>2026-05-03T16:18:16Z</time></trkpt><trkpt lat="45.928973439711264" lon="12.07189599809578"><ele>375.0</ele><time>2026-05-03T16:18:17Z</time></trkpt><trkpt lat="45.928949585330315" lon="12.07175359624093"><ele>375.0</ele><time>2026-05-03T16:18:18Z</time></trkpt><trkpt lat="45.92894130288871" lon="12.071620813741156"><ele>375.0</ele><time>2026-05-03T16:18:19Z</time></trkpt><trkpt lat="45.92892730010206" lon="12.071477422903687"><ele>375.0</ele><time>2026-05-03T16:18:20Z</time></trkpt><trkpt lat="45.92891529736184" lon="12.071320335121689"><ele>375.0</ele><time>2026-05-03T16:18:21Z</time></trkpt><trkpt lat="45.92890111487642" lon="12.071185959957155"><ele>375.6</ele><time>2026-05-03T16:18:22Z</time></trkpt><trkpt lat="45.928901048745374" lon="12.071040472630692"><ele>376.2</ele><time>2026-05-03T16:18:23Z</time></trkpt><trkpt lat="45.92889092478544" lon="12.070912674647927"><ele>376.79999999999995</ele><time>2026-05-03T16:18:24Z</time></trkpt><trkpt lat="45.92888137613749" lon="12.070780063335633"><ele>377.4</ele><time>2026-05-03T16:18:25Z</time></trkpt><trkpt lat="45.92887038288948" lon="12.070642928166837"><ele>378.0</ele><time>2026-05-03T16:18:26Z</time></trkpt><trkpt lat="45.92885627667985" lon="12.070506818672786"><ele>378.4</ele><time>2026-05-03T16:18:27Z</time></trkpt><trkpt lat="45.928849098832735" lon="12.070365710819893"><ele>378.79999999999995</ele><time>2026-05-03T16:18:28Z</time></trkpt><trkpt lat="45.92884149189525" lon="12.07022363757153"><ele>379.2</ele><time>2026-05-03T16:18:29Z</time></trkpt><trkpt lat="45.92883761676632" lon="12.07008026592975"><ele>379.6</ele><time>2026-05-03T16:18:30Z</time></trkpt><trkpt lat="45.92882079427375" lon="12.069934143156107"><ele>380.0</ele><time>2026-05-03T16:18:31Z</time></trkpt><trkpt lat="45.928807274807056" lon="12.069797151149189"><ele>380.8</ele><time>2026-05-03T16:18:32Z</time></trkpt><trkpt lat="45.92878832279971" lon="12.069657397790252"><ele>381.6</ele><time>2026-05-03T16:18:33Z</time></trkpt><trkpt lat="45.92877265414735" lon="12.069506342298117"><ele>382.4</ele><time>2026-05-03T16:18:34Z</time></trkpt><trkpt lat="45.928764182738504" lon="12.069359471397993"><ele>383.2</ele><time>2026-05-03T16:18:35Z</time></trkpt><trkpt lat="45.92875628700565" lon="12.069235796049636"><ele>384.0</ele><time>2026-05-03T16:18:36Z</time></trkpt><trkpt lat="45.928765227670915" lon="12.069126705540624"><ele>385.5</ele><time>2026-05-03T16:18:37Z</time></trkpt><trkpt lat="45.92880582492439" lon="12.068997374196153"><ele>387.0</ele><time>2026-05-03T16:18:39Z</time></trkpt><trkpt lat="45.92888047490582" lon="12.06887882449613"><ele>388.5</ele><time>2026-05-03T16:18:41Z</time></trkpt><trkpt lat="45.92887866168098" lon="12.068772173707053"><ele>390.0</ele><time>2026-05-03T16:18:42Z</time></trkpt><trkpt lat="45.92886183259436" lon="12.068677433934788"><ele>391.5</ele><time>2026-05-03T16:18:43Z</time></trkpt><trkpt lat="45.92886272218729" lon="12.068569756898842"><ele>393.0</ele><time>2026-05-03T16:18:53.999Z</time></trkpt><trkpt lat="45.928876742828" lon="12.068439948991127"><ele>393.0</ele><time>2026-05-03T16:18:55.999Z</time></trkpt><trkpt lat="45.928774998074424" lon="12.068299058053634"><ele>393.0</ele><time>2026-05-03T16:18:57.999Z</time></trkpt><trkpt lat="45.928695389336916" lon="12.068194708712868"><ele>393.0</ele><time>2026-05-03T16:18:59.999Z</time></trkpt><trkpt lat="45.928622085816144" lon="12.068143358172005"><ele>393.0</ele><time>2026-05-03T16:19:00.999Z</time></trkpt><trkpt lat="45.92857067518198" lon="12.068050750885444"><ele>393.0</ele><time>2026-05-03T16:19:01.999Z</time></trkpt><trkpt lat="45.928511344675734" lon="12.067956285194889"><ele>394.0</ele><time>2026-05-03T16:19:02.999Z</time></trkpt><trkpt lat="45.92845671150225" lon="12.06787942202682"><ele>395.0</ele><time>2026-05-03T16:19:03.999Z</time></trkpt><trkpt lat="45.928391572575364" lon="12.067811803565464"><ele>396.0</ele><time>2026-05-03T16:19:04.999Z</time></trkpt><trkpt lat="45.92829690128021" lon="12.067777531050076"><ele>397.0</ele><time>2026-05-03T16:19:05.999Z</time></trkpt><trkpt lat="45.928202560556954" lon="12.067775346748467"><ele>398.0</ele><time>2026-05-03T16:19:06.999Z</time></trkpt><trkpt lat="45.92809533014378" lon="12.0678114800014"><ele>398.0</ele><time>2026-05-03T16:19:07.999Z</time></trkpt><trkpt lat="45.92800188373529" lon="12.067875088035501"><ele>398.0</ele><time>2026-05-03T16:19:08.999Z</time></trkpt><trkpt lat="45.92792569101355" lon="12.067970037700618"><ele>398.0</ele><time>2026-05-03T16:19:09.999Z</time></trkpt><trkpt lat="45.9278541848122" lon="12.068050415053369"><ele>398.0</ele><time>2026-05-03T16:19:10.999Z</time></trkpt><trkpt lat="45.927750310099064" lon="12.068068834081265"><ele>398.0</ele><time>2026-05-03T16:19:11.999Z</time></trkpt><trkpt lat="45.92765482393753" lon="12.068065796796338"><ele>396.4</ele><time>2026-05-03T16:19:12.999Z</time></trkpt><trkpt lat="45.92755130298568" lon="12.068043249157459"><ele>394.79999999999995</ele><time>2026-05-03T16:19:13.999Z</time></trkpt><trkpt lat="45.92743721012411" lon="12.06800617063412"><ele>393.2</ele><time>2026-05-03T16:19:14.999Z</time></trkpt><trkpt lat="45.92733515875565" lon="12.067939083064356"><ele>391.6</ele><time>2026-05-03T16:19:15.999Z</time></trkpt><trkpt lat="45.92723708772394" lon="12.06786617600275"><ele>390.0</ele><time>2026-05-03T16:19:16.999Z</time></trkpt><trkpt lat="45.927135722483456" lon="12.067800101416267"><ele>390.0</ele><time>2026-05-03T16:19:17.999Z</time></trkpt><trkpt lat="45.92706328952251" lon="12.067702922354464"><ele>390.0</ele><time>2026-05-03T16:19:18.999Z</time></trkpt><trkpt lat="45.927011149579535" lon="12.067581750742843"><ele>390.0</ele><time>2026-05-03T16:19:19.999Z</time></trkpt><trkpt lat="45.92699047392652" lon="12.067441850210878"><ele>390.0</ele><time>2026-05-03T16:19:20.999Z</time></trkpt><trkpt lat="45.927012442491666" lon="12.067279875652483"><ele>390.0</ele><time>2026-05-03T16:19:21.999Z</time></trkpt><trkpt lat="45.92708422840823" lon="12.067175806672214"><ele>390.75</ele><time>2026-05-03T16:19:22.999Z</time></trkpt><trkpt lat="45.92714914469151" lon="12.067097044545145"><ele>391.5</ele><time>2026-05-03T16:19:23.999Z</time></trkpt><trkpt lat="45.92723886921336" lon="12.066985725831776"><ele>392.25</ele><time>2026-05-03T16:19:24.999Z</time></trkpt><trkpt lat="45.92733599921607" lon="12.066851169501431"><ele>393.0</ele><time>2026-05-03T16:19:25.999Z</time></trkpt><trkpt lat="45.92744151675009" lon="12.066739108595202"><ele>396.0</ele><time>2026-05-03T16:19:26.999Z</time></trkpt><trkpt lat="45.92749220593664" lon="12.066602092049024"><ele>399.0</ele><time>2026-05-03T16:19:27.999Z</time></trkpt><trkpt lat="45.92751430015098" lon="12.066435963286748"><ele>402.0</ele><time>2026-05-03T16:19:28.999Z</time></trkpt><trkpt lat="45.927475598892734" lon="12.066255825916961"><ele>405.0</ele><time>2026-05-03T16:19:29.999Z</time></trkpt><trkpt lat="45.92740402844407" lon="12.066110379459237"><ele>405.0</ele><time>2026-05-03T16:19:30.999Z</time></trkpt><trkpt lat="45.927309881973144" lon="12.065992632510598"><ele>405.0</ele><time>2026-05-03T16:19:31.999Z</time></trkpt><trkpt lat="45.9272130750374" lon="12.065888372826494"><ele>405.0</ele><time>2026-05-03T16:19:32.999Z</time></trkpt><trkpt lat="45.92712354038429" lon="12.065782309402321"><ele>405.0</ele><time>2026-05-03T16:19:33.999Z</time></trkpt><trkpt lat="45.92704537664046" lon="12.065678143372123"><ele>403.6</ele><time>2026-05-03T16:19:34.999Z</time></trkpt><trkpt lat="45.9269931746436" lon="12.065548434005324"><ele>402.2</ele><time>2026-05-03T16:19:35.999Z</time></trkpt><trkpt lat="45.92693871264035" lon="12.06541437537442"><ele>400.79999999999995</ele><time>2026-05-03T16:19:36.999Z</time></trkpt><trkpt lat="45.926895667887464" lon="12.065300001258954"><ele>399.4</ele><time>2026-05-03T16:19:37.999Z</time></trkpt><trkpt lat="45.92678955886787" lon="12.065237321913324"><ele>398.0</ele><time>2026-05-03T16:19:38.999Z</time></trkpt><trkpt lat="45.92666379637726" lon="12.065226425747328"><ele>398.0</ele><time>2026-05-03T16:19:39.999Z</time></trkpt><trkpt lat="45.92655390591509" lon="12.06521451063576"><ele>398.0</ele><time>2026-05-03T16:19:40.999Z</time></trkpt><trkpt lat="45.92645016544684" lon="12.065153037409528"><ele>398.0</ele><time>2026-05-03T16:19:41.999Z</time></trkpt><trkpt lat="45.92638390764424" lon="12.065040522049035"><ele>398.0</ele><time>2026-05-03T16:19:42.999Z</time></trkpt><trkpt lat="45.926342987351916" lon="12.064905222579439"><ele>398.0</ele><time>2026-05-03T16:19:43.999Z</time></trkpt><trkpt lat="45.92631726462519" lon="12.06474909935639"><ele>403.75</ele><time>2026-05-03T16:19:44.999Z</time></trkpt><trkpt lat="45.92628968026434" lon="12.064574226381373"><ele>409.5</ele><time>2026-05-03T16:19:45.999Z</time></trkpt><trkpt lat="45.92627845796877" lon="12.064376945060152"><ele>415.25</ele><time>2026-05-03T16:19:46.999Z</time></trkpt><trkpt lat="45.92625730124884" lon="12.064199382505269"><ele>421.0</ele><time>2026-05-03T16:19:47.999Z</time></trkpt><trkpt lat="45.926236377581" lon="12.064030543546343"><ele>422.6</ele><time>2026-05-03T16:19:48.999Z</time></trkpt><trkpt lat="45.92621607267811" lon="12.063869817634119"><ele>424.20000000000005</ele><time>2026-05-03T16:19:49.999Z</time></trkpt><trkpt lat="45.92618302707096" lon="12.063705648566366"><ele>425.79999999999995</ele><time>2026-05-03T16:19:50.999Z</time></trkpt><trkpt lat="45.926167704022504" lon="12.063562886199254"><ele>427.4</ele><time>2026-05-03T16:19:51.999Z</time></trkpt><trkpt lat="45.92615903299398" lon="12.06342727738405"><ele>429.0</ele><time>2026-05-03T16:19:52.999Z</time></trkpt><trkpt lat="45.92614165491742" lon="12.063295389848953"><ele>429.0</ele><time>2026-05-03T16:19:54Z</time></trkpt><trkpt lat="45.92610730093325" lon="12.063169815894316"><ele>429.0</ele><time>2026-05-03T16:19:55Z</time></trkpt><trkpt lat="45.926039122191256" lon="12.063079800589769"><ele>429.0</ele><time>2026-05-03T16:19:56Z</time></trkpt><trkpt lat="45.925962219322855" lon="12.063016568364212"><ele>429.0</ele><time>2026-05-03T16:19:57Z</time></trkpt><trkpt lat="45.925840623885804" lon="12.063063421929925"><ele>429.0</ele><time>2026-05-03T16:19:58Z</time></trkpt><trkpt lat="45.92576036869619" lon="12.063123909639383"><ele>429.0</ele><time>2026-05-03T16:19:59Z</time></trkpt><trkpt lat="45.92567484631641" lon="12.063159061978316"><ele>429.0</ele><time>2026-05-03T16:20:00Z</time></trkpt><trkpt lat="45.92557942877524" lon="12.063134172632353"><ele>429.0</ele><time>2026-05-03T16:20:01Z</time></trkpt><trkpt lat="45.925494652080204" lon="12.063086930782312"><ele>429.0</ele><time>2026-05-03T16:20:02Z</time></trkpt><trkpt lat="45.92541608187731" lon="12.063007442942824"><ele>429.0</ele><time>2026-05-03T16:20:03Z</time></trkpt><trkpt lat="45.925351927985474" lon="12.062914731324012"><ele>429.0</ele><time>2026-05-03T16:20:04Z</time></trkpt><trkpt lat="45.925286930036805" lon="12.062812301194498"><ele>429.0</ele><time>2026-05-03T16:20:05Z</time></trkpt><trkpt lat="45.92522311835612" lon="12.06272802575437"><ele>429.0</ele><time>2026-05-03T16:20:06Z</time></trkpt><trkpt lat="45.925156041759614" lon="12.062644959912033"><ele>429.0</ele><time>2026-05-03T16:20:07Z</time></trkpt><trkpt lat="45.925089011538994" lon="12.062577019672064"><ele>429.0</ele><time>2026-05-03T16:20:08Z</time></trkpt><trkpt lat="45.925001918787075" lon="12.0625432708349"><ele>429.0</ele><time>2026-05-03T16:20:09Z</time></trkpt><trkpt lat="45.92491649500168" lon="12.062482775890478"><ele>430.79999999999995</ele><time>2026-05-03T16:20:10Z</time></trkpt><trkpt lat="45.92482131971917" lon="12.062454136664197"><ele>432.59999999999997</ele><time>2026-05-03T16:20:11Z</time></trkpt><trkpt lat="45.92471152746017" lon="12.062461541725837"><ele>434.4</ele><time>2026-05-03T16:20:12Z</time></trkpt><trkpt lat="45.92460502536706" lon="12.062425294795597"><ele>436.2</ele><time>2026-05-03T16:20:13Z</time></trkpt><trkpt lat="45.92450866605191" lon="12.062409750287557"><ele>438.0</ele><time>2026-05-03T16:20:14Z</time></trkpt><trkpt lat="45.92441509204459" lon="12.06237458721573"><ele>438.0</ele><time>2026-05-03T16:20:15Z</time></trkpt><trkpt lat="45.924337987264224" lon="12.062323661126777"><ele>437.99999999999994</ele><time>2026-05-03T16:20:16Z</time></trkpt><trkpt lat="45.92430369385023" lon="12.06217634001627"><ele>437.99999999999994</ele><time>2026-05-03T16:20:17Z</time></trkpt><trkpt lat="45.924270420478145" lon="12.062029835663171"><ele>438.0</ele><time>2026-05-03T16:20:18Z</time></trkpt><trkpt lat="45.92428598327308" lon="12.061893366382327"><ele>438.0</ele><time>2026-05-03T16:20:19Z</time></trkpt><trkpt lat="45.92433074017722" lon="12.061707704989997"><ele>439.75</ele><time>2026-05-03T16:20:20Z</time></trkpt><trkpt lat="45.92438517338702" lon="12.061537090526446"><ele>441.5</ele><time>2026-05-03T16:20:21Z</time></trkpt><trkpt lat="45.924430585079485" lon="12.061395170891515"><ele>443.25</ele><time>2026-05-03T16:20:22Z</time></trkpt><trkpt lat="45.92443240027061" lon="12.061268168958405"><ele>445.0</ele><time>2026-05-03T16:20:23Z</time></trkpt><trkpt lat="45.92434576566897" lon="12.061138549955176"><ele>445.0</ele><time>2026-05-03T16:20:24Z</time></trkpt><trkpt lat="45.924261205756444" lon="12.061044099171482"><ele>445.0</ele><time>2026-05-03T16:20:25Z</time></trkpt><trkpt lat="45.92413994513816" lon="12.061026867885294"><ele>445.0</ele><time>2026-05-03T16:20:26Z</time></trkpt><trkpt lat="45.924025301178105" lon="12.061111910529199"><ele>445.0</ele><time>2026-05-03T16:20:27Z</time></trkpt><trkpt lat="45.923929538443126" lon="12.061224576740365"><ele>441.25</ele><time>2026-05-03T16:20:28Z</time></trkpt><trkpt lat="45.92383472158692" lon="12.061310561709625"><ele>437.5</ele><time>2026-05-03T16:20:29Z</time></trkpt><trkpt lat="45.92373675628084" lon="12.061407234630133"><ele>433.75</ele><time>2026-05-03T16:20:30Z</time></trkpt><trkpt lat="45.923650704877076" lon="12.061506767137361"><ele>430.0</ele><time>2026-05-03T16:20:31Z</time></trkpt><trkpt lat="45.92357382203419" lon="12.061659381028708"><ele>430.6</ele><time>2026-05-03T16:20:32Z</time></trkpt><trkpt lat="45.92349002871147" lon="12.061752953630089"><ele>431.2</ele><time>2026-05-03T16:20:33Z</time></trkpt><trkpt lat="45.92340100113754" lon="12.0618740009831"><ele>431.79999999999995</ele><time>2026-05-03T16:20:34Z</time></trkpt><trkpt lat="45.92331561156922" lon="12.06195944387417"><ele>432.4</ele><time>2026-05-03T16:20:35Z</time></trkpt><trkpt lat="45.923242235013795" lon="12.062054135205626"><ele>433.0</ele><time>2026-05-03T16:20:36Z</time></trkpt><trkpt lat="45.92315788245937" lon="12.062133125959212"><ele>433.0</ele><time>2026-05-03T16:20:37Z</time></trkpt><trkpt lat="45.923079185433686" lon="12.06222736216099"><ele>433.0</ele><time>2026-05-03T16:20:38Z</time></trkpt><trkpt lat="45.922987121675924" lon="12.062339399744545"><ele>433.0</ele><time>2026-05-03T16:20:39Z</time></trkpt><trkpt lat="45.922837262856994" lon="12.06230753584236"><ele>433.0</ele><time>2026-05-03T16:20:40Z</time></trkpt><trkpt lat="45.922786596656735" lon="12.062464369508884"><ele>427.5</ele><time>2026-05-03T16:20:41Z</time></trkpt><trkpt lat="45.9226854295386" lon="12.062512591655281"><ele>422.0</ele><time>2026-05-03T16:20:42Z</time></trkpt><trkpt lat="45.92260377517901" lon="12.062593739952163"><ele>416.5</ele><time>2026-05-03T16:20:43Z</time></trkpt><trkpt lat="45.92256625914405" lon="12.062775497421082"><ele>411.0</ele><time>2026-05-03T16:20:44Z</time></trkpt><trkpt lat="45.92259027882466" lon="12.062975188478712"><ele>411.6</ele><time>2026-05-03T16:20:45Z</time></trkpt><trkpt lat="45.92251914788856" lon="12.063078952764657"><ele>412.20000000000005</ele><time>2026-05-03T16:20:46Z</time></trkpt><trkpt lat="45.92246021522512" lon="12.063175120970344"><ele>412.79999999999995</ele><time>2026-05-03T16:20:47Z</time></trkpt><trkpt lat="45.922386716209765" lon="12.063235075978369"><ele>413.4</ele><time>2026-05-03T16:20:48Z</time></trkpt><trkpt lat="45.9223027518562" lon="12.063299068974366"><ele>414.0</ele><time>2026-05-03T16:20:49Z</time></trkpt><trkpt lat="45.92221356584599" lon="12.063383175087058"><ele>414.0</ele><time>2026-05-03T16:20:50Z</time></trkpt><trkpt lat="45.92211700405401" lon="12.063436669947553"><ele>414.0</ele><time>2026-05-03T16:20:51Z</time></trkpt><trkpt lat="45.92202564045961" lon="12.063481973442391"><ele>414.0</ele><time>2026-05-03T16:20:52Z</time></trkpt><trkpt lat="45.92193452444932" lon="12.063492972849053"><ele>414.0</ele><time>2026-05-03T16:20:53Z</time></trkpt><trkpt lat="45.92183002907979" lon="12.063417134136841"><ele>414.0</ele><time>2026-05-03T16:20:54Z</time></trkpt><trkpt lat="45.92175625771454" lon="12.063346399468827"><ele>414.4</ele><time>2026-05-03T16:20:55Z</time></trkpt><trkpt lat="45.92172045850851" lon="12.063215782825754"><ele>414.79999999999995</ele><time>2026-05-03T16:20:56Z</time></trkpt><trkpt lat="45.921689155495514" lon="12.063081637412347"><ele>415.20000000000005</ele><time>2026-05-03T16:20:56.999Z</time></trkpt><trkpt lat="45.92165381290409" lon="12.062931690822056"><ele>415.6</ele><time>2026-05-03T16:20:57.999Z</time></trkpt><trkpt lat="45.92163176996566" lon="12.062777506639954"><ele>416.0</ele><time>2026-05-03T16:20:58.999Z</time></trkpt><trkpt lat="45.92160654689631" lon="12.062623015280108"><ele>416.0</ele><time>2026-05-03T16:20:59.999Z</time></trkpt><trkpt lat="45.92158004898494" lon="12.062483332947775"><ele>416.0</ele><time>2026-05-03T16:21:00.999Z</time></trkpt><trkpt lat="45.92155200285664" lon="12.062347350731107"><ele>416.0</ele><time>2026-05-03T16:21:01.999Z</time></trkpt><trkpt lat="45.92152709427766" lon="12.062221990760847"><ele>416.0</ele><time>2026-05-03T16:21:02.999Z</time></trkpt><trkpt lat="45.92150689144291" lon="12.062091418002224"><ele>416.0</ele><time>2026-05-03T16:21:03.999Z</time></trkpt><trkpt lat="45.92151678667003" lon="12.061983354338686"><ele>419.20000000000005</ele><time>2026-05-03T16:21:04.999Z</time></trkpt><trkpt lat="45.92152592688494" lon="12.06185456424728"><ele>422.40000000000003</ele><time>2026-05-03T16:21:05.999Z</time></trkpt><trkpt lat="45.92152587650533" lon="12.061711311608192"><ele>425.6</ele><time>2026-05-03T16:21:06.999Z</time></trkpt><trkpt lat="45.92150235360177" lon="12.06157083327088"><ele>428.8</ele><time>2026-05-03T16:21:07.999Z</time></trkpt><trkpt lat="45.92143476722475" lon="12.061447641941626"><ele>432.0</ele><time>2026-05-03T16:21:08.999Z</time></trkpt><trkpt lat="45.92135770639173" lon="12.061338842205348"><ele>434.0</ele><time>2026-05-03T16:21:09.999Z</time></trkpt><trkpt lat="45.921270139230174" lon="12.061266070866461"><ele>436.00000000000006</ele><time>2026-05-03T16:21:10.999Z</time></trkpt><trkpt lat="45.92116863201613" lon="12.06123127672364"><ele>438.00000000000006</ele><time>2026-05-03T16:21:11.999Z</time></trkpt><trkpt lat="45.92105864441314" lon="12.061269460031811"><ele>440.0</ele><time>2026-05-03T16:21:12.999Z</time></trkpt><trkpt lat="45.92094691927346" lon="12.06135405849187"><ele>442.0</ele><time>2026-05-03T16:21:13.999Z</time></trkpt><trkpt lat="45.92084313765759" lon="12.061446596657818"><ele>442.0</ele><time>2026-05-03T16:21:14.999Z</time></trkpt><trkpt lat="45.92074489235827" lon="12.061542265969953"><ele>442.0</ele><time>2026-05-03T16:21:15.999Z</time></trkpt><trkpt lat="45.92065993439159" lon="12.061660464158752"><ele>442.0</ele><time>2026-05-03T16:21:16.999Z</time></trkpt><trkpt lat="45.92060563491852" lon="12.061814290271315"><ele>442.0</ele><time>2026-05-03T16:21:17.999Z</time></trkpt><trkpt lat="45.9205571530658" lon="12.061971789199713"><ele>437.0</ele><time>2026-05-03T16:21:18.999Z</time></trkpt><trkpt lat="45.92052366924554" lon="12.062131153021848"><ele>432.0</ele><time>2026-05-03T16:21:19.999Z</time></trkpt><trkpt lat="45.92046663551203" lon="12.062270637011977"><ele>427.0</ele><time>2026-05-03T16:21:20.999Z</time></trkpt><trkpt lat="45.92039739990976" lon="12.062410398544557"><ele>422.0</ele><time>2026-05-03T16:21:21.999Z</time></trkpt><trkpt lat="45.920308180480795" lon="12.062521899650397"><ele>423.75</ele><time>2026-05-03T16:21:22.999Z</time></trkpt><trkpt lat="45.92020327701848" lon="12.062643879529695"><ele>425.5</ele><time>2026-05-03T16:21:23.999Z</time></trkpt><trkpt lat="45.92010359059723" lon="12.06275564893157"><ele>427.25</ele><time>2026-05-03T16:21:24.999Z</time></trkpt><trkpt lat="45.92000462421528" lon="12.062867256150726"><ele>429.0</ele><time>2026-05-03T16:21:25.999Z</time></trkpt><trkpt lat="45.919915985548165" lon="12.06297888174511"><ele>429.0</ele><time>2026-05-03T16:21:26.999Z</time></trkpt><trkpt lat="45.919813305721945" lon="12.063079378000856"><ele>429.0</ele><time>2026-05-03T16:21:27.999Z</time></trkpt><trkpt lat="45.919705047911236" lon="12.06312947663453"><ele>429.0</ele><time>2026-05-03T16:21:28.999Z</time></trkpt><trkpt lat="45.919603514310715" lon="12.063126260623676"><ele>429.0</ele><time>2026-05-03T16:21:29.999Z</time></trkpt><trkpt lat="45.91951857002371" lon="12.063095008332454"><ele>429.0</ele><time>2026-05-03T16:21:30.999Z</time></trkpt><trkpt lat="45.91943160308886" lon="12.063021190188799"><ele>429.0</ele><time>2026-05-03T16:21:31.999Z</time></trkpt><trkpt lat="45.919310048413536" lon="12.062971107541978"><ele>429.0</ele><time>2026-05-03T16:21:32.999Z</time></trkpt><trkpt lat="45.91920617248847" lon="12.062905050195873"><ele>429.0</ele><time>2026-05-03T16:21:33.999Z</time></trkpt><trkpt lat="45.91910725743964" lon="12.0628326240241"><ele>429.0</ele><time>2026-05-03T16:21:34.999Z</time></trkpt><trkpt lat="45.91901701181689" lon="12.062759405622375"><ele>428.2</ele><time>2026-05-03T16:21:35.999Z</time></trkpt><trkpt lat="45.918920351653824" lon="12.062723968891223"><ele>427.4</ele><time>2026-05-03T16:21:36.999Z</time></trkpt><trkpt lat="45.9188264552665" lon="12.062666160056983"><ele>426.6</ele><time>2026-05-03T16:21:37.999Z</time></trkpt><trkpt lat="45.9187303047576" lon="12.062613197047353"><ele>425.8</ele><time>2026-05-03T16:21:38.999Z</time></trkpt><trkpt lat="45.9186301359261" lon="12.062547348532144"><ele>425.0</ele><time>2026-05-03T16:21:39.999Z</time></trkpt><trkpt lat="45.918532434236994" lon="12.062494961004056"><ele>427.0</ele><time>2026-05-03T16:21:40.999Z</time></trkpt><trkpt lat="45.91843443265548" lon="12.062411896075432"><ele>429.0</ele><time>2026-05-03T16:21:41.999Z</time></trkpt><trkpt lat="45.918325851715345" lon="12.062368979257005"><ele>431.0</ele><time>2026-05-03T16:21:42.999Z</time></trkpt><trkpt lat="45.918243317258366" lon="12.062286542840255"><ele>433.0</ele><time>2026-05-03T16:21:43.999Z</time></trkpt><trkpt lat="45.91814759876317" lon="12.06222149592031"><ele>435.0</ele><time>2026-05-03T16:21:44.999Z</time></trkpt><trkpt lat="45.9180535554415" lon="12.062158404256305"><ele>435.0</ele><time>2026-05-03T16:21:45.999Z</time></trkpt><trkpt lat="45.91794683019151" lon="12.062150625919596"><ele>435.0</ele><time>2026-05-03T16:21:46.998Z</time></trkpt><trkpt lat="45.91783648736622" lon="12.062193618373513"><ele>435.0</ele><time>2026-05-03T16:21:47.998Z</time></trkpt><trkpt lat="45.91772510856973" lon="12.06229907256571"><ele>435.0</ele><time>2026-05-03T16:21:48.998Z</time></trkpt><trkpt lat="45.91763586892811" lon="12.062422132654644"><ele>424.5</ele><time>2026-05-03T16:21:49.998Z</time></trkpt><trkpt lat="45.9175449890311" lon="12.062539575108788"><ele>414.0</ele><time>2026-05-03T16:21:50.998Z</time></trkpt><trkpt lat="45.917449007228996" lon="12.062578412874032"><ele>403.5</ele><time>2026-05-03T16:21:51.998Z</time></trkpt><trkpt lat="45.91733798721239" lon="12.062512127575921"><ele>393.0</ele><time>2026-05-03T16:21:52.998Z</time></trkpt><trkpt lat="45.917214853572546" lon="12.062475360236649"><ele>397.0</ele><time>2026-05-03T16:21:53.998Z</time></trkpt><trkpt lat="45.91709413095228" lon="12.062441478828633"><ele>401.0</ele><time>2026-05-03T16:21:54.998Z</time></trkpt><trkpt lat="45.91698424219228" lon="12.062395330050341"><ele>405.0</ele><time>2026-05-03T16:21:55.998Z</time></trkpt><trkpt lat="45.91688115365592" lon="12.062327610344957"><ele>409.0</ele><time>2026-05-03T16:21:56.998Z</time></trkpt><trkpt lat="45.91681555409002" lon="12.062204259540245"><ele>409.0</ele><time>2026-05-03T16:21:57.998Z</time></trkpt><trkpt lat="45.91680322953692" lon="12.062031984077102"><ele>409.0</ele><time>2026-05-03T16:21:58.998Z</time></trkpt><trkpt lat="45.916819384806686" lon="12.061866128812554"><ele>409.0</ele><time>2026-05-03T16:22:00Z</time></trkpt><trkpt lat="45.91681383459047" lon="12.061689131296731"><ele>409.0</ele><time>2026-05-03T16:22:01Z</time></trkpt><trkpt lat="45.91682417568798" lon="12.061508905928543"><ele>411.25</ele><time>2026-05-03T16:22:02Z</time></trkpt><trkpt lat="45.9168363833698" lon="12.061338538042765"><ele>413.5</ele><time>2026-05-03T16:22:03Z</time></trkpt><trkpt lat="45.91684572582706" lon="12.061155610452612"><ele>415.75</ele><time>2026-05-03T16:22:04Z</time></trkpt><trkpt lat="45.916857574735836" lon="12.06099444089024"><ele>418.0</ele><time>2026-05-03T16:22:05Z</time></trkpt><trkpt lat="45.916869224110854" lon="12.060825774881891"><ele>420.79999999999995</ele><time>2026-05-03T16:22:06Z</time></trkpt><trkpt lat="45.916877694544944" lon="12.060661521601636"><ele>423.6</ele><time>2026-05-03T16:22:07Z</time></trkpt><trkpt lat="45.91687121141224" lon="12.060511322789347"><ele>426.40000000000003</ele><time>2026-05-03T16:22:08Z</time></trkpt><trkpt lat="45.91683603693678" lon="12.060364156944681"><ele>429.20000000000005</ele><time>2026-05-03T16:22:09Z</time></trkpt><trkpt lat="45.916779453606416" lon="12.060210210798688"><ele>432.0</ele><time>2026-05-03T16:22:10Z</time></trkpt><trkpt lat="45.91673851932729" lon="12.060003048193064"><ele>425.0</ele><time>2026-05-03T16:22:11Z</time></trkpt><trkpt lat="45.91655247901122" lon="12.060029196742732"><ele>418.0</ele><time>2026-05-03T16:22:12Z</time></trkpt><trkpt lat="45.91642434742229" lon="12.059965087749093"><ele>411.0</ele><time>2026-05-03T16:22:13Z</time></trkpt><trkpt lat="45.91630626478533" lon="12.059888018543958"><ele>411.0</ele><time>2026-05-03T16:22:14Z</time></trkpt><trkpt lat="45.91616788522232" lon="12.05980556473509"><ele>411.0</ele><time>2026-05-03T16:22:15Z</time></trkpt><trkpt lat="45.91605376869013" lon="12.059723917340287"><ele>411.0</ele><time>2026-05-03T16:22:16Z</time></trkpt><trkpt lat="45.915928565197994" lon="12.059655891468443"><ele>411.0</ele><time>2026-05-03T16:22:17Z</time></trkpt><trkpt lat="45.915837107124325" lon="12.059578817217771"><ele>403.25</ele><time>2026-05-03T16:22:18Z</time></trkpt><trkpt lat="45.91571957487146" lon="12.059503151999849"><ele>395.5</ele><time>2026-05-03T16:22:19Z</time></trkpt><trkpt lat="45.91560174084981" lon="12.059435563079399"><ele>387.75</ele><time>2026-05-03T16:22:20Z</time></trkpt><trkpt lat="45.915483005534995" lon="12.059420326133326"><ele>380.0</ele><time>2026-05-03T16:22:21Z</time></trkpt><trkpt lat="45.91536369286304" lon="12.059436726116743"><ele>380.0</ele><time>2026-05-03T16:22:22Z</time></trkpt><trkpt lat="45.91526910104651" lon="12.059455648960194"><ele>380.0</ele><time>2026-05-03T16:22:23Z</time></trkpt><trkpt lat="45.91514274951809" lon="12.059476628335698"><ele>380.0</ele><time>2026-05-03T16:22:24Z</time></trkpt><trkpt lat="45.91503150188319" lon="12.0594377408197"><ele>380.0</ele><time>2026-05-03T16:22:25Z</time></trkpt><trkpt lat="45.91494130900069" lon="12.059364567178386"><ele>380.0</ele><time>2026-05-03T16:22:26Z</time></trkpt><trkpt lat="45.91486739602314" lon="12.059267373739232"><ele>376.6666666666667</ele><time>2026-05-03T16:22:27Z</time></trkpt><trkpt lat="45.91481000016484" lon="12.059163988472863"><ele>373.33333333333337</ele><time>2026-05-03T16:22:28Z</time></trkpt><trkpt lat="45.91478775448805" lon="12.05905478270855"><ele>370.0</ele><time>2026-05-03T16:22:29Z</time></trkpt><trkpt lat="45.91480726235226" lon="12.058932945840308"><ele>366.6666666666667</ele><time>2026-05-03T16:22:30Z</time></trkpt><trkpt lat="45.914869506242034" lon="12.058841133248473"><ele>363.3333333333333</ele><time>2026-05-03T16:22:31Z</time></trkpt><trkpt lat="45.91493492375767" lon="12.058791943484353"><ele>360.0</ele><time>2026-05-03T16:22:32Z</time></trkpt><trkpt lat="45.91505363749523" lon="12.058606006483691"><ele>365.25</ele><time>2026-05-03T16:22:33Z</time></trkpt><trkpt lat="45.91509244281808" lon="12.05845035655963"><ele>370.5</ele><time>2026-05-03T16:22:34Z</time></trkpt><trkpt lat="45.915103567897496" lon="12.05826658114045"><ele>375.75</ele><time>2026-05-03T16:22:35Z</time></trkpt><trkpt lat="45.915111495207555" lon="12.058090691247607"><ele>381.0</ele><time>2026-05-03T16:22:36Z</time></trkpt><trkpt lat="45.91510811633598" lon="12.057910151214475"><ele>381.0</ele><time>2026-05-03T16:22:37Z</time></trkpt><trkpt lat="45.915106210699676" lon="12.057737228166037"><ele>381.0</ele><time>2026-05-03T16:22:38Z</time></trkpt><trkpt lat="45.915099168876054" lon="12.057574870614408"><ele>381.0</ele><time>2026-05-03T16:22:39Z</time></trkpt><trkpt lat="45.91511529563692" lon="12.057399536933477"><ele>381.0</ele><time>2026-05-03T16:22:40Z</time></trkpt><trkpt lat="45.9151199847012" lon="12.05724451498739"><ele>381.20000000000005</ele><time>2026-05-03T16:22:41Z</time></trkpt><trkpt lat="45.915119474989545" lon="12.057093303898396"><ele>381.40000000000003</ele><time>2026-05-03T16:22:42Z</time></trkpt><trkpt lat="45.915080296034475" lon="12.056986951782793"><ele>381.6</ele><time>2026-05-03T16:22:43Z</time></trkpt><trkpt lat="45.91501170589551" lon="12.056870806577802"><ele>381.8</ele><time>2026-05-03T16:22:44Z</time></trkpt><trkpt lat="45.91491867602878" lon="12.056782446369986"><ele>382.0</ele><time>2026-05-03T16:22:45Z</time></trkpt><trkpt lat="45.91482954728731" lon="12.056675352363435"><ele>373.75</ele><time>2026-05-03T16:22:46Z</time></trkpt><trkpt lat="45.91472817982414" lon="12.056576509138013"><ele>365.5</ele><time>2026-05-03T16:22:47Z</time></trkpt><trkpt lat="45.914631815107604" lon="12.056481356858031"><ele>357.25</ele><time>2026-05-03T16:22:48Z</time></trkpt><trkpt lat="45.914527795421755" lon="12.0563782271002"><ele>349.0</ele><time>2026-05-03T16:22:49Z</time></trkpt><trkpt lat="45.914451043612914" lon="12.056301214305691"><ele>349.0</ele><time>2026-05-03T16:22:50Z</time></trkpt><trkpt lat="45.914385834736436" lon="12.056230681598366"><ele>349.0</ele><time>2026-05-03T16:22:51Z</time></trkpt><trkpt lat="45.91433122538391" lon="12.05606120158323"><ele>349.0</ele><time>2026-05-03T16:22:53Z</time></trkpt><trkpt lat="45.91433745044718" lon="12.055959901380913"><ele>349.0</ele><time>2026-05-03T16:22:54Z</time></trkpt><trkpt lat="45.9144070386152" lon="12.055872388620887"><ele>349.0</ele><time>2026-05-03T16:22:55Z</time></trkpt><trkpt lat="45.91450399595059" lon="12.055814296003906"><ele>349.0</ele><time>2026-05-03T16:22:56Z</time></trkpt><trkpt lat="45.91460229443795" lon="12.05580092183172"><ele>349.0</ele><time>2026-05-03T16:22:57Z</time></trkpt><trkpt lat="45.91469818771525" lon="12.055804534247976"><ele>349.0</ele><time>2026-05-03T16:22:57.999Z</time></trkpt><trkpt lat="45.914788321689855" lon="12.055781194252685"><ele>349.0</ele><time>2026-05-03T16:22:58.999Z</time></trkpt><trkpt lat="45.91486973309347" lon="12.055744082065033"><ele>349.0</ele><time>2026-05-03T16:22:59.999Z</time></trkpt><trkpt lat="45.91493237213407" lon="12.055664337072367"><ele>347.66666666666663</ele><time>2026-05-03T16:23:00.999Z</time></trkpt><trkpt lat="45.914963994985925" lon="12.055550981374424"><ele>346.3333333333333</ele><time>2026-05-03T16:23:01.999Z</time></trkpt><trkpt lat="45.914971227061386" lon="12.055428531675094"><ele>345.0</ele><time>2026-05-03T16:23:02.999Z</time></trkpt><trkpt lat="45.91494293974746" lon="12.055317058007457"><ele>343.6666666666667</ele><time>2026-05-03T16:23:03.999Z</time></trkpt><trkpt lat="45.914907746922296" lon="12.055206055273898"><ele>342.33333333333337</ele><time>2026-05-03T16:23:04.999Z</time></trkpt><trkpt lat="45.914878990481995" lon="12.05508993988106"><ele>341.0</ele><time>2026-05-03T16:23:05.999Z</time></trkpt><trkpt lat="45.91485239212468" lon="12.054978312419824"><ele>340.5</ele><time>2026-05-03T16:23:06.999Z</time></trkpt><trkpt lat="45.91482717534003" lon="12.05486488322248"><ele>340.0</ele><time>2026-05-03T16:23:07.999Z</time></trkpt><trkpt lat="45.91480182826064" lon="12.054745619059258"><ele>339.5</ele><time>2026-05-03T16:23:08.999Z</time></trkpt><trkpt lat="45.91478296414634" lon="12.054632949287592"><ele>339.0</ele><time>2026-05-03T16:23:09.999Z</time></trkpt><trkpt lat="45.91476196320434" lon="12.054513991150758"><ele>338.5</ele><time>2026-05-03T16:23:10.999Z</time></trkpt><trkpt lat="45.91474289759524" lon="12.054396468224356"><ele>338.0</ele><time>2026-05-03T16:23:11.999Z</time></trkpt><trkpt lat="45.9147210563256" lon="12.05420554783221"><ele>339.1666666666667</ele><time>2026-05-03T16:23:13.999Z</time></trkpt><trkpt lat="45.91468928558622" lon="12.054092757003053"><ele>340.33333333333337</ele><time>2026-05-03T16:23:14.999Z</time></trkpt><trkpt lat="45.91465332855915" lon="12.053994161375478"><ele>341.5</ele><time>2026-05-03T16:23:15.999Z</time></trkpt><trkpt lat="45.914600862909545" lon="12.053896018034003"><ele>342.6666666666667</ele><time>2026-05-03T16:23:16.999Z</time></trkpt><trkpt lat="45.914543523953576" lon="12.053799820595973"><ele>343.8333333333333</ele><time>2026-05-03T16:23:17.999Z</time></trkpt><trkpt lat="45.91448423490118" lon="12.0536933884157"><ele>345.0</ele><time>2026-05-03T16:23:18.999Z</time></trkpt><trkpt lat="45.91441555758091" lon="12.053576815962243"><ele>345.0</ele><time>2026-05-03T16:23:19.999Z</time></trkpt><trkpt lat="45.914350706833204" lon="12.053450296684273"><ele>345.0</ele><time>2026-05-03T16:23:20.999Z</time></trkpt><trkpt lat="45.91428023998454" lon="12.053322234990446"><ele>345.0</ele><time>2026-05-03T16:23:21.999Z</time></trkpt><trkpt lat="45.91421140969671" lon="12.053191393331753"><ele>345.0</ele><time>2026-05-03T16:23:22.999Z</time></trkpt><trkpt lat="45.91414413451248" lon="12.053064054753094"><ele>345.0</ele><time>2026-05-03T16:23:23.999Z</time></trkpt><trkpt lat="45.91408052202665" lon="12.052936206666553"><ele>344.0</ele><time>2026-05-03T16:23:24.999Z</time></trkpt><trkpt lat="45.91400782246827" lon="12.05282210284975"><ele>343.0</ele><time>2026-05-03T16:23:25.999Z</time></trkpt><trkpt lat="45.91391042462579" lon="12.052747150270424"><ele>342.0</ele><time>2026-05-03T16:23:26.999Z</time></trkpt><trkpt lat="45.913806085806115" lon="12.052692193837764"><ele>341.0</ele><time>2026-05-03T16:23:27.999Z</time></trkpt><trkpt lat="45.91368260847169" lon="12.052709288463666"><ele>341.0</ele><time>2026-05-03T16:23:28.999Z</time></trkpt><trkpt lat="45.913553867554036" lon="12.05274597015641"><ele>341.0</ele><time>2026-05-03T16:23:29.999Z</time></trkpt><trkpt lat="45.913420562680884" lon="12.052768226817376"><ele>341.0</ele><time>2026-05-03T16:23:30.999Z</time></trkpt><trkpt lat="45.91328142496086" lon="12.052799782198786"><ele>341.0</ele><time>2026-05-03T16:23:31.999Z</time></trkpt><trkpt lat="45.91314959462863" lon="12.0528280690177"><ele>338.25</ele><time>2026-05-03T16:23:32.999Z</time></trkpt><trkpt lat="45.913009615124864" lon="12.052858741780767"><ele>335.5</ele><time>2026-05-03T16:23:33.999Z</time></trkpt><trkpt lat="45.91287142764565" lon="12.052884739178115"><ele>332.75</ele><time>2026-05-03T16:23:34.999Z</time></trkpt><trkpt lat="45.91273310262819" lon="12.05290373621378"><ele>330.0</ele><time>2026-05-03T16:23:35.999Z</time></trkpt><trkpt lat="45.91260877554073" lon="12.052932035616646"><ele>329.0</ele><time>2026-05-03T16:23:36.999Z</time></trkpt><trkpt lat="45.91247541026815" lon="12.052958927052662"><ele>328.0</ele><time>2026-05-03T16:23:37.999Z</time></trkpt><trkpt lat="45.912352832958334" lon="12.05298848523811"><ele>327.0</ele><time>2026-05-03T16:23:38.999Z</time></trkpt><trkpt lat="45.91222865511032" lon="12.053016028674621"><ele>326.0</ele><time>2026-05-03T16:23:39.999Z</time></trkpt><trkpt lat="45.91211497315715" lon="12.053048425314051"><ele>326.0</ele><time>2026-05-03T16:23:40.999Z</time></trkpt><trkpt lat="45.91199595770615" lon="12.053117649694657"><ele>326.0</ele><time>2026-05-03T16:23:41.999Z</time></trkpt><trkpt lat="45.911892981475695" lon="12.05324182780857"><ele>326.0</ele><time>2026-05-03T16:23:42.999Z</time></trkpt><trkpt lat="45.91180067861194" lon="12.053346815113157"><ele>326.0</ele><time>2026-05-03T16:23:43.999Z</time></trkpt><trkpt lat="45.91170363339662" lon="12.053435250152315"><ele>323.5</ele><time>2026-05-03T16:23:44.999Z</time></trkpt><trkpt lat="45.91159852098637" lon="12.053489870521837"><ele>321.0</ele><time>2026-05-03T16:23:45.999Z</time></trkpt><trkpt lat="45.91147722288655" lon="12.053525529352234"><ele>318.5</ele><time>2026-05-03T16:23:46.999Z</time></trkpt><trkpt lat="45.91133534427136" lon="12.053539249578936"><ele>316.0</ele><time>2026-05-03T16:23:47.999Z</time></trkpt><trkpt lat="45.91120226057756" lon="12.053539356813834"><ele>316.0</ele><time>2026-05-03T16:23:48.999Z</time></trkpt><trkpt lat="45.911067546289374" lon="12.053543006081501"><ele>316.0</ele><time>2026-05-03T16:23:49.999Z</time></trkpt><trkpt lat="45.91094329107207" lon="12.053546855552959"><ele>316.0</ele><time>2026-05-03T16:23:50.999Z</time></trkpt><trkpt lat="45.91082102463283" lon="12.053551407534833"><ele>316.0</ele><time>2026-05-03T16:23:51.999Z</time></trkpt><trkpt lat="45.910700478289705" lon="12.05353104989506"><ele>314.0</ele><time>2026-05-03T16:23:52.999Z</time></trkpt><trkpt lat="45.91058518540298" lon="12.053481243768495"><ele>312.0</ele><time>2026-05-03T16:23:53.999Z</time></trkpt><trkpt lat="45.91047742100489" lon="12.053385172446985"><ele>310.0</ele><time>2026-05-03T16:23:54.999Z</time></trkpt><trkpt lat="45.9103778655876" lon="12.053258318457582"><ele>308.0</ele><time>2026-05-03T16:23:55.999Z</time></trkpt><trkpt lat="45.91028321749976" lon="12.053129262685188"><ele>308.25</ele><time>2026-05-03T16:23:56.999Z</time></trkpt><trkpt lat="45.910183115091264" lon="12.052986992974125"><ele>308.5</ele><time>2026-05-03T16:23:57.999Z</time></trkpt><trkpt lat="45.910087220735136" lon="12.052863229146606"><ele>308.75</ele><time>2026-05-03T16:23:58.999Z</time></trkpt><trkpt lat="45.90999440848307" lon="12.052728860153445"><ele>309.0</ele><time>2026-05-03T16:23:59.999Z</time></trkpt><trkpt lat="45.90990570725566" lon="12.052592795348188"><ele>314.5</ele><time>2026-05-03T16:24:00.999Z</time></trkpt><trkpt lat="45.909824723502034" lon="12.052417421840541"><ele>320.0</ele><time>2026-05-03T16:24:01.999Z</time></trkpt><trkpt lat="45.909745904262685" lon="12.052251821620164"><ele>325.5</ele><time>2026-05-03T16:24:02.999Z</time></trkpt><trkpt lat="45.90966951394321" lon="12.052092654759505"><ele>331.0</ele><time>2026-05-03T16:24:03.999Z</time></trkpt><trkpt lat="45.909580167735875" lon="12.051946579840234"><ele>331.0</ele><time>2026-05-03T16:24:04.999Z</time></trkpt><trkpt lat="45.909503813763074" lon="12.051791756420558"><ele>331.0</ele><time>2026-05-03T16:24:06Z</time></trkpt><trkpt lat="45.90942380080562" lon="12.051639131565105"><ele>331.0</ele><time>2026-05-03T16:24:07Z</time></trkpt><trkpt lat="45.909323902600015" lon="12.051510471555906"><ele>331.0</ele><time>2026-05-03T16:24:08Z</time></trkpt><trkpt lat="45.909229029213556" lon="12.051376525403764"><ele>331.5</ele><time>2026-05-03T16:24:09Z</time></trkpt><trkpt lat="45.909138465432996" lon="12.051217629080833"><ele>332.0</ele><time>2026-05-03T16:24:10Z</time></trkpt><trkpt lat="45.909047905478545" lon="12.051065928388118"><ele>332.5</ele><time>2026-05-03T16:24:11Z</time></trkpt><trkpt lat="45.908954368712095" lon="12.050899016202562"><ele>333.0</ele><time>2026-05-03T16:24:12Z</time></trkpt><trkpt lat="45.908869829117144" lon="12.050733936033476"><ele>333.0</ele><time>2026-05-03T16:24:13Z</time></trkpt><trkpt lat="45.9087774506224" lon="12.050571510069533"><ele>333.0</ele><time>2026-05-03T16:24:14Z</time></trkpt><trkpt lat="45.90868979035116" lon="12.050410199565357"><ele>333.0</ele><time>2026-05-03T16:24:15Z</time></trkpt><trkpt lat="45.908600064633816" lon="12.05024706874993"><ele>333.0</ele><time>2026-05-03T16:24:16Z</time></trkpt><trkpt lat="45.90850657590871" lon="12.050081870094585"><ele>330.5</ele><time>2026-05-03T16:24:17Z</time></trkpt><trkpt lat="45.90840939034173" lon="12.049929597358993"><ele>328.0</ele><time>2026-05-03T16:24:18Z</time></trkpt><trkpt lat="45.90829970228195" lon="12.049805877886014"><ele>325.5</ele><time>2026-05-03T16:24:19Z</time></trkpt><trkpt lat="45.90817776437733" lon="12.049684701486248"><ele>323.0</ele><time>2026-05-03T16:24:20Z</time></trkpt><trkpt lat="45.908054968378295" lon="12.049567176677039"><ele>323.0</ele><time>2026-05-03T16:24:21Z</time></trkpt><trkpt lat="45.90793134687993" lon="12.049453082765867"><ele>323.0</ele><time>2026-05-03T16:24:22Z</time></trkpt><trkpt lat="45.90780406390178" lon="12.049346082612944"><ele>323.0</ele><time>2026-05-03T16:24:23Z</time></trkpt><trkpt lat="45.90767294491562" lon="12.049246689148832"><ele>323.0</ele><time>2026-05-03T16:24:24Z</time></trkpt><trkpt lat="45.90754011490756" lon="12.049178367074182"><ele>324.33333333333337</ele><time>2026-05-03T16:24:25Z</time></trkpt><trkpt lat="45.90738781009135" lon="12.04914546661748"><ele>325.6666666666667</ele><time>2026-05-03T16:24:26Z</time></trkpt><trkpt lat="45.90723686861792" lon="12.049108706599139"><ele>327.0</ele><time>2026-05-03T16:24:27Z</time></trkpt><trkpt lat="45.907091280077154" lon="12.049072102747603"><ele>327.0</ele><time>2026-05-03T16:24:28Z</time></trkpt><trkpt lat="45.90694162763197" lon="12.049022552523063"><ele>327.0</ele><time>2026-05-03T16:24:29Z</time></trkpt><trkpt lat="45.906811804252236" lon="12.048984575912474"><ele>327.0</ele><time>2026-05-03T16:24:30Z</time></trkpt><trkpt lat="45.90668506887523" lon="12.048945310724005"><ele>327.0</ele><time>2026-05-03T16:24:31Z</time></trkpt><trkpt lat="45.906565828002186" lon="12.048894132773132"><ele>323.25</ele><time>2026-05-03T16:24:32Z</time></trkpt><trkpt lat="45.90646385709652" lon="12.048818089335313"><ele>319.5</ele><time>2026-05-03T16:24:33Z</time></trkpt><trkpt lat="45.90638253118797" lon="12.048706244227581"><ele>315.75</ele><time>2026-05-03T16:24:34Z</time></trkpt><trkpt lat="45.90630579215427" lon="12.048550318197005"><ele>312.0</ele><time>2026-05-03T16:24:35Z</time></trkpt><trkpt lat="45.90624741910719" lon="12.048373488532231"><ele>312.75</ele><time>2026-05-03T16:24:36Z</time></trkpt><trkpt lat="45.90622181347139" lon="12.048192779184426"><ele>313.5</ele><time>2026-05-03T16:24:37Z</time></trkpt><trkpt lat="45.9062014550085" lon="12.047995696459353"><ele>314.25</ele><time>2026-05-03T16:24:38Z</time></trkpt><trkpt lat="45.90617419469142" lon="12.047795025399719"><ele>315.0</ele><time>2026-05-03T16:24:39Z</time></trkpt><trkpt lat="45.90616034024742" lon="12.047590893426216"><ele>316.0</ele><time>2026-05-03T16:24:40Z</time></trkpt><trkpt lat="45.90613147024711" lon="12.04739436809794"><ele>317.0</ele><time>2026-05-03T16:24:41Z</time></trkpt><trkpt lat="45.90609675007378" lon="12.047197026052826"><ele>318.0</ele><time>2026-05-03T16:24:42Z</time></trkpt><trkpt lat="45.906062976778266" lon="12.047021525503535"><ele>319.0</ele><time>2026-05-03T16:24:43Z</time></trkpt><trkpt lat="45.905985994807345" lon="12.046840184940987"><ele>319.0</ele><time>2026-05-03T16:24:44Z</time></trkpt><trkpt lat="45.90593177748475" lon="12.046651476642054"><ele>319.0</ele><time>2026-05-03T16:24:45Z</time></trkpt><trkpt lat="45.90587073053353" lon="12.046460826165335"><ele>319.0</ele><time>2026-05-03T16:24:46Z</time></trkpt><trkpt lat="45.905818910044346" lon="12.046277893688657"><ele>319.0</ele><time>2026-05-03T16:24:47Z</time></trkpt><trkpt lat="45.90580475744576" lon="12.046068865802154"><ele>314.66666666666663</ele><time>2026-05-03T16:24:48Z</time></trkpt><trkpt lat="45.90579820323814" lon="12.045840199820391"><ele>310.3333333333333</ele><time>2026-05-03T16:24:49Z</time></trkpt><trkpt lat="45.90575668748878" lon="12.045632917019532"><ele>306.0</ele><time>2026-05-03T16:24:50Z</time></trkpt><trkpt lat="45.90569955261037" lon="12.045431782157356"><ele>306.0</ele><time>2026-05-03T16:24:51Z</time></trkpt><trkpt lat="45.90562825911584" lon="12.04524334577844"><ele>306.0</ele><time>2026-05-03T16:24:52Z</time></trkpt><trkpt lat="45.90555045194212" lon="12.045062858527501"><ele>306.0</ele><time>2026-05-03T16:24:53Z</time></trkpt><trkpt lat="45.90547164962019" lon="12.044883014399971"><ele>306.0</ele><time>2026-05-03T16:24:54Z</time></trkpt><trkpt lat="45.90540108939087" lon="12.044695841133374"><ele>309.0</ele><time>2026-05-03T16:24:55Z</time></trkpt><trkpt lat="45.9053419226923" lon="12.044502986225073"><ele>312.0</ele><time>2026-05-03T16:24:56Z</time></trkpt><trkpt lat="45.905308256892646" lon="12.044277224116389"><ele>315.0</ele><time>2026-05-03T16:24:57Z</time></trkpt><trkpt lat="45.90528810875583" lon="12.04405494314197"><ele>317.3333333333333</ele><time>2026-05-03T16:24:58Z</time></trkpt><trkpt lat="45.905257757326545" lon="12.0438394013555"><ele>319.66666666666663</ele><time>2026-05-03T16:24:59Z</time></trkpt><trkpt lat="45.905189378114756" lon="12.043640015566833"><ele>322.0</ele><time>2026-05-03T16:25:00Z</time></trkpt><trkpt lat="45.90509177743738" lon="12.04345220404461"><ele>315.3333333333333</ele><time>2026-05-03T16:25:01Z</time></trkpt><trkpt lat="45.90499233554458" lon="12.043292397827557"><ele>308.6666666666667</ele><time>2026-05-03T16:25:02Z</time></trkpt><trkpt lat="45.904926454331104" lon="12.043105136806451"><ele>302.0</ele><time>2026-05-03T16:25:03Z</time></trkpt><trkpt lat="45.90487926026138" lon="12.042882380010802"><ele>302.0</ele><time>2026-05-03T16:25:04Z</time></trkpt><trkpt lat="45.9048494455376" lon="12.042671999910818"><ele>302.0</ele><time>2026-05-03T16:25:04.999Z</time></trkpt><trkpt lat="45.904843317437404" lon="12.042482598328355"><ele>302.0</ele><time>2026-05-03T16:25:05.999Z</time></trkpt><trkpt lat="45.90487358643055" lon="12.042293567154234"><ele>302.0</ele><time>2026-05-03T16:25:06.999Z</time></trkpt><trkpt lat="45.9049295494921" lon="12.042137827682128"><ele>300.5</ele><time>2026-05-03T16:25:07.999Z</time></trkpt><trkpt lat="45.9050214860309" lon="12.04201741008591"><ele>299.0</ele><time>2026-05-03T16:25:08.999Z</time></trkpt><trkpt lat="45.905127975733436" lon="12.041919346895286"><ele>297.5</ele><time>2026-05-03T16:25:09.999Z</time></trkpt><trkpt lat="45.90521609320554" lon="12.041815393018759"><ele>296.0</ele><time>2026-05-03T16:25:10.999Z</time></trkpt><trkpt lat="45.90530294282332" lon="12.04169909967538"><ele>302.20000000000005</ele><time>2026-05-03T16:25:11.999Z</time></trkpt><trkpt lat="45.90537562819558" lon="12.041584251863114"><ele>308.40000000000003</ele><time>2026-05-03T16:25:12.999Z</time></trkpt><trkpt lat="45.90542704306317" lon="12.04146472492917"><ele>314.6</ele><time>2026-05-03T16:25:13.999Z</time></trkpt><trkpt lat="45.90546691673206" lon="12.041311078091551"><ele>320.8</ele><time>2026-05-03T16:25:14.999Z</time></trkpt><trkpt lat="45.905479355377864" lon="12.041161534964498"><ele>327.0</ele><time>2026-05-03T16:25:15.999Z</time></trkpt><trkpt lat="45.90547799934337" lon="12.040988777297171"><ele>327.0</ele><time>2026-05-03T16:25:16.999Z</time></trkpt><trkpt lat="45.90544402950451" lon="12.04082407602176"><ele>327.0</ele><time>2026-05-03T16:25:17.999Z</time></trkpt><trkpt lat="45.90539541483747" lon="12.040668886897219"><ele>327.0</ele><time>2026-05-03T16:25:18.999Z</time></trkpt><trkpt lat="45.9053566756139" lon="12.040530077247334"><ele>327.0</ele><time>2026-05-03T16:25:19.999Z</time></trkpt><trkpt lat="45.90530627799945" lon="12.040375464958855"><ele>328.20000000000005</ele><time>2026-05-03T16:25:20.999Z</time></trkpt><trkpt lat="45.90525624585756" lon="12.040224395570586"><ele>329.4</ele><time>2026-05-03T16:25:21.999Z</time></trkpt><trkpt lat="45.905218842844306" lon="12.040079557671465"><ele>330.6</ele><time>2026-05-03T16:25:22.999Z</time></trkpt><trkpt lat="45.905172896913406" lon="12.039941746007274"><ele>331.79999999999995</ele><time>2026-05-03T16:25:23.999Z</time></trkpt><trkpt lat="45.905117137438914" lon="12.039833129626366"><ele>333.0</ele><time>2026-05-03T16:25:24.999Z</time></trkpt><trkpt lat="45.90508548001343" lon="12.039711532510061"><ele>329.1666666666667</ele><time>2026-05-03T16:25:25.999Z</time></trkpt><trkpt lat="45.9050787932335" lon="12.039597438410231"><ele>325.3333333333333</ele><time>2026-05-03T16:25:26.999Z</time></trkpt><trkpt lat="45.90505651793301" lon="12.039496999441386"><ele>321.5</ele><time>2026-05-03T16:25:27.999Z</time></trkpt><trkpt lat="45.9050534303702" lon="12.039400530793245"><ele>317.66666666666663</ele><time>2026-05-03T16:25:28.999Z</time></trkpt><trkpt lat="45.904986300427105" lon="12.039276312735335"><ele>313.8333333333333</ele><time>2026-05-03T16:25:30.999Z</time></trkpt><trkpt lat="45.904946212401256" lon="12.039196385947287"><ele>310.0</ele><time>2026-05-03T16:25:31.999Z</time></trkpt><trkpt lat="45.90493334974434" lon="12.039097133285804"><ele>310.0</ele><time>2026-05-03T16:25:32.999Z</time></trkpt><trkpt lat="45.904933268178326" lon="12.038998418684942"><ele>310.0</ele><time>2026-05-03T16:25:33.999Z</time></trkpt><trkpt lat="45.90493612737908" lon="12.038900621185935"><ele>310.0</ele><time>2026-05-03T16:25:34.999Z</time></trkpt><trkpt lat="45.90495103277026" lon="12.038777003573383"><ele>310.0</ele><time>2026-05-03T16:25:36.999Z</time></trkpt><trkpt lat="45.90494019643194" lon="12.038682267080066"><ele>310.0</ele><time>2026-05-03T16:25:37.999Z</time></trkpt><trkpt lat="45.90494673857044" lon="12.038577287877624"><ele>310.0</ele><time>2026-05-03T16:25:38.999Z</time></trkpt><trkpt lat="45.904935677747694" lon="12.03847582912086"><ele>310.0</ele><time>2026-05-03T16:25:39.999Z</time></trkpt><trkpt lat="45.9049503749178" lon="12.038380718616668"><ele>309.2857142857143</ele><time>2026-05-03T16:25:40.999Z</time></trkpt><trkpt lat="45.90496486045246" lon="12.038282733958335"><ele>308.57142857142856</ele><time>2026-05-03T16:25:41.999Z</time></trkpt><trkpt lat="45.90495698443375" lon="12.038191384572903"><ele>307.8571428571429</ele><time>2026-05-03T16:25:42.999Z</time></trkpt><trkpt lat="45.904962770394214" lon="12.038095301268259"><ele>307.1428571428571</ele><time>2026-05-03T16:25:43.999Z</time></trkpt><trkpt lat="45.90500029615477" lon="12.037991560075039"><ele>306.4285714285714</ele><time>2026-05-03T16:25:44.999Z</time></trkpt><trkpt lat="45.90501007795603" lon="12.037894843294401"><ele>305.7142857142857</ele><time>2026-05-03T16:25:45.999Z</time></trkpt><trkpt lat="45.90503239866295" lon="12.037756548797883"><ele>305.0</ele><time>2026-05-03T16:25:46.999Z</time></trkpt><trkpt lat="45.90504536473741" lon="12.037646801233173"><ele>305.0</ele><time>2026-05-03T16:25:47.999Z</time></trkpt><trkpt lat="45.905082191712424" lon="12.03749007754623"><ele>305.0</ele><time>2026-05-03T16:25:49.999Z</time></trkpt><trkpt lat="45.904934617724244" lon="12.037594104684745"><ele>305.0</ele><time>2026-05-03T16:25:52.999Z</time></trkpt><trkpt lat="45.904875868105684" lon="12.037736269696834"><ele>305.0</ele><time>2026-05-03T16:25:54.999Z</time></trkpt><trkpt lat="45.904845790101504" lon="12.037825188378687"><ele>305.0</ele><time>2026-05-03T16:25:55.999Z</time></trkpt><trkpt lat="45.904775977746965" lon="12.03800497333226"><ele>305.0</ele><time>2026-05-03T16:25:57.999Z</time></trkpt><trkpt lat="45.904739402481226" lon="12.038104827373195"><ele>305.0</ele><time>2026-05-03T16:25:58.999Z</time></trkpt><trkpt lat="45.9046876237882" lon="12.038214270720832"><ele>305.0</ele><time>2026-05-03T16:25:59.999Z</time></trkpt><trkpt lat="45.90463675303176" lon="12.038325449826718"><ele>305.0</ele><time>2026-05-03T16:26:00.999Z</time></trkpt><trkpt lat="45.904590729285225" lon="12.03844201852213"><ele>306.0</ele><time>2026-05-03T16:26:01.999Z</time></trkpt><trkpt lat="45.90454157025311" lon="12.038533217183367"><ele>307.0</ele><time>2026-05-03T16:26:02.999Z</time></trkpt><trkpt lat="45.9045043115402" lon="12.038664960846464"><ele>308.0</ele><time>2026-05-03T16:26:03.999Z</time></trkpt><trkpt lat="45.904463671576764" lon="12.038787782386235"><ele>309.0</ele><time>2026-05-03T16:26:04.999Z</time></trkpt><trkpt lat="45.90442972285282" lon="12.038920916335663"><ele>310.0</ele><time>2026-05-03T16:26:05.999Z</time></trkpt><trkpt lat="45.904417249835305" lon="12.039060902996603"><ele>310.0</ele><time>2026-05-03T16:26:06.999Z</time></trkpt><trkpt lat="45.90442624295712" lon="12.03920809034294"><ele>310.0</ele><time>2026-05-03T16:26:07.999Z</time></trkpt><trkpt lat="45.90444081111785" lon="12.039351297033576"><ele>310.0</ele><time>2026-05-03T16:26:08.999Z</time></trkpt><trkpt lat="45.90445892915971" lon="12.039486289327884"><ele>310.0</ele><time>2026-05-03T16:26:09.999Z</time></trkpt><trkpt lat="45.90448123864297" lon="12.039630553287632"><ele>310.0</ele><time>2026-05-03T16:26:10.999Z</time></trkpt><trkpt lat="45.904500879047745" lon="12.039772953208132"><ele>310.0</ele><time>2026-05-03T16:26:12Z</time></trkpt><trkpt lat="45.90451595053424" lon="12.039908084628545"><ele>310.0</ele><time>2026-05-03T16:26:13Z</time></trkpt><trkpt lat="45.90452816228673" lon="12.040041642265495"><ele>310.0</ele><time>2026-05-03T16:26:14Z</time></trkpt><trkpt lat="45.90452516229173" lon="12.04017891389316"><ele>310.0</ele><time>2026-05-03T16:26:15Z</time></trkpt><trkpt lat="45.90450452199536" lon="12.040278368540571"><ele>310.0</ele><time>2026-05-03T16:26:16Z</time></trkpt><trkpt lat="45.904402585758454" lon="12.040301706196658"><ele>308.8</ele><time>2026-05-03T16:26:17Z</time></trkpt><trkpt lat="45.904327495123844" lon="12.040291529747254"><ele>307.6</ele><time>2026-05-03T16:26:18Z</time></trkpt><trkpt lat="45.904277235176" lon="12.040219565371423"><ele>306.4</ele><time>2026-05-03T16:26:19Z</time></trkpt><trkpt lat="45.90420805300747" lon="12.040033186895519"><ele>305.2</ele><time>2026-05-03T16:26:20Z</time></trkpt><trkpt lat="45.90417688964639" lon="12.039852466721864"><ele>304.0</ele><time>2026-05-03T16:26:21Z</time></trkpt><trkpt lat="45.90414143226621" lon="12.039668991268664"><ele>299.25</ele><time>2026-05-03T16:26:22Z</time></trkpt><trkpt lat="45.904103250998524" lon="12.039502278145907"><ele>294.5</ele><time>2026-05-03T16:26:23Z</time></trkpt><trkpt lat="45.904071453077414" lon="12.039318459519931"><ele>289.75</ele><time>2026-05-03T16:26:24Z</time></trkpt><trkpt lat="45.90404524740345" lon="12.039150126072153"><ele>285.0</ele><time>2026-05-03T16:26:25Z</time></trkpt><trkpt lat="45.90401463462578" lon="12.038987333486322"><ele>284.75</ele><time>2026-05-03T16:26:26Z</time></trkpt><trkpt lat="45.90397415762219" lon="12.038839814828659"><ele>284.5</ele><time>2026-05-03T16:26:27Z</time></trkpt><trkpt lat="45.9039388073376" lon="12.038679160170881"><ele>284.25</ele><time>2026-05-03T16:26:28Z</time></trkpt><trkpt lat="45.903909669177665" lon="12.038513687229603"><ele>284.0</ele><time>2026-05-03T16:26:29Z</time></trkpt><trkpt lat="45.90388070801164" lon="12.038358731447946"><ele>283.4</ele><time>2026-05-03T16:26:30Z</time></trkpt><trkpt lat="45.903869719695024" lon="12.038210458335753"><ele>282.79999999999995</ele><time>2026-05-03T16:26:31Z</time></trkpt><trkpt lat="45.903882795678975" lon="12.038066091702344"><ele>282.20000000000005</ele><time>2026-05-03T16:26:32Z</time></trkpt><trkpt lat="45.90392252878912" lon="12.037928843790402"><ele>281.6</ele><time>2026-05-03T16:26:33Z</time></trkpt><trkpt lat="45.903952252620456" lon="12.037775964210887"><ele>281.0</ele><time>2026-05-03T16:26:34Z</time></trkpt><trkpt lat="45.903960954099766" lon="12.037618162324852"><ele>280.40000000000003</ele><time>2026-05-03T16:26:35Z</time></trkpt><trkpt lat="45.90398672239838" lon="12.037457116424804"><ele>279.8</ele><time>2026-05-03T16:26:36Z</time></trkpt><trkpt lat="45.904029225000784" lon="12.037313007347601"><ele>279.20000000000005</ele><time>2026-05-03T16:26:37Z</time></trkpt><trkpt lat="45.90404011882621" lon="12.037166861028517"><ele>278.6</ele><time>2026-05-03T16:26:38Z</time></trkpt><trkpt lat="45.90399871832805" lon="12.03703854352522"><ele>278.0</ele><time>2026-05-03T16:26:39Z</time></trkpt><trkpt lat="45.90393376041407" lon="12.03697799204468"><ele>278.0</ele><time>2026-05-03T16:26:40Z</time></trkpt><trkpt lat="45.9038686065105" lon="12.036894814652904"><ele>278.0</ele><time>2026-05-03T16:26:41Z</time></trkpt><trkpt lat="45.90379575471919" lon="12.036810158405444"><ele>278.0</ele><time>2026-05-03T16:26:42Z</time></trkpt><trkpt lat="45.90373000720091" lon="12.036715050001643"><ele>278.0</ele><time>2026-05-03T16:26:43Z</time></trkpt><trkpt lat="45.90369715979364" lon="12.03659545155022"><ele>278.0</ele><time>2026-05-03T16:26:44Z</time></trkpt><trkpt lat="45.903681000470996" lon="12.036453160511252"><ele>277.8</ele><time>2026-05-03T16:26:45Z</time></trkpt><trkpt lat="45.903683414234926" lon="12.03631247129999"><ele>277.6</ele><time>2026-05-03T16:26:46Z</time></trkpt><trkpt lat="45.903704957709294" lon="12.036169421990673"><ele>277.4</ele><time>2026-05-03T16:26:47Z</time></trkpt><trkpt lat="45.903721604189386" lon="12.036014970113353"><ele>277.2</ele><time>2026-05-03T16:26:48Z</time></trkpt><trkpt lat="45.903691531066336" lon="12.035891377332955"><ele>277.0</ele><time>2026-05-03T16:26:49Z</time></trkpt><trkpt lat="45.9036591581322" lon="12.035768041274698"><ele>277.0</ele><time>2026-05-03T16:26:50Z</time></trkpt><trkpt lat="45.903572621278926" lon="12.03564147443859"><ele>277.0</ele><time>2026-05-03T16:26:52Z</time></trkpt><trkpt lat="45.9035252895114" lon="12.035536595393875"><ele>277.0</ele><time>2026-05-03T16:26:53Z</time></trkpt><trkpt lat="45.90346063930155" lon="12.035448007444616"><ele>277.0</ele><time>2026-05-03T16:26:54Z</time></trkpt><trkpt lat="45.90338310826966" lon="12.035398445491959"><ele>277.0</ele><time>2026-05-03T16:26:55Z</time></trkpt><trkpt lat="45.903301910451745" lon="12.035385809873928"><ele>277.0</ele><time>2026-05-03T16:26:56Z</time></trkpt><trkpt lat="45.90321343450849" lon="12.035415899722885"><ele>277.0</ele><time>2026-05-03T16:26:57Z</time></trkpt><trkpt lat="45.90311285710873" lon="12.035495637791577"><ele>277.0</ele><time>2026-05-03T16:26:58Z</time></trkpt><trkpt lat="45.903031775247534" lon="12.035596576629635"><ele>277.0</ele><time>2026-05-03T16:26:59Z</time></trkpt><trkpt lat="45.90296645484764" lon="12.035675478638629"><ele>277.0</ele><time>2026-05-03T16:27:00Z</time></trkpt><trkpt lat="45.902877459443594" lon="12.035702160056562"><ele>277.0</ele><time>2026-05-03T16:27:01Z</time></trkpt><trkpt lat="45.90279463376387" lon="12.03574183763477"><ele>277.0</ele><time>2026-05-03T16:27:02Z</time></trkpt><trkpt lat="45.902706143219284" lon="12.035761211618528"><ele>277.0</ele><time>2026-05-03T16:27:03Z</time></trkpt><trkpt lat="45.90263509056938" lon="12.035756858661419"><ele>277.0</ele><time>2026-05-03T16:27:04Z</time></trkpt><trkpt lat="45.90255710837029" lon="12.035744425951084"><ele>277.0</ele><time>2026-05-03T16:27:05Z</time></trkpt><trkpt lat="45.90247494677276" lon="12.035741379252517"><ele>277.0</ele><time>2026-05-03T16:27:06Z</time></trkpt><trkpt lat="45.902412129384224" lon="12.035698489780419"><ele>278.5</ele><time>2026-05-03T16:27:07Z</time></trkpt><trkpt lat="45.90234387620639" lon="12.035668976951438"><ele>280.0</ele><time>2026-05-03T16:27:08Z</time></trkpt><trkpt lat="45.902221789655385" lon="12.035604600109851"><ele>281.5</ele><time>2026-05-03T16:27:10Z</time></trkpt><trkpt lat="45.90216298600313" lon="12.035558015185691"><ele>283.0</ele><time>2026-05-03T16:27:11Z</time></trkpt><trkpt lat="45.902092865053866" lon="12.035505786328336"><ele>284.5</ele><time>2026-05-03T16:27:11.999Z</time></trkpt><trkpt lat="45.90202825852328" lon="12.035415457554874"><ele>286.0</ele><time>2026-05-03T16:27:12.999Z</time></trkpt><trkpt lat="45.901968282037146" lon="12.03532345317109"><ele>286.0</ele><time>2026-05-03T16:27:13.999Z</time></trkpt><trkpt lat="45.901913002238125" lon="12.035218752112964"><ele>286.0</ele><time>2026-05-03T16:27:14.999Z</time></trkpt><trkpt lat="45.901876158745885" lon="12.035109983939337"><ele>286.0</ele><time>2026-05-03T16:27:15.999Z</time></trkpt><trkpt lat="45.90181701102424" lon="12.03498210045705"><ele>286.0</ele><time>2026-05-03T16:27:16.999Z</time></trkpt><trkpt lat="45.90176167351144" lon="12.034869255410264"><ele>286.0</ele><time>2026-05-03T16:27:17.999Z</time></trkpt><trkpt lat="45.90171665785686" lon="12.034746801155539"><ele>286.0</ele><time>2026-05-03T16:27:18.999Z</time></trkpt><trkpt lat="45.90166403876655" lon="12.034641891380609"><ele>286.0</ele><time>2026-05-03T16:27:19.999Z</time></trkpt><trkpt lat="45.90160288943679" lon="12.03455040698259"><ele>286.0</ele><time>2026-05-03T16:27:20.999Z</time></trkpt><trkpt lat="45.901532854544975" lon="12.034464463326737"><ele>286.0</ele><time>2026-05-03T16:27:21.999Z</time></trkpt><trkpt lat="45.901458947004976" lon="12.03436333720864"><ele>286.0</ele><time>2026-05-03T16:27:22.999Z</time></trkpt><trkpt lat="45.90138845472047" lon="12.034260776430788"><ele>286.0</ele><time>2026-05-03T16:27:23.999Z</time></trkpt><trkpt lat="45.90132371293341" lon="12.034154567896849"><ele>286.0</ele><time>2026-05-03T16:27:24.999Z</time></trkpt><trkpt lat="45.90125972929058" lon="12.034049468938392"><ele>286.0</ele><time>2026-05-03T16:27:25.999Z</time></trkpt><trkpt lat="45.901199684224096" lon="12.033957684329705"><ele>286.0</ele><time>2026-05-03T16:27:26.999Z</time></trkpt><trkpt lat="45.901140356307394" lon="12.033868377381442"><ele>286.0</ele><time>2026-05-03T16:27:27.999Z</time></trkpt><trkpt lat="45.90106039636233" lon="12.03379289845904"><ele>284.5</ele><time>2026-05-03T16:27:28.999Z</time></trkpt><trkpt lat="45.90099593823294" lon="12.033719683479218"><ele>283.0</ele><time>2026-05-03T16:27:29.999Z</time></trkpt><trkpt lat="45.900923226835666" lon="12.033665080347312"><ele>281.5</ele><time>2026-05-03T16:27:30.999Z</time></trkpt><trkpt lat="45.90083884528323" lon="12.033619069025848"><ele>280.0</ele><time>2026-05-03T16:27:31.999Z</time></trkpt><trkpt lat="45.90076149203566" lon="12.033577492655066"><ele>278.5</ele><time>2026-05-03T16:27:32.999Z</time></trkpt><trkpt lat="45.900680603609565" lon="12.033541129058431"><ele>277.0</ele><time>2026-05-03T16:27:33.999Z</time></trkpt><trkpt lat="45.900605956241094" lon="12.033498271234201"><ele>277.0</ele><time>2026-05-03T16:27:34.999Z</time></trkpt><trkpt lat="45.90053222271135" lon="12.033463858906941"><ele>277.0</ele><time>2026-05-03T16:27:35.999Z</time></trkpt><trkpt lat="45.90046118888756" lon="12.033413468366591"><ele>277.0</ele><time>2026-05-03T16:27:36.999Z</time></trkpt><trkpt lat="45.900360515767495" lon="12.033339586619212"><ele>277.0</ele><time>2026-05-03T16:27:38.999Z</time></trkpt><trkpt lat="45.90021759471479" lon="12.03345265578736"><ele>277.0</ele><time>2026-05-03T16:27:41.999Z</time></trkpt><trkpt lat="45.9001402720244" lon="12.03352961349861"><ele>272.5</ele><time>2026-05-03T16:27:43.999Z</time></trkpt><trkpt lat="45.900063068839124" lon="12.033650860427985"><ele>268.0</ele><time>2026-05-03T16:27:45.999Z</time></trkpt><trkpt lat="45.89997630723165" lon="12.033767336020482"><ele>263.5</ele><time>2026-05-03T16:27:47.999Z</time></trkpt><trkpt lat="45.89987478515346" lon="12.033858235034803"><ele>259.0</ele><time>2026-05-03T16:27:49.999Z</time></trkpt><trkpt lat="45.89976112235194" lon="12.033924476772283"><ele>259.0</ele><time>2026-05-03T16:27:51.999Z</time></trkpt><trkpt lat="45.89970618741968" lon="12.033996831020449"><ele>259.0</ele><time>2026-05-03T16:27:52.999Z</time></trkpt><trkpt lat="45.89960327558226" lon="12.034037316950629"><ele>259.0</ele><time>2026-05-03T16:27:54.999Z</time></trkpt><trkpt lat="45.89951940520302" lon="12.034036468622286"><ele>259.0</ele><time>2026-05-03T16:27:56.999Z</time></trkpt><trkpt lat="45.899454334888304" lon="12.034013647659668"><ele>259.0</ele><time>2026-05-03T16:27:58.999Z</time></trkpt><trkpt lat="45.89937284850181" lon="12.033969777600865"><ele>259.0</ele><time>2026-05-03T16:28:01.999Z</time></trkpt><trkpt lat="45.89930231576334" lon="12.034087585083284"><ele>258.0</ele><time>2026-05-03T16:28:20Z</time></trkpt><trkpt lat="45.89923437710156" lon="12.034064137049358"><ele>257.0</ele><time>2026-05-03T16:29:55.999Z</time></trkpt><trkpt lat="45.8991715090879" lon="12.03408434018714"><ele>256.0</ele><time>2026-05-03T16:30:06.999Z</time></trkpt><trkpt lat="45.89912645082214" lon="12.034002604121815"><ele>255.0</ele><time>2026-05-03T16:47:24Z</time></trkpt><trkpt lat="45.89915105160751" lon="12.034146244988262"><ele>253.99999999999997</ele><time>2026-05-03T16:57:31.998Z</time></trkpt><trkpt lat="45.89920910192507" lon="12.03420989643481"><ele>253.0</ele><time>2026-05-03T17:02:06Z</time></trkpt><trkpt lat="45.89930192533985" lon="12.034430596080405"><ele>253.00000000000003</ele><time>2026-05-03T17:02:22Z</time></trkpt><trkpt lat="45.899354115369796" lon="12.034508221619037"><ele>253.0</ele><time>2026-05-03T17:02:30Z</time></trkpt><trkpt lat="45.89938534163505" lon="12.034588649891488"><ele>253.00000000000003</ele><time>2026-05-03T17:02:36Z</time></trkpt><trkpt lat="45.89943505744946" lon="12.034644354423671"><ele>253.00000000000003</ele><time>2026-05-03T17:02:42Z</time></trkpt><trkpt lat="45.89948639823423" lon="12.034700074660837"><ele>253.0</ele><time>2026-05-03T17:02:47Z</time></trkpt><trkpt lat="45.89953576680156" lon="12.034780377415633"><ele>253.00000000000003</ele><time>2026-05-03T17:02:52Z</time></trkpt><trkpt lat="45.899581039362964" lon="12.034845873883324"><ele>253.00000000000003</ele><time>2026-05-03T17:03:06.999Z</time></trkpt><trkpt lat="45.89964780443496" lon="12.034866573695878"><ele>253.00000000000003</ele><time>2026-05-03T17:03:13.999Z</time></trkpt><trkpt lat="45.899717325340106" lon="12.034870083824883"><ele>253.0</ele><time>2026-05-03T17:03:19.999Z</time></trkpt><trkpt lat="45.89978038654733" lon="12.034855704100158"><ele>253.00000000000003</ele><time>2026-05-03T17:03:28.999Z</time></trkpt><trkpt lat="45.899718715254615" lon="12.034801804108488"><ele>253.00000000000003</ele><time>2026-05-03T17:04:20Z</time></trkpt><trkpt lat="45.89967823636885" lon="12.034731952649468"><ele>253.0</ele><time>2026-05-03T17:04:29Z</time></trkpt><trkpt lat="45.899631261000174" lon="12.034651429517988"><ele>253.00000000000003</ele><time>2026-05-03T17:04:40Z</time></trkpt><trkpt lat="45.89958333902874" lon="12.034559813538786"><ele>253.00000000000003</ele><time>2026-05-03T17:04:54Z</time></trkpt><trkpt lat="45.89953069068767" lon="12.034499083655552"><ele>252.99999999999997</ele><time>2026-05-03T17:05:01Z</time></trkpt><trkpt lat="45.89946642417502" lon="12.034439195756141"><ele>253.0</ele><time>2026-05-03T17:05:07.999Z</time></trkpt><trkpt lat="45.89939644348097" lon="12.034428982350711"><ele>253.0</ele><time>2026-05-03T17:05:13.999Z</time></trkpt><trkpt lat="45.899367077238" lon="12.034331735209324"><ele>253.0</ele><time>2026-05-03T17:05:19.999Z</time></trkpt><trkpt lat="45.89931133856142" lon="12.034279234367899"><ele>252.99999999999997</ele><time>2026-05-03T17:05:28.999Z</time></trkpt><trkpt lat="45.89928151933725" lon="12.034198037322207"><ele>253.0</ele><time>2026-05-03T17:05:52.999Z</time></trkpt><trkpt lat="45.89938354568677" lon="12.034074938543235"><ele>254.2</ele><time>2026-05-03T17:20:32.999Z</time></trkpt><trkpt lat="45.8994507068569" lon="12.034076460033623"><ele>255.4</ele><time>2026-05-03T17:21:13Z</time></trkpt><trkpt lat="45.899539361188765" lon="12.034085176477042"><ele>256.59999999999997</ele><time>2026-05-03T17:21:15Z</time></trkpt><trkpt lat="45.89965628398427" lon="12.034083214375919"><ele>257.8</ele><time>2026-05-03T17:21:17Z</time></trkpt><trkpt lat="45.8997770242509" lon="12.034026015761976"><ele>259.0</ele><time>2026-05-03T17:21:19Z</time></trkpt><trkpt lat="45.899834251375516" lon="12.0339775919044"><ele>259.0</ele><time>2026-05-03T17:21:20Z</time></trkpt><trkpt lat="45.89988801262517" lon="12.033926668515173"><ele>259.0</ele><time>2026-05-03T17:21:21Z</time></trkpt><trkpt lat="45.89994281129303" lon="12.03388009856238"><ele>259.0</ele><time>2026-05-03T17:21:22Z</time></trkpt><trkpt lat="45.9000427697057" lon="12.033758672376882"><ele>259.0</ele><time>2026-05-03T17:21:24Z</time></trkpt><trkpt lat="45.90009890080949" lon="12.033687721500478"><ele>259.0</ele><time>2026-05-03T17:21:25Z</time></trkpt><trkpt lat="45.90014934818833" lon="12.033609687068239"><ele>259.0</ele><time>2026-05-03T17:21:26Z</time></trkpt><trkpt lat="45.90018870406631" lon="12.033516575766336"><ele>262.59999999999997</ele><time>2026-05-03T17:21:27Z</time></trkpt><trkpt lat="45.90026383340577" lon="12.033432008466335"><ele>266.2</ele><time>2026-05-03T17:21:29Z</time></trkpt><trkpt lat="45.900343701842324" lon="12.033417955577292"><ele>269.79999999999995</ele><time>2026-05-03T17:21:31Z</time></trkpt><trkpt lat="45.900237361600105" lon="12.033200970533"><ele>273.4</ele><time>2026-05-03T17:21:39Z</time></trkpt><trkpt lat="45.90018623359453" lon="12.033132722773724"><ele>277.0</ele><time>2026-05-03T17:21:40Z</time></trkpt><trkpt lat="45.90013201517942" lon="12.03305421258036"><ele>275.4</ele><time>2026-05-03T17:21:41Z</time></trkpt><trkpt lat="45.900075814189506" lon="12.03295566061465"><ele>273.79999999999995</ele><time>2026-05-03T17:21:41.999Z</time></trkpt><trkpt lat="45.899998520252964" lon="12.03286490626728"><ele>272.2</ele><time>2026-05-03T17:21:42.999Z</time></trkpt><trkpt lat="45.89993146903714" lon="12.032775672062204"><ele>270.59999999999997</ele><time>2026-05-03T17:21:43.999Z</time></trkpt><trkpt lat="45.89984909808946" lon="12.032681922840396"><ele>269.0</ele><time>2026-05-03T17:21:44.999Z</time></trkpt><trkpt lat="45.89975843341282" lon="12.032578565275095"><ele>271.8</ele><time>2026-05-03T17:21:45.999Z</time></trkpt><trkpt lat="45.899665377393134" lon="12.032472330196969"><ele>274.59999999999997</ele><time>2026-05-03T17:21:46.999Z</time></trkpt><trkpt lat="45.899580037580726" lon="12.032364145815183"><ele>277.4</ele><time>2026-05-03T17:21:47.999Z</time></trkpt><trkpt lat="45.899495213080684" lon="12.032261980236258"><ele>280.2</ele><time>2026-05-03T17:21:48.999Z</time></trkpt><trkpt lat="45.8994166259206" lon="12.032174234595466"><ele>283.0</ele><time>2026-05-03T17:21:49.999Z</time></trkpt><trkpt lat="45.89935042311085" lon="12.03204911585119"><ele>283.0</ele><time>2026-05-03T17:21:50.999Z</time></trkpt><trkpt lat="45.89929208824735" lon="12.031920852652153"><ele>283.0</ele><time>2026-05-03T17:21:51.999Z</time></trkpt><trkpt lat="45.89925141198975" lon="12.031796352546605"><ele>283.0</ele><time>2026-05-03T17:21:52.999Z</time></trkpt><trkpt lat="45.89920291186457" lon="12.031667834170216"><ele>283.0</ele><time>2026-05-03T17:21:53.999Z</time></trkpt><trkpt lat="45.89915738742057" lon="12.031550311622906"><ele>283.0</ele><time>2026-05-03T17:21:54.999Z</time></trkpt><trkpt lat="45.899114908110484" lon="12.031433253685048"><ele>282.2</ele><time>2026-05-03T17:21:55.999Z</time></trkpt><trkpt lat="45.89905611100101" lon="12.031318882864529"><ele>281.4</ele><time>2026-05-03T17:21:56.999Z</time></trkpt><trkpt lat="45.89899981334521" lon="12.03117692808689"><ele>280.59999999999997</ele><time>2026-05-03T17:21:57.999Z</time></trkpt><trkpt lat="45.898943906240945" lon="12.031041259700334"><ele>279.8</ele><time>2026-05-03T17:21:58.999Z</time></trkpt><trkpt lat="45.89889095870257" lon="12.030916208701464"><ele>279.0</ele><time>2026-05-03T17:21:59.999Z</time></trkpt><trkpt lat="45.89883776147203" lon="12.030798806995465"><ele>279.0</ele><time>2026-05-03T17:22:00.999Z</time></trkpt><trkpt lat="45.89878769986779" lon="12.030669771703751"><ele>279.0</ele><time>2026-05-03T17:22:01.999Z</time></trkpt><trkpt lat="45.89873161860991" lon="12.030555624575978"><ele>279.0</ele><time>2026-05-03T17:22:02.999Z</time></trkpt><trkpt lat="45.89867222184801" lon="12.030419217032032"><ele>279.0</ele><time>2026-05-03T17:22:03.999Z</time></trkpt><trkpt lat="45.898595399157365" lon="12.030292700195265"><ele>279.0</ele><time>2026-05-03T17:22:04.999Z</time></trkpt><trkpt lat="45.89849452507491" lon="12.030187276035884"><ele>274.0</ele><time>2026-05-03T17:22:05.999Z</time></trkpt><trkpt lat="45.89839894145637" lon="12.030094071113915"><ele>269.0</ele><time>2026-05-03T17:22:06.999Z</time></trkpt><trkpt lat="45.89832011419377" lon="12.02997554353957"><ele>264.0</ele><time>2026-05-03T17:22:07.999Z</time></trkpt><trkpt lat="45.898248766331065" lon="12.029833535758145"><ele>259.0</ele><time>2026-05-03T17:22:08.999Z</time></trkpt><trkpt lat="45.89817878013973" lon="12.029680425855608"><ele>259.0</ele><time>2026-05-03T17:22:09.999Z</time></trkpt><trkpt lat="45.898110517361765" lon="12.02951772544331"><ele>259.0</ele><time>2026-05-03T17:22:10.999Z</time></trkpt><trkpt lat="45.898039277418945" lon="12.029342792076726"><ele>259.0</ele><time>2026-05-03T17:22:11.999Z</time></trkpt><trkpt lat="45.8979636037227" lon="12.029169660332775"><ele>259.0</ele><time>2026-05-03T17:22:12.999Z</time></trkpt><trkpt lat="45.8978896693425" lon="12.028986646884361"><ele>262.75</ele><time>2026-05-03T17:22:13.999Z</time></trkpt><trkpt lat="45.89783942000491" lon="12.02880827995561"><ele>266.5</ele><time>2026-05-03T17:22:14.999Z</time></trkpt><trkpt lat="45.89775741300471" lon="12.028668712869033"><ele>270.25</ele><time>2026-05-03T17:22:15.999Z</time></trkpt><trkpt lat="45.897679250129" lon="12.028528215646705"><ele>274.0</ele><time>2026-05-03T17:22:16.999Z</time></trkpt><trkpt lat="45.89759663737308" lon="12.028389511984345"><ele>267.75</ele><time>2026-05-03T17:22:17.999Z</time></trkpt><trkpt lat="45.89752403369373" lon="12.028255545426177"><ele>261.5</ele><time>2026-05-03T17:22:18.999Z</time></trkpt><trkpt lat="45.89745328186139" lon="12.02813028884236"><ele>255.25</ele><time>2026-05-03T17:22:19.999Z</time></trkpt><trkpt lat="45.897379892380876" lon="12.028015866020832"><ele>249.0</ele><time>2026-05-03T17:22:20.999Z</time></trkpt><trkpt lat="45.89728901149839" lon="12.027884062575732"><ele>249.0</ele><time>2026-05-03T17:22:21.999Z</time></trkpt><trkpt lat="45.897210414096755" lon="12.027748539181205"><ele>249.0</ele><time>2026-05-03T17:22:22.999Z</time></trkpt><trkpt lat="45.897132898501354" lon="12.027618423799684"><ele>249.0</ele><time>2026-05-03T17:22:23.999Z</time></trkpt><trkpt lat="45.89706283718311" lon="12.027471740695031"><ele>249.0</ele><time>2026-05-03T17:22:24.999Z</time></trkpt><trkpt lat="45.896998950650904" lon="12.02733220385092"><ele>250.5</ele><time>2026-05-03T17:22:25.999Z</time></trkpt><trkpt lat="45.89693243390867" lon="12.027167318589129"><ele>252.0</ele><time>2026-05-03T17:22:26.999Z</time></trkpt><trkpt lat="45.89687705602587" lon="12.02701986443161"><ele>253.5</ele><time>2026-05-03T17:22:27.999Z</time></trkpt><trkpt lat="45.89681895854577" lon="12.026881316407248"><ele>255.0</ele><time>2026-05-03T17:22:28.999Z</time></trkpt><trkpt lat="45.896757029245755" lon="12.026733217024878"><ele>250.5</ele><time>2026-05-03T17:22:29.999Z</time></trkpt><trkpt lat="45.896700531147495" lon="12.026579963759009"><ele>246.0</ele><time>2026-05-03T17:22:30.999Z</time></trkpt><trkpt lat="45.89663740295055" lon="12.026427739419054"><ele>241.5</ele><time>2026-05-03T17:22:31.999Z</time></trkpt><trkpt lat="45.89657704589484" lon="12.026278256738559"><ele>237.0</ele><time>2026-05-03T17:22:32.999Z</time></trkpt><trkpt lat="45.896513639684784" lon="12.026120681768957"><ele>237.0</ele><time>2026-05-03T17:22:33.999Z</time></trkpt><trkpt lat="45.89645392347058" lon="12.02595674961162"><ele>237.0</ele><time>2026-05-03T17:22:34.999Z</time></trkpt><trkpt lat="45.89638949485434" lon="12.02577902982873"><ele>237.0</ele><time>2026-05-03T17:22:35.999Z</time></trkpt><trkpt lat="45.89630565674405" lon="12.025618859840238"><ele>237.0</ele><time>2026-05-03T17:22:36.999Z</time></trkpt><trkpt lat="45.89624892666246" lon="12.025496954764446"><ele>235.25</ele><time>2026-05-03T17:22:37.999Z</time></trkpt><trkpt lat="45.89615741506367" lon="12.02537848375004"><ele>233.5</ele><time>2026-05-03T17:22:38.999Z</time></trkpt><trkpt lat="45.89602071039641" lon="12.025277266560087"><ele>231.75</ele><time>2026-05-03T17:22:39.999Z</time></trkpt><trkpt lat="45.895879460284576" lon="12.025201474150672"><ele>230.0</ele><time>2026-05-03T17:22:40.999Z</time></trkpt><trkpt lat="45.89573346569455" lon="12.025135036527377"><ele>230.0</ele><time>2026-05-03T17:22:41.999Z</time></trkpt><trkpt lat="45.89561551333652" lon="12.025069812028802"><ele>230.0</ele><time>2026-05-03T17:22:42.999Z</time></trkpt><trkpt lat="45.895505434216496" lon="12.025003671313678"><ele>230.0</ele><time>2026-05-03T17:22:43.999Z</time></trkpt><trkpt lat="45.895392915943404" lon="12.024909966477198"><ele>230.0</ele><time>2026-05-03T17:22:44.999Z</time></trkpt><trkpt lat="45.89529114700964" lon="12.024841593253065"><ele>228.2</ele><time>2026-05-03T17:22:45.999Z</time></trkpt><trkpt lat="45.89520642085308" lon="12.02477182808441"><ele>226.4</ele><time>2026-05-03T17:22:46.999Z</time></trkpt><trkpt lat="45.89513755160804" lon="12.024670553450909"><ele>224.60000000000002</ele><time>2026-05-03T17:22:47.999Z</time></trkpt><trkpt lat="45.895073411745614" lon="12.024572016494485"><ele>222.8</ele><time>2026-05-03T17:22:49Z</time></trkpt><trkpt lat="45.895032789488035" lon="12.024455389183133"><ele>221.0</ele><time>2026-05-03T17:22:50Z</time></trkpt><trkpt lat="45.8949914692875" lon="12.024327552820711"><ele>221.0</ele><time>2026-05-03T17:22:51Z</time></trkpt><trkpt lat="45.894942105821315" lon="12.024181316167722"><ele>221.0</ele><time>2026-05-03T17:22:52Z</time></trkpt><trkpt lat="45.894889582202566" lon="12.024029561727225"><ele>221.0</ele><time>2026-05-03T17:22:53Z</time></trkpt><trkpt lat="45.89484051939515" lon="12.023880992583955"><ele>221.0</ele><time>2026-05-03T17:22:54Z</time></trkpt><trkpt lat="45.89478921752464" lon="12.023727127958434"><ele>223.60000000000002</ele><time>2026-05-03T17:22:55Z</time></trkpt><trkpt lat="45.894741178422606" lon="12.023578039234065"><ele>226.20000000000002</ele><time>2026-05-03T17:22:56Z</time></trkpt><trkpt lat="45.894696088812815" lon="12.0234361513842"><ele>228.79999999999998</ele><time>2026-05-03T17:22:57Z</time></trkpt><trkpt lat="45.89464044270794" lon="12.023308826955352"><ele>231.39999999999998</ele><time>2026-05-03T17:22:58Z</time></trkpt><trkpt lat="45.894563563292174" lon="12.023181437381984"><ele>234.0</ele><time>2026-05-03T17:22:59Z</time></trkpt><trkpt lat="45.89450834005082" lon="12.02305002483869"><ele>232.39999999999998</ele><time>2026-05-03T17:23:00Z</time></trkpt><trkpt lat="45.894454621335655" lon="12.022911897040993"><ele>230.79999999999998</ele><time>2026-05-03T17:23:01Z</time></trkpt><trkpt lat="45.894388180481265" lon="12.022801405371244"><ele>229.20000000000002</ele><time>2026-05-03T17:23:02Z</time></trkpt><trkpt lat="45.89432460725431" lon="12.022683832037524"><ele>227.60000000000002</ele><time>2026-05-03T17:23:03Z</time></trkpt><trkpt lat="45.89425919004672" lon="12.022548875098401"><ele>226.0</ele><time>2026-05-03T17:23:04Z</time></trkpt><trkpt lat="45.894188961044584" lon="12.022397844938249"><ele>226.0</ele><time>2026-05-03T17:23:05Z</time></trkpt><trkpt lat="45.894121849058244" lon="12.022247065729735"><ele>226.0</ele><time>2026-05-03T17:23:06Z</time></trkpt><trkpt lat="45.89405252269311" lon="12.022121371834444"><ele>226.0</ele><time>2026-05-03T17:23:07Z</time></trkpt><trkpt lat="45.893978772024326" lon="12.021997230757744"><ele>226.0</ele><time>2026-05-03T17:23:08Z</time></trkpt><trkpt lat="45.893898724103536" lon="12.021886891200435"><ele>226.0</ele><time>2026-05-03T17:23:09Z</time></trkpt><trkpt lat="45.893802513631684" lon="12.021796330747712"><ele>226.0</ele><time>2026-05-03T17:23:10Z</time></trkpt><trkpt lat="45.89369849235887" lon="12.021707944907043"><ele>226.0</ele><time>2026-05-03T17:23:11Z</time></trkpt><trkpt lat="45.89360801678106" lon="12.021605203123721"><ele>226.0</ele><time>2026-05-03T17:23:12Z</time></trkpt><trkpt lat="45.893512663646696" lon="12.021518927366543"><ele>227.20000000000002</ele><time>2026-05-03T17:23:13Z</time></trkpt><trkpt lat="45.89341619608354" lon="12.02144346630123"><ele>228.40000000000003</ele><time>2026-05-03T17:23:14Z</time></trkpt><trkpt lat="45.89332049044555" lon="12.02137291363549"><ele>229.6</ele><time>2026-05-03T17:23:15Z</time></trkpt><trkpt lat="45.8932209052111" lon="12.021300907716707"><ele>230.8</ele><time>2026-05-03T17:23:16Z</time></trkpt><trkpt lat="45.893124193342274" lon="12.021234658435949"><ele>232.0</ele><time>2026-05-03T17:23:17Z</time></trkpt><trkpt lat="45.89302654882349" lon="12.021177117936825"><ele>232.0</ele><time>2026-05-03T17:23:18Z</time></trkpt><trkpt lat="45.89291366233116" lon="12.021147337199388"><ele>232.0</ele><time>2026-05-03T17:23:19Z</time></trkpt><trkpt lat="45.892806475782436" lon="12.021137545153303"><ele>232.0</ele><time>2026-05-03T17:23:20Z</time></trkpt><trkpt lat="45.89270184597996" lon="12.02112241725407"><ele>232.0</ele><time>2026-05-03T17:23:21Z</time></trkpt><trkpt lat="45.89261025132131" lon="12.02109422635603"><ele>232.0</ele><time>2026-05-03T17:23:22Z</time></trkpt><trkpt lat="45.89254384920295" lon="12.021037730067079"><ele>232.66666666666666</ele><time>2026-05-03T17:23:23Z</time></trkpt><trkpt lat="45.89246900807119" lon="12.02098415560805"><ele>233.33333333333331</ele><time>2026-05-03T17:23:24Z</time></trkpt><trkpt lat="45.892393078563316" lon="12.020933741407466"><ele>234.0</ele><time>2026-05-03T17:23:25Z</time></trkpt><trkpt lat="45.89232963297441" lon="12.020894694778958"><ele>234.66666666666669</ele><time>2026-05-03T17:23:26Z</time></trkpt><trkpt lat="45.892260141478744" lon="12.020856958055811"><ele>235.33333333333334</ele><time>2026-05-03T17:23:27Z</time></trkpt><trkpt lat="45.89219113130561" lon="12.020822889795536"><ele>236.0</ele><time>2026-05-03T17:23:28Z</time></trkpt><trkpt lat="45.89211161711091" lon="12.020788623531024"><ele>236.0</ele><time>2026-05-03T17:23:29Z</time></trkpt><trkpt lat="45.892048842127025" lon="12.020755477955744"><ele>236.00000000000003</ele><time>2026-05-03T17:23:30Z</time></trkpt><trkpt lat="45.89200579861995" lon="12.020602026875336"><ele>236.00000000000003</ele><time>2026-05-03T17:23:32Z</time></trkpt><trkpt lat="45.891989682666186" lon="12.020469768432577"><ele>236.0</ele><time>2026-05-03T17:23:33Z</time></trkpt><trkpt lat="45.89196862715323" lon="12.020325150360728"><ele>236.0</ele><time>2026-05-03T17:23:34Z</time></trkpt><trkpt lat="45.8919414037336" lon="12.020183086643073"><ele>236.0</ele><time>2026-05-03T17:23:35Z</time></trkpt><trkpt lat="45.891911501726746" lon="12.020039021521539"><ele>236.0</ele><time>2026-05-03T17:23:36Z</time></trkpt><trkpt lat="45.891882127280304" lon="12.019874247860342"><ele>236.0</ele><time>2026-05-03T17:23:37Z</time></trkpt><trkpt lat="45.89184819357883" lon="12.019706770918576"><ele>236.0</ele><time>2026-05-03T17:23:38Z</time></trkpt><trkpt lat="45.89181539802935" lon="12.019531906927345"><ele>232.25</ele><time>2026-05-03T17:23:39Z</time></trkpt><trkpt lat="45.89178005734494" lon="12.019351872813154"><ele>228.5</ele><time>2026-05-03T17:23:40Z</time></trkpt><trkpt lat="45.891748513082234" lon="12.01917922105718"><ele>224.75</ele><time>2026-05-03T17:23:41Z</time></trkpt><trkpt lat="45.891730974385105" lon="12.019022824310106"><ele>221.0</ele><time>2026-05-03T17:23:42Z</time></trkpt><trkpt lat="45.89172217398121" lon="12.018865785241776"><ele>221.0</ele><time>2026-05-03T17:23:43Z</time></trkpt><trkpt lat="45.89171658828203" lon="12.01871633340999"><ele>221.00000000000003</ele><time>2026-05-03T17:23:44Z</time></trkpt><trkpt lat="45.891697248383636" lon="12.018573551017381"><ele>221.00000000000003</ele><time>2026-05-03T17:23:45Z</time></trkpt><trkpt lat="45.89168701363733" lon="12.018429039685124"><ele>221.0</ele><time>2026-05-03T17:23:46Z</time></trkpt><trkpt lat="45.89167280408676" lon="12.018277070832065"><ele>221.0</ele><time>2026-05-03T17:23:47Z</time></trkpt><trkpt lat="45.89165318279948" lon="12.01810711428208"><ele>224.0</ele><time>2026-05-03T17:23:48Z</time></trkpt><trkpt lat="45.891593561697434" lon="12.01795186803969"><ele>227.0</ele><time>2026-05-03T17:23:49Z</time></trkpt><trkpt lat="45.89151310532908" lon="12.017818494176353"><ele>230.0</ele><time>2026-05-03T17:23:50Z</time></trkpt><trkpt lat="45.891424703976945" lon="12.017702294680465"><ele>233.0</ele><time>2026-05-03T17:23:50.999Z</time></trkpt><trkpt lat="45.89133293375283" lon="12.017576044918124"><ele>231.0</ele><time>2026-05-03T17:23:51.999Z</time></trkpt><trkpt lat="45.891229451164655" lon="12.017470766381118"><ele>229.0</ele><time>2026-05-03T17:23:52.999Z</time></trkpt><trkpt lat="45.89111279877459" lon="12.017394052597734"><ele>227.0</ele><time>2026-05-03T17:23:53.999Z</time></trkpt><trkpt lat="45.89099850399196" lon="12.0173479440766"><ele>225.0</ele><time>2026-05-03T17:23:54.999Z</time></trkpt><trkpt lat="45.89088765223327" lon="12.017317584141106"><ele>225.0</ele><time>2026-05-03T17:23:55.999Z</time></trkpt><trkpt lat="45.89077585149093" lon="12.017280886009232"><ele>225.0</ele><time>2026-05-03T17:23:56.999Z</time></trkpt><trkpt lat="45.890664545482515" lon="12.017244566547234"><ele>225.0</ele><time>2026-05-03T17:23:57.999Z</time></trkpt><trkpt lat="45.89054797417363" lon="12.017208708487198"><ele>225.0</ele><time>2026-05-03T17:23:58.999Z</time></trkpt><trkpt lat="45.890423904825255" lon="12.017158451829625"><ele>225.0</ele><time>2026-05-03T17:23:59.999Z</time></trkpt><trkpt lat="45.890294538935755" lon="12.017099961566869"><ele>225.0</ele><time>2026-05-03T17:24:00.999Z</time></trkpt><trkpt lat="45.89017067661614" lon="12.01699769055139"><ele>225.0</ele><time>2026-05-03T17:24:01.999Z</time></trkpt><trkpt lat="45.89004392709061" lon="12.016904819305648"><ele>225.0</ele><time>2026-05-03T17:24:02.999Z</time></trkpt><trkpt lat="45.88991494494364" lon="12.01680014139519"><ele>228.0</ele><time>2026-05-03T17:24:03.999Z</time></trkpt><trkpt lat="45.88978484095428" lon="12.016696458828843"><ele>231.0</ele><time>2026-05-03T17:24:04.999Z</time></trkpt><trkpt lat="45.88964894241226" lon="12.016601938623694"><ele>234.0</ele><time>2026-05-03T17:24:05.999Z</time></trkpt><trkpt lat="45.88950540204108" lon="12.01651066236844"><ele>234.0</ele><time>2026-05-03T17:24:06.999Z</time></trkpt><trkpt lat="45.88935810592346" lon="12.016404221454387"><ele>234.0</ele><time>2026-05-03T17:24:07.999Z</time></trkpt><trkpt lat="45.889201402900014" lon="12.01630166028462"><ele>234.0</ele><time>2026-05-03T17:24:08.999Z</time></trkpt><trkpt lat="45.88905200252873" lon="12.016207449883021"><ele>228.33333333333331</ele><time>2026-05-03T17:24:09.999Z</time></trkpt><trkpt lat="45.88889961457165" lon="12.016101145778698"><ele>222.66666666666666</ele><time>2026-05-03T17:24:10.999Z</time></trkpt><trkpt lat="45.88875616559599" lon="12.015996925544519"><ele>217.0</ele><time>2026-05-03T17:24:11.999Z</time></trkpt><trkpt lat="45.888630397078586" lon="12.015899189360502"><ele>217.25</ele><time>2026-05-03T17:24:12.999Z</time></trkpt><trkpt lat="45.88849745846476" lon="12.015819316746928"><ele>217.5</ele><time>2026-05-03T17:24:13.999Z</time></trkpt><trkpt lat="45.888367264877225" lon="12.015722056149874"><ele>217.75</ele><time>2026-05-03T17:24:14.999Z</time></trkpt><trkpt lat="45.888245821668285" lon="12.015595343226002"><ele>218.0</ele><time>2026-05-03T17:24:15.999Z</time></trkpt><trkpt lat="45.888136855550165" lon="12.01545749352465"><ele>218.0</ele><time>2026-05-03T17:24:16.999Z</time></trkpt><trkpt lat="45.88802761172476" lon="12.015324005467662"><ele>218.0</ele><time>2026-05-03T17:24:17.999Z</time></trkpt><trkpt lat="45.887925368766005" lon="12.015198765324666"><ele>218.0</ele><time>2026-05-03T17:24:18.999Z</time></trkpt><trkpt lat="45.88782234679903" lon="12.015072937082492"><ele>218.0</ele><time>2026-05-03T17:24:19.999Z</time></trkpt><trkpt lat="45.887719767040025" lon="12.01495061699138"><ele>219.5</ele><time>2026-05-03T17:24:20.999Z</time></trkpt><trkpt lat="45.88762176261063" lon="12.01482990988695"><ele>221.0</ele><time>2026-05-03T17:24:21.999Z</time></trkpt><trkpt lat="45.887522646271854" lon="12.014693193408286"><ele>222.5</ele><time>2026-05-03T17:24:22.999Z</time></trkpt><trkpt lat="45.88742352648798" lon="12.014567232730373"><ele>224.0</ele><time>2026-05-03T17:24:23.999Z</time></trkpt><trkpt lat="45.88732728156978" lon="12.014439300115606"><ele>224.0</ele><time>2026-05-03T17:24:24.999Z</time></trkpt><trkpt lat="45.88723289627173" lon="12.014313426352674"><ele>223.99999999999997</ele><time>2026-05-03T17:24:25.999Z</time></trkpt><trkpt lat="45.887152957880005" lon="12.014206421878434"><ele>223.99999999999997</ele><time>2026-05-03T17:24:26.999Z</time></trkpt><trkpt lat="45.887072303036376" lon="12.014110827007627"><ele>224.0</ele><time>2026-05-03T17:24:27.999Z</time></trkpt><trkpt lat="45.88698205849977" lon="12.014049043594625"><ele>224.0</ele><time>2026-05-03T17:24:28.999Z</time></trkpt><trkpt lat="45.886890182589255" lon="12.013999852144318"><ele>223.6</ele><time>2026-05-03T17:24:29.999Z</time></trkpt><trkpt lat="45.8867877013109" lon="12.013973267946726"><ele>223.2</ele><time>2026-05-03T17:24:30.999Z</time></trkpt><trkpt lat="45.886687098811265" lon="12.013934170698166"><ele>222.79999999999998</ele><time>2026-05-03T17:24:31.999Z</time></trkpt><trkpt lat="45.886599770847866" lon="12.01386064596515"><ele>222.39999999999998</ele><time>2026-05-03T17:24:32.999Z</time></trkpt><trkpt lat="45.88651331147935" lon="12.013791566040023"><ele>222.0</ele><time>2026-05-03T17:24:33.999Z</time></trkpt><trkpt lat="45.88645961113339" lon="12.013695565331497"><ele>222.0</ele><time>2026-05-03T17:24:34.999Z</time></trkpt><trkpt lat="45.88641763952033" lon="12.013561444011065"><ele>222.0</ele><time>2026-05-03T17:24:35.999Z</time></trkpt><trkpt lat="45.88637001751349" lon="12.013412314357561"><ele>222.0</ele><time>2026-05-03T17:24:36.999Z</time></trkpt><trkpt lat="45.88632712872218" lon="12.013246596599505"><ele>222.0</ele><time>2026-05-03T17:24:37.999Z</time></trkpt><trkpt lat="45.886281491781254" lon="12.013077117384237"><ele>222.39999999999998</ele><time>2026-05-03T17:24:38.999Z</time></trkpt><trkpt lat="45.88623784410913" lon="12.01292170701581"><ele>222.79999999999998</ele><time>2026-05-03T17:24:39.999Z</time></trkpt><trkpt lat="45.88619112527336" lon="12.012782977405372"><ele>223.2</ele><time>2026-05-03T17:24:40.999Z</time></trkpt><trkpt lat="45.88613495199738" lon="12.012647248941807"><ele>223.6</ele><time>2026-05-03T17:24:41.999Z</time></trkpt><trkpt lat="45.88607074586588" lon="12.012513071265953"><ele>224.0</ele><time>2026-05-03T17:24:42.999Z</time></trkpt><trkpt lat="45.885999556174326" lon="12.012392972099898"><ele>220.79999999999998</ele><time>2026-05-03T17:24:43.999Z</time></trkpt><trkpt lat="45.88591838532831" lon="12.012280625385221"><ele>217.59999999999997</ele><time>2026-05-03T17:24:44.999Z</time></trkpt><trkpt lat="45.88584014361232" lon="12.012167726446428"><ele>214.4</ele><time>2026-05-03T17:24:45.999Z</time></trkpt><trkpt lat="45.88577674671728" lon="12.01205501414747"><ele>211.2</ele><time>2026-05-03T17:24:46.999Z</time></trkpt><trkpt lat="45.88573361455269" lon="12.01193466931905"><ele>208.0</ele><time>2026-05-03T17:24:47.999Z</time></trkpt><trkpt lat="45.88571465267686" lon="12.011792691924347"><ele>208.4</ele><time>2026-05-03T17:24:48.999Z</time></trkpt><trkpt lat="45.8857520660084" lon="12.01165066013067"><ele>208.8</ele><time>2026-05-03T17:24:49.999Z</time></trkpt><trkpt lat="45.88581025816199" lon="12.011533353814965"><ele>209.2</ele><time>2026-05-03T17:24:50.999Z</time></trkpt><trkpt lat="45.88587382270595" lon="12.011407850422966"><ele>209.6</ele><time>2026-05-03T17:24:51.999Z</time></trkpt><trkpt lat="45.88594403741754" lon="12.011282892465992"><ele>210.0</ele><time>2026-05-03T17:24:52.999Z</time></trkpt><trkpt lat="45.88602042217214" lon="12.011152212483044"><ele>210.0</ele><time>2026-05-03T17:24:53.999Z</time></trkpt><trkpt lat="45.886095000900184" lon="12.011017250433317"><ele>210.0</ele><time>2026-05-03T17:24:55Z</time></trkpt><trkpt lat="45.88616944055822" lon="12.010850350480588"><ele>210.0</ele><time>2026-05-03T17:24:56Z</time></trkpt><trkpt lat="45.88624594810448" lon="12.010724336223948"><ele>210.0</ele><time>2026-05-03T17:24:57Z</time></trkpt><trkpt lat="45.886327991112765" lon="12.010586141439406"><ele>208.25</ele><time>2026-05-03T17:24:58Z</time></trkpt><trkpt lat="45.88641490491296" lon="12.010443707054836"><ele>206.5</ele><time>2026-05-03T17:24:59Z</time></trkpt><trkpt lat="45.88649202192636" lon="12.0102928973"><ele>204.75</ele><time>2026-05-03T17:25:00Z</time></trkpt><trkpt lat="45.8865691872193" lon="12.010151383899437"><ele>203.0</ele><time>2026-05-03T17:25:01Z</time></trkpt><trkpt lat="45.88665282167134" lon="12.010002309682783"><ele>203.0</ele><time>2026-05-03T17:25:02Z</time></trkpt><trkpt lat="45.88673911991024" lon="12.00986209723604"><ele>203.0</ele><time>2026-05-03T17:25:03Z</time></trkpt><trkpt lat="45.88682900677165" lon="12.009712312827267"><ele>203.0</ele><time>2026-05-03T17:25:04Z</time></trkpt><trkpt lat="45.8869164518341" lon="12.009560112034352"><ele>203.0</ele><time>2026-05-03T17:25:05Z</time></trkpt><trkpt lat="45.88701624789525" lon="12.00941674337121"><ele>203.0</ele><time>2026-05-03T17:25:06Z</time></trkpt><trkpt lat="45.88712329875353" lon="12.009270604971183"><ele>203.0</ele><time>2026-05-03T17:25:07Z</time></trkpt><trkpt lat="45.887222567383745" lon="12.009138210141185"><ele>203.0</ele><time>2026-05-03T17:25:08Z</time></trkpt><trkpt lat="45.88732241828094" lon="12.00901368345144"><ele>203.0</ele><time>2026-05-03T17:25:09Z</time></trkpt><trkpt lat="45.887418962141396" lon="12.008888324808847"><ele>203.0</ele><time>2026-05-03T17:25:10Z</time></trkpt><trkpt lat="45.887516815917444" lon="12.00875575117749"><ele>203.0</ele><time>2026-05-03T17:25:11Z</time></trkpt><trkpt lat="45.88762309726645" lon="12.008631464168703"><ele>203.0</ele><time>2026-05-03T17:25:12Z</time></trkpt><trkpt lat="45.887725039372796" lon="12.008500039758157"><ele>203.0</ele><time>2026-05-03T17:25:13Z</time></trkpt><trkpt lat="45.887823975003755" lon="12.008368867273306"><ele>202.5</ele><time>2026-05-03T17:25:14Z</time></trkpt><trkpt lat="45.8879281011897" lon="12.00824226217555"><ele>202.0</ele><time>2026-05-03T17:25:15Z</time></trkpt><trkpt lat="45.88802721945588" lon="12.00810889160928"><ele>201.5</ele><time>2026-05-03T17:25:16Z</time></trkpt><trkpt lat="45.88813136186794" lon="12.007974329073937"><ele>201.0</ele><time>2026-05-03T17:25:17Z</time></trkpt><trkpt lat="45.88823752833046" lon="12.007842197815547"><ele>201.0</ele><time>2026-05-03T17:25:18Z</time></trkpt><trkpt lat="45.88834234114039" lon="12.007704126418016"><ele>201.0</ele><time>2026-05-03T17:25:19Z</time></trkpt><trkpt lat="45.88845233704363" lon="12.00756076039928"><ele>201.0</ele><time>2026-05-03T17:25:20Z</time></trkpt><trkpt lat="45.88856194515835" lon="12.007421464652174"><ele>201.0</ele><time>2026-05-03T17:25:21Z</time></trkpt><trkpt lat="45.88867575014016" lon="12.007274986083841"><ele>201.0</ele><time>2026-05-03T17:25:22Z</time></trkpt><trkpt lat="45.888793126706716" lon="12.007124408130112"><ele>201.0</ele><time>2026-05-03T17:25:23Z</time></trkpt><trkpt lat="45.88891628749844" lon="12.006973486661831"><ele>201.0</ele><time>2026-05-03T17:25:24Z</time></trkpt><trkpt lat="45.88904247738984" lon="12.006822060408235"><ele>200.66666666666669</ele><time>2026-05-03T17:25:25Z</time></trkpt><trkpt lat="45.889176785736005" lon="12.006660323423889"><ele>200.33333333333334</ele><time>2026-05-03T17:25:26Z</time></trkpt><trkpt lat="45.88930342135166" lon="12.006495433613987"><ele>200.0</ele><time>2026-05-03T17:25:27Z</time></trkpt><trkpt lat="45.88942741783187" lon="12.00633580221282"><ele>201.33333333333334</ele><time>2026-05-03T17:25:28Z</time></trkpt><trkpt lat="45.889553701527454" lon="12.00617369121182"><ele>202.66666666666669</ele><time>2026-05-03T17:25:29Z</time></trkpt><trkpt lat="45.88968698001393" lon="12.006020384479923"><ele>204.0</ele><time>2026-05-03T17:25:30Z</time></trkpt><trkpt lat="45.88980535270009" lon="12.00587137112872"><ele>204.0</ele><time>2026-05-03T17:25:31Z</time></trkpt><trkpt lat="45.889925503185786" lon="12.005721063158274"><ele>204.0</ele><time>2026-05-03T17:25:32Z</time></trkpt><trkpt lat="45.89004860502931" lon="12.00557067743619"><ele>204.0</ele><time>2026-05-03T17:25:33Z</time></trkpt><trkpt lat="45.89017251725902" lon="12.005415769467042"><ele>204.25</ele><time>2026-05-03T17:25:34Z</time></trkpt><trkpt lat="45.89028301038387" lon="12.005274791368045"><ele>204.5</ele><time>2026-05-03T17:25:35Z</time></trkpt><trkpt lat="45.89038569128207" lon="12.005143687743532"><ele>204.75</ele><time>2026-05-03T17:25:36Z</time></trkpt><trkpt lat="45.89048470792446" lon="12.005022259474451"><ele>205.0</ele><time>2026-05-03T17:25:37Z</time></trkpt><trkpt lat="45.89056886701759" lon="12.004914834137557"><ele>205.8</ele><time>2026-05-03T17:25:38Z</time></trkpt><trkpt lat="45.890653083336005" lon="12.00480300645741"><ele>206.6</ele><time>2026-05-03T17:25:39Z</time></trkpt><trkpt lat="45.89072797914162" lon="12.004687712847794"><ele>207.39999999999998</ele><time>2026-05-03T17:25:40Z</time></trkpt><trkpt lat="45.8907664323121" lon="12.004547909948409"><ele>208.2</ele><time>2026-05-03T17:25:41Z</time></trkpt><trkpt lat="45.89078912024071" lon="12.00440748003184"><ele>209.0</ele><time>2026-05-03T17:25:42Z</time></trkpt><trkpt lat="45.8907850923978" lon="12.004303097781069"><ele>209.00000000000003</ele><time>2026-05-03T17:25:43Z</time></trkpt><trkpt lat="45.89079619014777" lon="12.004197054867706"><ele>209.0</ele><time>2026-05-03T17:25:44Z</time></trkpt><trkpt lat="45.8908088924616" lon="12.004104465935631"><ele>209.0</ele><time>2026-05-03T17:25:45Z</time></trkpt><trkpt lat="45.89082483595513" lon="12.004015773724715"><ele>209.0</ele><time>2026-05-03T17:25:46Z</time></trkpt><trkpt lat="45.89083620495549" lon="12.003913107345253"><ele>209.00000000000003</ele><time>2026-05-03T17:25:47Z</time></trkpt><trkpt lat="45.89083970610658" lon="12.003753157286996"><ele>209.0</ele><time>2026-05-03T17:25:49Z</time></trkpt><trkpt lat="45.89085754210047" lon="12.00365944219197"><ele>209.2</ele><time>2026-05-03T17:25:50.999Z</time></trkpt><trkpt lat="45.89089318602566" lon="12.003578008537186"><ele>209.39999999999998</ele><time>2026-05-03T17:25:54.999Z</time></trkpt><trkpt lat="45.89105505578851" lon="12.003619606540653"><ele>209.6</ele><time>2026-05-03T17:25:56.999Z</time></trkpt><trkpt lat="45.89113770232375" lon="12.003639663241888"><ele>209.8</ele><time>2026-05-03T17:25:57.999Z</time></trkpt><trkpt lat="45.891228592250954" lon="12.003650075866055"><ele>210.0</ele><time>2026-05-03T17:25:58.999Z</time></trkpt><trkpt lat="45.89132576519199" lon="12.00366225077585"><ele>211.0</ele><time>2026-05-03T17:25:59.999Z</time></trkpt><trkpt lat="45.89141982757589" lon="12.003679333491814"><ele>212.0</ele><time>2026-05-03T17:26:00.999Z</time></trkpt><trkpt lat="45.89153067664987" lon="12.003702721980831"><ele>213.0</ele><time>2026-05-03T17:26:01.999Z</time></trkpt><trkpt lat="45.891646147078376" lon="12.00373392510476"><ele>214.0</ele><time>2026-05-03T17:26:02.999Z</time></trkpt><trkpt lat="45.891757632243866" lon="12.003744223025896"><ele>215.0</ele><time>2026-05-03T17:26:03.999Z</time></trkpt><trkpt lat="45.89187518592253" lon="12.003760680247858"><ele>215.0</ele><time>2026-05-03T17:26:04.999Z</time></trkpt><trkpt lat="45.891991812515755" lon="12.003791860550727"><ele>215.0</ele><time>2026-05-03T17:26:05.999Z</time></trkpt><trkpt lat="45.89210726971819" lon="12.003822815180108"><ele>215.0</ele><time>2026-05-03T17:26:06.999Z</time></trkpt><trkpt lat="45.892221362856446" lon="12.003841603490677"><ele>215.0</ele><time>2026-05-03T17:26:07.999Z</time></trkpt><trkpt lat="45.892337576295105" lon="12.003843231028293"><ele>215.0</ele><time>2026-05-03T17:26:08.999Z</time></trkpt><trkpt lat="45.892460178716874" lon="12.00386485088451"><ele>215.0</ele><time>2026-05-03T17:26:09.999Z</time></trkpt><trkpt lat="45.89257945528865" lon="12.003843219714648"><ele>215.0</ele><time>2026-05-03T17:26:10.999Z</time></trkpt><trkpt lat="45.892701455120715" lon="12.003805289982418"><ele>215.0</ele><time>2026-05-03T17:26:11.999Z</time></trkpt><trkpt lat="45.89282487592727" lon="12.003764642439615"><ele>216.75</ele><time>2026-05-03T17:26:12.999Z</time></trkpt><trkpt lat="45.89294930272776" lon="12.003701413614898"><ele>218.5</ele><time>2026-05-03T17:26:13.999Z</time></trkpt><trkpt lat="45.893085302846224" lon="12.003635730108524"><ele>220.25</ele><time>2026-05-03T17:26:14.999Z</time></trkpt><trkpt lat="45.89321547654743" lon="12.003553880957627"><ele>222.0</ele><time>2026-05-03T17:26:15.999Z</time></trkpt><trkpt lat="45.89333957186941" lon="12.00346880382687"><ele>222.75</ele><time>2026-05-03T17:26:16.999Z</time></trkpt><trkpt lat="45.89346963573622" lon="12.003383661316061"><ele>223.5</ele><time>2026-05-03T17:26:17.999Z</time></trkpt><trkpt lat="45.89360031372024" lon="12.00329878988809"><ele>224.25</ele><time>2026-05-03T17:26:18.999Z</time></trkpt><trkpt lat="45.893735813925666" lon="12.003201738571262"><ele>225.0</ele><time>2026-05-03T17:26:19.999Z</time></trkpt><trkpt lat="45.893863252909846" lon="12.00311601939128"><ele>225.75</ele><time>2026-05-03T17:26:20.999Z</time></trkpt><trkpt lat="45.89399264917347" lon="12.003022866488518"><ele>226.5</ele><time>2026-05-03T17:26:21.999Z</time></trkpt><trkpt lat="45.89412651401556" lon="12.002932796444952"><ele>227.25</ele><time>2026-05-03T17:26:22.999Z</time></trkpt><trkpt lat="45.89424846166587" lon="12.002838044845046"><ele>228.0</ele><time>2026-05-03T17:26:23.999Z</time></trkpt><trkpt lat="45.8943824042509" lon="12.00275374643615"><ele>228.0</ele><time>2026-05-03T17:26:24.999Z</time></trkpt><trkpt lat="45.89450302902445" lon="12.002678278791615"><ele>228.0</ele><time>2026-05-03T17:26:25.999Z</time></trkpt><trkpt lat="45.8946243493048" lon="12.002590224253545"><ele>228.0</ele><time>2026-05-03T17:26:26.999Z</time></trkpt><trkpt lat="45.894754003358784" lon="12.00250354787517"><ele>228.0</ele><time>2026-05-03T17:26:27.999Z</time></trkpt><trkpt lat="45.89486810814607" lon="12.00241489871535"><ele>227.75</ele><time>2026-05-03T17:26:28.999Z</time></trkpt><trkpt lat="45.894979168749444" lon="12.002340154247852"><ele>227.5</ele><time>2026-05-03T17:26:29.999Z</time></trkpt><trkpt lat="45.895090735674216" lon="12.002259714430853"><ele>227.25</ele><time>2026-05-03T17:26:30.999Z</time></trkpt><trkpt lat="45.895196228958014" lon="12.002190951291707"><ele>227.0</ele><time>2026-05-03T17:26:31.999Z</time></trkpt><trkpt lat="45.89529706531178" lon="12.002127337281323"><ele>227.0</ele><time>2026-05-03T17:26:32.999Z</time></trkpt><trkpt lat="45.895385457842266" lon="12.002066353636375"><ele>227.0</ele><time>2026-05-03T17:26:33.999Z</time></trkpt><trkpt lat="45.89546834923757" lon="12.002019734706247"><ele>227.0</ele><time>2026-05-03T17:26:34.999Z</time></trkpt><trkpt lat="45.89555080026877" lon="12.001985391163323"><ele>227.0</ele><time>2026-05-03T17:26:35.999Z</time></trkpt><trkpt lat="45.89564124162504" lon="12.001945609864746"><ele>227.0</ele><time>2026-05-03T17:26:36.999Z</time></trkpt><trkpt lat="45.89573079537788" lon="12.001873890524855"><ele>227.0</ele><time>2026-05-03T17:26:37.999Z</time></trkpt><trkpt lat="45.89582809083501" lon="12.00178286515229"><ele>227.0</ele><time>2026-05-03T17:26:38.999Z</time></trkpt><trkpt lat="45.89592693962686" lon="12.001695349475817"><ele>227.0</ele><time>2026-05-03T17:26:39.999Z</time></trkpt><trkpt lat="45.89604846301913" lon="12.001618189366823"><ele>227.0</ele><time>2026-05-03T17:26:40.999Z</time></trkpt><trkpt lat="45.896160365856765" lon="12.001539232554936"><ele>227.25</ele><time>2026-05-03T17:26:41.999Z</time></trkpt><trkpt lat="45.89628016450751" lon="12.001455112907099"><ele>227.5</ele><time>2026-05-03T17:26:42.999Z</time></trkpt><trkpt lat="45.89641005578068" lon="12.001366747938311"><ele>227.75</ele><time>2026-05-03T17:26:43.999Z</time></trkpt><trkpt lat="45.89654515016066" lon="12.00127972266869"><ele>228.0</ele><time>2026-05-03T17:26:44.999Z</time></trkpt><trkpt lat="45.89667735309176" lon="12.00119064026274"><ele>229.25</ele><time>2026-05-03T17:26:45.999Z</time></trkpt><trkpt lat="45.89680269815481" lon="12.001108602537798"><ele>230.5</ele><time>2026-05-03T17:26:46.999Z</time></trkpt><trkpt lat="45.8969362084972" lon="12.001018107717007"><ele>231.75</ele><time>2026-05-03T17:26:47.999Z</time></trkpt><trkpt lat="45.89706510049739" lon="12.00093177338738"><ele>233.0</ele><time>2026-05-03T17:26:48.999Z</time></trkpt><trkpt lat="45.897191991870514" lon="12.00084319276885"><ele>232.75</ele><time>2026-05-03T17:26:49.999Z</time></trkpt><trkpt lat="45.89732736880192" lon="12.000750719620692"><ele>232.5</ele><time>2026-05-03T17:26:50.999Z</time></trkpt><trkpt lat="45.897458808212534" lon="12.000661098378462"><ele>232.25</ele><time>2026-05-03T17:26:51.999Z</time></trkpt><trkpt lat="45.89758718536249" lon="12.00056912378738"><ele>232.0</ele><time>2026-05-03T17:26:52.999Z</time></trkpt><trkpt lat="45.89771802362039" lon="12.000477050196118"><ele>232.0</ele><time>2026-05-03T17:26:53.999Z</time></trkpt><trkpt lat="45.89785018470142" lon="12.000391995865233"><ele>232.0</ele><time>2026-05-03T17:26:54.999Z</time></trkpt><trkpt lat="45.89797442306572" lon="12.000304805827604"><ele>232.0</ele><time>2026-05-03T17:26:55.999Z</time></trkpt><trkpt lat="45.89810444784294" lon="12.000217972678538"><ele>232.0</ele><time>2026-05-03T17:26:56.999Z</time></trkpt><trkpt lat="45.89823029732778" lon="12.000129979118832"><ele>232.0</ele><time>2026-05-03T17:26:57.999Z</time></trkpt><trkpt lat="45.89836907703805" lon="12.000046383711782"><ele>232.0</ele><time>2026-05-03T17:26:58.999Z</time></trkpt><trkpt lat="45.89850085968266" lon="11.999969708784349"><ele>232.0</ele><time>2026-05-03T17:26:59.999Z</time></trkpt><trkpt lat="45.89863575781784" lon="11.999906452308428"><ele>232.0</ele><time>2026-05-03T17:27:01Z</time></trkpt><trkpt lat="45.89877152859902" lon="11.999845905469817"><ele>233.0</ele><time>2026-05-03T17:27:02Z</time></trkpt><trkpt lat="45.89890781450555" lon="11.999789850243662"><ele>234.0</ele><time>2026-05-03T17:27:03Z</time></trkpt><trkpt lat="45.899044044444295" lon="11.99973294328262"><ele>235.0</ele><time>2026-05-03T17:27:04Z</time></trkpt><trkpt lat="45.899186860724335" lon="11.999684381297293"><ele>236.0</ele><time>2026-05-03T17:27:05Z</time></trkpt><trkpt lat="45.8993349497782" lon="11.999629850898378"><ele>237.0</ele><time>2026-05-03T17:27:06Z</time></trkpt><trkpt lat="45.89947549434614" lon="11.999573291595908"><ele>238.0</ele><time>2026-05-03T17:27:07Z</time></trkpt><trkpt lat="45.89961384230658" lon="11.999499474815845"><ele>239.0</ele><time>2026-05-03T17:27:08Z</time></trkpt><trkpt lat="45.89974290152827" lon="11.999400186418324"><ele>240.0</ele><time>2026-05-03T17:27:09Z</time></trkpt><trkpt lat="45.89986738572884" lon="11.9992751959207"><ele>239.75</ele><time>2026-05-03T17:27:10Z</time></trkpt><trkpt lat="45.89998368271121" lon="11.999133065584289"><ele>239.5</ele><time>2026-05-03T17:27:11Z</time></trkpt><trkpt lat="45.90006615267655" lon="11.998980097565369"><ele>239.25</ele><time>2026-05-03T17:27:12Z</time></trkpt><trkpt lat="45.90014876599613" lon="11.99881019593877"><ele>239.0</ele><time>2026-05-03T17:27:13Z</time></trkpt><trkpt lat="45.900207615638344" lon="11.99863620163356"><ele>239.75</ele><time>2026-05-03T17:27:14Z</time></trkpt><trkpt lat="45.90027572891196" lon="11.99846534471257"><ele>240.5</ele><time>2026-05-03T17:27:15Z</time></trkpt><trkpt lat="45.90033900104239" lon="11.99828636895476"><ele>241.25</ele><time>2026-05-03T17:27:16Z</time></trkpt><trkpt lat="45.90040492181459" lon="11.998104852674546"><ele>242.0</ele><time>2026-05-03T17:27:17Z</time></trkpt><trkpt lat="45.90046088610181" lon="11.997917836995102"><ele>242.25</ele><time>2026-05-03T17:27:18Z</time></trkpt><trkpt lat="45.900530487796836" lon="11.997734122885694"><ele>242.5</ele><time>2026-05-03T17:27:19Z</time></trkpt><trkpt lat="45.90060838598131" lon="11.997548408832017"><ele>242.75</ele><time>2026-05-03T17:27:20Z</time></trkpt><trkpt lat="45.900671990560106" lon="11.997361932739883"><ele>243.0</ele><time>2026-05-03T17:27:21Z</time></trkpt><trkpt lat="45.90073967168032" lon="11.997177345842367"><ele>244.33333333333331</ele><time>2026-05-03T17:27:22Z</time></trkpt><trkpt lat="45.90080185898042" lon="11.996992515262358"><ele>245.66666666666666</ele><time>2026-05-03T17:27:23Z</time></trkpt><trkpt lat="45.90088298712533" lon="11.996801931054705"><ele>247.0</ele><time>2026-05-03T17:27:24Z</time></trkpt><trkpt lat="45.90096569985106" lon="11.996619702578972"><ele>249.0</ele><time>2026-05-03T17:27:25Z</time></trkpt><trkpt lat="45.90102905460096" lon="11.996452919642861"><ele>251.0</ele><time>2026-05-03T17:27:26Z</time></trkpt><trkpt lat="45.901101312958026" lon="11.996297778358453"><ele>253.0</ele><time>2026-05-03T17:27:27Z</time></trkpt><trkpt lat="45.901166823799514" lon="11.996129906310673"><ele>255.0</ele><time>2026-05-03T17:27:28Z</time></trkpt><trkpt lat="45.9011981687323" lon="11.995987864449518"><ele>255.0</ele><time>2026-05-03T17:27:29Z</time></trkpt><trkpt lat="45.90122729553058" lon="11.995865818956812"><ele>255.0</ele><time>2026-05-03T17:27:30Z</time></trkpt><trkpt lat="45.901260282703426" lon="11.99575451276999"><ele>255.0</ele><time>2026-05-03T17:27:31Z</time></trkpt><trkpt lat="45.90127281386369" lon="11.995634768959501"><ele>255.0</ele><time>2026-05-03T17:27:32Z</time></trkpt><trkpt lat="45.901298118712425" lon="11.995524282818405"><ele>255.0</ele><time>2026-05-03T17:27:33Z</time></trkpt><trkpt lat="45.90129775892567" lon="11.995391743415526"><ele>255.0</ele><time>2026-05-03T17:27:34Z</time></trkpt><trkpt lat="45.901304080474986" lon="11.995296645182473"><ele>255.5</ele><time>2026-05-03T17:27:35Z</time></trkpt><trkpt lat="45.90130613116365" lon="11.9952042314145"><ele>256.0</ele><time>2026-05-03T17:27:37Z</time></trkpt><trkpt lat="45.90129591178245" lon="11.995114920885324"><ele>256.5</ele><time>2026-05-03T17:27:44Z</time></trkpt><trkpt lat="45.90126832756223" lon="11.994977404662515"><ele>257.0</ele><time>2026-05-03T17:27:47Z</time></trkpt><trkpt lat="45.90125401985009" lon="11.994884220361362"><ele>257.5</ele><time>2026-05-03T17:27:48Z</time></trkpt><trkpt lat="45.901225475214424" lon="11.994697592940632"><ele>258.0</ele><time>2026-05-03T17:27:50Z</time></trkpt><trkpt lat="45.901151930054404" lon="11.994537230330982"><ele>258.3333333333333</ele><time>2026-05-03T17:27:52Z</time></trkpt><trkpt lat="45.90111560797246" lon="11.99443868930345"><ele>258.6666666666667</ele><time>2026-05-03T17:27:55Z</time></trkpt><trkpt lat="45.901045415618114" lon="11.99435911719866"><ele>259.0</ele><time>2026-05-03T17:27:56Z</time></trkpt><trkpt lat="45.90099192466863" lon="11.994266164826684"><ele>259.33333333333337</ele><time>2026-05-03T17:27:57Z</time></trkpt><trkpt lat="45.90094333892972" lon="11.99416261545152"><ele>259.6666666666667</ele><time>2026-05-03T17:27:58Z</time></trkpt><trkpt lat="45.90087260969646" lon="11.99407568940454"><ele>260.0</ele><time>2026-05-03T17:27:59Z</time></trkpt><trkpt lat="45.900795894812944" lon="11.993992257974623"><ele>260.2</ele><time>2026-05-03T17:28:00Z</time></trkpt><trkpt lat="45.900726834039595" lon="11.993887325406215"><ele>260.4</ele><time>2026-05-03T17:28:00.999Z</time></trkpt><trkpt lat="45.90066834369806" lon="11.993784379883044"><ele>260.6</ele><time>2026-05-03T17:28:01.999Z</time></trkpt><trkpt lat="45.900626889632974" lon="11.993656306355257"><ele>260.8</ele><time>2026-05-03T17:28:02.999Z</time></trkpt><trkpt lat="45.90061530933535" lon="11.993511728471075"><ele>261.0</ele><time>2026-05-03T17:28:03.999Z</time></trkpt><trkpt lat="45.90059568491903" lon="11.993349878354394"><ele>261.75</ele><time>2026-05-03T17:28:04.999Z</time></trkpt><trkpt lat="45.9005580778656" lon="11.993201315313776"><ele>262.5</ele><time>2026-05-03T17:28:05.999Z</time></trkpt><trkpt lat="45.90051438711419" lon="11.993050779937358"><ele>263.25</ele><time>2026-05-03T17:28:06.999Z</time></trkpt><trkpt lat="45.900448842504474" lon="11.992905093948618"><ele>264.0</ele><time>2026-05-03T17:28:07.999Z</time></trkpt><trkpt lat="45.90037665236206" lon="11.992766208543069"><ele>264.0</ele><time>2026-05-03T17:28:08.999Z</time></trkpt><trkpt lat="45.9003024179569" lon="11.992630360877094"><ele>264.0</ele><time>2026-05-03T17:28:09.999Z</time></trkpt><trkpt lat="45.90022441175036" lon="11.99250456782464"><ele>264.0</ele><time>2026-05-03T17:28:10.999Z</time></trkpt><trkpt lat="45.90014826228987" lon="11.99237533689692"><ele>264.0</ele><time>2026-05-03T17:28:11.999Z</time></trkpt><trkpt lat="45.900073411633166" lon="11.992243770303299"><ele>263.5</ele><time>2026-05-03T17:28:12.999Z</time></trkpt><trkpt lat="45.899986033956" lon="11.992099886127255"><ele>263.0</ele><time>2026-05-03T17:28:13.999Z</time></trkpt><trkpt lat="45.89989597712122" lon="11.991954890547778"><ele>262.5</ele><time>2026-05-03T17:28:14.999Z</time></trkpt><trkpt lat="45.89980855887575" lon="11.99180969689268"><ele>262.0</ele><time>2026-05-03T17:28:15.999Z</time></trkpt><trkpt lat="45.899731385064875" lon="11.991665764376371"><ele>262.0</ele><time>2026-05-03T17:28:16.999Z</time></trkpt><trkpt lat="45.899662152209686" lon="11.991501059113684"><ele>262.0</ele><time>2026-05-03T17:28:17.999Z</time></trkpt><trkpt lat="45.89958352981711" lon="11.991344709306597"><ele>262.0</ele><time>2026-05-03T17:28:18.999Z</time></trkpt><trkpt lat="45.899515134671" lon="11.991181168380946"><ele>262.0</ele><time>2026-05-03T17:28:19.999Z</time></trkpt><trkpt lat="45.89946227767907" lon="11.990988819750665"><ele>262.75</ele><time>2026-05-03T17:28:20.999Z</time></trkpt><trkpt lat="45.89942828431151" lon="11.99078808308795"><ele>263.5</ele><time>2026-05-03T17:28:21.999Z</time></trkpt><trkpt lat="45.89943724360176" lon="11.99059711674919"><ele>264.25</ele><time>2026-05-03T17:28:22.999Z</time></trkpt><trkpt lat="45.89945318500915" lon="11.990417233094202"><ele>265.0</ele><time>2026-05-03T17:28:23.999Z</time></trkpt><trkpt lat="45.89946943784719" lon="11.990191999983159"><ele>264.66666666666663</ele><time>2026-05-03T17:28:24.999Z</time></trkpt><trkpt lat="45.89949662685627" lon="11.989975586626228"><ele>264.3333333333333</ele><time>2026-05-03T17:28:25.999Z</time></trkpt><trkpt lat="45.89952215360279" lon="11.989739210191917"><ele>264.0</ele><time>2026-05-03T17:28:26.999Z</time></trkpt><trkpt lat="45.8995438433164" lon="11.98952048338669"><ele>264.0</ele><time>2026-05-03T17:28:27.999Z</time></trkpt><trkpt lat="45.89957207883404" lon="11.989286840487987"><ele>264.0</ele><time>2026-05-03T17:28:28.999Z</time></trkpt><trkpt lat="45.89959317869801" lon="11.9890687033685"><ele>264.0</ele><time>2026-05-03T17:28:29.999Z</time></trkpt><trkpt lat="45.8996431781847" lon="11.988845308189902"><ele>263.25</ele><time>2026-05-03T17:28:30.999Z</time></trkpt><trkpt lat="45.89967802415139" lon="11.988642469022453"><ele>262.5</ele><time>2026-05-03T17:28:31.999Z</time></trkpt><trkpt lat="45.899695082309016" lon="11.988454558642239"><ele>261.75</ele><time>2026-05-03T17:28:32.999Z</time></trkpt><trkpt lat="45.89971368698562" lon="11.988258664145036"><ele>261.0</ele><time>2026-05-03T17:28:33.999Z</time></trkpt><trkpt lat="45.899733133386896" lon="11.988064622736006"><ele>259.0</ele><time>2026-05-03T17:28:34.999Z</time></trkpt><trkpt lat="45.89975829587377" lon="11.987875495292322"><ele>257.0</ele><time>2026-05-03T17:28:35.999Z</time></trkpt><trkpt lat="45.89975916752072" lon="11.987719936551583"><ele>255.0</ele><time>2026-05-03T17:28:36.999Z</time></trkpt><trkpt lat="45.89978069077141" lon="11.987558492307711"><ele>253.0</ele><time>2026-05-03T17:28:37.999Z</time></trkpt><trkpt lat="45.89975992938481" lon="11.987410404313746"><ele>252.5</ele><time>2026-05-03T17:28:38.999Z</time></trkpt><trkpt lat="45.89970737103555" lon="11.987282290124952"><ele>252.0</ele><time>2026-05-03T17:28:39.999Z</time></trkpt><trkpt lat="45.8996343500052" lon="11.98716659367379"><ele>251.5</ele><time>2026-05-03T17:28:40.999Z</time></trkpt><trkpt lat="45.89952322682543" lon="11.987094205297284"><ele>251.0</ele><time>2026-05-03T17:28:41.999Z</time></trkpt><trkpt lat="45.89940277130329" lon="11.987052559935647"><ele>251.0</ele><time>2026-05-03T17:28:42.999Z</time></trkpt><trkpt lat="45.89927585230836" lon="11.986993767484948"><ele>251.0</ele><time>2026-05-03T17:28:43.999Z</time></trkpt><trkpt lat="45.89915648081114" lon="11.986891098926737"><ele>251.0</ele><time>2026-05-03T17:28:44.999Z</time></trkpt><trkpt lat="45.89903675686701" lon="11.986774271531297"><ele>251.0</ele><time>2026-05-03T17:28:45.999Z</time></trkpt><trkpt lat="45.89892143862657" lon="11.986664629627315"><ele>250.25</ele><time>2026-05-03T17:28:46.999Z</time></trkpt><trkpt lat="45.898804132997086" lon="11.986556077660726"><ele>249.5</ele><time>2026-05-03T17:28:47.999Z</time></trkpt><trkpt lat="45.89867090405938" lon="11.986445342983899"><ele>248.75</ele><time>2026-05-03T17:28:48.999Z</time></trkpt><trkpt lat="45.898546281489494" lon="11.986326776472795"><ele>248.0</ele><time>2026-05-03T17:28:49.999Z</time></trkpt><trkpt lat="45.89841958415061" lon="11.986208400120246"><ele>248.0</ele><time>2026-05-03T17:28:50.999Z</time></trkpt><trkpt lat="45.89829635723207" lon="11.986084962597547"><ele>248.0</ele><time>2026-05-03T17:28:51.999Z</time></trkpt><trkpt lat="45.898199982642325" lon="11.985952795137795"><ele>248.0</ele><time>2026-05-03T17:28:52.999Z</time></trkpt><trkpt lat="45.89809762335611" lon="11.98583796752546"><ele>248.0</ele><time>2026-05-03T17:28:53.999Z</time></trkpt><trkpt lat="45.898000123182975" lon="11.985746381053078"><ele>247.60000000000002</ele><time>2026-05-03T17:28:54.999Z</time></trkpt><trkpt lat="45.89789938369168" lon="11.985660605447684"><ele>247.20000000000002</ele><time>2026-05-03T17:28:55.999Z</time></trkpt><trkpt lat="45.897804745880194" lon="11.985596749636297"><ele>246.8</ele><time>2026-05-03T17:28:56.999Z</time></trkpt><trkpt lat="45.89771333234219" lon="11.985540651064989"><ele>246.4</ele><time>2026-05-03T17:28:57.999Z</time></trkpt><trkpt lat="45.89762602694202" lon="11.98550612409444"><ele>246.0</ele><time>2026-05-03T17:28:58.999Z</time></trkpt><trkpt lat="45.89754772284036" lon="11.985490927488303"><ele>245.5</ele><time>2026-05-03T17:28:59.999Z</time></trkpt><trkpt lat="45.89746919818112" lon="11.985453938752025"><ele>245.0</ele><time>2026-05-03T17:29:00.999Z</time></trkpt><trkpt lat="45.897399379143934" lon="11.985420084428677"><ele>244.5</ele><time>2026-05-03T17:29:01.999Z</time></trkpt><trkpt lat="45.89731562294337" lon="11.985332360169082"><ele>244.0</ele><time>2026-05-03T17:29:03.999Z</time></trkpt><trkpt lat="45.89749025527548" lon="11.984992349702168"><ele>243.0</ele><time>2026-05-03T17:29:09Z</time></trkpt><trkpt lat="45.89751959226951" lon="11.984866853882062"><ele>242.0</ele><time>2026-05-03T17:29:10Z</time></trkpt><trkpt lat="45.89753680325022" lon="11.984708803695513"><ele>241.0</ele><time>2026-05-03T17:29:11Z</time></trkpt><trkpt lat="45.89757123746032" lon="11.984504230500134"><ele>240.0</ele><time>2026-05-03T17:29:12Z</time></trkpt><trkpt lat="45.89761978108198" lon="11.984346765182472"><ele>240.0</ele><time>2026-05-03T17:29:13Z</time></trkpt><trkpt lat="45.89767787187838" lon="11.984213125326523"><ele>240.0</ele><time>2026-05-03T17:29:14Z</time></trkpt><trkpt lat="45.897717541226044" lon="11.98408687835339"><ele>240.0</ele><time>2026-05-03T17:29:15Z</time></trkpt><trkpt lat="45.89778551078422" lon="11.983964952497757"><ele>240.0</ele><time>2026-05-03T17:29:16Z</time></trkpt><trkpt lat="45.89785267137927" lon="11.983852370900372"><ele>240.0</ele><time>2026-05-03T17:29:17Z</time></trkpt><trkpt lat="45.89792012347278" lon="11.983723819356483"><ele>239.8</ele><time>2026-05-03T17:29:18Z</time></trkpt><trkpt lat="45.89793459166496" lon="11.983613435724557"><ele>239.6</ele><time>2026-05-03T17:29:19Z</time></trkpt><trkpt lat="45.897931323502675" lon="11.983473716934773"><ele>239.39999999999998</ele><time>2026-05-03T17:29:20Z</time></trkpt><trkpt lat="45.897910620734834" lon="11.98333206389893"><ele>239.2</ele><time>2026-05-03T17:29:21Z</time></trkpt><trkpt lat="45.89787280505931" lon="11.983173591113784"><ele>239.0</ele><time>2026-05-03T17:29:22Z</time></trkpt><trkpt lat="45.89781692906605" lon="11.983008863653405"><ele>239.0</ele><time>2026-05-03T17:29:23Z</time></trkpt><trkpt lat="45.8977774338932" lon="11.982858089765188"><ele>238.99999999999997</ele><time>2026-05-03T17:29:24Z</time></trkpt><trkpt lat="45.897726272257145" lon="11.982706136707689"><ele>238.99999999999997</ele><time>2026-05-03T17:29:25Z</time></trkpt><trkpt lat="45.897680003445984" lon="11.982549838277281"><ele>239.0</ele><time>2026-05-03T17:29:26Z</time></trkpt><trkpt lat="45.89763425651862" lon="11.982429514917257"><ele>239.0</ele><time>2026-05-03T17:29:27Z</time></trkpt><trkpt lat="45.897597609474026" lon="11.98227108309007"><ele>237.39999999999998</ele><time>2026-05-03T17:29:28Z</time></trkpt><trkpt lat="45.897546243530826" lon="11.982126850068228"><ele>235.79999999999998</ele><time>2026-05-03T17:29:29Z</time></trkpt><trkpt lat="45.89752731562944" lon="11.98198702860444"><ele>234.20000000000002</ele><time>2026-05-03T17:29:30Z</time></trkpt><trkpt lat="45.897490729635145" lon="11.98186797543571"><ele>232.60000000000002</ele><time>2026-05-03T17:29:31Z</time></trkpt><trkpt lat="45.89745794623048" lon="11.98175968311731"><ele>231.0</ele><time>2026-05-03T17:29:32Z</time></trkpt><trkpt lat="45.897429234761496" lon="11.981646942816738"><ele>231.0</ele><time>2026-05-03T17:29:33Z</time></trkpt><trkpt lat="45.897395566844786" lon="11.981545152438327"><ele>231.00000000000003</ele><time>2026-05-03T17:29:34Z</time></trkpt><trkpt lat="45.89736966597649" lon="11.981424281926504"><ele>231.00000000000003</ele><time>2026-05-03T17:29:35Z</time></trkpt><trkpt lat="45.89733713695944" lon="11.98129331420562"><ele>231.0</ele><time>2026-05-03T17:29:36Z</time></trkpt><trkpt lat="45.897303963483104" lon="11.981172272099371"><ele>231.0</ele><time>2026-05-03T17:29:37Z</time></trkpt><trkpt lat="45.897264458053215" lon="11.981035648908415"><ele>231.0</ele><time>2026-05-03T17:29:38Z</time></trkpt><trkpt lat="45.89723317190044" lon="11.980888596988985"><ele>231.0</ele><time>2026-05-03T17:29:39Z</time></trkpt><trkpt lat="45.89718302668438" lon="11.980738563300648"><ele>231.0</ele><time>2026-05-03T17:29:40Z</time></trkpt><trkpt lat="45.89714229665235" lon="11.980579250111159"><ele>231.0</ele><time>2026-05-03T17:29:41Z</time></trkpt><trkpt lat="45.89709426234666" lon="11.980423301570433"><ele>231.0</ele><time>2026-05-03T17:29:42Z</time></trkpt><trkpt lat="45.89703827372037" lon="11.98026987840561"><ele>231.0</ele><time>2026-05-03T17:29:43Z</time></trkpt><trkpt lat="45.89698771846309" lon="11.980099393587924"><ele>231.0</ele><time>2026-05-03T17:29:44Z</time></trkpt><trkpt lat="45.89693588220775" lon="11.979921373532058"><ele>231.0</ele><time>2026-05-03T17:29:45Z</time></trkpt><trkpt lat="45.896879109998586" lon="11.979737016554104"><ele>231.0</ele><time>2026-05-03T17:29:46Z</time></trkpt><trkpt lat="45.89682414640645" lon="11.979548754497799"><ele>231.0</ele><time>2026-05-03T17:29:47Z</time></trkpt><trkpt lat="45.89676791041153" lon="11.979348560805729"><ele>231.0</ele><time>2026-05-03T17:29:48Z</time></trkpt><trkpt lat="45.896711488009856" lon="11.979142670097625"><ele>231.0</ele><time>2026-05-03T17:29:49Z</time></trkpt><trkpt lat="45.89665813546684" lon="11.978939455700473"><ele>229.0</ele><time>2026-05-03T17:29:50Z</time></trkpt><trkpt lat="45.89659749638663" lon="11.978728971746861"><ele>227.0</ele><time>2026-05-03T17:29:51Z</time></trkpt><trkpt lat="45.896533450789335" lon="11.978508697219418"><ele>225.0</ele><time>2026-05-03T17:29:52Z</time></trkpt><trkpt lat="45.8964692618537" lon="11.978289142983698"><ele>224.66666666666669</ele><time>2026-05-03T17:29:53Z</time></trkpt><trkpt lat="45.896402931365614" lon="11.97806389472528"><ele>224.33333333333334</ele><time>2026-05-03T17:29:54Z</time></trkpt><trkpt lat="45.89633737775661" lon="11.977834989281591"><ele>224.0</ele><time>2026-05-03T17:29:55Z</time></trkpt><trkpt lat="45.89627810091309" lon="11.977619783712043"><ele>224.33333333333334</ele><time>2026-05-03T17:29:56Z</time></trkpt><trkpt lat="45.89621769924556" lon="11.977402954338825"><ele>224.66666666666669</ele><time>2026-05-03T17:29:57Z</time></trkpt><trkpt lat="45.89615570548674" lon="11.977199234807655"><ele>225.0</ele><time>2026-05-03T17:29:58Z</time></trkpt><trkpt lat="45.89609238814478" lon="11.977002636190267"><ele>225.0</ele><time>2026-05-03T17:29:59Z</time></trkpt><trkpt lat="45.896023419851105" lon="11.976805068089966"><ele>225.0</ele><time>2026-05-03T17:30:00Z</time></trkpt><trkpt lat="45.89596075492843" lon="11.976602378385856"><ele>225.0</ele><time>2026-05-03T17:30:01Z</time></trkpt><trkpt lat="45.89589868324456" lon="11.976393143512897"><ele>226.0</ele><time>2026-05-03T17:30:02Z</time></trkpt><trkpt lat="45.89583877425604" lon="11.976185079793362"><ele>227.0</ele><time>2026-05-03T17:30:03Z</time></trkpt><trkpt lat="45.895786720805205" lon="11.975973375395652"><ele>228.0</ele><time>2026-05-03T17:30:04Z</time></trkpt><trkpt lat="45.89571642475058" lon="11.975761088532902"><ele>228.0</ele><time>2026-05-03T17:30:05Z</time></trkpt><trkpt lat="45.895663380942636" lon="11.975543786490228"><ele>228.0</ele><time>2026-05-03T17:30:06Z</time></trkpt><trkpt lat="45.895604994836546" lon="11.975325449259316"><ele>228.0</ele><time>2026-05-03T17:30:07Z</time></trkpt><trkpt lat="45.895549000878944" lon="11.97509988622179"><ele>229.33333333333331</ele><time>2026-05-03T17:30:08Z</time></trkpt><trkpt lat="45.89550851864316" lon="11.974869616851908"><ele>230.66666666666666</ele><time>2026-05-03T17:30:09Z</time></trkpt><trkpt lat="45.89548654959717" lon="11.97462796990319"><ele>232.0</ele><time>2026-05-03T17:30:10Z</time></trkpt><trkpt lat="45.895484516290985" lon="11.974382262537704"><ele>233.33333333333331</ele><time>2026-05-03T17:30:11Z</time></trkpt><trkpt lat="45.89549141778507" lon="11.974151539778347"><ele>234.66666666666669</ele><time>2026-05-03T17:30:11.999Z</time></trkpt><trkpt lat="45.89552681461423" lon="11.973940900415277"><ele>236.0</ele><time>2026-05-03T17:30:12.999Z</time></trkpt><trkpt lat="45.895574935706556" lon="11.97370591863965"><ele>236.0</ele><time>2026-05-03T17:30:13.999Z</time></trkpt><trkpt lat="45.89561775838378" lon="11.973501166364569"><ele>236.0</ele><time>2026-05-03T17:30:14.999Z</time></trkpt><trkpt lat="45.895662456606345" lon="11.973286001597733"><ele>236.0</ele><time>2026-05-03T17:30:15.999Z</time></trkpt><trkpt lat="45.89570152871815" lon="11.973058766598013"><ele>234.33333333333334</ele><time>2026-05-03T17:30:16.999Z</time></trkpt><trkpt lat="45.895738006681064" lon="11.97283148264409"><ele>232.66666666666669</ele><time>2026-05-03T17:30:17.999Z</time></trkpt><trkpt lat="45.89577455139839" lon="11.972595923465406"><ele>231.0</ele><time>2026-05-03T17:30:18.999Z</time></trkpt><trkpt lat="45.895812278579214" lon="11.972363932729545"><ele>229.66666666666669</ele><time>2026-05-03T17:30:19.999Z</time></trkpt><trkpt lat="45.89585020239435" lon="11.972134393407703"><ele>228.33333333333334</ele><time>2026-05-03T17:30:20.999Z</time></trkpt><trkpt lat="45.895895112596854" lon="11.971901982772044"><ele>227.0</ele><time>2026-05-03T17:30:21.999Z</time></trkpt><trkpt lat="45.895930044413134" lon="11.97168308070405"><ele>231.25</ele><time>2026-05-03T17:30:22.999Z</time></trkpt><trkpt lat="45.89596421068048" lon="11.971479162408711"><ele>235.5</ele><time>2026-05-03T17:30:23.999Z</time></trkpt><trkpt lat="45.89600155881934" lon="11.971274172010924"><ele>239.75</ele><time>2026-05-03T17:30:24.999Z</time></trkpt><trkpt lat="45.8960383191148" lon="11.97107153055784"><ele>244.0</ele><time>2026-05-03T17:30:25.999Z</time></trkpt><trkpt lat="45.896077376112025" lon="11.970869686684253"><ele>243.6</ele><time>2026-05-03T17:30:26.999Z</time></trkpt><trkpt lat="45.89610247929835" lon="11.970683280266526"><ele>243.2</ele><time>2026-05-03T17:30:27.999Z</time></trkpt><trkpt lat="45.89610921911341" lon="11.970533692154515"><ele>242.79999999999998</ele><time>2026-05-03T17:30:28.999Z</time></trkpt><trkpt lat="45.896110377594304" lon="11.970408948535125"><ele>242.39999999999998</ele><time>2026-05-03T17:30:29.999Z</time></trkpt><trkpt lat="45.89611373066623" lon="11.970300101110874"><ele>242.0</ele><time>2026-05-03T17:30:30.999Z</time></trkpt><trkpt lat="45.89611444921348" lon="11.970124204908673"><ele>242.2</ele><time>2026-05-03T17:30:32.999Z</time></trkpt><trkpt lat="45.89612146809882" lon="11.969999443769005"><ele>242.39999999999998</ele><time>2026-05-03T17:30:33.999Z</time></trkpt><trkpt lat="45.896125578810484" lon="11.96985421309014"><ele>242.60000000000002</ele><time>2026-05-03T17:30:34.999Z</time></trkpt><trkpt lat="45.89611880621921" lon="11.969698251070023"><ele>242.8</ele><time>2026-05-03T17:30:35.999Z</time></trkpt><trkpt lat="45.89613380752224" lon="11.969543055359354"><ele>243.0</ele><time>2026-05-03T17:30:36.999Z</time></trkpt><trkpt lat="45.89615068743567" lon="11.969356639168591"><ele>243.0</ele><time>2026-05-03T17:30:37.999Z</time></trkpt><trkpt lat="45.896169911334354" lon="11.969203033618383"><ele>243.0</ele><time>2026-05-03T17:30:38.999Z</time></trkpt><trkpt lat="45.896172031971716" lon="11.96904289755678"><ele>243.0</ele><time>2026-05-03T17:30:39.999Z</time></trkpt><trkpt lat="45.89619994899705" lon="11.968875468778824"><ele>243.0</ele><time>2026-05-03T17:30:40.999Z</time></trkpt><trkpt lat="45.89621111079675" lon="11.968696161251488"><ele>242.75</ele><time>2026-05-03T17:30:41.999Z</time></trkpt><trkpt lat="45.89623027776311" lon="11.968496545946676"><ele>242.5</ele><time>2026-05-03T17:30:42.999Z</time></trkpt><trkpt lat="45.89623786161664" lon="11.968300456500637"><ele>242.25</ele><time>2026-05-03T17:30:43.999Z</time></trkpt><trkpt lat="45.8962509513668" lon="11.968074353505001"><ele>242.0</ele><time>2026-05-03T17:30:44.999Z</time></trkpt><trkpt lat="45.89626225577126" lon="11.967860450877975"><ele>241.5</ele><time>2026-05-03T17:30:45.999Z</time></trkpt><trkpt lat="45.896270497361996" lon="11.967655598304681"><ele>241.0</ele><time>2026-05-03T17:30:46.999Z</time></trkpt><trkpt lat="45.89629073559702" lon="11.967450548419663"><ele>240.5</ele><time>2026-05-03T17:30:47.999Z</time></trkpt><trkpt lat="45.89631260311699" lon="11.96724583973852"><ele>240.0</ele><time>2026-05-03T17:30:48.999Z</time></trkpt><trkpt lat="45.89633132042411" lon="11.967053374630522"><ele>239.5</ele><time>2026-05-03T17:30:49.999Z</time></trkpt><trkpt lat="45.89633783712942" lon="11.966876953054951"><ele>239.0</ele><time>2026-05-03T17:30:50.999Z</time></trkpt><trkpt lat="45.89635675280275" lon="11.966701632439118"><ele>238.5</ele><time>2026-05-03T17:30:51.999Z</time></trkpt><trkpt lat="45.89636537732602" lon="11.966532763038257"><ele>238.0</ele><time>2026-05-03T17:30:52.999Z</time></trkpt><trkpt lat="45.89636443821951" lon="11.966376008651926"><ele>237.60000000000002</ele><time>2026-05-03T17:30:53.999Z</time></trkpt><trkpt lat="45.89637138207351" lon="11.966226895965532"><ele>237.20000000000002</ele><time>2026-05-03T17:30:54.999Z</time></trkpt><trkpt lat="45.8964061721628" lon="11.966054313742864"><ele>236.8</ele><time>2026-05-03T17:30:55.999Z</time></trkpt><trkpt lat="45.89638392761206" lon="11.965911812926363"><ele>236.4</ele><time>2026-05-03T17:30:56.999Z</time></trkpt><trkpt lat="45.896322966529674" lon="11.96577505769964"><ele>236.0</ele><time>2026-05-03T17:30:57.999Z</time></trkpt><trkpt lat="45.89625429501845" lon="11.965648125915818"><ele>235.0</ele><time>2026-05-03T17:30:58.999Z</time></trkpt><trkpt lat="45.89616361825933" lon="11.965528961362034"><ele>234.0</ele><time>2026-05-03T17:30:59.999Z</time></trkpt><trkpt lat="45.89609425209295" lon="11.965391569288489"><ele>233.0</ele><time>2026-05-03T17:31:00.999Z</time></trkpt><trkpt lat="45.89604062889273" lon="11.96523616261275"><ele>232.0</ele><time>2026-05-03T17:31:01.999Z</time></trkpt><trkpt lat="45.89601207752432" lon="11.965043155321618"><ele>231.33333333333331</ele><time>2026-05-03T17:31:02.999Z</time></trkpt><trkpt lat="45.895937093017146" lon="11.964854911591914"><ele>230.66666666666669</ele><time>2026-05-03T17:31:03.999Z</time></trkpt><trkpt lat="45.89587615849937" lon="11.964652035222297"><ele>230.0</ele><time>2026-05-03T17:31:04.999Z</time></trkpt><trkpt lat="45.89581252373783" lon="11.964447074010991"><ele>227.66666666666669</ele><time>2026-05-03T17:31:05.999Z</time></trkpt><trkpt lat="45.89574886404335" lon="11.964232513010497"><ele>225.33333333333331</ele><time>2026-05-03T17:31:06.999Z</time></trkpt><trkpt lat="45.89568695221671" lon="11.964017649608026"><ele>223.0</ele><time>2026-05-03T17:31:07.999Z</time></trkpt><trkpt lat="45.89562481801298" lon="11.963824415995688"><ele>222.75</ele><time>2026-05-03T17:31:08.999Z</time></trkpt><trkpt lat="45.89556792572894" lon="11.963632142043936"><ele>222.5</ele><time>2026-05-03T17:31:09.999Z</time></trkpt><trkpt lat="45.89550548053496" lon="11.963437892177012"><ele>222.25</ele><time>2026-05-03T17:31:10.999Z</time></trkpt><trkpt lat="45.89546382467104" lon="11.963234427588008"><ele>222.0</ele><time>2026-05-03T17:31:11.999Z</time></trkpt><trkpt lat="45.89541374795768" lon="11.963056709019657"><ele>222.75</ele><time>2026-05-03T17:31:13Z</time></trkpt><trkpt lat="45.89536788582292" lon="11.962890786769671"><ele>223.5</ele><time>2026-05-03T17:31:14Z</time></trkpt><trkpt lat="45.895328029023574" lon="11.962725442760494"><ele>224.25</ele><time>2026-05-03T17:31:15Z</time></trkpt><trkpt lat="45.895292076940954" lon="11.962567500927223"><ele>225.0</ele><time>2026-05-03T17:31:16Z</time></trkpt><trkpt lat="45.89533084936945" lon="11.962400908266279"><ele>225.5</ele><time>2026-05-03T17:31:17Z</time></trkpt><trkpt lat="45.89538199766251" lon="11.962235290076498"><ele>226.0</ele><time>2026-05-03T17:31:18Z</time></trkpt><trkpt lat="45.8954368272476" lon="11.962073104101094"><ele>226.5</ele><time>2026-05-03T17:31:19Z</time></trkpt><trkpt lat="45.8955217947591" lon="11.961932486972742"><ele>227.0</ele><time>2026-05-03T17:31:20Z</time></trkpt><trkpt lat="45.895626937607084" lon="11.96181909009224"><ele>227.0</ele><time>2026-05-03T17:31:21Z</time></trkpt><trkpt lat="45.89573657882426" lon="11.961735057448266"><ele>227.0</ele><time>2026-05-03T17:31:22Z</time></trkpt><trkpt lat="45.89585976427674" lon="11.96165321053065"><ele>227.0</ele><time>2026-05-03T17:31:23Z</time></trkpt><trkpt lat="45.895956923618286" lon="11.961547759923098"><ele>227.0</ele><time>2026-05-03T17:31:24Z</time></trkpt><trkpt lat="45.89603552397582" lon="11.96143545233943"><ele>227.39999999999998</ele><time>2026-05-03T17:31:25Z</time></trkpt><trkpt lat="45.896078125506165" lon="11.961295662162147"><ele>227.79999999999998</ele><time>2026-05-03T17:31:26Z</time></trkpt><trkpt lat="45.89606303482895" lon="11.961141160096341"><ele>228.2</ele><time>2026-05-03T17:31:27Z</time></trkpt><trkpt lat="45.896010262172815" lon="11.961007338141455"><ele>228.6</ele><time>2026-05-03T17:31:28Z</time></trkpt><trkpt lat="45.895915855924905" lon="11.960911913997917"><ele>229.0</ele><time>2026-05-03T17:31:29Z</time></trkpt><trkpt lat="45.89580563937817" lon="11.96087638136895"><ele>226.83333333333331</ele><time>2026-05-03T17:31:30Z</time></trkpt><trkpt lat="45.89570498809052" lon="11.960861748418393"><ele>224.66666666666666</ele><time>2026-05-03T17:31:31Z</time></trkpt><trkpt lat="45.895613355013474" lon="11.960835511186477"><ele>222.5</ele><time>2026-05-03T17:31:32Z</time></trkpt><trkpt lat="45.89552674529973" lon="11.960829241105179"><ele>220.33333333333331</ele><time>2026-05-03T17:31:33Z</time></trkpt><trkpt lat="45.89544511399639" lon="11.960815078707455"><ele>218.16666666666666</ele><time>2026-05-03T17:31:34Z</time></trkpt><trkpt lat="45.89537196957244" lon="11.96079282644876"><ele>216.0</ele><time>2026-05-03T17:31:35Z</time></trkpt><trkpt lat="45.89529764750095" lon="11.960755927858674"><ele>216.0</ele><time>2026-05-03T17:31:36Z</time></trkpt><trkpt lat="45.895239720143344" lon="11.960679572164189"><ele>216.0</ele><time>2026-05-03T17:31:37Z</time></trkpt><trkpt lat="45.895213201576006" lon="11.960590805769527"><ele>216.0</ele><time>2026-05-03T17:31:38Z</time></trkpt><trkpt lat="45.89518612597096" lon="11.960472528179535"><ele>216.0</ele><time>2026-05-03T17:31:39Z</time></trkpt><trkpt lat="45.89515671086989" lon="11.960334984880998"><ele>216.0</ele><time>2026-05-03T17:31:40Z</time></trkpt><trkpt lat="45.89516664375395" lon="11.960189030820024"><ele>216.0</ele><time>2026-05-03T17:31:41Z</time></trkpt><trkpt lat="45.89517664119612" lon="11.960032453700489"><ele>216.60000000000002</ele><time>2026-05-03T17:31:42Z</time></trkpt><trkpt lat="45.89519653674543" lon="11.95991247488543"><ele>217.20000000000002</ele><time>2026-05-03T17:31:43Z</time></trkpt><trkpt lat="45.895230771025844" lon="11.959775506376097"><ele>217.79999999999998</ele><time>2026-05-03T17:31:44Z</time></trkpt><trkpt lat="45.89528196926421" lon="11.959641115377512"><ele>218.39999999999998</ele><time>2026-05-03T17:31:45Z</time></trkpt><trkpt lat="45.89533653950514" lon="11.95950863554672"><ele>219.0</ele><time>2026-05-03T17:31:46Z</time></trkpt><trkpt lat="45.89541841414216" lon="11.959406608972722"><ele>219.0</ele><time>2026-05-03T17:31:47Z</time></trkpt><trkpt lat="45.89548608585372" lon="11.959283787033371"><ele>219.0</ele><time>2026-05-03T17:31:48Z</time></trkpt><trkpt lat="45.895562815720126" lon="11.959141814221264"><ele>219.0</ele><time>2026-05-03T17:31:49Z</time></trkpt><trkpt lat="45.89565656554166" lon="11.958993852353748"><ele>219.0</ele><time>2026-05-03T17:31:50Z</time></trkpt><trkpt lat="45.89572688513778" lon="11.958848359988778"><ele>216.25</ele><time>2026-05-03T17:31:51Z</time></trkpt><trkpt lat="45.895806975921424" lon="11.958696587259915"><ele>213.5</ele><time>2026-05-03T17:31:52Z</time></trkpt><trkpt lat="45.89587988994308" lon="11.958545164005063"><ele>210.75</ele><time>2026-05-03T17:31:53Z</time></trkpt><trkpt lat="45.89593321067479" lon="11.958347545937901"><ele>208.0</ele><time>2026-05-03T17:31:54Z</time></trkpt><trkpt lat="45.89595974032454" lon="11.95814891775865"><ele>213.25</ele><time>2026-05-03T17:31:55Z</time></trkpt><trkpt lat="45.89598809113967" lon="11.95793604246753"><ele>218.5</ele><time>2026-05-03T17:31:56Z</time></trkpt><trkpt lat="45.89602068285016" lon="11.957727999804339"><ele>223.75</ele><time>2026-05-03T17:31:57Z</time></trkpt><trkpt lat="45.8960565177971" lon="11.957527976075388"><ele>229.0</ele><time>2026-05-03T17:31:58Z</time></trkpt><trkpt lat="45.89607322890621" lon="11.957335344020617"><ele>229.0</ele><time>2026-05-03T17:31:59Z</time></trkpt><trkpt lat="45.896104901559035" lon="11.95714256825824"><ele>229.0</ele><time>2026-05-03T17:32:00Z</time></trkpt><trkpt lat="45.89612727235402" lon="11.956947947395673"><ele>229.0</ele><time>2026-05-03T17:32:01Z</time></trkpt><trkpt lat="45.896156575109146" lon="11.95675197924276"><ele>229.0</ele><time>2026-05-03T17:32:02Z</time></trkpt><trkpt lat="45.896177573902484" lon="11.956561127309897"><ele>226.75</ele><time>2026-05-03T17:32:03Z</time></trkpt><trkpt lat="45.89620591617331" lon="11.956366276005697"><ele>224.5</ele><time>2026-05-03T17:32:04Z</time></trkpt><trkpt lat="45.89623726082786" lon="11.956161273461063"><ele>222.25</ele><time>2026-05-03T17:32:05Z</time></trkpt><trkpt lat="45.896264666055785" lon="11.955955095024532"><ele>220.0</ele><time>2026-05-03T17:32:06Z</time></trkpt><trkpt lat="45.896297478153684" lon="11.955750597067548"><ele>217.5</ele><time>2026-05-03T17:32:07Z</time></trkpt><trkpt lat="45.89632510421595" lon="11.955545793824736"><ele>215.0</ele><time>2026-05-03T17:32:08Z</time></trkpt><trkpt lat="45.89636145346108" lon="11.955347044340868"><ele>212.5</ele><time>2026-05-03T17:32:09Z</time></trkpt><trkpt lat="45.89640613987218" lon="11.95516662868697"><ele>210.0</ele><time>2026-05-03T17:32:10Z</time></trkpt><trkpt lat="45.89645685846856" lon="11.954987406218624"><ele>206.75</ele><time>2026-05-03T17:32:11Z</time></trkpt><trkpt lat="45.89650025164848" lon="11.954819567494306"><ele>203.5</ele><time>2026-05-03T17:32:12Z</time></trkpt><trkpt lat="45.896555078507085" lon="11.954664078124146"><ele>200.25</ele><time>2026-05-03T17:32:13Z</time></trkpt><trkpt lat="45.896623588354764" lon="11.954520864025573"><ele>197.0</ele><time>2026-05-03T17:32:14Z</time></trkpt><trkpt lat="45.89668291372322" lon="11.954381449059529"><ele>197.0</ele><time>2026-05-03T17:32:15Z</time></trkpt><trkpt lat="45.896744928605195" lon="11.954252422746189"><ele>197.0</ele><time>2026-05-03T17:32:16Z</time></trkpt><trkpt lat="45.896808287871586" lon="11.954131994565703"><ele>197.0</ele><time>2026-05-03T17:32:16.999Z</time></trkpt><trkpt lat="45.8968770706591" lon="11.954013061631466"><ele>197.0</ele><time>2026-05-03T17:32:17.999Z</time></trkpt><trkpt lat="45.89694413250924" lon="11.953896117184776"><ele>197.0</ele><time>2026-05-03T17:32:18.999Z</time></trkpt><trkpt lat="45.89700754234472" lon="11.953788499734172"><ele>195.5</ele><time>2026-05-03T17:32:19.999Z</time></trkpt><trkpt lat="45.89707895139878" lon="11.953673801372835"><ele>194.0</ele><time>2026-05-03T17:32:20.999Z</time></trkpt><trkpt lat="45.89715167159368" lon="11.953550799653575"><ele>192.5</ele><time>2026-05-03T17:32:21.999Z</time></trkpt><trkpt lat="45.897237250955286" lon="11.953432267078234"><ele>191.0</ele><time>2026-05-03T17:32:22.999Z</time></trkpt><trkpt lat="45.89733514472882" lon="11.953314785858531"><ele>192.5</ele><time>2026-05-03T17:32:23.999Z</time></trkpt><trkpt lat="45.89744513953001" lon="11.953196259302706"><ele>194.0</ele><time>2026-05-03T17:32:24.999Z</time></trkpt><trkpt lat="45.89755265177058" lon="11.953090129470873"><ele>195.5</ele><time>2026-05-03T17:32:25.999Z</time></trkpt><trkpt lat="45.8976721148627" lon="11.952968944177295"><ele>197.0</ele><time>2026-05-03T17:32:26.999Z</time></trkpt><trkpt lat="45.89779637599442" lon="11.952872302632851"><ele>197.0</ele><time>2026-05-03T17:32:27.999Z</time></trkpt><trkpt lat="45.89793123106269" lon="11.952787986221686"><ele>197.0</ele><time>2026-05-03T17:32:28.999Z</time></trkpt><trkpt lat="45.89806921782609" lon="11.952706816209597"><ele>197.0</ele><time>2026-05-03T17:32:29.999Z</time></trkpt><trkpt lat="45.89820658013052" lon="11.952626820994753"><ele>197.0</ele><time>2026-05-03T17:32:30.999Z</time></trkpt><trkpt lat="45.898353985931735" lon="11.952554454524636"><ele>195.33333333333334</ele><time>2026-05-03T17:32:31.999Z</time></trkpt><trkpt lat="45.89851162678205" lon="11.952483146805442"><ele>193.66666666666669</ele><time>2026-05-03T17:32:32.999Z</time></trkpt><trkpt lat="45.89866601140643" lon="11.952411048526685"><ele>192.0</ele><time>2026-05-03T17:32:33.999Z</time></trkpt><trkpt lat="45.89881955189142" lon="11.952333109893575"><ele>192.0</ele><time>2026-05-03T17:32:34.999Z</time></trkpt><trkpt lat="45.898952416825466" lon="11.952273605882402"><ele>192.0</ele><time>2026-05-03T17:32:35.999Z</time></trkpt><trkpt lat="45.89909248433148" lon="11.952210913262348"><ele>192.0</ele><time>2026-05-03T17:32:36.999Z</time></trkpt><trkpt lat="45.89922213620161" lon="11.952146430899026"><ele>192.0</ele><time>2026-05-03T17:32:37.999Z</time></trkpt><trkpt lat="45.899347020907655" lon="11.952080889170004"><ele>200.0</ele><time>2026-05-03T17:32:38.999Z</time></trkpt><trkpt lat="45.8994744100393" lon="11.952025721675723"><ele>208.0</ele><time>2026-05-03T17:32:39.999Z</time></trkpt><trkpt lat="45.89960238667222" lon="11.951964259124289"><ele>216.0</ele><time>2026-05-03T17:32:40.999Z</time></trkpt><trkpt lat="45.89971358541961" lon="11.951910374796974"><ele>224.0</ele><time>2026-05-03T17:32:41.999Z</time></trkpt><trkpt lat="45.899815145415495" lon="11.951857399072244"><ele>224.0</ele><time>2026-05-03T17:32:42.999Z</time></trkpt><trkpt lat="45.899909538988396" lon="11.951815447101328"><ele>223.99999999999997</ele><time>2026-05-03T17:32:43.999Z</time></trkpt><trkpt lat="45.899993584847" lon="11.951788735813853"><ele>223.99999999999997</ele><time>2026-05-03T17:32:44.999Z</time></trkpt><trkpt lat="45.90007073755327" lon="11.951761553703266"><ele>224.0</ele><time>2026-05-03T17:32:45.999Z</time></trkpt><trkpt lat="45.90013763352637" lon="11.951740475465357"><ele>224.0</ele><time>2026-05-03T17:32:46.999Z</time></trkpt><trkpt lat="45.90025510757472" lon="11.951684582679414"><ele>218.2</ele><time>2026-05-03T17:32:48.999Z</time></trkpt><trkpt lat="45.900349833840956" lon="11.95164839576991"><ele>212.39999999999998</ele><time>2026-05-03T17:32:50.999Z</time></trkpt><trkpt lat="45.90030374917228" lon="11.951488322826844"><ele>206.6</ele><time>2026-05-03T17:32:51.999Z</time></trkpt><trkpt lat="45.90031208507796" lon="11.951379562496701"><ele>200.8</ele><time>2026-05-03T17:32:52.999Z</time></trkpt><trkpt lat="45.900265504402704" lon="11.951273854935566"><ele>195.0</ele><time>2026-05-03T17:32:53.999Z</time></trkpt><trkpt lat="45.90024463346387" lon="11.951141229604032"><ele>195.0</ele><time>2026-05-03T17:32:54.999Z</time></trkpt><trkpt lat="45.90024278715645" lon="11.950983485883606"><ele>195.0</ele><time>2026-05-03T17:32:55.999Z</time></trkpt><trkpt lat="45.900237369387746" lon="11.950817244038547"><ele>195.0</ele><time>2026-05-03T17:32:56.999Z</time></trkpt><trkpt lat="45.900220264798996" lon="11.95063141552187"><ele>195.0</ele><time>2026-05-03T17:32:57.999Z</time></trkpt><trkpt lat="45.90020880415513" lon="11.950451792266836"><ele>190.0</ele><time>2026-05-03T17:32:58.999Z</time></trkpt><trkpt lat="45.90019521713341" lon="11.950265315102694"><ele>185.0</ele><time>2026-05-03T17:32:59.999Z</time></trkpt><trkpt lat="45.9001810340204" lon="11.950071870966285"><ele>180.0</ele><time>2026-05-03T17:33:00.999Z</time></trkpt><trkpt lat="45.900174150762204" lon="11.949875226577829"><ele>175.0</ele><time>2026-05-03T17:33:01.999Z</time></trkpt><trkpt lat="45.90016151463631" lon="11.949672813881815"><ele>175.0</ele><time>2026-05-03T17:33:02.999Z</time></trkpt><trkpt lat="45.900143920304224" lon="11.949471703567863"><ele>175.0</ele><time>2026-05-03T17:33:03.999Z</time></trkpt><trkpt lat="45.90013067330466" lon="11.94926616347679"><ele>175.0</ele><time>2026-05-03T17:33:04.999Z</time></trkpt><trkpt lat="45.90012071294536" lon="11.949057437309598"><ele>175.0</ele><time>2026-05-03T17:33:05.999Z</time></trkpt><trkpt lat="45.90010776942103" lon="11.948844134301766"><ele>174.33333333333334</ele><time>2026-05-03T17:33:06.999Z</time></trkpt><trkpt lat="45.900092187879764" lon="11.948627592301067"><ele>173.66666666666666</ele><time>2026-05-03T17:33:07.999Z</time></trkpt><trkpt lat="45.900078955940856" lon="11.948405693009207"><ele>173.0</ele><time>2026-05-03T17:33:08.999Z</time></trkpt><trkpt lat="45.900066248619844" lon="11.948179045703641"><ele>172.66666666666666</ele><time>2026-05-03T17:33:09.999Z</time></trkpt><trkpt lat="45.900057355789606" lon="11.947961546136794"><ele>172.33333333333334</ele><time>2026-05-03T17:33:10.999Z</time></trkpt><trkpt lat="45.90003925586566" lon="11.947747885303217"><ele>172.0</ele><time>2026-05-03T17:33:11.999Z</time></trkpt><trkpt lat="45.900026322521526" lon="11.94753325295976"><ele>171.66666666666669</ele><time>2026-05-03T17:33:12.999Z</time></trkpt><trkpt lat="45.900015412905546" lon="11.947316398185592"><ele>171.33333333333334</ele><time>2026-05-03T17:33:13.999Z</time></trkpt><trkpt lat="45.89999988281425" lon="11.947096466002808"><ele>171.0</ele><time>2026-05-03T17:33:14.999Z</time></trkpt><trkpt lat="45.899983240736525" lon="11.946882131544955"><ele>172.66666666666666</ele><time>2026-05-03T17:33:15.999Z</time></trkpt><trkpt lat="45.899968980677755" lon="11.946671619895739"><ele>174.33333333333331</ele><time>2026-05-03T17:33:16.999Z</time></trkpt><trkpt lat="45.89995220500072" lon="11.946454362225202"><ele>176.0</ele><time>2026-05-03T17:33:17.999Z</time></trkpt><trkpt lat="45.89993908533647" lon="11.946236391512876"><ele>176.0</ele><time>2026-05-03T17:33:19Z</time></trkpt><trkpt lat="45.8999251151153" lon="11.946014083631022"><ele>176.0</ele><time>2026-05-03T17:33:20Z</time></trkpt><trkpt lat="45.89991137630209" lon="11.945811306180099"><ele>176.0</ele><time>2026-05-03T17:33:21Z</time></trkpt><trkpt lat="45.89989378901876" lon="11.945615290287991"><ele>176.0</ele><time>2026-05-03T17:33:22Z</time></trkpt><trkpt lat="45.8998808955234" lon="11.945422495652886"><ele>176.75</ele><time>2026-05-03T17:33:23Z</time></trkpt><trkpt lat="45.899871419512316" lon="11.945218831461867"><ele>177.5</ele><time>2026-05-03T17:33:24Z</time></trkpt><trkpt lat="45.89985767438554" lon="11.945021522896695"><ele>178.25</ele><time>2026-05-03T17:33:25Z</time></trkpt><trkpt lat="45.89984793659966" lon="11.94483206103535"><ele>179.0</ele><time>2026-05-03T17:33:26Z</time></trkpt><trkpt lat="45.89983994272789" lon="11.944655162623848"><ele>179.0</ele><time>2026-05-03T17:33:27Z</time></trkpt><trkpt lat="45.89983546676062" lon="11.944493751736896"><ele>179.0</ele><time>2026-05-03T17:33:28Z</time></trkpt><trkpt lat="45.89982809783124" lon="11.944334136468958"><ele>179.0</ele><time>2026-05-03T17:33:29Z</time></trkpt><trkpt lat="45.899815866896084" lon="11.94419602577783"><ele>179.0</ele><time>2026-05-03T17:33:30Z</time></trkpt><trkpt lat="45.89980842571607" lon="11.944069024059978"><ele>179.0</ele><time>2026-05-03T17:33:31Z</time></trkpt><trkpt lat="45.89980564568707" lon="11.9439505861602"><ele>178.5</ele><time>2026-05-03T17:33:32Z</time></trkpt><trkpt lat="45.899800445015124" lon="11.94383888257849"><ele>178.0</ele><time>2026-05-03T17:33:33Z</time></trkpt><trkpt lat="45.899795233025294" lon="11.943738254209036"><ele>177.5</ele><time>2026-05-03T17:33:34Z</time></trkpt><trkpt lat="45.89978818383133" lon="11.943643122098308"><ele>177.0</ele><time>2026-05-03T17:33:35Z</time></trkpt><trkpt lat="45.89978177987417" lon="11.943551195265632"><ele>176.5</ele><time>2026-05-03T17:33:36Z</time></trkpt><trkpt lat="45.89977149902165" lon="11.94341341037612"><ele>176.0</ele><time>2026-05-03T17:33:38Z</time></trkpt><trkpt lat="45.89978052788047" lon="11.943306783657992"><ele>177.60000000000002</ele><time>2026-05-03T17:33:41Z</time></trkpt><trkpt lat="45.89983565704412" lon="11.94316010419603"><ele>179.2</ele><time>2026-05-03T17:33:43Z</time></trkpt><trkpt lat="45.899874908395006" lon="11.94308875536082"><ele>180.8</ele><time>2026-05-03T17:33:44Z</time></trkpt><trkpt lat="45.899933408215176" lon="11.943014130708661"><ele>182.39999999999998</ele><time>2026-05-03T17:33:45Z</time></trkpt><trkpt lat="45.900043481597066" lon="11.94298790714628"><ele>184.0</ele><time>2026-05-03T17:33:46Z</time></trkpt><trkpt lat="45.900160088822894" lon="11.943007082629434"><ele>184.66666666666669</ele><time>2026-05-03T17:33:47Z</time></trkpt><trkpt lat="45.90029068088475" lon="11.94301457813647"><ele>185.33333333333334</ele><time>2026-05-03T17:33:48Z</time></trkpt><trkpt lat="45.900448409977145" lon="11.94300033653975"><ele>186.0</ele><time>2026-05-03T17:33:49Z</time></trkpt><trkpt lat="45.900618167080616" lon="11.942971944302514"><ele>186.0</ele><time>2026-05-03T17:33:50Z</time></trkpt><trkpt lat="45.900762705663894" lon="11.942936536391173"><ele>186.0</ele><time>2026-05-03T17:33:51Z</time></trkpt><trkpt lat="45.900891977115336" lon="11.942913811827335"><ele>186.0</ele><time>2026-05-03T17:33:52Z</time></trkpt><trkpt lat="45.90101538586271" lon="11.94288874800776"><ele>186.0</ele><time>2026-05-03T17:33:53Z</time></trkpt><trkpt lat="45.90113838324594" lon="11.942866250285787"><ele>185.75</ele><time>2026-05-03T17:33:54Z</time></trkpt><trkpt lat="45.901260171218155" lon="11.942838337286318"><ele>185.5</ele><time>2026-05-03T17:33:55Z</time></trkpt><trkpt lat="45.90138847029159" lon="11.942810166831308"><ele>185.25</ele><time>2026-05-03T17:33:56Z</time></trkpt><trkpt lat="45.90151843963044" lon="11.94278603299288"><ele>185.0</ele><time>2026-05-03T17:33:57Z</time></trkpt><trkpt lat="45.90165862369277" lon="11.94275684213664"><ele>185.75</ele><time>2026-05-03T17:33:58Z</time></trkpt><trkpt lat="45.901800451762206" lon="11.942729521669007"><ele>186.5</ele><time>2026-05-03T17:33:59Z</time></trkpt><trkpt lat="45.901944696040566" lon="11.942688892198502"><ele>187.25</ele><time>2026-05-03T17:34:00Z</time></trkpt><trkpt lat="45.90209292041674" lon="11.94264616097702"><ele>188.0</ele><time>2026-05-03T17:34:01Z</time></trkpt><trkpt lat="45.90224162379534" lon="11.942602581799624"><ele>188.66666666666666</ele><time>2026-05-03T17:34:02Z</time></trkpt><trkpt lat="45.90239063110769" lon="11.942537655862655"><ele>189.33333333333334</ele><time>2026-05-03T17:34:03Z</time></trkpt><trkpt lat="45.90253805919752" lon="11.94248569910113"><ele>190.0</ele><time>2026-05-03T17:34:04Z</time></trkpt><trkpt lat="45.90268715986104" lon="11.94243219303629"><ele>190.0</ele><time>2026-05-03T17:34:05Z</time></trkpt><trkpt lat="45.90283704122093" lon="11.942397565759933"><ele>190.0</ele><time>2026-05-03T17:34:06Z</time></trkpt><trkpt lat="45.9029855646173" lon="11.942338555918143"><ele>190.0</ele><time>2026-05-03T17:34:07Z</time></trkpt><trkpt lat="45.903122978915924" lon="11.942281473617518"><ele>190.0</ele><time>2026-05-03T17:34:08Z</time></trkpt><trkpt lat="45.90327286718234" lon="11.942240095342939"><ele>189.75</ele><time>2026-05-03T17:34:09Z</time></trkpt><trkpt lat="45.903423990077265" lon="11.942191519523986"><ele>189.5</ele><time>2026-05-03T17:34:10Z</time></trkpt><trkpt lat="45.90356537567482" lon="11.94213352866109"><ele>189.25</ele><time>2026-05-03T17:34:11Z</time></trkpt><trkpt lat="45.90370068610062" lon="11.942072747733993"><ele>189.0</ele><time>2026-05-03T17:34:12Z</time></trkpt><trkpt lat="45.9038342047327" lon="11.942006601555422"><ele>189.0</ele><time>2026-05-03T17:34:13Z</time></trkpt><trkpt lat="45.90397254176296" lon="11.941948796149838"><ele>189.0</ele><time>2026-05-03T17:34:14Z</time></trkpt><trkpt lat="45.904115327161165" lon="11.941888054131523"><ele>189.0</ele><time>2026-05-03T17:34:15Z</time></trkpt><trkpt lat="45.904249809005805" lon="11.941829481842092"><ele>189.0</ele><time>2026-05-03T17:34:16Z</time></trkpt><trkpt lat="45.90438786474592" lon="11.941758874750894"><ele>189.25</ele><time>2026-05-03T17:34:17Z</time></trkpt><trkpt lat="45.90451678938355" lon="11.941709052680308"><ele>189.5</ele><time>2026-05-03T17:34:18Z</time></trkpt><trkpt lat="45.90462604954084" lon="11.941662196193203"><ele>189.75</ele><time>2026-05-03T17:34:19Z</time></trkpt><trkpt lat="45.90475165874173" lon="11.941613959404128"><ele>190.0</ele><time>2026-05-03T17:34:19.999Z</time></trkpt><trkpt lat="45.90484502231547" lon="11.941565211471215"><ele>190.0</ele><time>2026-05-03T17:34:20.999Z</time></trkpt><trkpt lat="45.904928851001" lon="11.94151749688144"><ele>190.0</ele><time>2026-05-03T17:34:21.999Z</time></trkpt><trkpt lat="45.905013122725684" lon="11.941466663261991"><ele>190.0</ele><time>2026-05-03T17:34:22.999Z</time></trkpt><trkpt lat="45.9050932090701" lon="11.9414247163089"><ele>190.0</ele><time>2026-05-03T17:34:23.999Z</time></trkpt><trkpt lat="45.90518051836213" lon="11.941391083779857"><ele>190.0</ele><time>2026-05-03T17:34:24.999Z</time></trkpt><trkpt lat="45.90527591863473" lon="11.94134977469803"><ele>188.5</ele><time>2026-05-03T17:34:25.999Z</time></trkpt><trkpt lat="45.90536132535999" lon="11.94126050604247"><ele>187.0</ele><time>2026-05-03T17:34:26.999Z</time></trkpt><trkpt lat="45.90540916269019" lon="11.941114471180972"><ele>185.5</ele><time>2026-05-03T17:34:27.999Z</time></trkpt><trkpt lat="45.90540072700819" lon="11.940929276946672"><ele>184.0</ele><time>2026-05-03T17:34:28.999Z</time></trkpt><trkpt lat="45.90539434213692" lon="11.940726241502682"><ele>184.0</ele><time>2026-05-03T17:34:29.999Z</time></trkpt><trkpt lat="45.90545238088961" lon="11.940474496372449"><ele>184.0</ele><time>2026-05-03T17:34:30.999Z</time></trkpt><trkpt lat="45.905529265674055" lon="11.940210499987945"><ele>184.0</ele><time>2026-05-03T17:34:31.999Z</time></trkpt><trkpt lat="45.90555952756319" lon="11.93996359026681"><ele>183.66666666666669</ele><time>2026-05-03T17:34:32.999Z</time></trkpt><trkpt lat="45.90557333506112" lon="11.939721932391917"><ele>183.33333333333334</ele><time>2026-05-03T17:34:33.999Z</time></trkpt><trkpt lat="45.905579215694935" lon="11.939496759200416"><ele>183.0</ele><time>2026-05-03T17:34:34.999Z</time></trkpt><trkpt lat="45.90559255602183" lon="11.939276633000494"><ele>184.33333333333334</ele><time>2026-05-03T17:34:35.999Z</time></trkpt><trkpt lat="45.905607203437654" lon="11.939054740213233"><ele>185.66666666666669</ele><time>2026-05-03T17:34:36.999Z</time></trkpt><trkpt lat="45.9056437733309" lon="11.93883860718979"><ele>187.0</ele><time>2026-05-03T17:34:37.999Z</time></trkpt><trkpt lat="45.90570985532975" lon="11.938638655660219"><ele>187.0</ele><time>2026-05-03T17:34:38.999Z</time></trkpt><trkpt lat="45.90578959339781" lon="11.938444772648808"><ele>187.0</ele><time>2026-05-03T17:34:39.999Z</time></trkpt><trkpt lat="45.90586640630704" lon="11.938249878166296"><ele>187.0</ele><time>2026-05-03T17:34:40.999Z</time></trkpt><trkpt lat="45.90594261376958" lon="11.938048862346957"><ele>187.0</ele><time>2026-05-03T17:34:41.999Z</time></trkpt><trkpt lat="45.90602067948311" lon="11.93784650988916"><ele>187.0</ele><time>2026-05-03T17:34:42.999Z</time></trkpt><trkpt lat="45.90609323201581" lon="11.937642586122674"><ele>187.0</ele><time>2026-05-03T17:34:43.999Z</time></trkpt><trkpt lat="45.90616138599348" lon="11.937427472515656"><ele>187.0</ele><time>2026-05-03T17:34:44.999Z</time></trkpt><trkpt lat="45.90625253911446" lon="11.937225201619283"><ele>187.0</ele><time>2026-05-03T17:34:45.999Z</time></trkpt><trkpt lat="45.90635002173147" lon="11.937039690955533"><ele>187.0</ele><time>2026-05-03T17:34:46.999Z</time></trkpt><trkpt lat="45.90646150481197" lon="11.936888472725311"><ele>187.0</ele><time>2026-05-03T17:34:47.999Z</time></trkpt><trkpt lat="45.90658457967947" lon="11.936732930926517"><ele>187.0</ele><time>2026-05-03T17:34:48.999Z</time></trkpt><trkpt lat="45.9067076273647" lon="11.936557397556674"><ele>187.0</ele><time>2026-05-03T17:34:49.999Z</time></trkpt><trkpt lat="45.906817691150366" lon="11.936371764255496"><ele>186.5</ele><time>2026-05-03T17:34:50.999Z</time></trkpt><trkpt lat="45.906911131988075" lon="11.936189257284443"><ele>186.0</ele><time>2026-05-03T17:34:51.999Z</time></trkpt><trkpt lat="45.90699669400586" lon="11.936014854715667"><ele>185.5</ele><time>2026-05-03T17:34:52.999Z</time></trkpt><trkpt lat="45.90708053002791" lon="11.935849997286928"><ele>185.0</ele><time>2026-05-03T17:34:53.999Z</time></trkpt><trkpt lat="45.90716271944118" lon="11.935686578069081"><ele>186.25</ele><time>2026-05-03T17:34:54.999Z</time></trkpt><trkpt lat="45.90723263335816" lon="11.935541404283253"><ele>187.5</ele><time>2026-05-03T17:34:55.999Z</time></trkpt><trkpt lat="45.90730374333035" lon="11.935397757633924"><ele>188.75</ele><time>2026-05-03T17:34:56.999Z</time></trkpt><trkpt lat="45.90736619222876" lon="11.935245080911084"><ele>190.0</ele><time>2026-05-03T17:34:57.999Z</time></trkpt><trkpt lat="45.907441710581956" lon="11.935103035455343"><ele>189.75</ele><time>2026-05-03T17:34:58.999Z</time></trkpt><trkpt lat="45.907517242124804" lon="11.93496913572987"><ele>189.5</ele><time>2026-05-03T17:34:59.999Z</time></trkpt><trkpt lat="45.90760347663142" lon="11.934846008281793"><ele>189.25</ele><time>2026-05-03T17:35:00.999Z</time></trkpt><trkpt lat="45.90766384431064" lon="11.934695361070006"><ele>189.0</ele><time>2026-05-03T17:35:01.999Z</time></trkpt><trkpt lat="45.90773093646604" lon="11.934545713372824"><ele>189.0</ele><time>2026-05-03T17:35:02.999Z</time></trkpt><trkpt lat="45.907787067466394" lon="11.934420916650513"><ele>189.0</ele><time>2026-05-03T17:35:03.999Z</time></trkpt><trkpt lat="45.907850361250134" lon="11.934306732601655"><ele>189.0</ele><time>2026-05-03T17:35:04.999Z</time></trkpt><trkpt lat="45.90792497143626" lon="11.934225274695901"><ele>189.0</ele><time>2026-05-03T17:35:05.999Z</time></trkpt><trkpt lat="45.90799050488527" lon="11.934190261191565"><ele>189.0</ele><time>2026-05-03T17:35:06.999Z</time></trkpt><trkpt lat="45.9080678897964" lon="11.934181353657774"><ele>189.0</ele><time>2026-05-03T17:35:08.999Z</time></trkpt><trkpt lat="45.90815118395084" lon="11.934123795769857"><ele>190.0</ele><time>2026-05-03T17:35:13.999Z</time></trkpt><trkpt lat="45.90816729374878" lon="11.933978003481588"><ele>191.0</ele><time>2026-05-03T17:35:14.999Z</time></trkpt><trkpt lat="45.908225303578405" lon="11.933894157506533"><ele>192.0</ele><time>2026-05-03T17:35:15.999Z</time></trkpt><trkpt lat="45.90829918982481" lon="11.933774003045675"><ele>193.0</ele><time>2026-05-03T17:35:16.999Z</time></trkpt><trkpt lat="45.9083760422761" lon="11.933659610395603"><ele>194.0</ele><time>2026-05-03T17:35:17.999Z</time></trkpt><trkpt lat="45.90845184274224" lon="11.93353025606251"><ele>193.75</ele><time>2026-05-03T17:35:18.999Z</time></trkpt><trkpt lat="45.908543572428826" lon="11.933379711868598"><ele>193.5</ele><time>2026-05-03T17:35:19.999Z</time></trkpt><trkpt lat="45.90863568063122" lon="11.93321818635031"><ele>193.25</ele><time>2026-05-03T17:35:20.999Z</time></trkpt><trkpt lat="45.90872493817552" lon="11.933040904864258"><ele>193.0</ele><time>2026-05-03T17:35:21.999Z</time></trkpt><trkpt lat="45.908808708435046" lon="11.932856744049944"><ele>193.0</ele><time>2026-05-03T17:35:22.999Z</time></trkpt><trkpt lat="45.90888790571994" lon="11.932666113334548"><ele>193.0</ele><time>2026-05-03T17:35:23.999Z</time></trkpt><trkpt lat="45.90896690182226" lon="11.932491075393434"><ele>193.0</ele><time>2026-05-03T17:35:25Z</time></trkpt><trkpt lat="45.909053209179014" lon="11.932352784137336"><ele>193.0</ele><time>2026-05-03T17:35:26Z</time></trkpt><trkpt lat="45.909120714868656" lon="11.932220929850683"><ele>193.25</ele><time>2026-05-03T17:35:27Z</time></trkpt><trkpt lat="45.90917183178122" lon="11.932075440404153"><ele>193.5</ele><time>2026-05-03T17:35:28Z</time></trkpt><trkpt lat="45.90915179969535" lon="11.931893096888224"><ele>193.75</ele><time>2026-05-03T17:35:29Z</time></trkpt><trkpt lat="45.90911760927726" lon="11.931693726764719"><ele>194.0</ele><time>2026-05-03T17:35:30Z</time></trkpt><trkpt lat="45.90905359171824" lon="11.9314947110248"><ele>194.0</ele><time>2026-05-03T17:35:31Z</time></trkpt><trkpt lat="45.90899880720845" lon="11.93128177156182"><ele>194.0</ele><time>2026-05-03T17:35:32Z</time></trkpt><trkpt lat="45.9089304895066" lon="11.931081023004692"><ele>194.0</ele><time>2026-05-03T17:35:33Z</time></trkpt><trkpt lat="45.908874247235765" lon="11.930872914879442"><ele>195.0</ele><time>2026-05-03T17:35:34Z</time></trkpt><trkpt lat="45.90882529842443" lon="11.93066263370677"><ele>196.0</ele><time>2026-05-03T17:35:35Z</time></trkpt><trkpt lat="45.908769020293946" lon="11.930454118773634"><ele>197.0</ele><time>2026-05-03T17:35:36Z</time></trkpt><trkpt lat="45.90871287958772" lon="11.93024085266427"><ele>199.0</ele><time>2026-05-03T17:35:37Z</time></trkpt><trkpt lat="45.90865170035566" lon="11.930017129501584"><ele>201.0</ele><time>2026-05-03T17:35:38Z</time></trkpt><trkpt lat="45.90859015263085" lon="11.929787420269442"><ele>203.0</ele><time>2026-05-03T17:35:39Z</time></trkpt><trkpt lat="45.90852423260414" lon="11.929555847054862"><ele>203.0</ele><time>2026-05-03T17:35:40Z</time></trkpt><trkpt lat="45.90847429576457" lon="11.929312563359044"><ele>203.0</ele><time>2026-05-03T17:35:41Z</time></trkpt><trkpt lat="45.90844149069423" lon="11.929078849615719"><ele>203.0</ele><time>2026-05-03T17:35:42Z</time></trkpt><trkpt lat="45.90842677527183" lon="11.928831938314037"><ele>203.66666666666669</ele><time>2026-05-03T17:35:43Z</time></trkpt><trkpt lat="45.90843022911522" lon="11.928569737280474"><ele>204.33333333333331</ele><time>2026-05-03T17:35:44Z</time></trkpt><trkpt lat="45.90842808134504" lon="11.928335522873981"><ele>205.0</ele><time>2026-05-03T17:35:45Z</time></trkpt><trkpt lat="45.90845932823759" lon="11.928082878070628"><ele>206.0</ele><time>2026-05-03T17:35:46Z</time></trkpt><trkpt lat="45.90847897741643" lon="11.927833526455995"><ele>207.0</ele><time>2026-05-03T17:35:47Z</time></trkpt><trkpt lat="45.9085023410806" lon="11.927569161939715"><ele>208.0</ele><time>2026-05-03T17:35:48Z</time></trkpt><trkpt lat="45.908517405655566" lon="11.92732083085457"><ele>212.0</ele><time>2026-05-03T17:35:49Z</time></trkpt><trkpt lat="45.908526351271256" lon="11.927073075059734"><ele>216.0</ele><time>2026-05-03T17:35:50Z</time></trkpt><trkpt lat="45.908527669093964" lon="11.926832855643175"><ele>220.0</ele><time>2026-05-03T17:35:51Z</time></trkpt><trkpt lat="45.90852833150282" lon="11.926585437825109"><ele>222.33333333333331</ele><time>2026-05-03T17:35:52Z</time></trkpt><trkpt lat="45.90853264536849" lon="11.926339835927521"><ele>224.66666666666669</ele><time>2026-05-03T17:35:53Z</time></trkpt><trkpt lat="45.90852606622365" lon="11.926091752169443"><ele>227.0</ele><time>2026-05-03T17:35:54Z</time></trkpt><trkpt lat="45.908526057385195" lon="11.925843846489311"><ele>227.66666666666669</ele><time>2026-05-03T17:35:55Z</time></trkpt><trkpt lat="45.90852577340862" lon="11.925601059060291"><ele>228.33333333333331</ele><time>2026-05-03T17:35:56Z</time></trkpt><trkpt lat="45.90852753384574" lon="11.92536402210441"><ele>229.0</ele><time>2026-05-03T17:35:57Z</time></trkpt><trkpt lat="45.9085304249541" lon="11.92512379017111"><ele>228.66666666666666</ele><time>2026-05-03T17:35:58Z</time></trkpt><trkpt lat="45.90852242454082" lon="11.92488008362936"><ele>228.33333333333331</ele><time>2026-05-03T17:35:59Z</time></trkpt><trkpt lat="45.90851644385792" lon="11.924642423311964"><ele>228.0</ele><time>2026-05-03T17:36:00Z</time></trkpt><trkpt lat="45.908514011629165" lon="11.924409684077887"><ele>228.66666666666669</ele><time>2026-05-03T17:36:01Z</time></trkpt><trkpt lat="45.90851679550988" lon="11.924173324569622"><ele>229.33333333333334</ele><time>2026-05-03T17:36:02Z</time></trkpt><trkpt lat="45.90853313707907" lon="11.92393341117058"><ele>230.0</ele><time>2026-05-03T17:36:03Z</time></trkpt><trkpt lat="45.90856298965496" lon="11.923696850554009"><ele>230.0</ele><time>2026-05-03T17:36:04Z</time></trkpt><trkpt lat="45.9086111130083" lon="11.923461131073251"><ele>230.0</ele><time>2026-05-03T17:36:05Z</time></trkpt><trkpt lat="45.908664305150836" lon="11.923226993091859"><ele>230.0</ele><time>2026-05-03T17:36:06Z</time></trkpt><trkpt lat="45.90872292096214" lon="11.922995597752337"><ele>231.66666666666669</ele><time>2026-05-03T17:36:07Z</time></trkpt><trkpt lat="45.90878404456171" lon="11.92276294502412"><ele>233.33333333333331</ele><time>2026-05-03T17:36:08Z</time></trkpt><trkpt lat="45.90884227207458" lon="11.922528579328302"><ele>235.0</ele><time>2026-05-03T17:36:09Z</time></trkpt><trkpt lat="45.908899525515494" lon="11.922299795345117"><ele>235.0</ele><time>2026-05-03T17:36:10Z</time></trkpt><trkpt lat="45.908964897215775" lon="11.922070793477506"><ele>235.0</ele><time>2026-05-03T17:36:11Z</time></trkpt><trkpt lat="45.9090384115539" lon="11.921848089602557"><ele>235.0</ele><time>2026-05-03T17:36:12Z</time></trkpt><trkpt lat="45.909119172509534" lon="11.921624248953565"><ele>234.33333333333331</ele><time>2026-05-03T17:36:13Z</time></trkpt><trkpt lat="45.90922791055863" lon="11.921409323066397"><ele>233.66666666666669</ele><time>2026-05-03T17:36:14Z</time></trkpt><trkpt lat="45.9093281092913" lon="11.921185653291333"><ele>233.0</ele><time>2026-05-03T17:36:15Z</time></trkpt><trkpt lat="45.909432738255745" lon="11.920958914192697"><ele>235.66666666666669</ele><time>2026-05-03T17:36:16Z</time></trkpt><trkpt lat="45.909528161500354" lon="11.920726199835848"><ele>238.33333333333331</ele><time>2026-05-03T17:36:17Z</time></trkpt><trkpt lat="45.90962862113076" lon="11.920494966149807"><ele>241.0</ele><time>2026-05-03T17:36:18Z</time></trkpt><trkpt lat="45.909728703478244" lon="11.92026058176691"><ele>240.66666666666666</ele><time>2026-05-03T17:36:19Z</time></trkpt><trkpt lat="45.909826680488756" lon="11.920026943674198"><ele>240.33333333333331</ele><time>2026-05-03T17:36:20Z</time></trkpt><trkpt lat="45.90992293121985" lon="11.919785486044136"><ele>240.0</ele><time>2026-05-03T17:36:21Z</time></trkpt><trkpt lat="45.91002358651515" lon="11.919562293532206"><ele>243.66666666666669</ele><time>2026-05-03T17:36:22Z</time></trkpt><trkpt lat="45.910120293921935" lon="11.919333332673391"><ele>247.33333333333334</ele><time>2026-05-03T17:36:23Z</time></trkpt><trkpt lat="45.91020325887514" lon="11.91908631390402"><ele>251.0</ele><time>2026-05-03T17:36:23.999Z</time></trkpt><trkpt lat="45.91028072337902" lon="11.918838255464573"><ele>251.66666666666669</ele><time>2026-05-03T17:36:24.999Z</time></trkpt><trkpt lat="45.91035391894811" lon="11.918581620183383"><ele>252.33333333333331</ele><time>2026-05-03T17:36:25.999Z</time></trkpt><trkpt lat="45.91041497985864" lon="11.918321415396768"><ele>253.0</ele><time>2026-05-03T17:36:26.999Z</time></trkpt><trkpt lat="45.91047511974427" lon="11.918066391564448"><ele>253.0</ele><time>2026-05-03T17:36:27.999Z</time></trkpt><trkpt lat="45.91052608468255" lon="11.917815463421208"><ele>253.0</ele><time>2026-05-03T17:36:28.999Z</time></trkpt><trkpt lat="45.91059722041618" lon="11.917576687313739"><ele>253.0</ele><time>2026-05-03T17:36:29.999Z</time></trkpt><trkpt lat="45.91067353533464" lon="11.91734467027118"><ele>253.0</ele><time>2026-05-03T17:36:30.999Z</time></trkpt><trkpt lat="45.91075586015427" lon="11.91712593412034"><ele>253.0</ele><time>2026-05-03T17:36:31.999Z</time></trkpt><trkpt lat="45.9108568557192" lon="11.916911896275568"><ele>253.0</ele><time>2026-05-03T17:36:32.999Z</time></trkpt><trkpt lat="45.91097478386353" lon="11.916673489001077"><ele>256.66666666666663</ele><time>2026-05-03T17:36:33.999Z</time></trkpt><trkpt lat="45.91107758845237" lon="11.916432997836445"><ele>260.3333333333333</ele><time>2026-05-03T17:36:34.999Z</time></trkpt><trkpt lat="45.911196931001925" lon="11.916199801193397"><ele>264.0</ele><time>2026-05-03T17:36:35.999Z</time></trkpt><trkpt lat="45.91127962168496" lon="11.915943620953284"><ele>264.0</ele><time>2026-05-03T17:36:36.999Z</time></trkpt><trkpt lat="45.91135060718195" lon="11.915716718589302"><ele>264.0</ele><time>2026-05-03T17:36:37.999Z</time></trkpt><trkpt lat="45.91139648234445" lon="11.915504666332732"><ele>264.0</ele><time>2026-05-03T17:36:38.999Z</time></trkpt><trkpt lat="45.9114165901945" lon="11.915312702722849"><ele>264.0</ele><time>2026-05-03T17:36:39.999Z</time></trkpt><trkpt lat="45.91140341751745" lon="11.915139460362127"><ele>264.0</ele><time>2026-05-03T17:36:40.999Z</time></trkpt><trkpt lat="45.91136203310076" lon="11.914983595873611"><ele>264.0</ele><time>2026-05-03T17:36:41.999Z</time></trkpt><trkpt lat="45.9112891665953" lon="11.914847704394456"><ele>264.0</ele><time>2026-05-03T17:36:42.999Z</time></trkpt><trkpt lat="45.911177692126486" lon="11.91474368635826"><ele>263.25</ele><time>2026-05-03T17:36:43.999Z</time></trkpt><trkpt lat="45.91104531025966" lon="11.914652987088207"><ele>262.5</ele><time>2026-05-03T17:36:44.999Z</time></trkpt><trkpt lat="45.91092292633201" lon="11.914562790485876"><ele>261.75</ele><time>2026-05-03T17:36:45.999Z</time></trkpt><trkpt lat="45.91079537030993" lon="11.914498042445132"><ele>261.0</ele><time>2026-05-03T17:36:46.999Z</time></trkpt><trkpt lat="45.91067007053989" lon="11.91445810886632"><ele>260.0</ele><time>2026-05-03T17:36:47.999Z</time></trkpt><trkpt lat="45.91055021784811" lon="11.9144542705465"><ele>259.0</ele><time>2026-05-03T17:36:48.999Z</time></trkpt><trkpt lat="45.91042976764967" lon="11.914453611747973"><ele>258.0</ele><time>2026-05-03T17:36:49.999Z</time></trkpt><trkpt lat="45.91031757473552" lon="11.91445802212044"><ele>257.0</ele><time>2026-05-03T17:36:50.999Z</time></trkpt><trkpt lat="45.91021476338339" lon="11.914480586613537"><ele>257.0</ele><time>2026-05-03T17:36:51.999Z</time></trkpt><trkpt lat="45.91011513696675" lon="11.91445428960671"><ele>257.0</ele><time>2026-05-03T17:36:52.999Z</time></trkpt><trkpt lat="45.90998250869121" lon="11.914451221453927"><ele>257.0</ele><time>2026-05-03T17:36:53.999Z</time></trkpt><trkpt lat="45.90987493822066" lon="11.91443880457667"><ele>257.0</ele><time>2026-05-03T17:36:54.999Z</time></trkpt><trkpt lat="45.90976626633439" lon="11.914427789305584"><ele>258.6</ele><time>2026-05-03T17:36:55.999Z</time></trkpt><trkpt lat="45.90965869695004" lon="11.914401890423887"><ele>260.2</ele><time>2026-05-03T17:36:56.999Z</time></trkpt><trkpt lat="45.90956203082107" lon="11.914345831128784"><ele>261.8</ele><time>2026-05-03T17:36:57.999Z</time></trkpt><trkpt lat="45.90946930961435" lon="11.914300303057548"><ele>263.4</ele><time>2026-05-03T17:36:58.999Z</time></trkpt><trkpt lat="45.909378225874185" lon="11.914249918393311"><ele>265.0</ele><time>2026-05-03T17:36:59.999Z</time></trkpt><trkpt lat="45.90928171489135" lon="11.91419098910086"><ele>266.4</ele><time>2026-05-03T17:37:00.999Z</time></trkpt><trkpt lat="45.909176473269255" lon="11.914131157591253"><ele>267.8</ele><time>2026-05-03T17:37:01.999Z</time></trkpt><trkpt lat="45.90910835292134" lon="11.914049973648275"><ele>269.2</ele><time>2026-05-03T17:37:02.999Z</time></trkpt><trkpt lat="45.90906232104932" lon="11.913907934140846"><ele>270.6</ele><time>2026-05-03T17:37:03.999Z</time></trkpt><trkpt lat="45.90902703707482" lon="11.913751629209484"><ele>272.0</ele><time>2026-05-03T17:37:04.999Z</time></trkpt><trkpt lat="45.90900396242042" lon="11.913607448155181"><ele>272.0</ele><time>2026-05-03T17:37:05.999Z</time></trkpt><trkpt lat="45.90896783294657" lon="11.913480105102886"><ele>272.0</ele><time>2026-05-03T17:37:06.999Z</time></trkpt><trkpt lat="45.90893952109696" lon="11.913333266020167"><ele>272.0</ele><time>2026-05-03T17:37:07.999Z</time></trkpt><trkpt lat="45.90891386765738" lon="11.913193030941859"><ele>272.0</ele><time>2026-05-03T17:37:08.999Z</time></trkpt><trkpt lat="45.908880449739456" lon="11.913052172010298"><ele>272.0</ele><time>2026-05-03T17:37:09.999Z</time></trkpt><trkpt lat="45.908849041091365" lon="11.912881205958653"><ele>272.6</ele><time>2026-05-03T17:37:10.999Z</time></trkpt><trkpt lat="45.90882366332101" lon="11.912734631647762"><ele>273.2</ele><time>2026-05-03T17:37:11.999Z</time></trkpt><trkpt lat="45.908798189823024" lon="11.912596735108613"><ele>273.8</ele><time>2026-05-03T17:37:12.999Z</time></trkpt><trkpt lat="45.908778843048715" lon="11.91244378225473"><ele>274.4</ele><time>2026-05-03T17:37:13.999Z</time></trkpt><trkpt lat="45.90876101785246" lon="11.912299146917208"><ele>275.0</ele><time>2026-05-03T17:37:14.999Z</time></trkpt><trkpt lat="45.908747217853374" lon="11.912151091351395"><ele>275.4</ele><time>2026-05-03T17:37:15.999Z</time></trkpt><trkpt lat="45.90873902204065" lon="11.912014908821885"><ele>275.8</ele><time>2026-05-03T17:37:16.999Z</time></trkpt><trkpt lat="45.90869614029477" lon="11.911874731190428"><ele>276.2</ele><time>2026-05-03T17:37:17.999Z</time></trkpt><trkpt lat="45.90867327471945" lon="11.911721239925575"><ele>276.6</ele><time>2026-05-03T17:37:18.999Z</time></trkpt><trkpt lat="45.90864018059478" lon="11.911586883758833"><ele>277.0</ele><time>2026-05-03T17:37:19.999Z</time></trkpt><trkpt lat="45.90861076685151" lon="11.911432500685105"><ele>277.6</ele><time>2026-05-03T17:37:20.999Z</time></trkpt><trkpt lat="45.90858020455834" lon="11.911278473974749"><ele>278.2</ele><time>2026-05-03T17:37:21.999Z</time></trkpt><trkpt lat="45.90855262411691" lon="11.911126159613481"><ele>278.8</ele><time>2026-05-03T17:37:22.999Z</time></trkpt><trkpt lat="45.90850916586765" lon="11.910983620301131"><ele>279.4</ele><time>2026-05-03T17:37:23.999Z</time></trkpt><trkpt lat="45.90846549002565" lon="11.91084022619128"><ele>280.0</ele><time>2026-05-03T17:37:24.999Z</time></trkpt><trkpt lat="45.90842390255828" lon="11.910696596562907"><ele>282.25</ele><time>2026-05-03T17:37:25.999Z</time></trkpt><trkpt lat="45.90838634073285" lon="11.910547266611124"><ele>284.5</ele><time>2026-05-03T17:37:26.999Z</time></trkpt><trkpt lat="45.90835662931588" lon="11.910381470177727"><ele>286.75</ele><time>2026-05-03T17:37:27.999Z</time></trkpt><trkpt lat="45.90831299830335" lon="11.910228694109556"><ele>289.0</ele><time>2026-05-03T17:37:28.999Z</time></trkpt><trkpt lat="45.90827363932871" lon="11.910082631994024"><ele>289.59999999999997</ele><time>2026-05-03T17:37:29.999Z</time></trkpt><trkpt lat="45.90824085080381" lon="11.909936976441797"><ele>290.2</ele><time>2026-05-03T17:37:31Z</time></trkpt><trkpt lat="45.9082043085092" lon="11.909794772048512"><ele>290.79999999999995</ele><time>2026-05-03T17:37:32Z</time></trkpt><trkpt lat="45.908167699953125" lon="11.909655631507107"><ele>291.4</ele><time>2026-05-03T17:37:33Z</time></trkpt><trkpt lat="45.90813561969421" lon="11.909525574559378"><ele>292.0</ele><time>2026-05-03T17:37:34Z</time></trkpt><trkpt lat="45.90810842321481" lon="11.909394662816144"><ele>292.0</ele><time>2026-05-03T17:37:35Z</time></trkpt><trkpt lat="45.908084779919875" lon="11.909271107528582"><ele>292.0</ele><time>2026-05-03T17:37:36Z</time></trkpt><trkpt lat="45.908062607908974" lon="11.909180232483916"><ele>292.0</ele><time>2026-05-03T17:37:37Z</time></trkpt><trkpt lat="45.90806029567734" lon="11.909087412247839"><ele>292.0</ele><time>2026-05-03T17:37:39Z</time></trkpt><trkpt lat="45.90815969069519" lon="11.909047151020859"><ele>292.0</ele><time>2026-05-03T17:37:40Z</time></trkpt><trkpt lat="45.90827563029748" lon="11.908998332169029"><ele>292.0</ele><time>2026-05-03T17:37:42Z</time></trkpt><trkpt lat="45.90833636646369" lon="11.908971989778221"><ele>291.8333333333333</ele><time>2026-05-03T17:37:43Z</time></trkpt><trkpt lat="45.90840569356382" lon="11.908941921312056"><ele>291.66666666666663</ele><time>2026-05-03T17:37:44Z</time></trkpt><trkpt lat="45.90847461719428" lon="11.908911174980904"><ele>291.5</ele><time>2026-05-03T17:37:45Z</time></trkpt><trkpt lat="45.90855071825263" lon="11.908877216435803"><ele>291.3333333333333</ele><time>2026-05-03T17:37:46Z</time></trkpt><trkpt lat="45.908658047970576" lon="11.908829322715276"><ele>291.1666666666667</ele><time>2026-05-03T17:37:47Z</time></trkpt><trkpt lat="45.90874584969999" lon="11.90879014303565"><ele>291.0</ele><time>2026-05-03T17:37:48Z</time></trkpt><trkpt lat="45.90881048257675" lon="11.908761301950326"><ele>291.0</ele><time>2026-05-03T17:37:49Z</time></trkpt><trkpt lat="45.908875956892935" lon="11.908732085431442"><ele>291.0</ele><time>2026-05-03T17:37:50Z</time></trkpt><trkpt lat="45.90894738872211" lon="11.9087173279474"><ele>291.0</ele><time>2026-05-03T17:37:51Z</time></trkpt><trkpt lat="45.90901799006402" lon="11.90866674737418"><ele>291.0</ele><time>2026-05-03T17:37:52Z</time></trkpt><trkpt lat="45.90907992334659" lon="11.908601449797988"><ele>291.0</ele><time>2026-05-03T17:37:53Z</time></trkpt><trkpt lat="45.90914981174892" lon="11.908557070801914"><ele>291.0</ele><time>2026-05-03T17:37:55Z</time></trkpt><trkpt lat="45.90910634507019" lon="11.908350581367737"><ele>291.6</ele><time>2026-05-03T17:37:56Z</time></trkpt><trkpt lat="45.909087796673695" lon="11.908252389586142"><ele>292.20000000000005</ele><time>2026-05-03T17:37:57Z</time></trkpt><trkpt lat="45.909069062982695" lon="11.908165891382552"><ele>292.79999999999995</ele><time>2026-05-03T17:37:58Z</time></trkpt><trkpt lat="45.90905013074683" lon="11.908078476511529"><ele>293.4</ele><time>2026-05-03T17:38:01Z</time></trkpt><trkpt lat="45.908911853105884" lon="11.907870958599242"><ele>294.0</ele><time>2026-05-03T17:38:28.999Z</time></trkpt><trkpt lat="45.909010595471486" lon="11.907991082995876"><ele>294.0</ele><time>2026-05-03T17:38:48.999Z</time></trkpt><trkpt lat="45.909184111434705" lon="11.907983689425139"><ele>294.0</ele><time>2026-05-03T17:39:55Z</time></trkpt><trkpt lat="45.90918638227129" lon="11.90789069715437"><ele>294.0</ele><time>2026-05-03T17:40:37.999Z</time></trkpt><trkpt lat="45.909050393086375" lon="11.90791019277907"><ele>294.0</ele><time>2026-05-03T17:40:58.999Z</time></trkpt><trkpt lat="45.9091399525925" lon="11.907919539183267"><ele>294.0</ele><time>2026-05-03T17:41:29.999Z</time></trkpt></trkseg></trk></gpx>